<?xml version="1.0" encoding="UTF-8" standalone="no" ?>
<gpx xmlns="http://www.topografix.com/GPX/1/1" xmlns:xsi="http://www.w3.org/2001/XMLSchema-instance" xsi:schemaLocation="http://www.topografix.com/GPX/1/1 http://www.topografix.com/GPX/1/1/gpx.xsd" version="1.1" creator="VisuGPX - https://www.visugpx.com">
  <metadata>
    <name>Cabrières</name>
  </metadata>
  <trk>
    <name><![CDATA[2012-02-05T08:07:21Z]]></name>
    <trkseg>
      <trkpt lat="43.57263" lon="3.36354">
        <ele>111.169556</ele>
        <time>2012-02-05T08:07:21Z</time>
      </trkpt>
      <trkpt lat="43.57263" lon="3.36354">
        <ele>111.169556</ele>
        <time>2012-02-05T08:07:22Z</time>
      </trkpt>
      <trkpt lat="43.57263" lon="3.36354">
        <ele>111.169556</ele>
        <time>2012-02-05T08:07:23Z</time>
      </trkpt>
      <trkpt lat="43.57262" lon="3.36352">
        <ele>111.169556</ele>
        <time>2012-02-05T08:09:11Z</time>
      </trkpt>
      <trkpt lat="43.57263" lon="3.36351">
        <ele>111.650269</ele>
        <time>2012-02-05T08:09:12Z</time>
      </trkpt>
      <trkpt lat="43.57273" lon="3.36349">
        <ele>112.130981</ele>
        <time>2012-02-05T08:09:18Z</time>
      </trkpt>
      <trkpt lat="43.57285" lon="3.36353">
        <ele>111.650269</ele>
        <time>2012-02-05T08:09:26Z</time>
      </trkpt>
      <trkpt lat="43.57296" lon="3.36355">
        <ele>111.169556</ele>
        <time>2012-02-05T08:09:32Z</time>
      </trkpt>
      <trkpt lat="43.57305" lon="3.36356">
        <ele>111.169556</ele>
        <time>2012-02-05T08:09:37Z</time>
      </trkpt>
      <trkpt lat="43.57322" lon="3.3636">
        <ele>111.169556</ele>
        <time>2012-02-05T08:09:46Z</time>
      </trkpt>
      <trkpt lat="43.57338" lon="3.36364">
        <ele>112.130981</ele>
        <time>2012-02-05T08:09:54Z</time>
      </trkpt>
      <trkpt lat="43.57359" lon="3.3637">
        <ele>111.169556</ele>
        <time>2012-02-05T08:10:03Z</time>
      </trkpt>
      <trkpt lat="43.57376" lon="3.36369">
        <ele>111.650269</ele>
        <time>2012-02-05T08:10:10Z</time>
      </trkpt>
      <trkpt lat="43.57393" lon="3.36363">
        <ele>112.130981</ele>
        <time>2012-02-05T08:10:18Z</time>
      </trkpt>
      <trkpt lat="43.57397" lon="3.36363">
        <ele>112.130981</ele>
        <time>2012-02-05T08:10:24Z</time>
      </trkpt>
      <trkpt lat="43.57398" lon="3.36363">
        <ele>111.650269</ele>
        <time>2012-02-05T08:10:25Z</time>
      </trkpt>
      <trkpt lat="43.574" lon="3.36364">
        <ele>112.611572</ele>
        <time>2012-02-05T08:11:07Z</time>
      </trkpt>
      <trkpt lat="43.5741" lon="3.3636">
        <ele>113.092285</ele>
        <time>2012-02-05T08:11:12Z</time>
      </trkpt>
      <trkpt lat="43.5743" lon="3.36356">
        <ele>113.572998</ele>
        <time>2012-02-05T08:11:20Z</time>
      </trkpt>
      <trkpt lat="43.57452" lon="3.36357">
        <ele>113.572998</ele>
        <time>2012-02-05T08:11:28Z</time>
      </trkpt>
      <trkpt lat="43.57473" lon="3.3636">
        <ele>113.572998</ele>
        <time>2012-02-05T08:11:36Z</time>
      </trkpt>
      <trkpt lat="43.57499" lon="3.36364">
        <ele>114.053589</ele>
        <time>2012-02-05T08:11:45Z</time>
      </trkpt>
      <trkpt lat="43.57523" lon="3.36368">
        <ele>115.014893</ele>
        <time>2012-02-05T08:11:53Z</time>
      </trkpt>
      <trkpt lat="43.57547" lon="3.36372">
        <ele>115.976196</ele>
        <time>2012-02-05T08:12:01Z</time>
      </trkpt>
      <trkpt lat="43.57567" lon="3.36376">
        <ele>116.456787</ele>
        <time>2012-02-05T08:12:08Z</time>
      </trkpt>
      <trkpt lat="43.57588" lon="3.36379">
        <ele>115.976196</ele>
        <time>2012-02-05T08:12:15Z</time>
      </trkpt>
      <trkpt lat="43.57611" lon="3.36382">
        <ele>116.9375</ele>
        <time>2012-02-05T08:12:24Z</time>
      </trkpt>
      <trkpt lat="43.57632" lon="3.36385">
        <ele>116.9375</ele>
        <time>2012-02-05T08:12:32Z</time>
      </trkpt>
      <trkpt lat="43.5765" lon="3.36385">
        <ele>117.898804</ele>
        <time>2012-02-05T08:12:40Z</time>
      </trkpt>
      <trkpt lat="43.57661" lon="3.36385">
        <ele>117.898804</ele>
        <time>2012-02-05T08:12:45Z</time>
      </trkpt>
      <trkpt lat="43.57682" lon="3.36388">
        <ele>118.379395</ele>
        <time>2012-02-05T08:12:52Z</time>
      </trkpt>
      <trkpt lat="43.57706" lon="3.36394">
        <ele>119.821411</ele>
        <time>2012-02-05T08:13:00Z</time>
      </trkpt>
      <trkpt lat="43.5773" lon="3.36399">
        <ele>119.821411</ele>
        <time>2012-02-05T08:13:08Z</time>
      </trkpt>
      <trkpt lat="43.57745" lon="3.36401">
        <ele>119.821411</ele>
        <time>2012-02-05T08:13:13Z</time>
      </trkpt>
      <trkpt lat="43.57767" lon="3.36399">
        <ele>119.821411</ele>
        <time>2012-02-05T08:13:20Z</time>
      </trkpt>
      <trkpt lat="43.57798" lon="3.36393">
        <ele>120.302124</ele>
        <time>2012-02-05T08:13:29Z</time>
      </trkpt>
      <trkpt lat="43.5782" lon="3.36389">
        <ele>120.302124</ele>
        <time>2012-02-05T08:13:36Z</time>
      </trkpt>
      <trkpt lat="43.57852" lon="3.36383">
        <ele>120.782837</ele>
        <time>2012-02-05T08:13:46Z</time>
      </trkpt>
      <trkpt lat="43.57883" lon="3.36377">
        <ele>120.782837</ele>
        <time>2012-02-05T08:13:56Z</time>
      </trkpt>
      <trkpt lat="43.57912" lon="3.36372">
        <ele>120.782837</ele>
        <time>2012-02-05T08:14:05Z</time>
      </trkpt>
      <trkpt lat="43.57944" lon="3.36365">
        <ele>120.782837</ele>
        <time>2012-02-05T08:14:15Z</time>
      </trkpt>
      <trkpt lat="43.57978" lon="3.36358">
        <ele>121.26355</ele>
        <time>2012-02-05T08:14:26Z</time>
      </trkpt>
      <trkpt lat="43.58005" lon="3.36352">
        <ele>120.782837</ele>
        <time>2012-02-05T08:14:34Z</time>
      </trkpt>
      <trkpt lat="43.58033" lon="3.36346">
        <ele>121.26355</ele>
        <time>2012-02-05T08:14:43Z</time>
      </trkpt>
      <trkpt lat="43.58056" lon="3.36335">
        <ele>121.744141</ele>
        <time>2012-02-05T08:14:51Z</time>
      </trkpt>
      <trkpt lat="43.58081" lon="3.36322">
        <ele>122.705444</ele>
        <time>2012-02-05T08:15:00Z</time>
      </trkpt>
      <trkpt lat="43.58108" lon="3.36306">
        <ele>123.186157</ele>
        <time>2012-02-05T08:15:10Z</time>
      </trkpt>
      <trkpt lat="43.58133" lon="3.36293">
        <ele>124.628052</ele>
        <time>2012-02-05T08:15:19Z</time>
      </trkpt>
      <trkpt lat="43.58157" lon="3.36279">
        <ele>125.108765</ele>
        <time>2012-02-05T08:15:28Z</time>
      </trkpt>
      <trkpt lat="43.58183" lon="3.36265">
        <ele>126.069946</ele>
        <time>2012-02-05T08:15:37Z</time>
      </trkpt>
      <trkpt lat="43.58212" lon="3.36249">
        <ele>126.069946</ele>
        <time>2012-02-05T08:15:47Z</time>
      </trkpt>
      <trkpt lat="43.58225" lon="3.36242">
        <ele>127.992554</ele>
        <time>2012-02-05T08:15:52Z</time>
      </trkpt>
      <trkpt lat="43.58253" lon="3.36227">
        <ele>127.031372</ele>
        <time>2012-02-05T08:16:02Z</time>
      </trkpt>
      <trkpt lat="43.58282" lon="3.36211">
        <ele>127.992554</ele>
        <time>2012-02-05T08:16:12Z</time>
      </trkpt>
      <trkpt lat="43.58301" lon="3.36202">
        <ele>126.550659</ele>
        <time>2012-02-05T08:16:18Z</time>
      </trkpt>
      <trkpt lat="43.58334" lon="3.36191">
        <ele>126.069946</ele>
        <time>2012-02-05T08:16:27Z</time>
      </trkpt>
      <trkpt lat="43.58367" lon="3.36178">
        <ele>126.069946</ele>
        <time>2012-02-05T08:16:36Z</time>
      </trkpt>
      <trkpt lat="43.58389" lon="3.36156">
        <ele>126.069946</ele>
        <time>2012-02-05T08:16:43Z</time>
      </trkpt>
      <trkpt lat="43.58406" lon="3.3613">
        <ele>126.069946</ele>
        <time>2012-02-05T08:16:50Z</time>
      </trkpt>
      <trkpt lat="43.58427" lon="3.36101">
        <ele>127.031372</ele>
        <time>2012-02-05T08:16:59Z</time>
      </trkpt>
      <trkpt lat="43.58445" lon="3.36078">
        <ele>127.031372</ele>
        <time>2012-02-05T08:17:07Z</time>
      </trkpt>
      <trkpt lat="43.58467" lon="3.36056">
        <ele>127.031372</ele>
        <time>2012-02-05T08:17:15Z</time>
      </trkpt>
      <trkpt lat="43.58498" lon="3.36029">
        <ele>126.550659</ele>
        <time>2012-02-05T08:17:26Z</time>
      </trkpt>
      <trkpt lat="43.58516" lon="3.36012">
        <ele>127.511963</ele>
        <time>2012-02-05T08:17:33Z</time>
      </trkpt>
      <trkpt lat="43.5854" lon="3.35994">
        <ele>129.915283</ele>
        <time>2012-02-05T08:17:43Z</time>
      </trkpt>
      <trkpt lat="43.58564" lon="3.35977">
        <ele>130.395996</ele>
        <time>2012-02-05T08:17:52Z</time>
      </trkpt>
      <trkpt lat="43.58587" lon="3.35962">
        <ele>130.876709</ele>
        <time>2012-02-05T08:18:01Z</time>
      </trkpt>
      <trkpt lat="43.58605" lon="3.35956">
        <ele>130.876709</ele>
        <time>2012-02-05T08:18:08Z</time>
      </trkpt>
      <trkpt lat="43.58629" lon="3.35947">
        <ele>130.876709</ele>
        <time>2012-02-05T08:18:16Z</time>
      </trkpt>
      <trkpt lat="43.58656" lon="3.35931">
        <ele>130.876709</ele>
        <time>2012-02-05T08:18:25Z</time>
      </trkpt>
      <trkpt lat="43.58681" lon="3.35911">
        <ele>131.3573</ele>
        <time>2012-02-05T08:18:35Z</time>
      </trkpt>
      <trkpt lat="43.58703" lon="3.35894">
        <ele>131.837891</ele>
        <time>2012-02-05T08:18:44Z</time>
      </trkpt>
      <trkpt lat="43.58721" lon="3.3588">
        <ele>132.318603</ele>
        <time>2012-02-05T08:18:52Z</time>
      </trkpt>
      <trkpt lat="43.58742" lon="3.3586">
        <ele>133.279907</ele>
        <time>2012-02-05T08:19:02Z</time>
      </trkpt>
      <trkpt lat="43.58755" lon="3.35844">
        <ele>131.3573</ele>
        <time>2012-02-05T08:19:09Z</time>
      </trkpt>
      <trkpt lat="43.5877" lon="3.35827">
        <ele>131.3573</ele>
        <time>2012-02-05T08:19:16Z</time>
      </trkpt>
      <trkpt lat="43.58786" lon="3.35808">
        <ele>131.3573</ele>
        <time>2012-02-05T08:19:22Z</time>
      </trkpt>
      <trkpt lat="43.58816" lon="3.35776">
        <ele>130.395996</ele>
        <time>2012-02-05T08:19:31Z</time>
      </trkpt>
      <trkpt lat="43.58838" lon="3.35746">
        <ele>131.3573</ele>
        <time>2012-02-05T08:19:40Z</time>
      </trkpt>
      <trkpt lat="43.58856" lon="3.3572">
        <ele>131.3573</ele>
        <time>2012-02-05T08:19:48Z</time>
      </trkpt>
      <trkpt lat="43.58869" lon="3.35698">
        <ele>132.318603</ele>
        <time>2012-02-05T08:19:55Z</time>
      </trkpt>
      <trkpt lat="43.5888" lon="3.35676">
        <ele>131.837891</ele>
        <time>2012-02-05T08:20:02Z</time>
      </trkpt>
      <trkpt lat="43.58883" lon="3.35668">
        <ele>132.799316</ele>
        <time>2012-02-05T08:20:06Z</time>
      </trkpt>
      <trkpt lat="43.58883" lon="3.35668">
        <ele>132.799316</ele>
        <time>2012-02-05T08:20:07Z</time>
      </trkpt>
      <trkpt lat="43.58885" lon="3.35666">
        <ele>132.799316</ele>
        <time>2012-02-05T08:20:25Z</time>
      </trkpt>
      <trkpt lat="43.58885" lon="3.35664">
        <ele>134.241211</ele>
        <time>2012-02-05T08:20:27Z</time>
      </trkpt>
      <trkpt lat="43.58885" lon="3.35665">
        <ele>133.760498</ele>
        <time>2012-02-05T08:20:38Z</time>
      </trkpt>
      <trkpt lat="43.58885" lon="3.35664">
        <ele>132.799316</ele>
        <time>2012-02-05T08:20:39Z</time>
      </trkpt>
      <trkpt lat="43.58885" lon="3.35663">
        <ele>133.279907</ele>
        <time>2012-02-05T08:20:40Z</time>
      </trkpt>
      <trkpt lat="43.58889" lon="3.35649">
        <ele>133.279907</ele>
        <time>2012-02-05T08:20:44Z</time>
      </trkpt>
      <trkpt lat="43.58904" lon="3.35609">
        <ele>135.683106</ele>
        <time>2012-02-05T08:20:51Z</time>
      </trkpt>
      <trkpt lat="43.58918" lon="3.35572">
        <ele>136.644653</ele>
        <time>2012-02-05T08:20:58Z</time>
      </trkpt>
      <trkpt lat="43.58933" lon="3.35539">
        <ele>138.086548</ele>
        <time>2012-02-05T08:21:04Z</time>
      </trkpt>
      <trkpt lat="43.58938" lon="3.35529">
        <ele>137.605835</ele>
        <time>2012-02-05T08:21:06Z</time>
      </trkpt>
      <trkpt lat="43.58954" lon="3.35491">
        <ele>138.567261</ele>
        <time>2012-02-05T08:21:13Z</time>
      </trkpt>
      <trkpt lat="43.5898" lon="3.35447">
        <ele>138.567261</ele>
        <time>2012-02-05T08:21:21Z</time>
      </trkpt>
      <trkpt lat="43.59011" lon="3.35396">
        <ele>139.047852</ele>
        <time>2012-02-05T08:21:31Z</time>
      </trkpt>
      <trkpt lat="43.59025" lon="3.35374">
        <ele>140.009155</ele>
        <time>2012-02-05T08:21:37Z</time>
      </trkpt>
      <trkpt lat="43.5904" lon="3.3535">
        <ele>139.528442</ele>
        <time>2012-02-05T08:21:45Z</time>
      </trkpt>
      <trkpt lat="43.59053" lon="3.35324">
        <ele>140.970459</ele>
        <time>2012-02-05T08:21:53Z</time>
      </trkpt>
      <trkpt lat="43.59068" lon="3.35305">
        <ele>141.45105</ele>
        <time>2012-02-05T08:22:00Z</time>
      </trkpt>
      <trkpt lat="43.59087" lon="3.35286">
        <ele>142.893066</ele>
        <time>2012-02-05T08:22:08Z</time>
      </trkpt>
      <trkpt lat="43.591" lon="3.35267">
        <ele>141.931763</ele>
        <time>2012-02-05T08:22:14Z</time>
      </trkpt>
      <trkpt lat="43.59114" lon="3.35237">
        <ele>142.412476</ele>
        <time>2012-02-05T08:22:22Z</time>
      </trkpt>
      <trkpt lat="43.59122" lon="3.35207">
        <ele>143.373657</ele>
        <time>2012-02-05T08:22:29Z</time>
      </trkpt>
      <trkpt lat="43.59126" lon="3.35173">
        <ele>143.85437</ele>
        <time>2012-02-05T08:22:37Z</time>
      </trkpt>
      <trkpt lat="43.59123" lon="3.35139">
        <ele>144.335205</ele>
        <time>2012-02-05T08:22:45Z</time>
      </trkpt>
      <trkpt lat="43.59114" lon="3.35115">
        <ele>145.7771</ele>
        <time>2012-02-05T08:22:52Z</time>
      </trkpt>
      <trkpt lat="43.59102" lon="3.35097">
        <ele>147.218994</ele>
        <time>2012-02-05T08:22:58Z</time>
      </trkpt>
      <trkpt lat="43.59096" lon="3.35071">
        <ele>147.218994</ele>
        <time>2012-02-05T08:23:05Z</time>
      </trkpt>
      <trkpt lat="43.5909" lon="3.35046">
        <ele>147.699707</ele>
        <time>2012-02-05T08:23:12Z</time>
      </trkpt>
      <trkpt lat="43.59084" lon="3.35023">
        <ele>148.18042</ele>
        <time>2012-02-05T08:23:19Z</time>
      </trkpt>
      <trkpt lat="43.59074" lon="3.35021">
        <ele>148.18042</ele>
        <time>2012-02-05T08:23:24Z</time>
      </trkpt>
      <trkpt lat="43.59072" lon="3.35022">
        <ele>148.661011</ele>
        <time>2012-02-05T08:23:25Z</time>
      </trkpt>
      <trkpt lat="43.59048" lon="3.35029">
        <ele>148.661011</ele>
        <time>2012-02-05T08:23:34Z</time>
      </trkpt>
      <trkpt lat="43.59034" lon="3.35034">
        <ele>148.18042</ele>
        <time>2012-02-05T08:23:39Z</time>
      </trkpt>
      <trkpt lat="43.59022" lon="3.35018">
        <ele>147.699707</ele>
        <time>2012-02-05T08:23:45Z</time>
      </trkpt>
      <trkpt lat="43.59014" lon="3.34988">
        <ele>148.661011</ele>
        <time>2012-02-05T08:23:54Z</time>
      </trkpt>
      <trkpt lat="43.59003" lon="3.34966">
        <ele>149.141602</ele>
        <time>2012-02-05T08:24:01Z</time>
      </trkpt>
      <trkpt lat="43.58995" lon="3.34958">
        <ele>150.103027</ele>
        <time>2012-02-05T08:24:05Z</time>
      </trkpt>
      <trkpt lat="43.58989" lon="3.34968">
        <ele>150.103027</ele>
        <time>2012-02-05T08:24:10Z</time>
      </trkpt>
      <trkpt lat="43.58986" lon="3.34988">
        <ele>151.544922</ele>
        <time>2012-02-05T08:24:17Z</time>
      </trkpt>
      <trkpt lat="43.58983" lon="3.35008">
        <ele>154.428955</ele>
        <time>2012-02-05T08:24:25Z</time>
      </trkpt>
      <trkpt lat="43.58982" lon="3.35025">
        <ele>156.832153</ele>
        <time>2012-02-05T08:24:32Z</time>
      </trkpt>
      <trkpt lat="43.58982" lon="3.35045">
        <ele>158.27417</ele>
        <time>2012-02-05T08:24:40Z</time>
      </trkpt>
      <trkpt lat="43.58984" lon="3.35072">
        <ele>161.158203</ele>
        <time>2012-02-05T08:24:51Z</time>
      </trkpt>
      <trkpt lat="43.58986" lon="3.35095">
        <ele>164.042114</ele>
        <time>2012-02-05T08:25:01Z</time>
      </trkpt>
      <trkpt lat="43.58988" lon="3.35113">
        <ele>165.964722</ele>
        <time>2012-02-05T08:25:09Z</time>
      </trkpt>
      <trkpt lat="43.5899" lon="3.35129">
        <ele>168.848755</ele>
        <time>2012-02-05T08:25:16Z</time>
      </trkpt>
      <trkpt lat="43.58991" lon="3.35148">
        <ele>171.252075</ele>
        <time>2012-02-05T08:25:24Z</time>
      </trkpt>
      <trkpt lat="43.58988" lon="3.3516">
        <ele>172.213257</ele>
        <time>2012-02-05T08:25:30Z</time>
      </trkpt>
      <trkpt lat="43.58979" lon="3.35163">
        <ele>173.174683</ele>
        <time>2012-02-05T08:25:36Z</time>
      </trkpt>
      <trkpt lat="43.58969" lon="3.35165">
        <ele>174.616577</ele>
        <time>2012-02-05T08:25:42Z</time>
      </trkpt>
      <trkpt lat="43.58963" lon="3.35168">
        <ele>176.058594</ele>
        <time>2012-02-05T08:25:46Z</time>
      </trkpt>
      <trkpt lat="43.58953" lon="3.35185">
        <ele>177.50061</ele>
        <time>2012-02-05T08:25:56Z</time>
      </trkpt>
      <trkpt lat="43.58946" lon="3.35203">
        <ele>177.981201</ele>
        <time>2012-02-05T08:26:04Z</time>
      </trkpt>
      <trkpt lat="43.58939" lon="3.3522">
        <ele>178.942627</ele>
        <time>2012-02-05T08:26:11Z</time>
      </trkpt>
      <trkpt lat="43.58931" lon="3.35242">
        <ele>178.942627</ele>
        <time>2012-02-05T08:26:19Z</time>
      </trkpt>
      <trkpt lat="43.58919" lon="3.35265">
        <ele>178.942627</ele>
        <time>2012-02-05T08:26:27Z</time>
      </trkpt>
      <trkpt lat="43.58904" lon="3.35278">
        <ele>180.384522</ele>
        <time>2012-02-05T08:26:34Z</time>
      </trkpt>
      <trkpt lat="43.58886" lon="3.3529">
        <ele>180.384522</ele>
        <time>2012-02-05T08:26:42Z</time>
      </trkpt>
      <trkpt lat="43.58868" lon="3.35302">
        <ele>180.865234</ele>
        <time>2012-02-05T08:26:49Z</time>
      </trkpt>
      <trkpt lat="43.58849" lon="3.35307">
        <ele>180.865234</ele>
        <time>2012-02-05T08:26:56Z</time>
      </trkpt>
      <trkpt lat="43.58825" lon="3.35313">
        <ele>180.865234</ele>
        <time>2012-02-05T08:27:04Z</time>
      </trkpt>
      <trkpt lat="43.58819" lon="3.35318">
        <ele>180.865234</ele>
        <time>2012-02-05T08:27:06Z</time>
      </trkpt>
      <trkpt lat="43.58794" lon="3.35341">
        <ele>179.903809</ele>
        <time>2012-02-05T08:27:13Z</time>
      </trkpt>
      <trkpt lat="43.58778" lon="3.35371">
        <ele>180.384522</ele>
        <time>2012-02-05T08:27:20Z</time>
      </trkpt>
      <trkpt lat="43.58762" lon="3.35412">
        <ele>180.865234</ele>
        <time>2012-02-05T08:27:29Z</time>
      </trkpt>
      <trkpt lat="43.58757" lon="3.35427">
        <ele>180.865234</ele>
        <time>2012-02-05T08:27:32Z</time>
      </trkpt>
      <trkpt lat="43.58756" lon="3.35438">
        <ele>180.384522</ele>
        <time>2012-02-05T08:27:34Z</time>
      </trkpt>
      <trkpt lat="43.58747" lon="3.35456">
        <ele>180.384522</ele>
        <time>2012-02-05T08:27:38Z</time>
      </trkpt>
      <trkpt lat="43.5872" lon="3.35478">
        <ele>179.903809</ele>
        <time>2012-02-05T08:27:46Z</time>
      </trkpt>
      <trkpt lat="43.58702" lon="3.35498">
        <ele>179.903809</ele>
        <time>2012-02-05T08:27:52Z</time>
      </trkpt>
      <trkpt lat="43.58698" lon="3.35507">
        <ele>179.903809</ele>
        <time>2012-02-05T08:27:54Z</time>
      </trkpt>
      <trkpt lat="43.58681" lon="3.35555">
        <ele>179.903809</ele>
        <time>2012-02-05T08:28:03Z</time>
      </trkpt>
      <trkpt lat="43.58656" lon="3.35589">
        <ele>180.384522</ele>
        <time>2012-02-05T08:28:12Z</time>
      </trkpt>
      <trkpt lat="43.58642" lon="3.35605">
        <ele>180.384522</ele>
        <time>2012-02-05T08:28:17Z</time>
      </trkpt>
      <trkpt lat="43.58611" lon="3.3562">
        <ele>179.423218</ele>
        <time>2012-02-05T08:28:25Z</time>
      </trkpt>
      <trkpt lat="43.58576" lon="3.3564">
        <ele>178.942627</ele>
        <time>2012-02-05T08:28:34Z</time>
      </trkpt>
      <trkpt lat="43.58554" lon="3.3565">
        <ele>179.423218</ele>
        <time>2012-02-05T08:28:40Z</time>
      </trkpt>
      <trkpt lat="43.58551" lon="3.35651">
        <ele>178.942627</ele>
        <time>2012-02-05T08:28:41Z</time>
      </trkpt>
      <trkpt lat="43.58524" lon="3.35659">
        <ele>178.461914</ele>
        <time>2012-02-05T08:28:48Z</time>
      </trkpt>
      <trkpt lat="43.58495" lon="3.3567">
        <ele>177.981201</ele>
        <time>2012-02-05T08:28:56Z</time>
      </trkpt>
      <trkpt lat="43.58469" lon="3.35689">
        <ele>177.981201</ele>
        <time>2012-02-05T08:29:04Z</time>
      </trkpt>
      <trkpt lat="43.58441" lon="3.35708">
        <ele>178.942627</ele>
        <time>2012-02-05T08:29:13Z</time>
      </trkpt>
      <trkpt lat="43.58418" lon="3.35725">
        <ele>179.903809</ele>
        <time>2012-02-05T08:29:21Z</time>
      </trkpt>
      <trkpt lat="43.58396" lon="3.35741">
        <ele>180.384522</ele>
        <time>2012-02-05T08:29:29Z</time>
      </trkpt>
      <trkpt lat="43.58379" lon="3.35754">
        <ele>180.865234</ele>
        <time>2012-02-05T08:29:35Z</time>
      </trkpt>
      <trkpt lat="43.5836" lon="3.35775">
        <ele>181.345825</ele>
        <time>2012-02-05T08:29:42Z</time>
      </trkpt>
      <trkpt lat="43.58345" lon="3.35793">
        <ele>181.345825</ele>
        <time>2012-02-05T08:29:48Z</time>
      </trkpt>
      <trkpt lat="43.58325" lon="3.35813">
        <ele>181.826416</ele>
        <time>2012-02-05T08:29:55Z</time>
      </trkpt>
      <trkpt lat="43.58304" lon="3.3583">
        <ele>181.345825</ele>
        <time>2012-02-05T08:30:02Z</time>
      </trkpt>
      <trkpt lat="43.58288" lon="3.35838">
        <ele>180.384522</ele>
        <time>2012-02-05T08:30:07Z</time>
      </trkpt>
      <trkpt lat="43.58263" lon="3.35853">
        <ele>180.384522</ele>
        <time>2012-02-05T08:30:13Z</time>
      </trkpt>
      <trkpt lat="43.58234" lon="3.35869">
        <ele>178.942627</ele>
        <time>2012-02-05T08:30:20Z</time>
      </trkpt>
      <trkpt lat="43.58215" lon="3.35883">
        <ele>180.384522</ele>
        <time>2012-02-05T08:30:26Z</time>
      </trkpt>
      <trkpt lat="43.58206" lon="3.35878">
        <ele>180.865234</ele>
        <time>2012-02-05T08:30:30Z</time>
      </trkpt>
      <trkpt lat="43.58208" lon="3.35869">
        <ele>181.345825</ele>
        <time>2012-02-05T08:30:33Z</time>
      </trkpt>
      <trkpt lat="43.58222" lon="3.35836">
        <ele>184.710571</ele>
        <time>2012-02-05T08:30:46Z</time>
      </trkpt>
      <trkpt lat="43.58226" lon="3.35826">
        <ele>186.152466</ele>
        <time>2012-02-05T08:30:50Z</time>
      </trkpt>
      <trkpt lat="43.58235" lon="3.35803">
        <ele>189.516968</ele>
        <time>2012-02-05T08:31:00Z</time>
      </trkpt>
      <trkpt lat="43.5824" lon="3.3579">
        <ele>190.958984</ele>
        <time>2012-02-05T08:31:06Z</time>
      </trkpt>
      <trkpt lat="43.58247" lon="3.35768">
        <ele>194.323731</ele>
        <time>2012-02-05T08:31:16Z</time>
      </trkpt>
      <trkpt lat="43.58255" lon="3.35747">
        <ele>196.246338</ele>
        <time>2012-02-05T08:31:26Z</time>
      </trkpt>
      <trkpt lat="43.5826" lon="3.3573">
        <ele>200.091675</ele>
        <time>2012-02-05T08:31:34Z</time>
      </trkpt>
      <trkpt lat="43.58261" lon="3.35727">
        <ele>200.091675</ele>
        <time>2012-02-05T08:31:35Z</time>
      </trkpt>
      <trkpt lat="43.58267" lon="3.35705">
        <ele>202.975464</ele>
        <time>2012-02-05T08:31:45Z</time>
      </trkpt>
      <trkpt lat="43.58273" lon="3.35685">
        <ele>205.378784</ele>
        <time>2012-02-05T08:31:54Z</time>
      </trkpt>
      <trkpt lat="43.58279" lon="3.35664">
        <ele>207.301392</ele>
        <time>2012-02-05T08:32:03Z</time>
      </trkpt>
      <trkpt lat="43.58282" lon="3.35643">
        <ele>208.262817</ele>
        <time>2012-02-05T08:32:12Z</time>
      </trkpt>
      <trkpt lat="43.58286" lon="3.35627">
        <ele>208.743408</ele>
        <time>2012-02-05T08:32:20Z</time>
      </trkpt>
      <trkpt lat="43.58298" lon="3.35608">
        <ele>211.146728</ele>
        <time>2012-02-05T08:32:31Z</time>
      </trkpt>
      <trkpt lat="43.58306" lon="3.35592">
        <ele>211.627441</ele>
        <time>2012-02-05T08:32:39Z</time>
      </trkpt>
      <trkpt lat="43.5831" lon="3.35574">
        <ele>212.108032</ele>
        <time>2012-02-05T08:32:47Z</time>
      </trkpt>
      <trkpt lat="43.58314" lon="3.35554">
        <ele>212.108032</ele>
        <time>2012-02-05T08:32:55Z</time>
      </trkpt>
      <trkpt lat="43.58318" lon="3.35533">
        <ele>213.550049</ele>
        <time>2012-02-05T08:33:04Z</time>
      </trkpt>
      <trkpt lat="43.58321" lon="3.35514">
        <ele>214.511231</ele>
        <time>2012-02-05T08:33:12Z</time>
      </trkpt>
      <trkpt lat="43.58322" lon="3.35496">
        <ele>214.991943</ele>
        <time>2012-02-05T08:33:19Z</time>
      </trkpt>
      <trkpt lat="43.58323" lon="3.35479">
        <ele>216.43396</ele>
        <time>2012-02-05T08:33:26Z</time>
      </trkpt>
      <trkpt lat="43.58324" lon="3.35457">
        <ele>218.356567</ele>
        <time>2012-02-05T08:33:36Z</time>
      </trkpt>
      <trkpt lat="43.58325" lon="3.35436">
        <ele>219.798584</ele>
        <time>2012-02-05T08:33:44Z</time>
      </trkpt>
      <trkpt lat="43.58325" lon="3.35418">
        <ele>220.759888</ele>
        <time>2012-02-05T08:33:52Z</time>
      </trkpt>
      <trkpt lat="43.58326" lon="3.35399">
        <ele>221.240601</ele>
        <time>2012-02-05T08:34:00Z</time>
      </trkpt>
      <trkpt lat="43.58326" lon="3.35374">
        <ele>222.682495</ele>
        <time>2012-02-05T08:34:10Z</time>
      </trkpt>
      <trkpt lat="43.58327" lon="3.35351">
        <ele>223.643799</ele>
        <time>2012-02-05T08:34:19Z</time>
      </trkpt>
      <trkpt lat="43.58332" lon="3.35329">
        <ele>225.085938</ele>
        <time>2012-02-05T08:34:28Z</time>
      </trkpt>
      <trkpt lat="43.58335" lon="3.35308">
        <ele>226.047119</ele>
        <time>2012-02-05T08:34:37Z</time>
      </trkpt>
      <trkpt lat="43.58333" lon="3.35293">
        <ele>227.489136</ele>
        <time>2012-02-05T08:34:45Z</time>
      </trkpt>
      <trkpt lat="43.58328" lon="3.35278">
        <ele>228.450439</ele>
        <time>2012-02-05T08:34:53Z</time>
      </trkpt>
      <trkpt lat="43.58331" lon="3.35265">
        <ele>231.334351</ele>
        <time>2012-02-05T08:35:01Z</time>
      </trkpt>
      <trkpt lat="43.58332" lon="3.3526">
        <ele>233.25708</ele>
        <time>2012-02-05T08:35:05Z</time>
      </trkpt>
      <trkpt lat="43.58331" lon="3.35257">
        <ele>234.218384</ele>
        <time>2012-02-05T08:35:07Z</time>
      </trkpt>
      <trkpt lat="43.5833" lon="3.35251">
        <ele>235.179688</ele>
        <time>2012-02-05T08:35:10Z</time>
      </trkpt>
      <trkpt lat="43.5833" lon="3.35233">
        <ele>237.102295</ele>
        <time>2012-02-05T08:35:19Z</time>
      </trkpt>
      <trkpt lat="43.5833" lon="3.35221">
        <ele>239.505493</ele>
        <time>2012-02-05T08:35:25Z</time>
      </trkpt>
      <trkpt lat="43.58328" lon="3.35213">
        <ele>241.908936</ele>
        <time>2012-02-05T08:35:30Z</time>
      </trkpt>
      <trkpt lat="43.58323" lon="3.35206">
        <ele>243.831543</ele>
        <time>2012-02-05T08:35:35Z</time>
      </trkpt>
      <trkpt lat="43.58318" lon="3.35201">
        <ele>246.234863</ele>
        <time>2012-02-05T08:35:39Z</time>
      </trkpt>
      <trkpt lat="43.58316" lon="3.35197">
        <ele>246.715454</ele>
        <time>2012-02-05T08:35:41Z</time>
      </trkpt>
      <trkpt lat="43.58315" lon="3.3519">
        <ele>247.676758</ele>
        <time>2012-02-05T08:35:45Z</time>
      </trkpt>
      <trkpt lat="43.58315" lon="3.35188">
        <ele>248.157593</ele>
        <time>2012-02-05T08:35:46Z</time>
      </trkpt>
      <trkpt lat="43.58315" lon="3.35184">
        <ele>248.157593</ele>
        <time>2012-02-05T08:35:48Z</time>
      </trkpt>
      <trkpt lat="43.58316" lon="3.35177">
        <ele>250.0802</ele>
        <time>2012-02-05T08:35:52Z</time>
      </trkpt>
      <trkpt lat="43.58314" lon="3.35167">
        <ele>251.522095</ele>
        <time>2012-02-05T08:35:59Z</time>
      </trkpt>
      <trkpt lat="43.5831" lon="3.35154">
        <ele>254.406006</ele>
        <time>2012-02-05T08:36:08Z</time>
      </trkpt>
      <trkpt lat="43.58308" lon="3.35138">
        <ele>256.328735</ele>
        <time>2012-02-05T08:36:16Z</time>
      </trkpt>
      <trkpt lat="43.58305" lon="3.3512">
        <ele>257.770752</ele>
        <time>2012-02-05T08:36:25Z</time>
      </trkpt>
      <trkpt lat="43.58302" lon="3.3511">
        <ele>259.212647</ele>
        <time>2012-02-05T08:36:30Z</time>
      </trkpt>
      <trkpt lat="43.58294" lon="3.35093">
        <ele>259.693359</ele>
        <time>2012-02-05T08:36:39Z</time>
      </trkpt>
      <trkpt lat="43.58298" lon="3.3508">
        <ele>260.654541</ele>
        <time>2012-02-05T08:36:46Z</time>
      </trkpt>
      <trkpt lat="43.58302" lon="3.35069">
        <ele>263.057861</ele>
        <time>2012-02-05T08:36:52Z</time>
      </trkpt>
      <trkpt lat="43.58304" lon="3.35055">
        <ele>264.499878</ele>
        <time>2012-02-05T08:37:00Z</time>
      </trkpt>
      <trkpt lat="43.58305" lon="3.35036">
        <ele>266.422485</ele>
        <time>2012-02-05T08:37:10Z</time>
      </trkpt>
      <trkpt lat="43.58305" lon="3.35028">
        <ele>266.903198</ele>
        <time>2012-02-05T08:37:14Z</time>
      </trkpt>
      <trkpt lat="43.58309" lon="3.35024">
        <ele>267.383911</ele>
        <time>2012-02-05T08:37:18Z</time>
      </trkpt>
      <trkpt lat="43.5832" lon="3.35015">
        <ele>268.825806</ele>
        <time>2012-02-05T08:37:26Z</time>
      </trkpt>
      <trkpt lat="43.5833" lon="3.35003">
        <ele>269.787109</ele>
        <time>2012-02-05T08:37:34Z</time>
      </trkpt>
      <trkpt lat="43.58337" lon="3.34994">
        <ele>270.2677</ele>
        <time>2012-02-05T08:37:40Z</time>
      </trkpt>
      <trkpt lat="43.58347" lon="3.34981">
        <ele>270.748413</ele>
        <time>2012-02-05T08:37:48Z</time>
      </trkpt>
      <trkpt lat="43.58351" lon="3.34969">
        <ele>271.709717</ele>
        <time>2012-02-05T08:37:54Z</time>
      </trkpt>
      <trkpt lat="43.58358" lon="3.34956">
        <ele>275.074463</ele>
        <time>2012-02-05T08:38:01Z</time>
      </trkpt>
      <trkpt lat="43.58359" lon="3.34955">
        <ele>275.074463</ele>
        <time>2012-02-05T08:38:02Z</time>
      </trkpt>
      <trkpt lat="43.58363" lon="3.34943">
        <ele>276.035644</ele>
        <time>2012-02-05T08:38:08Z</time>
      </trkpt>
      <trkpt lat="43.58369" lon="3.34928">
        <ele>278.919678</ele>
        <time>2012-02-05T08:38:17Z</time>
      </trkpt>
      <trkpt lat="43.5837" lon="3.34924">
        <ele>278.919678</ele>
        <time>2012-02-05T08:38:19Z</time>
      </trkpt>
      <trkpt lat="43.58375" lon="3.3491">
        <ele>281.803589</ele>
        <time>2012-02-05T08:38:27Z</time>
      </trkpt>
      <trkpt lat="43.58376" lon="3.34904">
        <ele>283.245606</ele>
        <time>2012-02-05T08:38:30Z</time>
      </trkpt>
      <trkpt lat="43.58379" lon="3.34894">
        <ele>283.726196</ele>
        <time>2012-02-05T08:38:37Z</time>
      </trkpt>
      <trkpt lat="43.58381" lon="3.34881">
        <ele>285.648804</ele>
        <time>2012-02-05T08:38:44Z</time>
      </trkpt>
      <trkpt lat="43.58384" lon="3.34866">
        <ele>288.532959</ele>
        <time>2012-02-05T08:38:52Z</time>
      </trkpt>
      <trkpt lat="43.58384" lon="3.3486">
        <ele>289.974853</ele>
        <time>2012-02-05T08:38:55Z</time>
      </trkpt>
      <trkpt lat="43.58384" lon="3.34843">
        <ele>291.416748</ele>
        <time>2012-02-05T08:39:03Z</time>
      </trkpt>
      <trkpt lat="43.58384" lon="3.34833">
        <ele>293.339356</ele>
        <time>2012-02-05T08:39:08Z</time>
      </trkpt>
      <trkpt lat="43.58384" lon="3.3482">
        <ele>295.261963</ele>
        <time>2012-02-05T08:39:15Z</time>
      </trkpt>
      <trkpt lat="43.58383" lon="3.34806">
        <ele>295.742676</ele>
        <time>2012-02-05T08:39:21Z</time>
      </trkpt>
      <trkpt lat="43.58382" lon="3.34796">
        <ele>297.665405</ele>
        <time>2012-02-05T08:39:27Z</time>
      </trkpt>
      <trkpt lat="43.58376" lon="3.34783">
        <ele>299.1073</ele>
        <time>2012-02-05T08:39:35Z</time>
      </trkpt>
      <trkpt lat="43.58371" lon="3.34772">
        <ele>301.029907</ele>
        <time>2012-02-05T08:39:42Z</time>
      </trkpt>
      <trkpt lat="43.58365" lon="3.34761">
        <ele>301.991333</ele>
        <time>2012-02-05T08:39:48Z</time>
      </trkpt>
      <trkpt lat="43.58359" lon="3.34746">
        <ele>302.952515</ele>
        <time>2012-02-05T08:39:56Z</time>
      </trkpt>
      <trkpt lat="43.58357" lon="3.34741">
        <ele>303.433227</ele>
        <time>2012-02-05T08:39:59Z</time>
      </trkpt>
      <trkpt lat="43.58356" lon="3.34738">
        <ele>303.91394</ele>
        <time>2012-02-05T08:40:02Z</time>
      </trkpt>
      <trkpt lat="43.58356" lon="3.34737">
        <ele>303.433227</ele>
        <time>2012-02-05T08:40:06Z</time>
      </trkpt>
      <trkpt lat="43.58356" lon="3.34735">
        <ele>303.433227</ele>
        <time>2012-02-05T08:40:07Z</time>
      </trkpt>
      <trkpt lat="43.58352" lon="3.34719">
        <ele>303.91394</ele>
        <time>2012-02-05T08:40:14Z</time>
      </trkpt>
      <trkpt lat="43.5835" lon="3.34696">
        <ele>304.394653</ele>
        <time>2012-02-05T08:40:22Z</time>
      </trkpt>
      <trkpt lat="43.58349" lon="3.34684">
        <ele>304.394653</ele>
        <time>2012-02-05T08:40:27Z</time>
      </trkpt>
      <trkpt lat="43.5835" lon="3.34665">
        <ele>304.875244</ele>
        <time>2012-02-05T08:40:35Z</time>
      </trkpt>
      <trkpt lat="43.58351" lon="3.34649">
        <ele>305.355957</ele>
        <time>2012-02-05T08:40:43Z</time>
      </trkpt>
      <trkpt lat="43.58352" lon="3.3464">
        <ele>305.83667</ele>
        <time>2012-02-05T08:40:47Z</time>
      </trkpt>
      <trkpt lat="43.58353" lon="3.34629">
        <ele>305.83667</ele>
        <time>2012-02-05T08:40:51Z</time>
      </trkpt>
      <trkpt lat="43.58353" lon="3.3461">
        <ele>305.83667</ele>
        <time>2012-02-05T08:40:57Z</time>
      </trkpt>
      <trkpt lat="43.58351" lon="3.34584">
        <ele>304.394653</ele>
        <time>2012-02-05T08:41:04Z</time>
      </trkpt>
      <trkpt lat="43.58354" lon="3.3455">
        <ele>303.91394</ele>
        <time>2012-02-05T08:41:11Z</time>
      </trkpt>
      <trkpt lat="43.58353" lon="3.34531">
        <ele>303.433227</ele>
        <time>2012-02-05T08:41:16Z</time>
      </trkpt>
      <trkpt lat="43.58353" lon="3.34522">
        <ele>303.91394</ele>
        <time>2012-02-05T08:41:21Z</time>
      </trkpt>
      <trkpt lat="43.58353" lon="3.34521">
        <ele>304.394653</ele>
        <time>2012-02-05T08:41:22Z</time>
      </trkpt>
      <trkpt lat="43.58353" lon="3.34521">
        <ele>304.394653</ele>
        <time>2012-02-05T08:41:25Z</time>
      </trkpt>
      <trkpt lat="43.58352" lon="3.34517">
        <ele>304.394653</ele>
        <time>2012-02-05T08:41:27Z</time>
      </trkpt>
      <trkpt lat="43.58352" lon="3.34515">
        <ele>303.91394</ele>
        <time>2012-02-05T08:41:33Z</time>
      </trkpt>
      <trkpt lat="43.58351" lon="3.34515">
        <ele>303.91394</ele>
        <time>2012-02-05T08:41:34Z</time>
      </trkpt>
      <trkpt lat="43.58353" lon="3.34516">
        <ele>303.91394</ele>
        <time>2012-02-05T08:43:21Z</time>
      </trkpt>
      <trkpt lat="43.58353" lon="3.34518">
        <ele>303.433227</ele>
        <time>2012-02-05T08:43:23Z</time>
      </trkpt>
      <trkpt lat="43.58353" lon="3.34516">
        <ele>303.433227</ele>
        <time>2012-02-05T08:43:35Z</time>
      </trkpt>
      <trkpt lat="43.58352" lon="3.34509">
        <ele>303.91394</ele>
        <time>2012-02-05T08:43:40Z</time>
      </trkpt>
      <trkpt lat="43.58352" lon="3.34509">
        <ele>303.91394</ele>
        <time>2012-02-05T08:43:43Z</time>
      </trkpt>
      <trkpt lat="43.5835" lon="3.34509">
        <ele>304.394653</ele>
        <time>2012-02-05T08:43:44Z</time>
      </trkpt>
      <trkpt lat="43.58342" lon="3.34515">
        <ele>307.759277</ele>
        <time>2012-02-05T08:43:50Z</time>
      </trkpt>
      <trkpt lat="43.58338" lon="3.34518">
        <ele>308.720459</ele>
        <time>2012-02-05T08:43:54Z</time>
      </trkpt>
      <trkpt lat="43.58331" lon="3.34526">
        <ele>310.643066</ele>
        <time>2012-02-05T08:44:01Z</time>
      </trkpt>
      <trkpt lat="43.5832" lon="3.3453">
        <ele>312.085205</ele>
        <time>2012-02-05T08:44:08Z</time>
      </trkpt>
      <trkpt lat="43.58313" lon="3.34522">
        <ele>313.527222</ele>
        <time>2012-02-05T08:44:14Z</time>
      </trkpt>
      <trkpt lat="43.58311" lon="3.3452">
        <ele>315.449829</ele>
        <time>2012-02-05T08:44:16Z</time>
      </trkpt>
      <trkpt lat="43.5831" lon="3.34519">
        <ele>315.93042</ele>
        <time>2012-02-05T08:44:17Z</time>
      </trkpt>
      <trkpt lat="43.58303" lon="3.34524">
        <ele>315.93042</ele>
        <time>2012-02-05T08:44:22Z</time>
      </trkpt>
      <trkpt lat="43.58293" lon="3.34528">
        <ele>315.93042</ele>
        <time>2012-02-05T08:44:26Z</time>
      </trkpt>
      <trkpt lat="43.58284" lon="3.34529">
        <ele>318.333618</ele>
        <time>2012-02-05T08:44:30Z</time>
      </trkpt>
      <trkpt lat="43.58274" lon="3.34522">
        <ele>320.256348</ele>
        <time>2012-02-05T08:44:38Z</time>
      </trkpt>
      <trkpt lat="43.58272" lon="3.34519">
        <ele>321.217773</ele>
        <time>2012-02-05T08:44:40Z</time>
      </trkpt>
      <trkpt lat="43.5827" lon="3.34511">
        <ele>322.659668</ele>
        <time>2012-02-05T08:44:46Z</time>
      </trkpt>
      <trkpt lat="43.58269" lon="3.34509">
        <ele>322.659668</ele>
        <time>2012-02-05T08:44:47Z</time>
      </trkpt>
      <trkpt lat="43.58266" lon="3.34505">
        <ele>324.582275</ele>
        <time>2012-02-05T08:44:51Z</time>
      </trkpt>
      <trkpt lat="43.58264" lon="3.34499">
        <ele>326.504883</ele>
        <time>2012-02-05T08:44:55Z</time>
      </trkpt>
      <trkpt lat="43.58264" lon="3.34498">
        <ele>326.504883</ele>
        <time>2012-02-05T08:44:58Z</time>
      </trkpt>
      <trkpt lat="43.58263" lon="3.34495">
        <ele>326.985596</ele>
        <time>2012-02-05T08:44:59Z</time>
      </trkpt>
      <trkpt lat="43.58263" lon="3.34495">
        <ele>326.985596</ele>
        <time>2012-02-05T08:45:00Z</time>
      </trkpt>
      <trkpt lat="43.58257" lon="3.34483">
        <ele>328.427612</ele>
        <time>2012-02-05T08:45:08Z</time>
      </trkpt>
      <trkpt lat="43.58255" lon="3.34472">
        <ele>330.830933</ele>
        <time>2012-02-05T08:45:14Z</time>
      </trkpt>
      <trkpt lat="43.58255" lon="3.34471">
        <ele>330.830933</ele>
        <time>2012-02-05T08:45:15Z</time>
      </trkpt>
      <trkpt lat="43.58255" lon="3.34468">
        <ele>330.830933</ele>
        <time>2012-02-05T08:45:18Z</time>
      </trkpt>
      <trkpt lat="43.58256" lon="3.34467">
        <ele>331.311523</ele>
        <time>2012-02-05T08:45:21Z</time>
      </trkpt>
      <trkpt lat="43.58256" lon="3.34466">
        <ele>331.311523</ele>
        <time>2012-02-05T08:45:22Z</time>
      </trkpt>
      <trkpt lat="43.58257" lon="3.34465">
        <ele>330.830933</ele>
        <time>2012-02-05T08:45:37Z</time>
      </trkpt>
      <trkpt lat="43.58257" lon="3.34465">
        <ele>331.311523</ele>
        <time>2012-02-05T08:45:38Z</time>
      </trkpt>
      <trkpt lat="43.58257" lon="3.34465">
        <ele>330.830933</ele>
        <time>2012-02-05T08:46:28Z</time>
      </trkpt>
      <trkpt lat="43.58267" lon="3.34462">
        <ele>331.792114</ele>
        <time>2012-02-05T08:46:35Z</time>
      </trkpt>
      <trkpt lat="43.58278" lon="3.34457">
        <ele>332.75354</ele>
        <time>2012-02-05T08:46:42Z</time>
      </trkpt>
      <trkpt lat="43.5829" lon="3.34448">
        <ele>334.676148</ele>
        <time>2012-02-05T08:46:50Z</time>
      </trkpt>
      <trkpt lat="43.58292" lon="3.34442">
        <ele>335.637329</ele>
        <time>2012-02-05T08:46:53Z</time>
      </trkpt>
      <trkpt lat="43.58284" lon="3.34431">
        <ele>336.598877</ele>
        <time>2012-02-05T08:47:00Z</time>
      </trkpt>
      <trkpt lat="43.58271" lon="3.34429">
        <ele>336.598877</ele>
        <time>2012-02-05T08:47:08Z</time>
      </trkpt>
      <trkpt lat="43.58258" lon="3.3442">
        <ele>337.560059</ele>
        <time>2012-02-05T08:47:16Z</time>
      </trkpt>
      <trkpt lat="43.58249" lon="3.34402">
        <ele>339.002075</ele>
        <time>2012-02-05T08:47:25Z</time>
      </trkpt>
      <trkpt lat="43.58241" lon="3.34382">
        <ele>339.963379</ele>
        <time>2012-02-05T08:47:34Z</time>
      </trkpt>
      <trkpt lat="43.58235" lon="3.34366">
        <ele>341.405273</ele>
        <time>2012-02-05T08:47:41Z</time>
      </trkpt>
      <trkpt lat="43.58228" lon="3.34347">
        <ele>342.366699</ele>
        <time>2012-02-05T08:47:50Z</time>
      </trkpt>
      <trkpt lat="43.58223" lon="3.34327">
        <ele>343.327881</ele>
        <time>2012-02-05T08:47:58Z</time>
      </trkpt>
      <trkpt lat="43.58221" lon="3.34306">
        <ele>344.289429</ele>
        <time>2012-02-05T08:48:06Z</time>
      </trkpt>
      <trkpt lat="43.58221" lon="3.34285">
        <ele>345.731323</ele>
        <time>2012-02-05T08:48:14Z</time>
      </trkpt>
      <trkpt lat="43.58222" lon="3.34264">
        <ele>347.173218</ele>
        <time>2012-02-05T08:48:23Z</time>
      </trkpt>
      <trkpt lat="43.58222" lon="3.34247">
        <ele>347.173218</ele>
        <time>2012-02-05T08:48:30Z</time>
      </trkpt>
      <trkpt lat="43.58225" lon="3.34225">
        <ele>347.653931</ele>
        <time>2012-02-05T08:48:39Z</time>
      </trkpt>
      <trkpt lat="43.58227" lon="3.3421">
        <ele>348.134644</ele>
        <time>2012-02-05T08:48:46Z</time>
      </trkpt>
      <trkpt lat="43.58234" lon="3.34191">
        <ele>349.576538</ele>
        <time>2012-02-05T08:48:55Z</time>
      </trkpt>
      <trkpt lat="43.58238" lon="3.34182">
        <ele>352.941162</ele>
        <time>2012-02-05T08:49:00Z</time>
      </trkpt>
      <trkpt lat="43.58238" lon="3.3418">
        <ele>352.941162</ele>
        <time>2012-02-05T08:49:01Z</time>
      </trkpt>
      <trkpt lat="43.58249" lon="3.34155">
        <ele>354.863769</ele>
        <time>2012-02-05T08:49:12Z</time>
      </trkpt>
      <trkpt lat="43.58258" lon="3.34137">
        <ele>355.344482</ele>
        <time>2012-02-05T08:49:20Z</time>
      </trkpt>
      <trkpt lat="43.58269" lon="3.34117">
        <ele>356.786377</ele>
        <time>2012-02-05T08:49:30Z</time>
      </trkpt>
      <trkpt lat="43.58278" lon="3.34099">
        <ele>357.747803</ele>
        <time>2012-02-05T08:49:38Z</time>
      </trkpt>
      <trkpt lat="43.58287" lon="3.34073">
        <ele>360.631714</ele>
        <time>2012-02-05T08:49:49Z</time>
      </trkpt>
      <trkpt lat="43.58286" lon="3.34056">
        <ele>361.112427</ele>
        <time>2012-02-05T08:49:56Z</time>
      </trkpt>
      <trkpt lat="43.58275" lon="3.34044">
        <ele>361.59314</ele>
        <time>2012-02-05T08:50:03Z</time>
      </trkpt>
      <trkpt lat="43.58255" lon="3.3403">
        <ele>362.554321</ele>
        <time>2012-02-05T08:50:14Z</time>
      </trkpt>
      <trkpt lat="43.58241" lon="3.34014">
        <ele>364.476929</ele>
        <time>2012-02-05T08:50:23Z</time>
      </trkpt>
      <trkpt lat="43.58225" lon="3.33991">
        <ele>365.918945</ele>
        <time>2012-02-05T08:50:34Z</time>
      </trkpt>
      <trkpt lat="43.5821" lon="3.33965">
        <ele>367.841553</ele>
        <time>2012-02-05T08:50:45Z</time>
      </trkpt>
      <trkpt lat="43.58205" lon="3.33946">
        <ele>368.802978</ele>
        <time>2012-02-05T08:50:52Z</time>
      </trkpt>
      <trkpt lat="43.58206" lon="3.33922">
        <ele>369.764282</ele>
        <time>2012-02-05T08:51:00Z</time>
      </trkpt>
      <trkpt lat="43.5821" lon="3.33898">
        <ele>370.244873</ele>
        <time>2012-02-05T08:51:08Z</time>
      </trkpt>
      <trkpt lat="43.58217" lon="3.33869">
        <ele>371.68689</ele>
        <time>2012-02-05T08:51:18Z</time>
      </trkpt>
      <trkpt lat="43.58225" lon="3.33849">
        <ele>372.167481</ele>
        <time>2012-02-05T08:51:26Z</time>
      </trkpt>
      <trkpt lat="43.58236" lon="3.33824">
        <ele>372.648193</ele>
        <time>2012-02-05T08:51:36Z</time>
      </trkpt>
      <trkpt lat="43.58241" lon="3.33798">
        <ele>374.090088</ele>
        <time>2012-02-05T08:51:45Z</time>
      </trkpt>
      <trkpt lat="43.58245" lon="3.33766">
        <ele>375.051514</ele>
        <time>2012-02-05T08:51:56Z</time>
      </trkpt>
      <trkpt lat="43.58246" lon="3.33748">
        <ele>376.49353</ele>
        <time>2012-02-05T08:52:03Z</time>
      </trkpt>
      <trkpt lat="43.58245" lon="3.33723">
        <ele>376.49353</ele>
        <time>2012-02-05T08:52:11Z</time>
      </trkpt>
      <trkpt lat="43.58242" lon="3.33698">
        <ele>376.974243</ele>
        <time>2012-02-05T08:52:19Z</time>
      </trkpt>
      <trkpt lat="43.58241" lon="3.33676">
        <ele>378.896851</ele>
        <time>2012-02-05T08:52:26Z</time>
      </trkpt>
      <trkpt lat="43.58246" lon="3.33649">
        <ele>380.338745</ele>
        <time>2012-02-05T08:52:35Z</time>
      </trkpt>
      <trkpt lat="43.58252" lon="3.33622">
        <ele>380.819458</ele>
        <time>2012-02-05T08:52:44Z</time>
      </trkpt>
      <trkpt lat="43.58263" lon="3.33595">
        <ele>382.742065</ele>
        <time>2012-02-05T08:52:53Z</time>
      </trkpt>
      <trkpt lat="43.58273" lon="3.33576">
        <ele>382.742065</ele>
        <time>2012-02-05T08:52:59Z</time>
      </trkpt>
      <trkpt lat="43.58284" lon="3.33548">
        <ele>382.742065</ele>
        <time>2012-02-05T08:53:07Z</time>
      </trkpt>
      <trkpt lat="43.5829" lon="3.33514">
        <ele>381.300049</ele>
        <time>2012-02-05T08:53:15Z</time>
      </trkpt>
      <trkpt lat="43.58294" lon="3.33477">
        <ele>381.300049</ele>
        <time>2012-02-05T08:53:23Z</time>
      </trkpt>
      <trkpt lat="43.58298" lon="3.33435">
        <ele>381.300049</ele>
        <time>2012-02-05T08:53:32Z</time>
      </trkpt>
      <trkpt lat="43.58306" lon="3.33394">
        <ele>380.338745</ele>
        <time>2012-02-05T08:53:41Z</time>
      </trkpt>
      <trkpt lat="43.58309" lon="3.33372">
        <ele>379.858032</ele>
        <time>2012-02-05T08:53:45Z</time>
      </trkpt>
      <trkpt lat="43.58311" lon="3.3333">
        <ele>377.935425</ele>
        <time>2012-02-05T08:53:52Z</time>
      </trkpt>
      <trkpt lat="43.5831" lon="3.3328">
        <ele>376.974243</ele>
        <time>2012-02-05T08:53:59Z</time>
      </trkpt>
      <trkpt lat="43.58309" lon="3.33238">
        <ele>375.051514</ele>
        <time>2012-02-05T08:54:05Z</time>
      </trkpt>
      <trkpt lat="43.58314" lon="3.33204">
        <ele>375.532105</ele>
        <time>2012-02-05T08:54:11Z</time>
      </trkpt>
      <trkpt lat="43.58326" lon="3.33167">
        <ele>374.090088</ele>
        <time>2012-02-05T08:54:18Z</time>
      </trkpt>
      <trkpt lat="43.58329" lon="3.3315">
        <ele>373.609497</ele>
        <time>2012-02-05T08:54:21Z</time>
      </trkpt>
      <trkpt lat="43.58328" lon="3.33126">
        <ele>372.648193</ele>
        <time>2012-02-05T08:54:25Z</time>
      </trkpt>
      <trkpt lat="43.58326" lon="3.33113">
        <ele>372.167481</ele>
        <time>2012-02-05T08:54:27Z</time>
      </trkpt>
      <trkpt lat="43.58323" lon="3.33093">
        <ele>371.68689</ele>
        <time>2012-02-05T08:54:30Z</time>
      </trkpt>
      <trkpt lat="43.58323" lon="3.33079">
        <ele>371.206299</ele>
        <time>2012-02-05T08:54:32Z</time>
      </trkpt>
      <trkpt lat="43.58326" lon="3.33053">
        <ele>370.725586</ele>
        <time>2012-02-05T08:54:36Z</time>
      </trkpt>
      <trkpt lat="43.58342" lon="3.33007">
        <ele>367.360962</ele>
        <time>2012-02-05T08:54:43Z</time>
      </trkpt>
      <trkpt lat="43.58351" lon="3.32964">
        <ele>365.438355</ele>
        <time>2012-02-05T08:54:49Z</time>
      </trkpt>
      <trkpt lat="43.58353" lon="3.32916">
        <ele>365.918945</ele>
        <time>2012-02-05T08:54:56Z</time>
      </trkpt>
      <trkpt lat="43.58349" lon="3.32861">
        <ele>366.399536</ele>
        <time>2012-02-05T08:55:05Z</time>
      </trkpt>
      <trkpt lat="43.58343" lon="3.32839">
        <ele>367.841553</ele>
        <time>2012-02-05T08:55:10Z</time>
      </trkpt>
      <trkpt lat="43.58332" lon="3.32828">
        <ele>368.802978</ele>
        <time>2012-02-05T08:55:14Z</time>
      </trkpt>
      <trkpt lat="43.5831" lon="3.32814">
        <ele>368.322266</ele>
        <time>2012-02-05T08:55:21Z</time>
      </trkpt>
      <trkpt lat="43.58274" lon="3.3279">
        <ele>368.322266</ele>
        <time>2012-02-05T08:55:31Z</time>
      </trkpt>
      <trkpt lat="43.58247" lon="3.3277">
        <ele>368.322266</ele>
        <time>2012-02-05T08:55:39Z</time>
      </trkpt>
      <trkpt lat="43.58234" lon="3.32746">
        <ele>368.802978</ele>
        <time>2012-02-05T08:55:45Z</time>
      </trkpt>
      <trkpt lat="43.58229" lon="3.32713">
        <ele>369.764282</ele>
        <time>2012-02-05T08:55:52Z</time>
      </trkpt>
      <trkpt lat="43.5823" lon="3.32663">
        <ele>370.725586</ele>
        <time>2012-02-05T08:56:03Z</time>
      </trkpt>
      <trkpt lat="43.58234" lon="3.32626">
        <ele>372.167481</ele>
        <time>2012-02-05T08:56:12Z</time>
      </trkpt>
      <trkpt lat="43.58236" lon="3.32611">
        <ele>373.609497</ele>
        <time>2012-02-05T08:56:16Z</time>
      </trkpt>
      <trkpt lat="43.5824" lon="3.32585">
        <ele>375.532105</ele>
        <time>2012-02-05T08:56:23Z</time>
      </trkpt>
      <trkpt lat="43.58247" lon="3.32552">
        <ele>377.454834</ele>
        <time>2012-02-05T08:56:32Z</time>
      </trkpt>
      <trkpt lat="43.58245" lon="3.32523">
        <ele>378.416138</ele>
        <time>2012-02-05T08:56:40Z</time>
      </trkpt>
      <trkpt lat="43.58238" lon="3.32495">
        <ele>378.896851</ele>
        <time>2012-02-05T08:56:48Z</time>
      </trkpt>
      <trkpt lat="43.5824" lon="3.3247">
        <ele>380.338745</ele>
        <time>2012-02-05T08:56:56Z</time>
      </trkpt>
      <trkpt lat="43.58248" lon="3.32454">
        <ele>381.300049</ele>
        <time>2012-02-05T08:57:02Z</time>
      </trkpt>
      <trkpt lat="43.58269" lon="3.3243">
        <ele>383.222656</ele>
        <time>2012-02-05T08:57:13Z</time>
      </trkpt>
      <trkpt lat="43.58291" lon="3.32407">
        <ele>384.664795</ele>
        <time>2012-02-05T08:57:24Z</time>
      </trkpt>
      <trkpt lat="43.58311" lon="3.32395">
        <ele>386.10669</ele>
        <time>2012-02-05T08:57:33Z</time>
      </trkpt>
      <trkpt lat="43.58327" lon="3.32393">
        <ele>387.067993</ele>
        <time>2012-02-05T08:57:40Z</time>
      </trkpt>
      <trkpt lat="43.5835" lon="3.32395">
        <ele>388.990601</ele>
        <time>2012-02-05T08:57:50Z</time>
      </trkpt>
      <trkpt lat="43.58375" lon="3.32397">
        <ele>391.874512</ele>
        <time>2012-02-05T08:58:01Z</time>
      </trkpt>
      <trkpt lat="43.58397" lon="3.3239">
        <ele>393.316528</ele>
        <time>2012-02-05T08:58:10Z</time>
      </trkpt>
      <trkpt lat="43.58408" lon="3.32381">
        <ele>394.277954</ele>
        <time>2012-02-05T08:58:16Z</time>
      </trkpt>
      <trkpt lat="43.58427" lon="3.32363">
        <ele>395.719849</ele>
        <time>2012-02-05T08:58:26Z</time>
      </trkpt>
      <trkpt lat="43.5844" lon="3.3235">
        <ele>396.681152</ele>
        <time>2012-02-05T08:58:33Z</time>
      </trkpt>
      <trkpt lat="43.58457" lon="3.32334">
        <ele>397.642456</ele>
        <time>2012-02-05T08:58:41Z</time>
      </trkpt>
      <trkpt lat="43.5847" lon="3.32323">
        <ele>400.045898</ele>
        <time>2012-02-05T08:58:47Z</time>
      </trkpt>
      <trkpt lat="43.58483" lon="3.32307">
        <ele>400.526489</ele>
        <time>2012-02-05T08:58:54Z</time>
      </trkpt>
      <trkpt lat="43.58496" lon="3.32284">
        <ele>401.00708</ele>
        <time>2012-02-05T08:59:03Z</time>
      </trkpt>
      <trkpt lat="43.5851" lon="3.32265">
        <ele>403.4104</ele>
        <time>2012-02-05T08:59:11Z</time>
      </trkpt>
      <trkpt lat="43.58519" lon="3.32244">
        <ele>403.891113</ele>
        <time>2012-02-05T08:59:18Z</time>
      </trkpt>
      <trkpt lat="43.58525" lon="3.32217">
        <ele>404.371704</ele>
        <time>2012-02-05T08:59:26Z</time>
      </trkpt>
      <trkpt lat="43.58524" lon="3.32195">
        <ele>404.371704</ele>
        <time>2012-02-05T08:59:33Z</time>
      </trkpt>
      <trkpt lat="43.58512" lon="3.32177">
        <ele>404.852295</ele>
        <time>2012-02-05T08:59:40Z</time>
      </trkpt>
      <trkpt lat="43.58499" lon="3.32158">
        <ele>404.371704</ele>
        <time>2012-02-05T08:59:47Z</time>
      </trkpt>
      <trkpt lat="43.58492" lon="3.32132">
        <ele>405.333008</ele>
        <time>2012-02-05T08:59:54Z</time>
      </trkpt>
      <trkpt lat="43.58488" lon="3.32105">
        <ele>405.333008</ele>
        <time>2012-02-05T09:00:01Z</time>
      </trkpt>
      <trkpt lat="43.58478" lon="3.32091">
        <ele>405.333008</ele>
        <time>2012-02-05T09:00:06Z</time>
      </trkpt>
      <trkpt lat="43.58462" lon="3.32083">
        <ele>405.813721</ele>
        <time>2012-02-05T09:00:13Z</time>
      </trkpt>
      <trkpt lat="43.58447" lon="3.32081">
        <ele>407.255615</ele>
        <time>2012-02-05T09:00:20Z</time>
      </trkpt>
      <trkpt lat="43.58434" lon="3.32082">
        <ele>407.255615</ele>
        <time>2012-02-05T09:00:28Z</time>
      </trkpt>
      <trkpt lat="43.58421" lon="3.32086">
        <ele>406.774902</ele>
        <time>2012-02-05T09:00:35Z</time>
      </trkpt>
      <trkpt lat="43.58406" lon="3.32091">
        <ele>406.774902</ele>
        <time>2012-02-05T09:00:42Z</time>
      </trkpt>
      <trkpt lat="43.58386" lon="3.32099">
        <ele>405.333008</ele>
        <time>2012-02-05T09:00:48Z</time>
      </trkpt>
      <trkpt lat="43.58377" lon="3.32101">
        <ele>404.371704</ele>
        <time>2012-02-05T09:00:50Z</time>
      </trkpt>
      <trkpt lat="43.58345" lon="3.32112">
        <ele>401.00708</ele>
        <time>2012-02-05T09:00:56Z</time>
      </trkpt>
      <trkpt lat="43.58302" lon="3.3212">
        <ele>399.084351</ele>
        <time>2012-02-05T09:01:04Z</time>
      </trkpt>
      <trkpt lat="43.58273" lon="3.32122">
        <ele>397.161743</ele>
        <time>2012-02-05T09:01:09Z</time>
      </trkpt>
      <trkpt lat="43.5824" lon="3.32135">
        <ele>396.200561</ele>
        <time>2012-02-05T09:01:15Z</time>
      </trkpt>
      <trkpt lat="43.58214" lon="3.32155">
        <ele>393.797241</ele>
        <time>2012-02-05T09:01:20Z</time>
      </trkpt>
      <trkpt lat="43.58191" lon="3.3217">
        <ele>390.913208</ele>
        <time>2012-02-05T09:01:24Z</time>
      </trkpt>
      <trkpt lat="43.58187" lon="3.32174">
        <ele>390.913208</ele>
        <time>2012-02-05T09:01:25Z</time>
      </trkpt>
      <trkpt lat="43.58167" lon="3.3219">
        <ele>389.471191</ele>
        <time>2012-02-05T09:01:29Z</time>
      </trkpt>
      <trkpt lat="43.58147" lon="3.32204">
        <ele>387.067993</ele>
        <time>2012-02-05T09:01:34Z</time>
      </trkpt>
      <trkpt lat="43.58142" lon="3.32208">
        <ele>386.10669</ele>
        <time>2012-02-05T09:01:36Z</time>
      </trkpt>
      <trkpt lat="43.58139" lon="3.3221">
        <ele>386.10669</ele>
        <time>2012-02-05T09:01:38Z</time>
      </trkpt>
      <trkpt lat="43.58134" lon="3.32204">
        <ele>385.145386</ele>
        <time>2012-02-05T09:01:43Z</time>
      </trkpt>
      <trkpt lat="43.58127" lon="3.32194">
        <ele>384.664795</ele>
        <time>2012-02-05T09:01:47Z</time>
      </trkpt>
      <trkpt lat="43.58122" lon="3.32182">
        <ele>382.261352</ele>
        <time>2012-02-05T09:01:50Z</time>
      </trkpt>
      <trkpt lat="43.5811" lon="3.32174">
        <ele>379.377441</ele>
        <time>2012-02-05T09:01:54Z</time>
      </trkpt>
      <trkpt lat="43.58114" lon="3.32166">
        <ele>377.935425</ele>
        <time>2012-02-05T09:01:58Z</time>
      </trkpt>
      <trkpt lat="43.58117" lon="3.32154">
        <ele>375.532105</ele>
        <time>2012-02-05T09:02:03Z</time>
      </trkpt>
      <trkpt lat="43.5811" lon="3.32145">
        <ele>372.167481</ele>
        <time>2012-02-05T09:02:06Z</time>
      </trkpt>
      <trkpt lat="43.58108" lon="3.32135">
        <ele>370.725586</ele>
        <time>2012-02-05T09:02:09Z</time>
      </trkpt>
      <trkpt lat="43.58107" lon="3.32132">
        <ele>369.764282</ele>
        <time>2012-02-05T09:02:10Z</time>
      </trkpt>
      <trkpt lat="43.58103" lon="3.32123">
        <ele>367.841553</ele>
        <time>2012-02-05T09:02:13Z</time>
      </trkpt>
      <trkpt lat="43.58098" lon="3.32112">
        <ele>364.476929</ele>
        <time>2012-02-05T09:02:17Z</time>
      </trkpt>
      <trkpt lat="43.58096" lon="3.32109">
        <ele>363.996338</ele>
        <time>2012-02-05T09:02:18Z</time>
      </trkpt>
      <trkpt lat="43.58091" lon="3.321">
        <ele>361.59314</ele>
        <time>2012-02-05T09:02:22Z</time>
      </trkpt>
      <trkpt lat="43.58096" lon="3.32093">
        <ele>359.67041</ele>
        <time>2012-02-05T09:02:25Z</time>
      </trkpt>
      <trkpt lat="43.58096" lon="3.3209">
        <ele>358.708984</ele>
        <time>2012-02-05T09:02:27Z</time>
      </trkpt>
      <trkpt lat="43.58089" lon="3.32084">
        <ele>356.305786</ele>
        <time>2012-02-05T09:02:33Z</time>
      </trkpt>
      <trkpt lat="43.58085" lon="3.32082">
        <ele>355.344482</ele>
        <time>2012-02-05T09:02:37Z</time>
      </trkpt>
      <trkpt lat="43.58084" lon="3.3208">
        <ele>355.344482</ele>
        <time>2012-02-05T09:02:51Z</time>
      </trkpt>
      <trkpt lat="43.58077" lon="3.32073">
        <ele>354.383179</ele>
        <time>2012-02-05T09:02:54Z</time>
      </trkpt>
      <trkpt lat="43.58072" lon="3.32068">
        <ele>353.421875</ele>
        <time>2012-02-05T09:02:56Z</time>
      </trkpt>
      <trkpt lat="43.58071" lon="3.32059">
        <ele>350.537842</ele>
        <time>2012-02-05T09:03:00Z</time>
      </trkpt>
      <trkpt lat="43.58069" lon="3.32046">
        <ele>347.173218</ele>
        <time>2012-02-05T09:03:06Z</time>
      </trkpt>
      <trkpt lat="43.5807" lon="3.32038">
        <ele>346.212036</ele>
        <time>2012-02-05T09:03:08Z</time>
      </trkpt>
      <trkpt lat="43.58074" lon="3.32031">
        <ele>344.289429</ele>
        <time>2012-02-05T09:03:10Z</time>
      </trkpt>
      <trkpt lat="43.58075" lon="3.32017">
        <ele>340.444092</ele>
        <time>2012-02-05T09:03:14Z</time>
      </trkpt>
      <trkpt lat="43.58076" lon="3.32014">
        <ele>339.002075</ele>
        <time>2012-02-05T09:03:16Z</time>
      </trkpt>
      <trkpt lat="43.58077" lon="3.32013">
        <ele>339.002075</ele>
        <time>2012-02-05T09:03:17Z</time>
      </trkpt>
      <trkpt lat="43.58076" lon="3.3201">
        <ele>338.040772</ele>
        <time>2012-02-05T09:03:21Z</time>
      </trkpt>
      <trkpt lat="43.58076" lon="3.32008">
        <ele>337.560059</ele>
        <time>2012-02-05T09:03:55Z</time>
      </trkpt>
      <trkpt lat="43.58066" lon="3.32004">
        <ele>337.079468</ele>
        <time>2012-02-05T09:03:59Z</time>
      </trkpt>
      <trkpt lat="43.58054" lon="3.31998">
        <ele>335.156738</ele>
        <time>2012-02-05T09:04:02Z</time>
      </trkpt>
      <trkpt lat="43.5803" lon="3.32002">
        <ele>331.311523</ele>
        <time>2012-02-05T09:04:06Z</time>
      </trkpt>
      <trkpt lat="43.58014" lon="3.32018">
        <ele>328.427612</ele>
        <time>2012-02-05T09:04:09Z</time>
      </trkpt>
      <trkpt lat="43.58003" lon="3.32032">
        <ele>327.466186</ele>
        <time>2012-02-05T09:04:11Z</time>
      </trkpt>
      <trkpt lat="43.57974" lon="3.32059">
        <ele>325.062988</ele>
        <time>2012-02-05T09:04:15Z</time>
      </trkpt>
      <trkpt lat="43.5794" lon="3.321">
        <ele>321.698364</ele>
        <time>2012-02-05T09:04:20Z</time>
      </trkpt>
      <trkpt lat="43.57926" lon="3.32117">
        <ele>319.775635</ele>
        <time>2012-02-05T09:04:23Z</time>
      </trkpt>
      <trkpt lat="43.57917" lon="3.32128">
        <ele>317.853027</ele>
        <time>2012-02-05T09:04:25Z</time>
      </trkpt>
      <trkpt lat="43.57909" lon="3.32154">
        <ele>316.891724</ele>
        <time>2012-02-05T09:04:30Z</time>
      </trkpt>
      <trkpt lat="43.57909" lon="3.32163">
        <ele>316.891724</ele>
        <time>2012-02-05T09:04:35Z</time>
      </trkpt>
      <trkpt lat="43.57912" lon="3.32179">
        <ele>315.93042</ele>
        <time>2012-02-05T09:04:39Z</time>
      </trkpt>
      <trkpt lat="43.57919" lon="3.32196">
        <ele>315.449829</ele>
        <time>2012-02-05T09:04:42Z</time>
      </trkpt>
      <trkpt lat="43.57918" lon="3.32221">
        <ele>314.969116</ele>
        <time>2012-02-05T09:04:46Z</time>
      </trkpt>
      <trkpt lat="43.57915" lon="3.32225">
        <ele>314.969116</ele>
        <time>2012-02-05T09:04:47Z</time>
      </trkpt>
      <trkpt lat="43.579" lon="3.32241">
        <ele>313.527222</ele>
        <time>2012-02-05T09:04:51Z</time>
      </trkpt>
      <trkpt lat="43.57887" lon="3.32268">
        <ele>313.046509</ele>
        <time>2012-02-05T09:04:56Z</time>
      </trkpt>
      <trkpt lat="43.57883" lon="3.32294">
        <ele>314.488403</ele>
        <time>2012-02-05T09:05:01Z</time>
      </trkpt>
      <trkpt lat="43.57889" lon="3.32318">
        <ele>313.527222</ele>
        <time>2012-02-05T09:05:08Z</time>
      </trkpt>
      <trkpt lat="43.57891" lon="3.32333">
        <ele>314.007812</ele>
        <time>2012-02-05T09:05:12Z</time>
      </trkpt>
      <trkpt lat="43.57878" lon="3.32349">
        <ele>313.046509</ele>
        <time>2012-02-05T09:05:17Z</time>
      </trkpt>
      <trkpt lat="43.5787" lon="3.32346">
        <ele>311.604492</ele>
        <time>2012-02-05T09:05:20Z</time>
      </trkpt>
      <trkpt lat="43.57863" lon="3.32341">
        <ele>310.162476</ele>
        <time>2012-02-05T09:05:23Z</time>
      </trkpt>
      <trkpt lat="43.57847" lon="3.32325">
        <ele>309.681885</ele>
        <time>2012-02-05T09:05:27Z</time>
      </trkpt>
      <trkpt lat="43.57822" lon="3.32306">
        <ele>308.239868</ele>
        <time>2012-02-05T09:05:31Z</time>
      </trkpt>
      <trkpt lat="43.57792" lon="3.32299">
        <ele>305.83667</ele>
        <time>2012-02-05T09:05:35Z</time>
      </trkpt>
      <trkpt lat="43.57769" lon="3.32307">
        <ele>302.952515</ele>
        <time>2012-02-05T09:05:38Z</time>
      </trkpt>
      <trkpt lat="43.57762" lon="3.3231">
        <ele>302.471924</ele>
        <time>2012-02-05T09:05:39Z</time>
      </trkpt>
      <trkpt lat="43.57732" lon="3.32331">
        <ele>299.1073</ele>
        <time>2012-02-05T09:05:43Z</time>
      </trkpt>
      <trkpt lat="43.57717" lon="3.32341">
        <ele>297.665405</ele>
        <time>2012-02-05T09:05:45Z</time>
      </trkpt>
      <trkpt lat="43.57694" lon="3.32362">
        <ele>295.742676</ele>
        <time>2012-02-05T09:05:49Z</time>
      </trkpt>
      <trkpt lat="43.57684" lon="3.32377">
        <ele>294.300781</ele>
        <time>2012-02-05T09:05:53Z</time>
      </trkpt>
      <trkpt lat="43.57683" lon="3.32378">
        <ele>293.820068</ele>
        <time>2012-02-05T09:05:56Z</time>
      </trkpt>
      <trkpt lat="43.57683" lon="3.32377">
        <ele>294.300781</ele>
        <time>2012-02-05T09:06:08Z</time>
      </trkpt>
      <trkpt lat="43.57683" lon="3.32377">
        <ele>294.781372</ele>
        <time>2012-02-05T09:06:09Z</time>
      </trkpt>
      <trkpt lat="43.57684" lon="3.32377">
        <ele>294.781372</ele>
        <time>2012-02-05T09:06:16Z</time>
      </trkpt>
      <trkpt lat="43.57692" lon="3.32368">
        <ele>295.261963</ele>
        <time>2012-02-05T09:06:23Z</time>
      </trkpt>
      <trkpt lat="43.57701" lon="3.32359">
        <ele>295.742676</ele>
        <time>2012-02-05T09:06:28Z</time>
      </trkpt>
      <trkpt lat="43.57715" lon="3.32347">
        <ele>297.665405</ele>
        <time>2012-02-05T09:06:35Z</time>
      </trkpt>
      <trkpt lat="43.57732" lon="3.32335">
        <ele>298.626709</ele>
        <time>2012-02-05T09:06:42Z</time>
      </trkpt>
      <trkpt lat="43.57754" lon="3.32318">
        <ele>301.029907</ele>
        <time>2012-02-05T09:06:51Z</time>
      </trkpt>
      <trkpt lat="43.57759" lon="3.32316">
        <ele>302.471924</ele>
        <time>2012-02-05T09:06:53Z</time>
      </trkpt>
      <trkpt lat="43.57773" lon="3.32309">
        <ele>303.91394</ele>
        <time>2012-02-05T09:06:59Z</time>
      </trkpt>
      <trkpt lat="43.57794" lon="3.323">
        <ele>305.355957</ele>
        <time>2012-02-05T09:07:08Z</time>
      </trkpt>
      <trkpt lat="43.57803" lon="3.32301">
        <ele>305.83667</ele>
        <time>2012-02-05T09:07:12Z</time>
      </trkpt>
      <trkpt lat="43.5782" lon="3.32306">
        <ele>307.278565</ele>
        <time>2012-02-05T09:07:19Z</time>
      </trkpt>
      <trkpt lat="43.57839" lon="3.32319">
        <ele>308.239868</ele>
        <time>2012-02-05T09:07:28Z</time>
      </trkpt>
      <trkpt lat="43.57853" lon="3.3233">
        <ele>309.201172</ele>
        <time>2012-02-05T09:07:35Z</time>
      </trkpt>
      <trkpt lat="43.57868" lon="3.32343">
        <ele>311.604492</ele>
        <time>2012-02-05T09:07:43Z</time>
      </trkpt>
      <trkpt lat="43.57881" lon="3.32346">
        <ele>313.046509</ele>
        <time>2012-02-05T09:07:49Z</time>
      </trkpt>
      <trkpt lat="43.57885" lon="3.32342">
        <ele>314.007812</ele>
        <time>2012-02-05T09:07:51Z</time>
      </trkpt>
      <trkpt lat="43.57892" lon="3.32323">
        <ele>314.488403</ele>
        <time>2012-02-05T09:07:58Z</time>
      </trkpt>
      <trkpt lat="43.57887" lon="3.32305">
        <ele>313.527222</ele>
        <time>2012-02-05T09:08:03Z</time>
      </trkpt>
      <trkpt lat="43.57884" lon="3.32283">
        <ele>312.565796</ele>
        <time>2012-02-05T09:08:09Z</time>
      </trkpt>
      <trkpt lat="43.57891" lon="3.32261">
        <ele>312.565796</ele>
        <time>2012-02-05T09:08:15Z</time>
      </trkpt>
      <trkpt lat="43.57904" lon="3.32237">
        <ele>312.565796</ele>
        <time>2012-02-05T09:08:22Z</time>
      </trkpt>
      <trkpt lat="43.57922" lon="3.32216">
        <ele>313.527222</ele>
        <time>2012-02-05T09:08:29Z</time>
      </trkpt>
      <trkpt lat="43.57922" lon="3.32199">
        <ele>314.969116</ele>
        <time>2012-02-05T09:08:33Z</time>
      </trkpt>
      <trkpt lat="43.57913" lon="3.32172">
        <ele>315.93042</ele>
        <time>2012-02-05T09:08:40Z</time>
      </trkpt>
      <trkpt lat="43.57911" lon="3.32151">
        <ele>316.891724</ele>
        <time>2012-02-05T09:08:46Z</time>
      </trkpt>
      <trkpt lat="43.57915" lon="3.32136">
        <ele>317.372436</ele>
        <time>2012-02-05T09:08:52Z</time>
      </trkpt>
      <trkpt lat="43.57925" lon="3.32121">
        <ele>317.853027</ele>
        <time>2012-02-05T09:08:58Z</time>
      </trkpt>
      <trkpt lat="43.57938" lon="3.32106">
        <ele>319.295044</ele>
        <time>2012-02-05T09:09:05Z</time>
      </trkpt>
      <trkpt lat="43.57951" lon="3.32089">
        <ele>320.256348</ele>
        <time>2012-02-05T09:09:12Z</time>
      </trkpt>
      <trkpt lat="43.57969" lon="3.32069">
        <ele>322.178955</ele>
        <time>2012-02-05T09:09:21Z</time>
      </trkpt>
      <trkpt lat="43.57983" lon="3.32056">
        <ele>323.140381</ele>
        <time>2012-02-05T09:09:28Z</time>
      </trkpt>
      <trkpt lat="43.57989" lon="3.32044">
        <ele>323.620972</ele>
        <time>2012-02-05T09:09:33Z</time>
      </trkpt>
      <trkpt lat="43.57995" lon="3.32036">
        <ele>322.659668</ele>
        <time>2012-02-05T09:09:38Z</time>
      </trkpt>
      <trkpt lat="43.57995" lon="3.32036">
        <ele>322.659668</ele>
        <time>2012-02-05T09:09:39Z</time>
      </trkpt>
      <trkpt lat="43.57996" lon="3.32035">
        <ele>321.698364</ele>
        <time>2012-02-05T09:09:56Z</time>
      </trkpt>
      <trkpt lat="43.57999" lon="3.3202">
        <ele>321.698364</ele>
        <time>2012-02-05T09:10:00Z</time>
      </trkpt>
      <trkpt lat="43.57997" lon="3.31989">
        <ele>317.853027</ele>
        <time>2012-02-05T09:10:04Z</time>
      </trkpt>
      <trkpt lat="43.57998" lon="3.31945">
        <ele>314.488403</ele>
        <time>2012-02-05T09:10:09Z</time>
      </trkpt>
      <trkpt lat="43.58002" lon="3.31927">
        <ele>310.643066</ele>
        <time>2012-02-05T09:10:11Z</time>
      </trkpt>
      <trkpt lat="43.57998" lon="3.31913">
        <ele>307.278565</ele>
        <time>2012-02-05T09:10:14Z</time>
      </trkpt>
      <trkpt lat="43.57995" lon="3.31915">
        <ele>306.797852</ele>
        <time>2012-02-05T09:10:15Z</time>
      </trkpt>
      <trkpt lat="43.57981" lon="3.3192">
        <ele>305.355957</ele>
        <time>2012-02-05T09:10:18Z</time>
      </trkpt>
      <trkpt lat="43.57954" lon="3.31933">
        <ele>301.029907</ele>
        <time>2012-02-05T09:10:22Z</time>
      </trkpt>
      <trkpt lat="43.57947" lon="3.31936">
        <ele>298.626709</ele>
        <time>2012-02-05T09:10:23Z</time>
      </trkpt>
      <trkpt lat="43.57929" lon="3.31948">
        <ele>293.339356</ele>
        <time>2012-02-05T09:10:27Z</time>
      </trkpt>
      <trkpt lat="43.57926" lon="3.31953">
        <ele>292.378174</ele>
        <time>2012-02-05T09:10:28Z</time>
      </trkpt>
      <trkpt lat="43.57913" lon="3.31979">
        <ele>287.571411</ele>
        <time>2012-02-05T09:10:32Z</time>
      </trkpt>
      <trkpt lat="43.57898" lon="3.3199">
        <ele>284.206909</ele>
        <time>2012-02-05T09:10:35Z</time>
      </trkpt>
      <trkpt lat="43.57874" lon="3.32009">
        <ele>282.284302</ele>
        <time>2012-02-05T09:10:39Z</time>
      </trkpt>
      <trkpt lat="43.57842" lon="3.32061">
        <ele>278.919678</ele>
        <time>2012-02-05T09:10:45Z</time>
      </trkpt>
      <trkpt lat="43.57824" lon="3.32101">
        <ele>274.113037</ele>
        <time>2012-02-05T09:10:49Z</time>
      </trkpt>
      <trkpt lat="43.57809" lon="3.32124">
        <ele>270.748413</ele>
        <time>2012-02-05T09:10:52Z</time>
      </trkpt>
      <trkpt lat="43.57803" lon="3.32132">
        <ele>268.825806</ele>
        <time>2012-02-05T09:10:53Z</time>
      </trkpt>
      <trkpt lat="43.57777" lon="3.32149">
        <ele>265.461304</ele>
        <time>2012-02-05T09:10:57Z</time>
      </trkpt>
      <trkpt lat="43.57756" lon="3.32157">
        <ele>262.096558</ele>
        <time>2012-02-05T09:11:02Z</time>
      </trkpt>
      <trkpt lat="43.57738" lon="3.3217">
        <ele>261.615967</ele>
        <time>2012-02-05T09:11:08Z</time>
      </trkpt>
      <trkpt lat="43.57711" lon="3.32187">
        <ele>261.615967</ele>
        <time>2012-02-05T09:11:16Z</time>
      </trkpt>
      <trkpt lat="43.57694" lon="3.32201">
        <ele>261.615967</ele>
        <time>2012-02-05T09:11:23Z</time>
      </trkpt>
      <trkpt lat="43.57692" lon="3.32203">
        <ele>261.615967</ele>
        <time>2012-02-05T09:11:24Z</time>
      </trkpt>
      <trkpt lat="43.57683" lon="3.32197">
        <ele>262.096558</ele>
        <time>2012-02-05T09:11:29Z</time>
      </trkpt>
      <trkpt lat="43.57685" lon="3.3219">
        <ele>262.096558</ele>
        <time>2012-02-05T09:11:32Z</time>
      </trkpt>
      <trkpt lat="43.57695" lon="3.32177">
        <ele>264.980591</ele>
        <time>2012-02-05T09:11:39Z</time>
      </trkpt>
      <trkpt lat="43.57704" lon="3.32164">
        <ele>266.422485</ele>
        <time>2012-02-05T09:11:45Z</time>
      </trkpt>
      <trkpt lat="43.57709" lon="3.32158">
        <ele>268.345093</ele>
        <time>2012-02-05T09:11:48Z</time>
      </trkpt>
      <trkpt lat="43.57725" lon="3.3214">
        <ele>269.787109</ele>
        <time>2012-02-05T09:11:57Z</time>
      </trkpt>
      <trkpt lat="43.57741" lon="3.32117">
        <ele>271.709717</ele>
        <time>2012-02-05T09:12:07Z</time>
      </trkpt>
      <trkpt lat="43.57748" lon="3.32108">
        <ele>272.671143</ele>
        <time>2012-02-05T09:12:11Z</time>
      </trkpt>
      <trkpt lat="43.57752" lon="3.32101">
        <ele>273.151856</ele>
        <time>2012-02-05T09:12:14Z</time>
      </trkpt>
      <trkpt lat="43.57749" lon="3.32092">
        <ele>274.113037</ele>
        <time>2012-02-05T09:12:18Z</time>
      </trkpt>
      <trkpt lat="43.57741" lon="3.32098">
        <ele>274.59375</ele>
        <time>2012-02-05T09:12:22Z</time>
      </trkpt>
      <trkpt lat="43.57728" lon="3.32117">
        <ele>275.555054</ele>
        <time>2012-02-05T09:12:31Z</time>
      </trkpt>
      <trkpt lat="43.57716" lon="3.3213">
        <ele>275.074463</ele>
        <time>2012-02-05T09:12:38Z</time>
      </trkpt>
      <trkpt lat="43.57702" lon="3.32139">
        <ele>276.516357</ele>
        <time>2012-02-05T09:12:46Z</time>
      </trkpt>
      <trkpt lat="43.5769" lon="3.32144">
        <ele>276.99707</ele>
        <time>2012-02-05T09:12:53Z</time>
      </trkpt>
      <trkpt lat="43.57676" lon="3.32149">
        <ele>277.958252</ele>
        <time>2012-02-05T09:12:59Z</time>
      </trkpt>
      <trkpt lat="43.57665" lon="3.32154">
        <ele>278.438965</ele>
        <time>2012-02-05T09:13:06Z</time>
      </trkpt>
      <trkpt lat="43.57665" lon="3.32154">
        <ele>278.438965</ele>
        <time>2012-02-05T09:13:07Z</time>
      </trkpt>
      <trkpt lat="43.57665" lon="3.32154">
        <ele>278.438965</ele>
        <time>2012-02-05T09:13:13Z</time>
      </trkpt>
      <trkpt lat="43.57659" lon="3.32157">
        <ele>278.438965</ele>
        <time>2012-02-05T09:13:16Z</time>
      </trkpt>
      <trkpt lat="43.57647" lon="3.32165">
        <ele>279.880859</ele>
        <time>2012-02-05T09:13:23Z</time>
      </trkpt>
      <trkpt lat="43.57636" lon="3.32173">
        <ele>280.361694</ele>
        <time>2012-02-05T09:13:29Z</time>
      </trkpt>
      <trkpt lat="43.57618" lon="3.32185">
        <ele>283.726196</ele>
        <time>2012-02-05T09:13:38Z</time>
      </trkpt>
      <trkpt lat="43.57601" lon="3.32193">
        <ele>284.687622</ele>
        <time>2012-02-05T09:13:46Z</time>
      </trkpt>
      <trkpt lat="43.57586" lon="3.32195">
        <ele>286.129517</ele>
        <time>2012-02-05T09:13:53Z</time>
      </trkpt>
      <trkpt lat="43.57576" lon="3.32181">
        <ele>286.61023</ele>
        <time>2012-02-05T09:13:59Z</time>
      </trkpt>
      <trkpt lat="43.57567" lon="3.32162">
        <ele>286.129517</ele>
        <time>2012-02-05T09:14:06Z</time>
      </trkpt>
      <trkpt lat="43.57564" lon="3.3216">
        <ele>286.61023</ele>
        <time>2012-02-05T09:14:08Z</time>
      </trkpt>
      <trkpt lat="43.57559" lon="3.3216">
        <ele>287.571411</ele>
        <time>2012-02-05T09:14:13Z</time>
      </trkpt>
      <trkpt lat="43.57559" lon="3.3216">
        <ele>287.09082</ele>
        <time>2012-02-05T09:14:20Z</time>
      </trkpt>
      <trkpt lat="43.57554" lon="3.32165">
        <ele>288.532959</ele>
        <time>2012-02-05T09:14:23Z</time>
      </trkpt>
      <trkpt lat="43.5755" lon="3.32173">
        <ele>289.01355</ele>
        <time>2012-02-05T09:14:28Z</time>
      </trkpt>
      <trkpt lat="43.57539" lon="3.32188">
        <ele>290.455566</ele>
        <time>2012-02-05T09:14:36Z</time>
      </trkpt>
      <trkpt lat="43.57525" lon="3.32204">
        <ele>290.936157</ele>
        <time>2012-02-05T09:14:44Z</time>
      </trkpt>
      <trkpt lat="43.57514" lon="3.32216">
        <ele>291.897461</ele>
        <time>2012-02-05T09:14:50Z</time>
      </trkpt>
      <trkpt lat="43.57497" lon="3.32232">
        <ele>293.339356</ele>
        <time>2012-02-05T09:14:59Z</time>
      </trkpt>
      <trkpt lat="43.57483" lon="3.32238">
        <ele>294.300781</ele>
        <time>2012-02-05T09:15:06Z</time>
      </trkpt>
      <trkpt lat="43.57465" lon="3.32242">
        <ele>297.184692</ele>
        <time>2012-02-05T09:15:14Z</time>
      </trkpt>
      <trkpt lat="43.57465" lon="3.32235">
        <ele>298.146118</ele>
        <time>2012-02-05T09:15:19Z</time>
      </trkpt>
      <trkpt lat="43.57471" lon="3.32233">
        <ele>299.588013</ele>
        <time>2012-02-05T09:15:22Z</time>
      </trkpt>
      <trkpt lat="43.57484" lon="3.32222">
        <ele>300.068726</ele>
        <time>2012-02-05T09:15:29Z</time>
      </trkpt>
      <trkpt lat="43.57495" lon="3.32207">
        <ele>301.029907</ele>
        <time>2012-02-05T09:15:36Z</time>
      </trkpt>
      <trkpt lat="43.57499" lon="3.32197">
        <ele>301.991333</ele>
        <time>2012-02-05T09:15:40Z</time>
      </trkpt>
      <trkpt lat="43.57497" lon="3.32193">
        <ele>302.471924</ele>
        <time>2012-02-05T09:15:45Z</time>
      </trkpt>
      <trkpt lat="43.57492" lon="3.32198">
        <ele>302.952515</ele>
        <time>2012-02-05T09:15:49Z</time>
      </trkpt>
      <trkpt lat="43.57483" lon="3.32202">
        <ele>304.875244</ele>
        <time>2012-02-05T09:15:54Z</time>
      </trkpt>
      <trkpt lat="43.57466" lon="3.32209">
        <ele>307.278565</ele>
        <time>2012-02-05T09:16:03Z</time>
      </trkpt>
      <trkpt lat="43.57451" lon="3.32216">
        <ele>307.278565</ele>
        <time>2012-02-05T09:16:10Z</time>
      </trkpt>
      <trkpt lat="43.57435" lon="3.32222">
        <ele>307.759277</ele>
        <time>2012-02-05T09:16:17Z</time>
      </trkpt>
      <trkpt lat="43.57421" lon="3.32225">
        <ele>307.759277</ele>
        <time>2012-02-05T09:16:24Z</time>
      </trkpt>
      <trkpt lat="43.57411" lon="3.32223">
        <ele>311.123779</ele>
        <time>2012-02-05T09:16:30Z</time>
      </trkpt>
      <trkpt lat="43.57398" lon="3.32221">
        <ele>314.488403</ele>
        <time>2012-02-05T09:16:37Z</time>
      </trkpt>
      <trkpt lat="43.5738" lon="3.32221">
        <ele>314.969116</ele>
        <time>2012-02-05T09:16:44Z</time>
      </trkpt>
      <trkpt lat="43.57365" lon="3.32228">
        <ele>314.488403</ele>
        <time>2012-02-05T09:16:50Z</time>
      </trkpt>
      <trkpt lat="43.57351" lon="3.32233">
        <ele>314.488403</ele>
        <time>2012-02-05T09:16:55Z</time>
      </trkpt>
      <trkpt lat="43.57336" lon="3.32237">
        <ele>312.085205</ele>
        <time>2012-02-05T09:16:58Z</time>
      </trkpt>
      <trkpt lat="43.57308" lon="3.32231">
        <ele>308.239868</ele>
        <time>2012-02-05T09:17:03Z</time>
      </trkpt>
      <trkpt lat="43.57296" lon="3.32229">
        <ele>307.278565</ele>
        <time>2012-02-05T09:17:05Z</time>
      </trkpt>
      <trkpt lat="43.57274" lon="3.32228">
        <ele>303.91394</ele>
        <time>2012-02-05T09:17:09Z</time>
      </trkpt>
      <trkpt lat="43.57261" lon="3.32229">
        <ele>299.588013</ele>
        <time>2012-02-05T09:17:12Z</time>
      </trkpt>
      <trkpt lat="43.57257" lon="3.3223">
        <ele>299.588013</ele>
        <time>2012-02-05T09:17:13Z</time>
      </trkpt>
      <trkpt lat="43.57248" lon="3.32233">
        <ele>296.223511</ele>
        <time>2012-02-05T09:17:15Z</time>
      </trkpt>
      <trkpt lat="43.57226" lon="3.3224">
        <ele>290.936157</ele>
        <time>2012-02-05T09:17:19Z</time>
      </trkpt>
      <trkpt lat="43.57204" lon="3.32246">
        <ele>287.09082</ele>
        <time>2012-02-05T09:17:23Z</time>
      </trkpt>
      <trkpt lat="43.57188" lon="3.32243">
        <ele>283.245606</ele>
        <time>2012-02-05T09:17:27Z</time>
      </trkpt>
      <trkpt lat="43.57174" lon="3.32237">
        <ele>277.958252</ele>
        <time>2012-02-05T09:17:31Z</time>
      </trkpt>
      <trkpt lat="43.57172" lon="3.32236">
        <ele>277.958252</ele>
        <time>2012-02-05T09:17:32Z</time>
      </trkpt>
      <trkpt lat="43.57168" lon="3.32237">
        <ele>276.99707</ele>
        <time>2012-02-05T09:17:34Z</time>
      </trkpt>
      <trkpt lat="43.57164" lon="3.32241">
        <ele>275.555054</ele>
        <time>2012-02-05T09:17:38Z</time>
      </trkpt>
      <trkpt lat="43.57163" lon="3.3224">
        <ele>276.516357</ele>
        <time>2012-02-05T09:17:43Z</time>
      </trkpt>
      <trkpt lat="43.57155" lon="3.32241">
        <ele>274.59375</ele>
        <time>2012-02-05T09:17:45Z</time>
      </trkpt>
      <trkpt lat="43.57136" lon="3.32252">
        <ele>271.229126</ele>
        <time>2012-02-05T09:17:49Z</time>
      </trkpt>
      <trkpt lat="43.57132" lon="3.32254">
        <ele>270.2677</ele>
        <time>2012-02-05T09:17:50Z</time>
      </trkpt>
      <trkpt lat="43.57111" lon="3.32268">
        <ele>266.903198</ele>
        <time>2012-02-05T09:17:55Z</time>
      </trkpt>
      <trkpt lat="43.57086" lon="3.32279">
        <ele>261.615967</ele>
        <time>2012-02-05T09:18:00Z</time>
      </trkpt>
      <trkpt lat="43.57082" lon="3.32281">
        <ele>261.135254</ele>
        <time>2012-02-05T09:18:01Z</time>
      </trkpt>
      <trkpt lat="43.57064" lon="3.32286">
        <ele>257.770752</ele>
        <time>2012-02-05T09:18:07Z</time>
      </trkpt>
      <trkpt lat="43.57049" lon="3.32295">
        <ele>256.328735</ele>
        <time>2012-02-05T09:18:10Z</time>
      </trkpt>
      <trkpt lat="43.57029" lon="3.32308">
        <ele>254.886597</ele>
        <time>2012-02-05T09:18:13Z</time>
      </trkpt>
      <trkpt lat="43.57017" lon="3.32318">
        <ele>253.444702</ele>
        <time>2012-02-05T09:18:15Z</time>
      </trkpt>
      <trkpt lat="43.57001" lon="3.32327">
        <ele>250.560791</ele>
        <time>2012-02-05T09:18:18Z</time>
      </trkpt>
      <trkpt lat="43.56992" lon="3.32332">
        <ele>249.118774</ele>
        <time>2012-02-05T09:18:20Z</time>
      </trkpt>
      <trkpt lat="43.56975" lon="3.3234">
        <ele>245.273438</ele>
        <time>2012-02-05T09:18:24Z</time>
      </trkpt>
      <trkpt lat="43.56968" lon="3.32344">
        <ele>244.312256</ele>
        <time>2012-02-05T09:18:26Z</time>
      </trkpt>
      <trkpt lat="43.56962" lon="3.32349">
        <ele>240.947632</ele>
        <time>2012-02-05T09:18:28Z</time>
      </trkpt>
      <trkpt lat="43.56959" lon="3.32353">
        <ele>240.467041</ele>
        <time>2012-02-05T09:18:30Z</time>
      </trkpt>
      <trkpt lat="43.56949" lon="3.32367">
        <ele>237.582886</ele>
        <time>2012-02-05T09:18:35Z</time>
      </trkpt>
      <trkpt lat="43.56941" lon="3.32374">
        <ele>234.218384</ele>
        <time>2012-02-05T09:18:38Z</time>
      </trkpt>
      <trkpt lat="43.56938" lon="3.32377">
        <ele>233.25708</ele>
        <time>2012-02-05T09:18:39Z</time>
      </trkpt>
      <trkpt lat="43.56932" lon="3.32379">
        <ele>231.334351</ele>
        <time>2012-02-05T09:18:41Z</time>
      </trkpt>
      <trkpt lat="43.56919" lon="3.32393">
        <ele>228.931152</ele>
        <time>2012-02-05T09:18:45Z</time>
      </trkpt>
      <trkpt lat="43.56913" lon="3.324">
        <ele>227.489136</ele>
        <time>2012-02-05T09:18:47Z</time>
      </trkpt>
      <trkpt lat="43.56896" lon="3.32411">
        <ele>223.643799</ele>
        <time>2012-02-05T09:18:51Z</time>
      </trkpt>
      <trkpt lat="43.56877" lon="3.32426">
        <ele>220.759888</ele>
        <time>2012-02-05T09:18:57Z</time>
      </trkpt>
      <trkpt lat="43.56877" lon="3.32426">
        <ele>220.759888</ele>
        <time>2012-02-05T09:18:59Z</time>
      </trkpt>
      <trkpt lat="43.56876" lon="3.32423">
        <ele>221.721191</ele>
        <time>2012-02-05T09:22:24Z</time>
      </trkpt>
      <trkpt lat="43.56875" lon="3.32423">
        <ele>221.721191</ele>
        <time>2012-02-05T09:22:25Z</time>
      </trkpt>
      <trkpt lat="43.56862" lon="3.32418">
        <ele>220.759888</ele>
        <time>2012-02-05T09:22:31Z</time>
      </trkpt>
      <trkpt lat="43.56856" lon="3.32416">
        <ele>220.279175</ele>
        <time>2012-02-05T09:22:33Z</time>
      </trkpt>
      <trkpt lat="43.56841" lon="3.32403">
        <ele>219.317993</ele>
        <time>2012-02-05T09:22:37Z</time>
      </trkpt>
      <trkpt lat="43.56818" lon="3.32387">
        <ele>216.914673</ele>
        <time>2012-02-05T09:22:42Z</time>
      </trkpt>
      <trkpt lat="43.56807" lon="3.3238">
        <ele>215.953247</ele>
        <time>2012-02-05T09:22:44Z</time>
      </trkpt>
      <trkpt lat="43.56799" lon="3.32372">
        <ele>214.991943</ele>
        <time>2012-02-05T09:22:46Z</time>
      </trkpt>
      <trkpt lat="43.56791" lon="3.32364">
        <ele>213.550049</ele>
        <time>2012-02-05T09:22:48Z</time>
      </trkpt>
      <trkpt lat="43.56772" lon="3.32352">
        <ele>209.704834</ele>
        <time>2012-02-05T09:22:53Z</time>
      </trkpt>
      <trkpt lat="43.56755" lon="3.32348">
        <ele>207.301392</ele>
        <time>2012-02-05T09:22:57Z</time>
      </trkpt>
      <trkpt lat="43.56733" lon="3.32341">
        <ele>206.340088</ele>
        <time>2012-02-05T09:23:02Z</time>
      </trkpt>
      <trkpt lat="43.56716" lon="3.32329">
        <ele>204.898071</ele>
        <time>2012-02-05T09:23:07Z</time>
      </trkpt>
      <trkpt lat="43.56703" lon="3.3233">
        <ele>203.93689</ele>
        <time>2012-02-05T09:23:10Z</time>
      </trkpt>
      <trkpt lat="43.56691" lon="3.32331">
        <ele>202.494873</ele>
        <time>2012-02-05T09:23:14Z</time>
      </trkpt>
      <trkpt lat="43.56673" lon="3.32325">
        <ele>201.052856</ele>
        <time>2012-02-05T09:23:19Z</time>
      </trkpt>
      <trkpt lat="43.5667" lon="3.32325">
        <ele>200.091675</ele>
        <time>2012-02-05T09:23:20Z</time>
      </trkpt>
      <trkpt lat="43.56647" lon="3.32327">
        <ele>198.649536</ele>
        <time>2012-02-05T09:23:25Z</time>
      </trkpt>
      <trkpt lat="43.56642" lon="3.32328">
        <ele>198.168945</ele>
        <time>2012-02-05T09:23:26Z</time>
      </trkpt>
      <trkpt lat="43.56613" lon="3.32332">
        <ele>194.323731</ele>
        <time>2012-02-05T09:23:33Z</time>
      </trkpt>
      <trkpt lat="43.56605" lon="3.32333">
        <ele>193.843018</ele>
        <time>2012-02-05T09:23:35Z</time>
      </trkpt>
      <trkpt lat="43.56587" lon="3.3234">
        <ele>190.478394</ele>
        <time>2012-02-05T09:23:40Z</time>
      </trkpt>
      <trkpt lat="43.56576" lon="3.32346">
        <ele>189.516968</ele>
        <time>2012-02-05T09:23:44Z</time>
      </trkpt>
      <trkpt lat="43.56569" lon="3.32347">
        <ele>190.478394</ele>
        <time>2012-02-05T09:23:49Z</time>
      </trkpt>
      <trkpt lat="43.56559" lon="3.32346">
        <ele>190.958984</ele>
        <time>2012-02-05T09:23:54Z</time>
      </trkpt>
      <trkpt lat="43.56544" lon="3.32343">
        <ele>190.478394</ele>
        <time>2012-02-05T09:23:59Z</time>
      </trkpt>
      <trkpt lat="43.56528" lon="3.32345">
        <ele>192.401123</ele>
        <time>2012-02-05T09:24:05Z</time>
      </trkpt>
      <trkpt lat="43.56514" lon="3.32341">
        <ele>194.323731</ele>
        <time>2012-02-05T09:24:11Z</time>
      </trkpt>
      <trkpt lat="43.56505" lon="3.32336">
        <ele>194.323731</ele>
        <time>2012-02-05T09:24:17Z</time>
      </trkpt>
      <trkpt lat="43.56505" lon="3.32336">
        <ele>193.362305</ele>
        <time>2012-02-05T09:24:18Z</time>
      </trkpt>
      <trkpt lat="43.56504" lon="3.32336">
        <ele>194.323731</ele>
        <time>2012-02-05T09:24:22Z</time>
      </trkpt>
      <trkpt lat="43.56494" lon="3.32335">
        <ele>193.843018</ele>
        <time>2012-02-05T09:24:25Z</time>
      </trkpt>
      <trkpt lat="43.56471" lon="3.32334">
        <ele>193.843018</ele>
        <time>2012-02-05T09:24:31Z</time>
      </trkpt>
      <trkpt lat="43.56456" lon="3.32335">
        <ele>192.881714</ele>
        <time>2012-02-05T09:24:34Z</time>
      </trkpt>
      <trkpt lat="43.56433" lon="3.32339">
        <ele>192.401123</ele>
        <time>2012-02-05T09:24:39Z</time>
      </trkpt>
      <trkpt lat="43.56429" lon="3.32339">
        <ele>192.881714</ele>
        <time>2012-02-05T09:24:40Z</time>
      </trkpt>
      <trkpt lat="43.56421" lon="3.32339">
        <ele>192.401123</ele>
        <time>2012-02-05T09:24:42Z</time>
      </trkpt>
      <trkpt lat="43.56411" lon="3.32338">
        <ele>191.920288</ele>
        <time>2012-02-05T09:24:44Z</time>
      </trkpt>
      <trkpt lat="43.56386" lon="3.32329">
        <ele>190.958984</ele>
        <time>2012-02-05T09:24:49Z</time>
      </trkpt>
      <trkpt lat="43.56368" lon="3.32311">
        <ele>189.516968</ele>
        <time>2012-02-05T09:24:53Z</time>
      </trkpt>
      <trkpt lat="43.56351" lon="3.32286">
        <ele>186.633179</ele>
        <time>2012-02-05T09:24:57Z</time>
      </trkpt>
      <trkpt lat="43.56342" lon="3.32254">
        <ele>184.229858</ele>
        <time>2012-02-05T09:25:01Z</time>
      </trkpt>
      <trkpt lat="43.56339" lon="3.32248">
        <ele>183.749023</ele>
        <time>2012-02-05T09:25:02Z</time>
      </trkpt>
      <trkpt lat="43.56332" lon="3.32235">
        <ele>182.787842</ele>
        <time>2012-02-05T09:25:04Z</time>
      </trkpt>
      <trkpt lat="43.5632" lon="3.32224">
        <ele>181.345825</ele>
        <time>2012-02-05T09:25:07Z</time>
      </trkpt>
      <trkpt lat="43.56318" lon="3.32226">
        <ele>181.345825</ele>
        <time>2012-02-05T09:25:08Z</time>
      </trkpt>
      <trkpt lat="43.56317" lon="3.32238">
        <ele>181.345825</ele>
        <time>2012-02-05T09:25:11Z</time>
      </trkpt>
      <trkpt lat="43.56318" lon="3.32245">
        <ele>181.826416</ele>
        <time>2012-02-05T09:25:13Z</time>
      </trkpt>
      <trkpt lat="43.56312" lon="3.32267">
        <ele>181.826416</ele>
        <time>2012-02-05T09:25:21Z</time>
      </trkpt>
      <trkpt lat="43.56304" lon="3.32288">
        <ele>184.229858</ele>
        <time>2012-02-05T09:25:30Z</time>
      </trkpt>
      <trkpt lat="43.563" lon="3.32304">
        <ele>184.710571</ele>
        <time>2012-02-05T09:25:36Z</time>
      </trkpt>
      <trkpt lat="43.56291" lon="3.32328">
        <ele>186.152466</ele>
        <time>2012-02-05T09:25:44Z</time>
      </trkpt>
      <trkpt lat="43.56278" lon="3.32357">
        <ele>187.59436</ele>
        <time>2012-02-05T09:25:54Z</time>
      </trkpt>
      <trkpt lat="43.56268" lon="3.32377">
        <ele>188.555786</ele>
        <time>2012-02-05T09:26:01Z</time>
      </trkpt>
      <trkpt lat="43.56261" lon="3.32397">
        <ele>189.036377</ele>
        <time>2012-02-05T09:26:07Z</time>
      </trkpt>
      <trkpt lat="43.56252" lon="3.32425">
        <ele>189.997681</ele>
        <time>2012-02-05T09:26:15Z</time>
      </trkpt>
      <trkpt lat="43.56246" lon="3.32455">
        <ele>190.958984</ele>
        <time>2012-02-05T09:26:23Z</time>
      </trkpt>
      <trkpt lat="43.56238" lon="3.32484">
        <ele>191.439575</ele>
        <time>2012-02-05T09:26:31Z</time>
      </trkpt>
      <trkpt lat="43.5623" lon="3.32507">
        <ele>191.920288</ele>
        <time>2012-02-05T09:26:38Z</time>
      </trkpt>
      <trkpt lat="43.56217" lon="3.32528">
        <ele>194.323731</ele>
        <time>2012-02-05T09:26:46Z</time>
      </trkpt>
      <trkpt lat="43.56212" lon="3.32533">
        <ele>196.246338</ele>
        <time>2012-02-05T09:26:49Z</time>
      </trkpt>
      <trkpt lat="43.56208" lon="3.32526">
        <ele>198.168945</ele>
        <time>2012-02-05T09:26:53Z</time>
      </trkpt>
      <trkpt lat="43.5621" lon="3.32518">
        <ele>199.61084</ele>
        <time>2012-02-05T09:26:56Z</time>
      </trkpt>
      <trkpt lat="43.56219" lon="3.32491">
        <ele>201.533569</ele>
        <time>2012-02-05T09:27:06Z</time>
      </trkpt>
      <trkpt lat="43.56223" lon="3.32457">
        <ele>203.456177</ele>
        <time>2012-02-05T09:27:17Z</time>
      </trkpt>
      <trkpt lat="43.56221" lon="3.32428">
        <ele>204.898071</ele>
        <time>2012-02-05T09:27:26Z</time>
      </trkpt>
      <trkpt lat="43.56221" lon="3.32421">
        <ele>205.859497</ele>
        <time>2012-02-05T09:27:28Z</time>
      </trkpt>
      <trkpt lat="43.56222" lon="3.32386">
        <ele>206.820679</ele>
        <time>2012-02-05T09:27:39Z</time>
      </trkpt>
      <trkpt lat="43.56221" lon="3.32378">
        <ele>207.782105</ele>
        <time>2012-02-05T09:27:42Z</time>
      </trkpt>
      <trkpt lat="43.56212" lon="3.32373">
        <ele>208.743408</ele>
        <time>2012-02-05T09:27:47Z</time>
      </trkpt>
      <trkpt lat="43.56209" lon="3.32381">
        <ele>209.704834</ele>
        <time>2012-02-05T09:27:50Z</time>
      </trkpt>
      <trkpt lat="43.56203" lon="3.32411">
        <ele>211.146728</ele>
        <time>2012-02-05T09:28:00Z</time>
      </trkpt>
      <trkpt lat="43.56196" lon="3.32438">
        <ele>212.588623</ele>
        <time>2012-02-05T09:28:09Z</time>
      </trkpt>
      <trkpt lat="43.56189" lon="3.32462">
        <ele>214.991943</ele>
        <time>2012-02-05T09:28:17Z</time>
      </trkpt>
      <trkpt lat="43.56178" lon="3.32487">
        <ele>215.953247</ele>
        <time>2012-02-05T09:28:26Z</time>
      </trkpt>
      <trkpt lat="43.56166" lon="3.32507">
        <ele>215.953247</ele>
        <time>2012-02-05T09:28:34Z</time>
      </trkpt>
      <trkpt lat="43.56154" lon="3.3253">
        <ele>216.914673</ele>
        <time>2012-02-05T09:28:42Z</time>
      </trkpt>
      <trkpt lat="43.56142" lon="3.3255">
        <ele>219.798584</ele>
        <time>2012-02-05T09:28:50Z</time>
      </trkpt>
      <trkpt lat="43.56131" lon="3.32567">
        <ele>222.201782</ele>
        <time>2012-02-05T09:28:57Z</time>
      </trkpt>
      <trkpt lat="43.56116" lon="3.32587">
        <ele>224.124512</ele>
        <time>2012-02-05T09:29:06Z</time>
      </trkpt>
      <trkpt lat="43.56105" lon="3.32599">
        <ele>225.566528</ele>
        <time>2012-02-05T09:29:12Z</time>
      </trkpt>
      <trkpt lat="43.56088" lon="3.32607">
        <ele>227.489136</ele>
        <time>2012-02-05T09:29:20Z</time>
      </trkpt>
      <trkpt lat="43.56085" lon="3.32608">
        <ele>227.489136</ele>
        <time>2012-02-05T09:29:21Z</time>
      </trkpt>
      <trkpt lat="43.5607" lon="3.32616">
        <ele>228.931152</ele>
        <time>2012-02-05T09:29:28Z</time>
      </trkpt>
      <trkpt lat="43.56053" lon="3.32624">
        <ele>229.411743</ele>
        <time>2012-02-05T09:29:36Z</time>
      </trkpt>
      <trkpt lat="43.56039" lon="3.32634">
        <ele>230.373047</ele>
        <time>2012-02-05T09:29:43Z</time>
      </trkpt>
      <trkpt lat="43.5603" lon="3.32652">
        <ele>230.85376</ele>
        <time>2012-02-05T09:29:50Z</time>
      </trkpt>
      <trkpt lat="43.56027" lon="3.32673">
        <ele>231.334351</ele>
        <time>2012-02-05T09:29:57Z</time>
      </trkpt>
      <trkpt lat="43.56024" lon="3.32698">
        <ele>232.295776</ele>
        <time>2012-02-05T09:30:04Z</time>
      </trkpt>
      <trkpt lat="43.56022" lon="3.32727">
        <ele>234.218384</ele>
        <time>2012-02-05T09:30:13Z</time>
      </trkpt>
      <trkpt lat="43.56029" lon="3.32745">
        <ele>234.699097</ele>
        <time>2012-02-05T09:30:19Z</time>
      </trkpt>
      <trkpt lat="43.56036" lon="3.3276">
        <ele>235.660278</ele>
        <time>2012-02-05T09:30:25Z</time>
      </trkpt>
      <trkpt lat="43.5604" lon="3.32786">
        <ele>237.102295</ele>
        <time>2012-02-05T09:30:33Z</time>
      </trkpt>
      <trkpt lat="43.5604" lon="3.32812">
        <ele>239.024902</ele>
        <time>2012-02-05T09:30:41Z</time>
      </trkpt>
      <trkpt lat="43.56036" lon="3.32834">
        <ele>240.467041</ele>
        <time>2012-02-05T09:30:48Z</time>
      </trkpt>
      <trkpt lat="43.56026" lon="3.32865">
        <ele>241.908936</ele>
        <time>2012-02-05T09:30:59Z</time>
      </trkpt>
      <trkpt lat="43.56016" lon="3.32885">
        <ele>244.312256</ele>
        <time>2012-02-05T09:31:07Z</time>
      </trkpt>
      <trkpt lat="43.56004" lon="3.32903">
        <ele>245.273438</ele>
        <time>2012-02-05T09:31:15Z</time>
      </trkpt>
      <trkpt lat="43.55998" lon="3.32906">
        <ele>246.715454</ele>
        <time>2012-02-05T09:31:18Z</time>
      </trkpt>
      <trkpt lat="43.55983" lon="3.32912">
        <ele>248.157593</ele>
        <time>2012-02-05T09:31:25Z</time>
      </trkpt>
      <trkpt lat="43.5597" lon="3.32918">
        <ele>248.638184</ele>
        <time>2012-02-05T09:31:31Z</time>
      </trkpt>
      <trkpt lat="43.55955" lon="3.32929">
        <ele>249.599487</ele>
        <time>2012-02-05T09:31:38Z</time>
      </trkpt>
      <trkpt lat="43.5594" lon="3.32947">
        <ele>249.118774</ele>
        <time>2012-02-05T09:31:45Z</time>
      </trkpt>
      <trkpt lat="43.5593" lon="3.32971">
        <ele>247.676758</ele>
        <time>2012-02-05T09:31:51Z</time>
      </trkpt>
      <trkpt lat="43.55919" lon="3.32986">
        <ele>248.638184</ele>
        <time>2012-02-05T09:31:55Z</time>
      </trkpt>
      <trkpt lat="43.55907" lon="3.33002">
        <ele>250.0802</ele>
        <time>2012-02-05T09:32:01Z</time>
      </trkpt>
      <trkpt lat="43.55899" lon="3.3303">
        <ele>250.0802</ele>
        <time>2012-02-05T09:32:08Z</time>
      </trkpt>
      <trkpt lat="43.55888" lon="3.33055">
        <ele>249.599487</ele>
        <time>2012-02-05T09:32:14Z</time>
      </trkpt>
      <trkpt lat="43.55866" lon="3.33082">
        <ele>248.638184</ele>
        <time>2012-02-05T09:32:21Z</time>
      </trkpt>
      <trkpt lat="43.55863" lon="3.33086">
        <ele>249.118774</ele>
        <time>2012-02-05T09:32:22Z</time>
      </trkpt>
      <trkpt lat="43.55844" lon="3.3312">
        <ele>249.118774</ele>
        <time>2012-02-05T09:32:30Z</time>
      </trkpt>
      <trkpt lat="43.55831" lon="3.33146">
        <ele>250.560791</ele>
        <time>2012-02-05T09:32:37Z</time>
      </trkpt>
      <trkpt lat="43.55818" lon="3.33169">
        <ele>252.483398</ele>
        <time>2012-02-05T09:32:44Z</time>
      </trkpt>
      <trkpt lat="43.55813" lon="3.33179">
        <ele>253.925415</ele>
        <time>2012-02-05T09:32:47Z</time>
      </trkpt>
      <trkpt lat="43.55803" lon="3.33207">
        <ele>255.848023</ele>
        <time>2012-02-05T09:32:55Z</time>
      </trkpt>
      <trkpt lat="43.55792" lon="3.33242">
        <ele>258.251343</ele>
        <time>2012-02-05T09:33:05Z</time>
      </trkpt>
      <trkpt lat="43.55786" lon="3.33266">
        <ele>258.731934</ele>
        <time>2012-02-05T09:33:11Z</time>
      </trkpt>
      <trkpt lat="43.55779" lon="3.33287">
        <ele>260.654541</ele>
        <time>2012-02-05T09:33:17Z</time>
      </trkpt>
      <trkpt lat="43.55772" lon="3.33311">
        <ele>262.096558</ele>
        <time>2012-02-05T09:33:25Z</time>
      </trkpt>
      <trkpt lat="43.55764" lon="3.33332">
        <ele>263.057861</ele>
        <time>2012-02-05T09:33:32Z</time>
      </trkpt>
      <trkpt lat="43.55755" lon="3.33352">
        <ele>264.019287</ele>
        <time>2012-02-05T09:33:39Z</time>
      </trkpt>
      <trkpt lat="43.55742" lon="3.33377">
        <ele>264.499878</ele>
        <time>2012-02-05T09:33:47Z</time>
      </trkpt>
      <trkpt lat="43.55727" lon="3.334">
        <ele>266.422485</ele>
        <time>2012-02-05T09:33:56Z</time>
      </trkpt>
      <trkpt lat="43.55713" lon="3.3342">
        <ele>266.422485</ele>
        <time>2012-02-05T09:34:04Z</time>
      </trkpt>
      <trkpt lat="43.55701" lon="3.33444">
        <ele>267.864502</ele>
        <time>2012-02-05T09:34:12Z</time>
      </trkpt>
      <trkpt lat="43.55687" lon="3.33476">
        <ele>269.787109</ele>
        <time>2012-02-05T09:34:22Z</time>
      </trkpt>
      <trkpt lat="43.55685" lon="3.33501">
        <ele>270.748413</ele>
        <time>2012-02-05T09:34:29Z</time>
      </trkpt>
      <trkpt lat="43.55683" lon="3.33526">
        <ele>272.671143</ele>
        <time>2012-02-05T09:34:36Z</time>
      </trkpt>
      <trkpt lat="43.5568" lon="3.33554">
        <ele>274.113037</ele>
        <time>2012-02-05T09:34:44Z</time>
      </trkpt>
      <trkpt lat="43.55674" lon="3.33583">
        <ele>276.516357</ele>
        <time>2012-02-05T09:34:53Z</time>
      </trkpt>
      <trkpt lat="43.55669" lon="3.33612">
        <ele>277.477661</ele>
        <time>2012-02-05T09:35:02Z</time>
      </trkpt>
      <trkpt lat="43.55663" lon="3.33641">
        <ele>279.400269</ele>
        <time>2012-02-05T09:35:11Z</time>
      </trkpt>
      <trkpt lat="43.55661" lon="3.33651">
        <ele>280.842407</ele>
        <time>2012-02-05T09:35:14Z</time>
      </trkpt>
      <trkpt lat="43.55659" lon="3.33671">
        <ele>282.765015</ele>
        <time>2012-02-05T09:35:20Z</time>
      </trkpt>
      <trkpt lat="43.55657" lon="3.33697">
        <ele>282.284302</ele>
        <time>2012-02-05T09:35:27Z</time>
      </trkpt>
      <trkpt lat="43.55657" lon="3.33721">
        <ele>283.726196</ele>
        <time>2012-02-05T09:35:34Z</time>
      </trkpt>
      <trkpt lat="43.55657" lon="3.3375">
        <ele>284.687622</ele>
        <time>2012-02-05T09:35:42Z</time>
      </trkpt>
      <trkpt lat="43.55651" lon="3.33776">
        <ele>286.129517</ele>
        <time>2012-02-05T09:35:50Z</time>
      </trkpt>
      <trkpt lat="43.55643" lon="3.33807">
        <ele>288.052246</ele>
        <time>2012-02-05T09:36:00Z</time>
      </trkpt>
      <trkpt lat="43.55635" lon="3.33832">
        <ele>289.01355</ele>
        <time>2012-02-05T09:36:08Z</time>
      </trkpt>
      <trkpt lat="43.55629" lon="3.33862">
        <ele>289.494141</ele>
        <time>2012-02-05T09:36:17Z</time>
      </trkpt>
      <trkpt lat="43.55628" lon="3.33883">
        <ele>291.416748</ele>
        <time>2012-02-05T09:36:24Z</time>
      </trkpt>
      <trkpt lat="43.55627" lon="3.33903">
        <ele>291.897461</ele>
        <time>2012-02-05T09:36:30Z</time>
      </trkpt>
      <trkpt lat="43.55625" lon="3.33929">
        <ele>292.858765</ele>
        <time>2012-02-05T09:36:38Z</time>
      </trkpt>
      <trkpt lat="43.55625" lon="3.33946">
        <ele>295.261963</ele>
        <time>2012-02-05T09:36:44Z</time>
      </trkpt>
      <trkpt lat="43.55624" lon="3.33972">
        <ele>295.742676</ele>
        <time>2012-02-05T09:36:52Z</time>
      </trkpt>
      <trkpt lat="43.55622" lon="3.3398">
        <ele>297.184692</ele>
        <time>2012-02-05T09:36:55Z</time>
      </trkpt>
      <trkpt lat="43.55617" lon="3.34005">
        <ele>298.146118</ele>
        <time>2012-02-05T09:37:03Z</time>
      </trkpt>
      <trkpt lat="43.55615" lon="3.34027">
        <ele>298.626709</ele>
        <time>2012-02-05T09:37:10Z</time>
      </trkpt>
      <trkpt lat="43.55616" lon="3.34053">
        <ele>301.029907</ele>
        <time>2012-02-05T09:37:18Z</time>
      </trkpt>
      <trkpt lat="43.5562" lon="3.34064">
        <ele>301.029907</ele>
        <time>2012-02-05T09:37:22Z</time>
      </trkpt>
      <trkpt lat="43.55627" lon="3.34079">
        <ele>303.91394</ele>
        <time>2012-02-05T09:37:28Z</time>
      </trkpt>
      <trkpt lat="43.55638" lon="3.341">
        <ele>305.355957</ele>
        <time>2012-02-05T09:37:37Z</time>
      </trkpt>
      <trkpt lat="43.55647" lon="3.34121">
        <ele>306.317261</ele>
        <time>2012-02-05T09:37:45Z</time>
      </trkpt>
      <trkpt lat="43.55658" lon="3.34146">
        <ele>308.239868</ele>
        <time>2012-02-05T09:37:55Z</time>
      </trkpt>
      <trkpt lat="43.55656" lon="3.34163">
        <ele>309.681885</ele>
        <time>2012-02-05T09:38:01Z</time>
      </trkpt>
      <trkpt lat="43.55644" lon="3.34182">
        <ele>311.123779</ele>
        <time>2012-02-05T09:38:09Z</time>
      </trkpt>
      <trkpt lat="43.5564" lon="3.34188">
        <ele>312.565796</ele>
        <time>2012-02-05T09:38:12Z</time>
      </trkpt>
      <trkpt lat="43.55626" lon="3.34207">
        <ele>313.527222</ele>
        <time>2012-02-05T09:38:20Z</time>
      </trkpt>
      <trkpt lat="43.55618" lon="3.34219">
        <ele>314.969116</ele>
        <time>2012-02-05T09:38:25Z</time>
      </trkpt>
      <trkpt lat="43.55604" lon="3.34241">
        <ele>318.333618</ele>
        <time>2012-02-05T09:38:34Z</time>
      </trkpt>
      <trkpt lat="43.55588" lon="3.34264">
        <ele>319.295044</ele>
        <time>2012-02-05T09:38:44Z</time>
      </trkpt>
      <trkpt lat="43.55575" lon="3.3428">
        <ele>320.73706</ele>
        <time>2012-02-05T09:38:52Z</time>
      </trkpt>
      <trkpt lat="43.55561" lon="3.34299">
        <ele>321.698364</ele>
        <time>2012-02-05T09:39:01Z</time>
      </trkpt>
      <trkpt lat="43.5555" lon="3.34316">
        <ele>324.101562</ele>
        <time>2012-02-05T09:39:08Z</time>
      </trkpt>
      <trkpt lat="43.55546" lon="3.3432">
        <ele>325.062988</ele>
        <time>2012-02-05T09:39:10Z</time>
      </trkpt>
      <trkpt lat="43.55533" lon="3.34339">
        <ele>327.466186</ele>
        <time>2012-02-05T09:39:18Z</time>
      </trkpt>
      <trkpt lat="43.55517" lon="3.34365">
        <ele>328.908325</ele>
        <time>2012-02-05T09:39:28Z</time>
      </trkpt>
      <trkpt lat="43.55505" lon="3.34393">
        <ele>328.908325</ele>
        <time>2012-02-05T09:39:37Z</time>
      </trkpt>
      <trkpt lat="43.555" lon="3.34405">
        <ele>330.35022</ele>
        <time>2012-02-05T09:39:41Z</time>
      </trkpt>
      <trkpt lat="43.55486" lon="3.34429">
        <ele>330.830933</ele>
        <time>2012-02-05T09:39:49Z</time>
      </trkpt>
      <trkpt lat="43.55475" lon="3.34454">
        <ele>333.714722</ele>
        <time>2012-02-05T09:39:57Z</time>
      </trkpt>
      <trkpt lat="43.55469" lon="3.34476">
        <ele>333.714722</ele>
        <time>2012-02-05T09:40:03Z</time>
      </trkpt>
      <trkpt lat="43.55462" lon="3.34514">
        <ele>333.714722</ele>
        <time>2012-02-05T09:40:11Z</time>
      </trkpt>
      <trkpt lat="43.55458" lon="3.34539">
        <ele>336.118164</ele>
        <time>2012-02-05T09:40:17Z</time>
      </trkpt>
      <trkpt lat="43.55451" lon="3.34561">
        <ele>339.482666</ele>
        <time>2012-02-05T09:40:23Z</time>
      </trkpt>
      <trkpt lat="43.55439" lon="3.34574">
        <ele>339.482666</ele>
        <time>2012-02-05T09:40:30Z</time>
      </trkpt>
      <trkpt lat="43.55435" lon="3.34578">
        <ele>339.002075</ele>
        <time>2012-02-05T09:40:35Z</time>
      </trkpt>
      <trkpt lat="43.55434" lon="3.34575">
        <ele>338.521484</ele>
        <time>2012-02-05T09:41:23Z</time>
      </trkpt>
      <trkpt lat="43.55431" lon="3.34576">
        <ele>337.560059</ele>
        <time>2012-02-05T09:41:24Z</time>
      </trkpt>
      <trkpt lat="43.55426" lon="3.34583">
        <ele>337.079468</ele>
        <time>2012-02-05T09:41:28Z</time>
      </trkpt>
      <trkpt lat="43.55426" lon="3.34583">
        <ele>337.079468</ele>
        <time>2012-02-05T09:41:29Z</time>
      </trkpt>
      <trkpt lat="43.55426" lon="3.34584">
        <ele>337.079468</ele>
        <time>2012-02-05T09:41:34Z</time>
      </trkpt>
      <trkpt lat="43.55424" lon="3.34587">
        <ele>337.079468</ele>
        <time>2012-02-05T09:41:35Z</time>
      </trkpt>
      <trkpt lat="43.55421" lon="3.34603">
        <ele>337.079468</ele>
        <time>2012-02-05T09:41:40Z</time>
      </trkpt>
      <trkpt lat="43.55417" lon="3.34612">
        <ele>338.040772</ele>
        <time>2012-02-05T09:41:45Z</time>
      </trkpt>
      <trkpt lat="43.55408" lon="3.34635">
        <ele>337.560059</ele>
        <time>2012-02-05T09:41:51Z</time>
      </trkpt>
      <trkpt lat="43.55399" lon="3.34661">
        <ele>337.079468</ele>
        <time>2012-02-05T09:41:57Z</time>
      </trkpt>
      <trkpt lat="43.5539" lon="3.34682">
        <ele>332.75354</ele>
        <time>2012-02-05T09:42:02Z</time>
      </trkpt>
      <trkpt lat="43.55387" lon="3.34691">
        <ele>331.792114</ele>
        <time>2012-02-05T09:42:04Z</time>
      </trkpt>
      <trkpt lat="43.55385" lon="3.34695">
        <ele>330.830933</ele>
        <time>2012-02-05T09:42:05Z</time>
      </trkpt>
      <trkpt lat="43.55379" lon="3.34719">
        <ele>328.908325</ele>
        <time>2012-02-05T09:42:09Z</time>
      </trkpt>
      <trkpt lat="43.55375" lon="3.34731">
        <ele>326.985596</ele>
        <time>2012-02-05T09:42:11Z</time>
      </trkpt>
      <trkpt lat="43.55364" lon="3.34746">
        <ele>321.698364</ele>
        <time>2012-02-05T09:42:15Z</time>
      </trkpt>
      <trkpt lat="43.55356" lon="3.3475">
        <ele>319.775635</ele>
        <time>2012-02-05T09:42:18Z</time>
      </trkpt>
      <trkpt lat="43.55346" lon="3.34746">
        <ele>317.853027</ele>
        <time>2012-02-05T09:42:21Z</time>
      </trkpt>
      <trkpt lat="43.5534" lon="3.34735">
        <ele>316.891724</ele>
        <time>2012-02-05T09:42:24Z</time>
      </trkpt>
      <trkpt lat="43.55333" lon="3.34724">
        <ele>315.93042</ele>
        <time>2012-02-05T09:42:27Z</time>
      </trkpt>
      <trkpt lat="43.55328" lon="3.34707">
        <ele>314.488403</ele>
        <time>2012-02-05T09:42:30Z</time>
      </trkpt>
      <trkpt lat="43.55326" lon="3.34685">
        <ele>315.449829</ele>
        <time>2012-02-05T09:42:34Z</time>
      </trkpt>
      <trkpt lat="43.55324" lon="3.3468">
        <ele>314.007812</ele>
        <time>2012-02-05T09:42:35Z</time>
      </trkpt>
      <trkpt lat="43.55312" lon="3.34668">
        <ele>309.681885</ele>
        <time>2012-02-05T09:42:39Z</time>
      </trkpt>
      <trkpt lat="43.55301" lon="3.34672">
        <ele>305.83667</ele>
        <time>2012-02-05T09:42:42Z</time>
      </trkpt>
      <trkpt lat="43.55294" lon="3.34671">
        <ele>305.355957</ele>
        <time>2012-02-05T09:42:44Z</time>
      </trkpt>
      <trkpt lat="43.55287" lon="3.34666">
        <ele>303.91394</ele>
        <time>2012-02-05T09:42:46Z</time>
      </trkpt>
      <trkpt lat="43.55272" lon="3.34654">
        <ele>299.1073</ele>
        <time>2012-02-05T09:42:50Z</time>
      </trkpt>
      <trkpt lat="43.55266" lon="3.3466">
        <ele>298.146118</ele>
        <time>2012-02-05T09:42:52Z</time>
      </trkpt>
      <trkpt lat="43.5526" lon="3.34671">
        <ele>297.184692</ele>
        <time>2012-02-05T09:42:54Z</time>
      </trkpt>
      <trkpt lat="43.55256" lon="3.34699">
        <ele>296.223511</ele>
        <time>2012-02-05T09:42:58Z</time>
      </trkpt>
      <trkpt lat="43.55252" lon="3.34712">
        <ele>295.742676</ele>
        <time>2012-02-05T09:43:00Z</time>
      </trkpt>
      <trkpt lat="43.55232" lon="3.34738">
        <ele>290.936157</ele>
        <time>2012-02-05T09:43:05Z</time>
      </trkpt>
      <trkpt lat="43.55216" lon="3.34741">
        <ele>290.455566</ele>
        <time>2012-02-05T09:43:08Z</time>
      </trkpt>
      <trkpt lat="43.5519" lon="3.34753">
        <ele>288.052246</ele>
        <time>2012-02-05T09:43:13Z</time>
      </trkpt>
      <trkpt lat="43.55174" lon="3.34773">
        <ele>282.284302</ele>
        <time>2012-02-05T09:43:16Z</time>
      </trkpt>
      <trkpt lat="43.55164" lon="3.34785">
        <ele>280.361694</ele>
        <time>2012-02-05T09:43:18Z</time>
      </trkpt>
      <trkpt lat="43.55143" lon="3.34803">
        <ele>276.99707</ele>
        <time>2012-02-05T09:43:22Z</time>
      </trkpt>
      <trkpt lat="43.5512" lon="3.34827">
        <ele>272.19043</ele>
        <time>2012-02-05T09:43:26Z</time>
      </trkpt>
      <trkpt lat="43.55101" lon="3.34842">
        <ele>269.787109</ele>
        <time>2012-02-05T09:43:29Z</time>
      </trkpt>
      <trkpt lat="43.55084" lon="3.34857">
        <ele>265.941894</ele>
        <time>2012-02-05T09:43:32Z</time>
      </trkpt>
      <trkpt lat="43.55075" lon="3.34866">
        <ele>264.980591</ele>
        <time>2012-02-05T09:43:34Z</time>
      </trkpt>
      <trkpt lat="43.55057" lon="3.34869">
        <ele>262.577148</ele>
        <time>2012-02-05T09:43:38Z</time>
      </trkpt>
      <trkpt lat="43.55041" lon="3.3486">
        <ele>260.17395</ele>
        <time>2012-02-05T09:43:44Z</time>
      </trkpt>
      <trkpt lat="43.55039" lon="3.34859">
        <ele>261.135254</ele>
        <time>2012-02-05T09:43:45Z</time>
      </trkpt>
      <trkpt lat="43.55036" lon="3.34852">
        <ele>259.693359</ele>
        <time>2012-02-05T09:43:50Z</time>
      </trkpt>
      <trkpt lat="43.55037" lon="3.3485">
        <ele>260.17395</ele>
        <time>2012-02-05T09:44:19Z</time>
      </trkpt>
      <trkpt lat="43.55034" lon="3.34839">
        <ele>259.212647</ele>
        <time>2012-02-05T09:44:23Z</time>
      </trkpt>
      <trkpt lat="43.55026" lon="3.34834">
        <ele>257.770752</ele>
        <time>2012-02-05T09:44:26Z</time>
      </trkpt>
      <trkpt lat="43.5501" lon="3.34849">
        <ele>255.848023</ele>
        <time>2012-02-05T09:44:30Z</time>
      </trkpt>
      <trkpt lat="43.55004" lon="3.34863">
        <ele>255.36731</ele>
        <time>2012-02-05T09:44:32Z</time>
      </trkpt>
      <trkpt lat="43.54995" lon="3.34886">
        <ele>255.36731</ele>
        <time>2012-02-05T09:44:35Z</time>
      </trkpt>
      <trkpt lat="43.54978" lon="3.34916">
        <ele>253.925415</ele>
        <time>2012-02-05T09:44:39Z</time>
      </trkpt>
      <trkpt lat="43.54968" lon="3.34934">
        <ele>252.002808</ele>
        <time>2012-02-05T09:44:41Z</time>
      </trkpt>
      <trkpt lat="43.54949" lon="3.34989">
        <ele>248.638184</ele>
        <time>2012-02-05T09:44:46Z</time>
      </trkpt>
      <trkpt lat="43.54941" lon="3.35013">
        <ele>246.715454</ele>
        <time>2012-02-05T09:44:48Z</time>
      </trkpt>
      <trkpt lat="43.54932" lon="3.35052">
        <ele>241.428223</ele>
        <time>2012-02-05T09:44:51Z</time>
      </trkpt>
      <trkpt lat="43.54929" lon="3.35065">
        <ele>241.908936</ele>
        <time>2012-02-05T09:44:52Z</time>
      </trkpt>
      <trkpt lat="43.54922" lon="3.35098">
        <ele>239.024902</ele>
        <time>2012-02-05T09:44:55Z</time>
      </trkpt>
      <trkpt lat="43.54904" lon="3.3512">
        <ele>237.582886</ele>
        <time>2012-02-05T09:44:59Z</time>
      </trkpt>
      <trkpt lat="43.54898" lon="3.35122">
        <ele>238.063599</ele>
        <time>2012-02-05T09:45:00Z</time>
      </trkpt>
      <trkpt lat="43.54886" lon="3.35127">
        <ele>237.582886</ele>
        <time>2012-02-05T09:45:02Z</time>
      </trkpt>
      <trkpt lat="43.54867" lon="3.35122">
        <ele>237.582886</ele>
        <time>2012-02-05T09:45:06Z</time>
      </trkpt>
      <trkpt lat="43.54863" lon="3.35112">
        <ele>237.102295</ele>
        <time>2012-02-05T09:45:08Z</time>
      </trkpt>
      <trkpt lat="43.54859" lon="3.35081">
        <ele>237.582886</ele>
        <time>2012-02-05T09:45:13Z</time>
      </trkpt>
      <trkpt lat="43.54851" lon="3.3506">
        <ele>235.179688</ele>
        <time>2012-02-05T09:45:17Z</time>
      </trkpt>
      <trkpt lat="43.54839" lon="3.35061">
        <ele>231.334351</ele>
        <time>2012-02-05T09:45:20Z</time>
      </trkpt>
      <trkpt lat="43.54826" lon="3.35076">
        <ele>229.411743</ele>
        <time>2012-02-05T09:45:23Z</time>
      </trkpt>
      <trkpt lat="43.54807" lon="3.35092">
        <ele>227.969727</ele>
        <time>2012-02-05T09:45:28Z</time>
      </trkpt>
      <trkpt lat="43.54803" lon="3.35091">
        <ele>226.527832</ele>
        <time>2012-02-05T09:45:29Z</time>
      </trkpt>
      <trkpt lat="43.54781" lon="3.35088">
        <ele>223.643799</ele>
        <time>2012-02-05T09:45:33Z</time>
      </trkpt>
      <trkpt lat="43.5477" lon="3.35089">
        <ele>222.201782</ele>
        <time>2012-02-05T09:45:35Z</time>
      </trkpt>
      <trkpt lat="43.54758" lon="3.35079">
        <ele>220.759888</ele>
        <time>2012-02-05T09:45:38Z</time>
      </trkpt>
      <trkpt lat="43.54741" lon="3.35058">
        <ele>218.83728</ele>
        <time>2012-02-05T09:45:42Z</time>
      </trkpt>
      <trkpt lat="43.54726" lon="3.3504">
        <ele>215.472656</ele>
        <time>2012-02-05T09:45:45Z</time>
      </trkpt>
      <trkpt lat="43.54705" lon="3.35023">
        <ele>211.627441</ele>
        <time>2012-02-05T09:45:49Z</time>
      </trkpt>
      <trkpt lat="43.54696" lon="3.35019">
        <ele>210.666016</ele>
        <time>2012-02-05T09:45:51Z</time>
      </trkpt>
      <trkpt lat="43.5467" lon="3.35016">
        <ele>210.666016</ele>
        <time>2012-02-05T09:45:56Z</time>
      </trkpt>
      <trkpt lat="43.54658" lon="3.35029">
        <ele>210.185425</ele>
        <time>2012-02-05T09:45:59Z</time>
      </trkpt>
      <trkpt lat="43.54658" lon="3.35049">
        <ele>209.224121</ele>
        <time>2012-02-05T09:46:02Z</time>
      </trkpt>
      <trkpt lat="43.54659" lon="3.35055">
        <ele>209.224121</ele>
        <time>2012-02-05T09:46:03Z</time>
      </trkpt>
      <trkpt lat="43.54666" lon="3.35106">
        <ele>209.704834</ele>
        <time>2012-02-05T09:46:11Z</time>
      </trkpt>
      <trkpt lat="43.54665" lon="3.35137">
        <ele>210.185425</ele>
        <time>2012-02-05T09:46:17Z</time>
      </trkpt>
      <trkpt lat="43.54656" lon="3.35165">
        <ele>209.704834</ele>
        <time>2012-02-05T09:46:23Z</time>
      </trkpt>
      <trkpt lat="43.54636" lon="3.35191">
        <ele>208.743408</ele>
        <time>2012-02-05T09:46:30Z</time>
      </trkpt>
      <trkpt lat="43.54632" lon="3.35196">
        <ele>208.743408</ele>
        <time>2012-02-05T09:46:31Z</time>
      </trkpt>
      <trkpt lat="43.54625" lon="3.35203">
        <ele>208.743408</ele>
        <time>2012-02-05T09:46:33Z</time>
      </trkpt>
      <trkpt lat="43.54618" lon="3.35209">
        <ele>208.743408</ele>
        <time>2012-02-05T09:46:35Z</time>
      </trkpt>
      <trkpt lat="43.5459" lon="3.35224">
        <ele>209.704834</ele>
        <time>2012-02-05T09:46:43Z</time>
      </trkpt>
      <trkpt lat="43.54574" lon="3.35234">
        <ele>211.627441</ele>
        <time>2012-02-05T09:46:48Z</time>
      </trkpt>
      <trkpt lat="43.54555" lon="3.35249">
        <ele>211.146728</ele>
        <time>2012-02-05T09:46:54Z</time>
      </trkpt>
      <trkpt lat="43.54538" lon="3.35256">
        <ele>211.146728</ele>
        <time>2012-02-05T09:46:58Z</time>
      </trkpt>
      <trkpt lat="43.54518" lon="3.35267">
        <ele>211.146728</ele>
        <time>2012-02-05T09:47:03Z</time>
      </trkpt>
      <trkpt lat="43.54504" lon="3.35279">
        <ele>212.108032</ele>
        <time>2012-02-05T09:47:07Z</time>
      </trkpt>
      <trkpt lat="43.54485" lon="3.35315">
        <ele>212.588623</ele>
        <time>2012-02-05T09:47:15Z</time>
      </trkpt>
      <trkpt lat="43.54475" lon="3.35347">
        <ele>212.588623</ele>
        <time>2012-02-05T09:47:21Z</time>
      </trkpt>
      <trkpt lat="43.5446" lon="3.35395">
        <ele>212.588623</ele>
        <time>2012-02-05T09:47:29Z</time>
      </trkpt>
      <trkpt lat="43.54448" lon="3.35458">
        <ele>210.185425</ele>
        <time>2012-02-05T09:47:38Z</time>
      </trkpt>
      <trkpt lat="43.54439" lon="3.35511">
        <ele>209.224121</ele>
        <time>2012-02-05T09:47:45Z</time>
      </trkpt>
      <trkpt lat="43.5443" lon="3.35551">
        <ele>209.224121</ele>
        <time>2012-02-05T09:47:51Z</time>
      </trkpt>
      <trkpt lat="43.5442" lon="3.35597">
        <ele>209.224121</ele>
        <time>2012-02-05T09:47:58Z</time>
      </trkpt>
      <trkpt lat="43.5441" lon="3.35628">
        <ele>210.185425</ele>
        <time>2012-02-05T09:48:03Z</time>
      </trkpt>
      <trkpt lat="43.5441" lon="3.35633">
        <ele>211.627441</ele>
        <time>2012-02-05T09:48:04Z</time>
      </trkpt>
      <trkpt lat="43.54411" lon="3.35679">
        <ele>214.03064</ele>
        <time>2012-02-05T09:48:13Z</time>
      </trkpt>
      <trkpt lat="43.54411" lon="3.35684">
        <ele>214.03064</ele>
        <time>2012-02-05T09:48:14Z</time>
      </trkpt>
      <trkpt lat="43.54404" lon="3.3569">
        <ele>214.511231</ele>
        <time>2012-02-05T09:48:18Z</time>
      </trkpt>
      <trkpt lat="43.54402" lon="3.35689">
        <ele>214.991943</ele>
        <time>2012-02-05T09:48:19Z</time>
      </trkpt>
      <trkpt lat="43.54386" lon="3.3567">
        <ele>215.472656</ele>
        <time>2012-02-05T09:48:27Z</time>
      </trkpt>
      <trkpt lat="43.5438" lon="3.35647">
        <ele>215.953247</ele>
        <time>2012-02-05T09:48:34Z</time>
      </trkpt>
      <trkpt lat="43.54379" lon="3.35619">
        <ele>216.43396</ele>
        <time>2012-02-05T09:48:41Z</time>
      </trkpt>
      <trkpt lat="43.54374" lon="3.35604">
        <ele>218.83728</ele>
        <time>2012-02-05T09:48:46Z</time>
      </trkpt>
      <trkpt lat="43.54364" lon="3.35602">
        <ele>219.798584</ele>
        <time>2012-02-05T09:48:50Z</time>
      </trkpt>
      <trkpt lat="43.54346" lon="3.35608">
        <ele>221.721191</ele>
        <time>2012-02-05T09:48:58Z</time>
      </trkpt>
      <trkpt lat="43.54336" lon="3.3562">
        <ele>222.682495</ele>
        <time>2012-02-05T09:49:04Z</time>
      </trkpt>
      <trkpt lat="43.54338" lon="3.35642">
        <ele>222.682495</ele>
        <time>2012-02-05T09:49:10Z</time>
      </trkpt>
      <trkpt lat="43.54342" lon="3.35653">
        <ele>222.682495</ele>
        <time>2012-02-05T09:49:13Z</time>
      </trkpt>
      <trkpt lat="43.54343" lon="3.35673">
        <ele>224.605225</ele>
        <time>2012-02-05T09:49:20Z</time>
      </trkpt>
      <trkpt lat="43.54338" lon="3.35688">
        <ele>224.605225</ele>
        <time>2012-02-05T09:49:27Z</time>
      </trkpt>
      <trkpt lat="43.54323" lon="3.35701">
        <ele>225.085938</ele>
        <time>2012-02-05T09:49:34Z</time>
      </trkpt>
      <trkpt lat="43.54298" lon="3.35726">
        <ele>226.047119</ele>
        <time>2012-02-05T09:49:44Z</time>
      </trkpt>
      <trkpt lat="43.5428" lon="3.35736">
        <ele>226.527832</ele>
        <time>2012-02-05T09:49:50Z</time>
      </trkpt>
      <trkpt lat="43.54268" lon="3.35742">
        <ele>227.489136</ele>
        <time>2012-02-05T09:49:55Z</time>
      </trkpt>
      <trkpt lat="43.54262" lon="3.35753">
        <ele>227.489136</ele>
        <time>2012-02-05T09:50:03Z</time>
      </trkpt>
      <trkpt lat="43.54257" lon="3.3576">
        <ele>227.969727</ele>
        <time>2012-02-05T09:50:08Z</time>
      </trkpt>
      <trkpt lat="43.54254" lon="3.35764">
        <ele>227.008545</ele>
        <time>2012-02-05T09:50:11Z</time>
      </trkpt>
      <trkpt lat="43.54249" lon="3.3577">
        <ele>227.008545</ele>
        <time>2012-02-05T09:50:18Z</time>
      </trkpt>
      <trkpt lat="43.5424" lon="3.35782">
        <ele>227.489136</ele>
        <time>2012-02-05T09:50:23Z</time>
      </trkpt>
      <trkpt lat="43.5422" lon="3.35793">
        <ele>226.047119</ele>
        <time>2012-02-05T09:50:29Z</time>
      </trkpt>
      <trkpt lat="43.54212" lon="3.35797">
        <ele>225.566528</ele>
        <time>2012-02-05T09:50:31Z</time>
      </trkpt>
      <trkpt lat="43.54198" lon="3.35814">
        <ele>224.124512</ele>
        <time>2012-02-05T09:50:35Z</time>
      </trkpt>
      <trkpt lat="43.54196" lon="3.3582">
        <ele>225.085938</ele>
        <time>2012-02-05T09:50:36Z</time>
      </trkpt>
      <trkpt lat="43.54184" lon="3.3586">
        <ele>223.163208</ele>
        <time>2012-02-05T09:50:42Z</time>
      </trkpt>
      <trkpt lat="43.54169" lon="3.35877">
        <ele>223.163208</ele>
        <time>2012-02-05T09:50:46Z</time>
      </trkpt>
      <trkpt lat="43.54159" lon="3.35869">
        <ele>223.163208</ele>
        <time>2012-02-05T09:50:49Z</time>
      </trkpt>
      <trkpt lat="43.54157" lon="3.35866">
        <ele>223.163208</ele>
        <time>2012-02-05T09:50:50Z</time>
      </trkpt>
      <trkpt lat="43.54149" lon="3.35851">
        <ele>222.682495</ele>
        <time>2012-02-05T09:50:56Z</time>
      </trkpt>
      <trkpt lat="43.54147" lon="3.35843">
        <ele>223.643799</ele>
        <time>2012-02-05T09:51:00Z</time>
      </trkpt>
      <trkpt lat="43.54141" lon="3.3582">
        <ele>223.643799</ele>
        <time>2012-02-05T09:51:06Z</time>
      </trkpt>
      <trkpt lat="43.54134" lon="3.3581">
        <ele>226.527832</ele>
        <time>2012-02-05T09:51:10Z</time>
      </trkpt>
      <trkpt lat="43.5412" lon="3.35801">
        <ele>227.008545</ele>
        <time>2012-02-05T09:51:15Z</time>
      </trkpt>
      <trkpt lat="43.54107" lon="3.35787">
        <ele>227.489136</ele>
        <time>2012-02-05T09:51:20Z</time>
      </trkpt>
      <trkpt lat="43.54103" lon="3.35785">
        <ele>227.008545</ele>
        <time>2012-02-05T09:51:21Z</time>
      </trkpt>
      <trkpt lat="43.54095" lon="3.35781">
        <ele>226.047119</ele>
        <time>2012-02-05T09:51:23Z</time>
      </trkpt>
      <trkpt lat="43.54071" lon="3.35776">
        <ele>226.527832</ele>
        <time>2012-02-05T09:51:28Z</time>
      </trkpt>
      <trkpt lat="43.54035" lon="3.35759">
        <ele>224.605225</ele>
        <time>2012-02-05T09:51:35Z</time>
      </trkpt>
      <trkpt lat="43.53996" lon="3.35724">
        <ele>224.124512</ele>
        <time>2012-02-05T09:51:44Z</time>
      </trkpt>
      <trkpt lat="43.53993" lon="3.3572">
        <ele>225.566528</ele>
        <time>2012-02-05T09:51:45Z</time>
      </trkpt>
      <trkpt lat="43.53971" lon="3.35703">
        <ele>225.566528</ele>
        <time>2012-02-05T09:51:51Z</time>
      </trkpt>
      <trkpt lat="43.53967" lon="3.35701">
        <ele>226.527832</ele>
        <time>2012-02-05T09:51:52Z</time>
      </trkpt>
      <trkpt lat="43.53949" lon="3.35685">
        <ele>227.489136</ele>
        <time>2012-02-05T09:51:57Z</time>
      </trkpt>
      <trkpt lat="43.53937" lon="3.35656">
        <ele>229.411743</ele>
        <time>2012-02-05T09:52:03Z</time>
      </trkpt>
      <trkpt lat="43.53929" lon="3.35611">
        <ele>229.892334</ele>
        <time>2012-02-05T09:52:11Z</time>
      </trkpt>
      <trkpt lat="43.53918" lon="3.35569">
        <ele>232.776489</ele>
        <time>2012-02-05T09:52:19Z</time>
      </trkpt>
      <trkpt lat="43.5391" lon="3.35549">
        <ele>231.814941</ele>
        <time>2012-02-05T09:52:24Z</time>
      </trkpt>
      <trkpt lat="43.53896" lon="3.35532">
        <ele>233.25708</ele>
        <time>2012-02-05T09:52:30Z</time>
      </trkpt>
      <trkpt lat="43.53884" lon="3.35532">
        <ele>232.776489</ele>
        <time>2012-02-05T09:52:34Z</time>
      </trkpt>
      <trkpt lat="43.53879" lon="3.3554">
        <ele>232.776489</ele>
        <time>2012-02-05T09:52:36Z</time>
      </trkpt>
      <trkpt lat="43.53863" lon="3.35549">
        <ele>233.25708</ele>
        <time>2012-02-05T09:52:40Z</time>
      </trkpt>
      <trkpt lat="43.53855" lon="3.35552">
        <ele>233.25708</ele>
        <time>2012-02-05T09:52:42Z</time>
      </trkpt>
      <trkpt lat="43.5383" lon="3.3557">
        <ele>233.737671</ele>
        <time>2012-02-05T09:52:48Z</time>
      </trkpt>
      <trkpt lat="43.53812" lon="3.35583">
        <ele>233.25708</ele>
        <time>2012-02-05T09:52:53Z</time>
      </trkpt>
      <trkpt lat="43.5381" lon="3.35603">
        <ele>233.25708</ele>
        <time>2012-02-05T09:52:56Z</time>
      </trkpt>
      <trkpt lat="43.53802" lon="3.35619">
        <ele>232.776489</ele>
        <time>2012-02-05T09:52:59Z</time>
      </trkpt>
      <trkpt lat="43.53781" lon="3.35625">
        <ele>233.737671</ele>
        <time>2012-02-05T09:53:04Z</time>
      </trkpt>
      <trkpt lat="43.53765" lon="3.3561">
        <ele>236.140991</ele>
        <time>2012-02-05T09:53:09Z</time>
      </trkpt>
      <trkpt lat="43.5376" lon="3.35604">
        <ele>237.102295</ele>
        <time>2012-02-05T09:53:11Z</time>
      </trkpt>
      <trkpt lat="43.5374" lon="3.35603">
        <ele>237.582886</ele>
        <time>2012-02-05T09:53:17Z</time>
      </trkpt>
      <trkpt lat="43.53716" lon="3.35599">
        <ele>237.582886</ele>
        <time>2012-02-05T09:53:24Z</time>
      </trkpt>
      <trkpt lat="43.53696" lon="3.35596">
        <ele>238.544311</ele>
        <time>2012-02-05T09:53:30Z</time>
      </trkpt>
      <trkpt lat="43.53685" lon="3.35601">
        <ele>239.024902</ele>
        <time>2012-02-05T09:53:34Z</time>
      </trkpt>
      <trkpt lat="43.53674" lon="3.35613">
        <ele>239.505493</ele>
        <time>2012-02-05T09:53:38Z</time>
      </trkpt>
      <trkpt lat="43.53659" lon="3.35623">
        <ele>240.467041</ele>
        <time>2012-02-05T09:53:43Z</time>
      </trkpt>
      <trkpt lat="43.53642" lon="3.35629">
        <ele>240.467041</ele>
        <time>2012-02-05T09:53:48Z</time>
      </trkpt>
      <trkpt lat="43.53623" lon="3.35633">
        <ele>239.986206</ele>
        <time>2012-02-05T09:53:54Z</time>
      </trkpt>
      <trkpt lat="43.53623" lon="3.35633">
        <ele>239.986206</ele>
        <time>2012-02-05T09:53:55Z</time>
      </trkpt>
      <trkpt lat="43.53622" lon="3.35632">
        <ele>239.505493</ele>
        <time>2012-02-05T09:54:00Z</time>
      </trkpt>
      <trkpt lat="43.53611" lon="3.35627">
        <ele>239.505493</ele>
        <time>2012-02-05T09:54:04Z</time>
      </trkpt>
      <trkpt lat="43.536" lon="3.35622">
        <ele>239.024902</ele>
        <time>2012-02-05T09:54:08Z</time>
      </trkpt>
      <trkpt lat="43.53597" lon="3.35615">
        <ele>239.505493</ele>
        <time>2012-02-05T09:54:13Z</time>
      </trkpt>
      <trkpt lat="43.53595" lon="3.35608">
        <ele>238.544311</ele>
        <time>2012-02-05T09:54:15Z</time>
      </trkpt>
      <trkpt lat="43.536" lon="3.35589">
        <ele>238.544311</ele>
        <time>2012-02-05T09:54:19Z</time>
      </trkpt>
      <trkpt lat="43.53612" lon="3.35564">
        <ele>239.024902</ele>
        <time>2012-02-05T09:54:24Z</time>
      </trkpt>
      <trkpt lat="43.53621" lon="3.35542">
        <ele>239.986206</ele>
        <time>2012-02-05T09:54:28Z</time>
      </trkpt>
      <trkpt lat="43.5363" lon="3.35526">
        <ele>239.505493</ele>
        <time>2012-02-05T09:54:31Z</time>
      </trkpt>
      <trkpt lat="43.53648" lon="3.35495">
        <ele>239.505493</ele>
        <time>2012-02-05T09:54:37Z</time>
      </trkpt>
      <trkpt lat="43.53662" lon="3.35468">
        <ele>239.505493</ele>
        <time>2012-02-05T09:54:42Z</time>
      </trkpt>
      <trkpt lat="43.53669" lon="3.35459">
        <ele>239.505493</ele>
        <time>2012-02-05T09:54:44Z</time>
      </trkpt>
      <trkpt lat="43.53709" lon="3.35429">
        <ele>239.505493</ele>
        <time>2012-02-05T09:54:53Z</time>
      </trkpt>
      <trkpt lat="43.53732" lon="3.35409">
        <ele>239.986206</ele>
        <time>2012-02-05T09:54:58Z</time>
      </trkpt>
      <trkpt lat="43.53757" lon="3.35383">
        <ele>239.024902</ele>
        <time>2012-02-05T09:55:03Z</time>
      </trkpt>
      <trkpt lat="43.53763" lon="3.35379">
        <ele>239.024902</ele>
        <time>2012-02-05T09:55:04Z</time>
      </trkpt>
      <trkpt lat="43.53798" lon="3.35352">
        <ele>236.621704</ele>
        <time>2012-02-05T09:55:10Z</time>
      </trkpt>
      <trkpt lat="43.53804" lon="3.35348">
        <ele>236.140991</ele>
        <time>2012-02-05T09:55:11Z</time>
      </trkpt>
      <trkpt lat="43.53817" lon="3.35341">
        <ele>235.660278</ele>
        <time>2012-02-05T09:55:13Z</time>
      </trkpt>
      <trkpt lat="43.53848" lon="3.35322">
        <ele>235.179688</ele>
        <time>2012-02-05T09:55:18Z</time>
      </trkpt>
      <trkpt lat="43.53873" lon="3.35296">
        <ele>233.25708</ele>
        <time>2012-02-05T09:55:23Z</time>
      </trkpt>
      <trkpt lat="43.53877" lon="3.35297">
        <ele>232.776489</ele>
        <time>2012-02-05T09:55:24Z</time>
      </trkpt>
      <trkpt lat="43.53895" lon="3.35298">
        <ele>232.295776</ele>
        <time>2012-02-05T09:55:28Z</time>
      </trkpt>
      <trkpt lat="43.53911" lon="3.3529">
        <ele>231.334351</ele>
        <time>2012-02-05T09:55:32Z</time>
      </trkpt>
      <trkpt lat="43.53934" lon="3.35283">
        <ele>231.334351</ele>
        <time>2012-02-05T09:55:37Z</time>
      </trkpt>
      <trkpt lat="43.53954" lon="3.3528">
        <ele>231.334351</ele>
        <time>2012-02-05T09:55:41Z</time>
      </trkpt>
      <trkpt lat="43.53973" lon="3.35277">
        <ele>231.334351</ele>
        <time>2012-02-05T09:55:45Z</time>
      </trkpt>
      <trkpt lat="43.53985" lon="3.3526">
        <ele>231.334351</ele>
        <time>2012-02-05T09:55:49Z</time>
      </trkpt>
      <trkpt lat="43.53994" lon="3.35248">
        <ele>230.373047</ele>
        <time>2012-02-05T09:55:52Z</time>
      </trkpt>
      <trkpt lat="43.54008" lon="3.3523">
        <ele>229.892334</ele>
        <time>2012-02-05T09:55:56Z</time>
      </trkpt>
      <trkpt lat="43.54011" lon="3.35211">
        <ele>227.969727</ele>
        <time>2012-02-05T09:55:59Z</time>
      </trkpt>
      <trkpt lat="43.54013" lon="3.35208">
        <ele>227.969727</ele>
        <time>2012-02-05T09:56:00Z</time>
      </trkpt>
      <trkpt lat="43.54023" lon="3.35203">
        <ele>226.527832</ele>
        <time>2012-02-05T09:56:03Z</time>
      </trkpt>
      <trkpt lat="43.54025" lon="3.35198">
        <ele>227.008545</ele>
        <time>2012-02-05T09:56:04Z</time>
      </trkpt>
      <trkpt lat="43.54036" lon="3.35178">
        <ele>227.008545</ele>
        <time>2012-02-05T09:56:07Z</time>
      </trkpt>
      <trkpt lat="43.54057" lon="3.35149">
        <ele>224.605225</ele>
        <time>2012-02-05T09:56:12Z</time>
      </trkpt>
      <trkpt lat="43.54062" lon="3.35141">
        <ele>224.605225</ele>
        <time>2012-02-05T09:56:14Z</time>
      </trkpt>
      <trkpt lat="43.54084" lon="3.35114">
        <ele>224.605225</ele>
        <time>2012-02-05T09:56:20Z</time>
      </trkpt>
      <trkpt lat="43.54097" lon="3.351">
        <ele>225.566528</ele>
        <time>2012-02-05T09:56:23Z</time>
      </trkpt>
      <trkpt lat="43.541" lon="3.35087">
        <ele>225.085938</ele>
        <time>2012-02-05T09:56:26Z</time>
      </trkpt>
      <trkpt lat="43.54098" lon="3.35083">
        <ele>225.566528</ele>
        <time>2012-02-05T09:56:27Z</time>
      </trkpt>
      <trkpt lat="43.54078" lon="3.35052">
        <ele>224.124512</ele>
        <time>2012-02-05T09:56:33Z</time>
      </trkpt>
      <trkpt lat="43.54054" lon="3.35028">
        <ele>224.605225</ele>
        <time>2012-02-05T09:56:38Z</time>
      </trkpt>
      <trkpt lat="43.54036" lon="3.35006">
        <ele>223.163208</ele>
        <time>2012-02-05T09:56:42Z</time>
      </trkpt>
      <trkpt lat="43.54027" lon="3.3498">
        <ele>223.643799</ele>
        <time>2012-02-05T09:56:46Z</time>
      </trkpt>
      <trkpt lat="43.54025" lon="3.34966">
        <ele>223.643799</ele>
        <time>2012-02-05T09:56:48Z</time>
      </trkpt>
      <trkpt lat="43.54023" lon="3.3495">
        <ele>223.643799</ele>
        <time>2012-02-05T09:56:50Z</time>
      </trkpt>
      <trkpt lat="43.54028" lon="3.3492">
        <ele>223.163208</ele>
        <time>2012-02-05T09:56:54Z</time>
      </trkpt>
      <trkpt lat="43.54035" lon="3.34904">
        <ele>221.240601</ele>
        <time>2012-02-05T09:56:57Z</time>
      </trkpt>
      <trkpt lat="43.54038" lon="3.34892">
        <ele>220.759888</ele>
        <time>2012-02-05T09:56:59Z</time>
      </trkpt>
      <trkpt lat="43.54042" lon="3.34874">
        <ele>218.356567</ele>
        <time>2012-02-05T09:57:02Z</time>
      </trkpt>
      <trkpt lat="43.54043" lon="3.3486">
        <ele>217.395386</ele>
        <time>2012-02-05T09:57:04Z</time>
      </trkpt>
      <trkpt lat="43.54041" lon="3.34845">
        <ele>215.953247</ele>
        <time>2012-02-05T09:57:06Z</time>
      </trkpt>
      <trkpt lat="43.54039" lon="3.3483">
        <ele>215.953247</ele>
        <time>2012-02-05T09:57:08Z</time>
      </trkpt>
      <trkpt lat="43.54036" lon="3.3481">
        <ele>213.069336</ele>
        <time>2012-02-05T09:57:12Z</time>
      </trkpt>
      <trkpt lat="43.54029" lon="3.34794">
        <ele>212.588623</ele>
        <time>2012-02-05T09:57:15Z</time>
      </trkpt>
      <trkpt lat="43.54022" lon="3.34781">
        <ele>211.146728</ele>
        <time>2012-02-05T09:57:17Z</time>
      </trkpt>
      <trkpt lat="43.54016" lon="3.34768">
        <ele>209.224121</ele>
        <time>2012-02-05T09:57:19Z</time>
      </trkpt>
      <trkpt lat="43.5401" lon="3.34737">
        <ele>206.820679</ele>
        <time>2012-02-05T09:57:24Z</time>
      </trkpt>
      <trkpt lat="43.54013" lon="3.34722">
        <ele>203.93689</ele>
        <time>2012-02-05T09:57:27Z</time>
      </trkpt>
      <trkpt lat="43.54015" lon="3.34718">
        <ele>203.456177</ele>
        <time>2012-02-05T09:57:28Z</time>
      </trkpt>
      <trkpt lat="43.54017" lon="3.3471">
        <ele>203.456177</ele>
        <time>2012-02-05T09:57:30Z</time>
      </trkpt>
      <trkpt lat="43.54012" lon="3.34688">
        <ele>199.61084</ele>
        <time>2012-02-05T09:57:35Z</time>
      </trkpt>
      <trkpt lat="43.54009" lon="3.34677">
        <ele>197.688232</ele>
        <time>2012-02-05T09:57:38Z</time>
      </trkpt>
      <trkpt lat="43.54005" lon="3.34655">
        <ele>196.246338</ele>
        <time>2012-02-05T09:57:43Z</time>
      </trkpt>
      <trkpt lat="43.54004" lon="3.34637">
        <ele>194.804321</ele>
        <time>2012-02-05T09:57:48Z</time>
      </trkpt>
      <trkpt lat="43.54003" lon="3.34628">
        <ele>193.843018</ele>
        <time>2012-02-05T09:57:50Z</time>
      </trkpt>
      <trkpt lat="43.54" lon="3.34621">
        <ele>192.881714</ele>
        <time>2012-02-05T09:57:52Z</time>
      </trkpt>
      <trkpt lat="43.53996" lon="3.34615">
        <ele>192.401123</ele>
        <time>2012-02-05T09:57:54Z</time>
      </trkpt>
      <trkpt lat="43.53991" lon="3.34601">
        <ele>190.478394</ele>
        <time>2012-02-05T09:57:57Z</time>
      </trkpt>
      <trkpt lat="43.53989" lon="3.34597">
        <ele>189.997681</ele>
        <time>2012-02-05T09:57:58Z</time>
      </trkpt>
      <trkpt lat="43.53984" lon="3.34563">
        <ele>187.59436</ele>
        <time>2012-02-05T09:58:04Z</time>
      </trkpt>
      <trkpt lat="43.53981" lon="3.3455">
        <ele>186.633179</ele>
        <time>2012-02-05T09:58:06Z</time>
      </trkpt>
      <trkpt lat="43.5398" lon="3.34543">
        <ele>186.152466</ele>
        <time>2012-02-05T09:58:07Z</time>
      </trkpt>
      <trkpt lat="43.53967" lon="3.34522">
        <ele>185.191162</ele>
        <time>2012-02-05T09:58:11Z</time>
      </trkpt>
      <trkpt lat="43.53962" lon="3.34518">
        <ele>184.710571</ele>
        <time>2012-02-05T09:58:12Z</time>
      </trkpt>
      <trkpt lat="43.53943" lon="3.34499">
        <ele>179.903809</ele>
        <time>2012-02-05T09:58:17Z</time>
      </trkpt>
      <trkpt lat="43.53931" lon="3.34492">
        <ele>177.50061</ele>
        <time>2012-02-05T09:58:20Z</time>
      </trkpt>
      <trkpt lat="43.53918" lon="3.34489">
        <ele>176.058594</ele>
        <time>2012-02-05T09:58:23Z</time>
      </trkpt>
      <trkpt lat="43.539" lon="3.34485">
        <ele>175.577881</ele>
        <time>2012-02-05T09:58:26Z</time>
      </trkpt>
      <trkpt lat="43.53879" lon="3.34478">
        <ele>170.771362</ele>
        <time>2012-02-05T09:58:29Z</time>
      </trkpt>
      <trkpt lat="43.53856" lon="3.34457">
        <ele>168.368042</ele>
        <time>2012-02-05T09:58:33Z</time>
      </trkpt>
      <trkpt lat="43.53852" lon="3.34449">
        <ele>168.368042</ele>
        <time>2012-02-05T09:58:34Z</time>
      </trkpt>
      <trkpt lat="43.53844" lon="3.34406">
        <ele>165.484131</ele>
        <time>2012-02-05T09:58:40Z</time>
      </trkpt>
      <trkpt lat="43.53844" lon="3.34405">
        <ele>165.003418</ele>
        <time>2012-02-05T09:58:42Z</time>
      </trkpt>
      <trkpt lat="43.53845" lon="3.34404">
        <ele>165.003418</ele>
        <time>2012-02-05T09:58:45Z</time>
      </trkpt>
      <trkpt lat="43.53844" lon="3.34393">
        <ele>165.003418</ele>
        <time>2012-02-05T09:58:48Z</time>
      </trkpt>
      <trkpt lat="43.53845" lon="3.34381">
        <ele>164.042114</ele>
        <time>2012-02-05T09:58:53Z</time>
      </trkpt>
      <trkpt lat="43.53845" lon="3.34364">
        <ele>162.600098</ele>
        <time>2012-02-05T09:58:57Z</time>
      </trkpt>
      <trkpt lat="43.53844" lon="3.34356">
        <ele>161.638916</ele>
        <time>2012-02-05T09:58:59Z</time>
      </trkpt>
      <trkpt lat="43.53842" lon="3.34347">
        <ele>161.158203</ele>
        <time>2012-02-05T09:59:01Z</time>
      </trkpt>
      <trkpt lat="43.53838" lon="3.3432">
        <ele>157.793579</ele>
        <time>2012-02-05T09:59:06Z</time>
      </trkpt>
      <trkpt lat="43.53835" lon="3.34312">
        <ele>156.832153</ele>
        <time>2012-02-05T09:59:08Z</time>
      </trkpt>
      <trkpt lat="43.53829" lon="3.34297">
        <ele>154.428955</ele>
        <time>2012-02-05T09:59:12Z</time>
      </trkpt>
      <trkpt lat="43.53826" lon="3.34294">
        <ele>154.428955</ele>
        <time>2012-02-05T09:59:13Z</time>
      </trkpt>
      <trkpt lat="43.53823" lon="3.34283">
        <ele>152.025757</ele>
        <time>2012-02-05T09:59:16Z</time>
      </trkpt>
      <trkpt lat="43.53825" lon="3.34269">
        <ele>151.064209</ele>
        <time>2012-02-05T09:59:19Z</time>
      </trkpt>
      <trkpt lat="43.53823" lon="3.34252">
        <ele>149.141602</ele>
        <time>2012-02-05T09:59:23Z</time>
      </trkpt>
      <trkpt lat="43.53817" lon="3.34237">
        <ele>147.218994</ele>
        <time>2012-02-05T09:59:28Z</time>
      </trkpt>
      <trkpt lat="43.53816" lon="3.34237">
        <ele>147.218994</ele>
        <time>2012-02-05T09:59:29Z</time>
      </trkpt>
      <trkpt lat="43.53816" lon="3.34236">
        <ele>147.218994</ele>
        <time>2012-02-05T10:00:28Z</time>
      </trkpt>
      <trkpt lat="43.53818" lon="3.34232">
        <ele>146.738403</ele>
        <time>2012-02-05T10:00:30Z</time>
      </trkpt>
      <trkpt lat="43.53824" lon="3.34228">
        <ele>144.815796</ele>
        <time>2012-02-05T10:00:34Z</time>
      </trkpt>
      <trkpt lat="43.53824" lon="3.34227">
        <ele>144.335205</ele>
        <time>2012-02-05T10:00:35Z</time>
      </trkpt>
      <trkpt lat="43.53827" lon="3.34221">
        <ele>141.931763</ele>
        <time>2012-02-05T10:00:39Z</time>
      </trkpt>
      <trkpt lat="43.53829" lon="3.34215">
        <ele>139.528442</ele>
        <time>2012-02-05T10:00:43Z</time>
      </trkpt>
      <trkpt lat="43.53829" lon="3.34215">
        <ele>139.528442</ele>
        <time>2012-02-05T10:00:44Z</time>
      </trkpt>
      <trkpt lat="43.53829" lon="3.34213">
        <ele>138.567261</ele>
        <time>2012-02-05T10:01:00Z</time>
      </trkpt>
      <trkpt lat="43.53825" lon="3.34208">
        <ele>138.086548</ele>
        <time>2012-02-05T10:01:04Z</time>
      </trkpt>
      <trkpt lat="43.53825" lon="3.34208">
        <ele>139.047852</ele>
        <time>2012-02-05T10:01:07Z</time>
      </trkpt>
      <trkpt lat="43.53824" lon="3.34208">
        <ele>138.567261</ele>
        <time>2012-02-05T10:01:08Z</time>
      </trkpt>
      <trkpt lat="43.53822" lon="3.34201">
        <ele>138.086548</ele>
        <time>2012-02-05T10:01:10Z</time>
      </trkpt>
      <trkpt lat="43.5382" lon="3.34197">
        <ele>136.16394</ele>
        <time>2012-02-05T10:01:12Z</time>
      </trkpt>
      <trkpt lat="43.53816" lon="3.34194">
        <ele>134.241211</ele>
        <time>2012-02-05T10:01:15Z</time>
      </trkpt>
      <trkpt lat="43.53802" lon="3.34188">
        <ele>136.16394</ele>
        <time>2012-02-05T10:01:22Z</time>
      </trkpt>
      <trkpt lat="43.53789" lon="3.34189">
        <ele>137.605835</ele>
        <time>2012-02-05T10:01:26Z</time>
      </trkpt>
      <trkpt lat="43.53772" lon="3.34197">
        <ele>138.086548</ele>
        <time>2012-02-05T10:01:31Z</time>
      </trkpt>
      <trkpt lat="43.53751" lon="3.34223">
        <ele>138.086548</ele>
        <time>2012-02-05T10:01:38Z</time>
      </trkpt>
      <trkpt lat="43.5375" lon="3.34225">
        <ele>139.047852</ele>
        <time>2012-02-05T10:01:39Z</time>
      </trkpt>
      <trkpt lat="43.53745" lon="3.34226">
        <ele>138.567261</ele>
        <time>2012-02-05T10:01:43Z</time>
      </trkpt>
      <trkpt lat="43.53735" lon="3.34231">
        <ele>135.683106</ele>
        <time>2012-02-05T10:01:50Z</time>
      </trkpt>
      <trkpt lat="43.53732" lon="3.3424">
        <ele>135.202515</ele>
        <time>2012-02-05T10:01:54Z</time>
      </trkpt>
      <trkpt lat="43.53728" lon="3.34239">
        <ele>134.241211</ele>
        <time>2012-02-05T10:01:56Z</time>
      </trkpt>
      <trkpt lat="43.5372" lon="3.34229">
        <ele>131.837891</ele>
        <time>2012-02-05T10:02:02Z</time>
      </trkpt>
      <trkpt lat="43.53717" lon="3.34223">
        <ele>128.473389</ele>
        <time>2012-02-05T10:02:05Z</time>
      </trkpt>
      <trkpt lat="43.53716" lon="3.34221">
        <ele>128.473389</ele>
        <time>2012-02-05T10:02:06Z</time>
      </trkpt>
      <trkpt lat="43.53714" lon="3.34218">
        <ele>127.511963</ele>
        <time>2012-02-05T10:02:08Z</time>
      </trkpt>
      <trkpt lat="43.53705" lon="3.34214">
        <ele>123.186157</ele>
        <time>2012-02-05T10:02:13Z</time>
      </trkpt>
      <trkpt lat="43.53704" lon="3.34213">
        <ele>123.186157</ele>
        <time>2012-02-05T10:02:14Z</time>
      </trkpt>
      <trkpt lat="43.53702" lon="3.34207">
        <ele>122.224731</ele>
        <time>2012-02-05T10:02:18Z</time>
      </trkpt>
      <trkpt lat="43.53702" lon="3.34207">
        <ele>122.705444</ele>
        <time>2012-02-05T10:02:19Z</time>
      </trkpt>
      <trkpt lat="43.53709" lon="3.3421">
        <ele>124.147339</ele>
        <time>2012-02-05T10:21:53Z</time>
      </trkpt>
      <trkpt lat="43.53709" lon="3.3421">
        <ele>125.108765</ele>
        <time>2012-02-05T10:21:54Z</time>
      </trkpt>
      <trkpt lat="43.5371" lon="3.3421">
        <ele>125.108765</ele>
        <time>2012-02-05T10:21:56Z</time>
      </trkpt>
      <trkpt lat="43.53711" lon="3.34209">
        <ele>124.628052</ele>
        <time>2012-02-05T10:22:18Z</time>
      </trkpt>
      <trkpt lat="43.53711" lon="3.34209">
        <ele>124.628052</ele>
        <time>2012-02-05T10:22:19Z</time>
      </trkpt>
      <trkpt lat="43.53712" lon="3.34209">
        <ele>124.628052</ele>
        <time>2012-02-05T10:22:22Z</time>
      </trkpt>
      <trkpt lat="43.53712" lon="3.34209">
        <ele>125.108765</ele>
        <time>2012-02-05T10:22:23Z</time>
      </trkpt>
      <trkpt lat="43.53713" lon="3.34208">
        <ele>125.108765</ele>
        <time>2012-02-05T10:22:24Z</time>
      </trkpt>
      <trkpt lat="43.53713" lon="3.34208">
        <ele>125.589355</ele>
        <time>2012-02-05T10:22:28Z</time>
      </trkpt>
      <trkpt lat="43.53717" lon="3.34206">
        <ele>126.069946</ele>
        <time>2012-02-05T10:22:34Z</time>
      </trkpt>
      <trkpt lat="43.53721" lon="3.342">
        <ele>126.069946</ele>
        <time>2012-02-05T10:22:40Z</time>
      </trkpt>
      <trkpt lat="43.53722" lon="3.34198">
        <ele>125.589355</ele>
        <time>2012-02-05T10:22:43Z</time>
      </trkpt>
      <trkpt lat="43.53722" lon="3.34198">
        <ele>127.031372</ele>
        <time>2012-02-05T10:22:46Z</time>
      </trkpt>
      <trkpt lat="43.53723" lon="3.34197">
        <ele>125.589355</ele>
        <time>2012-02-05T10:22:47Z</time>
      </trkpt>
      <trkpt lat="43.53731" lon="3.34189">
        <ele>126.069946</ele>
        <time>2012-02-05T10:22:51Z</time>
      </trkpt>
      <trkpt lat="43.53746" lon="3.34177">
        <ele>125.589355</ele>
        <time>2012-02-05T10:22:57Z</time>
      </trkpt>
      <trkpt lat="43.53755" lon="3.3417">
        <ele>125.108765</ele>
        <time>2012-02-05T10:23:03Z</time>
      </trkpt>
      <trkpt lat="43.53769" lon="3.3416">
        <ele>125.108765</ele>
        <time>2012-02-05T10:23:11Z</time>
      </trkpt>
      <trkpt lat="43.53785" lon="3.34152">
        <ele>125.589355</ele>
        <time>2012-02-05T10:23:20Z</time>
      </trkpt>
      <trkpt lat="43.53805" lon="3.34141">
        <ele>126.069946</ele>
        <time>2012-02-05T10:23:31Z</time>
      </trkpt>
      <trkpt lat="43.53815" lon="3.34136">
        <ele>126.069946</ele>
        <time>2012-02-05T10:23:37Z</time>
      </trkpt>
      <trkpt lat="43.53826" lon="3.34142">
        <ele>126.069946</ele>
        <time>2012-02-05T10:23:43Z</time>
      </trkpt>
      <trkpt lat="43.53834" lon="3.34155">
        <ele>126.550659</ele>
        <time>2012-02-05T10:23:49Z</time>
      </trkpt>
      <trkpt lat="43.53844" lon="3.34168">
        <ele>127.031372</ele>
        <time>2012-02-05T10:23:57Z</time>
      </trkpt>
      <trkpt lat="43.53856" lon="3.34172">
        <ele>127.511963</ele>
        <time>2012-02-05T10:24:03Z</time>
      </trkpt>
      <trkpt lat="43.53871" lon="3.34169">
        <ele>127.511963</ele>
        <time>2012-02-05T10:24:10Z</time>
      </trkpt>
      <trkpt lat="43.5388" lon="3.34159">
        <ele>126.550659</ele>
        <time>2012-02-05T10:24:14Z</time>
      </trkpt>
      <trkpt lat="43.53889" lon="3.34139">
        <ele>126.550659</ele>
        <time>2012-02-05T10:24:20Z</time>
      </trkpt>
      <trkpt lat="43.53894" lon="3.34129">
        <ele>126.069946</ele>
        <time>2012-02-05T10:24:25Z</time>
      </trkpt>
      <trkpt lat="43.53895" lon="3.34126">
        <ele>126.069946</ele>
        <time>2012-02-05T10:24:26Z</time>
      </trkpt>
      <trkpt lat="43.53906" lon="3.34123">
        <ele>127.511963</ele>
        <time>2012-02-05T10:24:32Z</time>
      </trkpt>
      <trkpt lat="43.5391" lon="3.34125">
        <ele>127.992554</ele>
        <time>2012-02-05T10:24:34Z</time>
      </trkpt>
      <trkpt lat="43.53927" lon="3.34129">
        <ele>128.473389</ele>
        <time>2012-02-05T10:24:42Z</time>
      </trkpt>
      <trkpt lat="43.5394" lon="3.34118">
        <ele>128.954102</ele>
        <time>2012-02-05T10:24:49Z</time>
      </trkpt>
      <trkpt lat="43.53954" lon="3.34101">
        <ele>130.395996</ele>
        <time>2012-02-05T10:24:58Z</time>
      </trkpt>
      <trkpt lat="43.53968" lon="3.34087">
        <ele>131.3573</ele>
        <time>2012-02-05T10:25:06Z</time>
      </trkpt>
      <trkpt lat="43.53986" lon="3.34072">
        <ele>132.318603</ele>
        <time>2012-02-05T10:25:16Z</time>
      </trkpt>
      <trkpt lat="43.54001" lon="3.34059">
        <ele>133.760498</ele>
        <time>2012-02-05T10:25:24Z</time>
      </trkpt>
      <trkpt lat="43.54021" lon="3.34042">
        <ele>134.241211</ele>
        <time>2012-02-05T10:25:35Z</time>
      </trkpt>
      <trkpt lat="43.54038" lon="3.34027">
        <ele>135.683106</ele>
        <time>2012-02-05T10:25:44Z</time>
      </trkpt>
      <trkpt lat="43.54058" lon="3.34009">
        <ele>137.605835</ele>
        <time>2012-02-05T10:25:55Z</time>
      </trkpt>
      <trkpt lat="43.54076" lon="3.33994">
        <ele>139.528442</ele>
        <time>2012-02-05T10:26:05Z</time>
      </trkpt>
      <trkpt lat="43.54083" lon="3.33979">
        <ele>140.489868</ele>
        <time>2012-02-05T10:26:12Z</time>
      </trkpt>
      <trkpt lat="43.54085" lon="3.33959">
        <ele>140.009155</ele>
        <time>2012-02-05T10:26:20Z</time>
      </trkpt>
      <trkpt lat="43.54083" lon="3.33932">
        <ele>140.489868</ele>
        <time>2012-02-05T10:26:30Z</time>
      </trkpt>
      <trkpt lat="43.54081" lon="3.33919">
        <ele>140.970459</ele>
        <time>2012-02-05T10:26:36Z</time>
      </trkpt>
      <trkpt lat="43.54074" lon="3.33904">
        <ele>140.970459</ele>
        <time>2012-02-05T10:26:42Z</time>
      </trkpt>
      <trkpt lat="43.54065" lon="3.33879">
        <ele>141.931763</ele>
        <time>2012-02-05T10:26:50Z</time>
      </trkpt>
      <trkpt lat="43.54058" lon="3.33853">
        <ele>143.373657</ele>
        <time>2012-02-05T10:26:59Z</time>
      </trkpt>
      <trkpt lat="43.54055" lon="3.33842">
        <ele>143.373657</ele>
        <time>2012-02-05T10:27:05Z</time>
      </trkpt>
      <trkpt lat="43.54056" lon="3.33836">
        <ele>143.85437</ele>
        <time>2012-02-05T10:27:11Z</time>
      </trkpt>
      <trkpt lat="43.5406" lon="3.33832">
        <ele>144.815796</ele>
        <time>2012-02-05T10:27:20Z</time>
      </trkpt>
      <trkpt lat="43.54061" lon="3.33832">
        <ele>144.815796</ele>
        <time>2012-02-05T10:27:35Z</time>
      </trkpt>
      <trkpt lat="43.54065" lon="3.3383">
        <ele>145.7771</ele>
        <time>2012-02-05T10:27:38Z</time>
      </trkpt>
      <trkpt lat="43.54076" lon="3.33822">
        <ele>148.18042</ele>
        <time>2012-02-05T10:27:48Z</time>
      </trkpt>
      <trkpt lat="43.54085" lon="3.33816">
        <ele>150.103027</ele>
        <time>2012-02-05T10:27:57Z</time>
      </trkpt>
      <trkpt lat="43.54093" lon="3.33809">
        <ele>152.986939</ele>
        <time>2012-02-05T10:28:05Z</time>
      </trkpt>
      <trkpt lat="43.54099" lon="3.33802">
        <ele>153.467651</ele>
        <time>2012-02-05T10:28:12Z</time>
      </trkpt>
      <trkpt lat="43.541" lon="3.338">
        <ele>154.428955</ele>
        <time>2012-02-05T10:28:14Z</time>
      </trkpt>
      <trkpt lat="43.54105" lon="3.33802">
        <ele>155.870972</ele>
        <time>2012-02-05T10:28:20Z</time>
      </trkpt>
      <trkpt lat="43.5411" lon="3.33813">
        <ele>158.27417</ele>
        <time>2012-02-05T10:28:30Z</time>
      </trkpt>
      <trkpt lat="43.54115" lon="3.33824">
        <ele>159.716186</ele>
        <time>2012-02-05T10:28:40Z</time>
      </trkpt>
      <trkpt lat="43.54121" lon="3.33835">
        <ele>160.67749</ele>
        <time>2012-02-05T10:28:49Z</time>
      </trkpt>
      <trkpt lat="43.54127" lon="3.33842">
        <ele>162.119507</ele>
        <time>2012-02-05T10:28:57Z</time>
      </trkpt>
      <trkpt lat="43.54133" lon="3.33849">
        <ele>163.080811</ele>
        <time>2012-02-05T10:29:05Z</time>
      </trkpt>
      <trkpt lat="43.54139" lon="3.33852">
        <ele>163.561523</ele>
        <time>2012-02-05T10:29:11Z</time>
      </trkpt>
      <trkpt lat="43.54139" lon="3.33853">
        <ele>164.042114</ele>
        <time>2012-02-05T10:29:35Z</time>
      </trkpt>
      <trkpt lat="43.54147" lon="3.33853">
        <ele>163.561523</ele>
        <time>2012-02-05T10:29:39Z</time>
      </trkpt>
      <trkpt lat="43.54155" lon="3.33842">
        <ele>164.042114</ele>
        <time>2012-02-05T10:29:44Z</time>
      </trkpt>
      <trkpt lat="43.54164" lon="3.33827">
        <ele>163.080811</ele>
        <time>2012-02-05T10:29:49Z</time>
      </trkpt>
      <trkpt lat="43.54176" lon="3.33815">
        <ele>162.119507</ele>
        <time>2012-02-05T10:29:54Z</time>
      </trkpt>
      <trkpt lat="43.54192" lon="3.33802">
        <ele>163.080811</ele>
        <time>2012-02-05T10:30:02Z</time>
      </trkpt>
      <trkpt lat="43.542" lon="3.33793">
        <ele>164.522705</ele>
        <time>2012-02-05T10:30:07Z</time>
      </trkpt>
      <trkpt lat="43.54208" lon="3.33782">
        <ele>165.484131</ele>
        <time>2012-02-05T10:30:13Z</time>
      </trkpt>
      <trkpt lat="43.5422" lon="3.33769">
        <ele>165.484131</ele>
        <time>2012-02-05T10:30:19Z</time>
      </trkpt>
      <trkpt lat="43.54231" lon="3.33758">
        <ele>166.445312</ele>
        <time>2012-02-05T10:30:25Z</time>
      </trkpt>
      <trkpt lat="43.54239" lon="3.33751">
        <ele>167.887329</ele>
        <time>2012-02-05T10:30:30Z</time>
      </trkpt>
      <trkpt lat="43.5425" lon="3.33741">
        <ele>168.848755</ele>
        <time>2012-02-05T10:30:37Z</time>
      </trkpt>
      <trkpt lat="43.5426" lon="3.33736">
        <ele>170.771362</ele>
        <time>2012-02-05T10:30:43Z</time>
      </trkpt>
      <trkpt lat="43.54267" lon="3.33727">
        <ele>172.213257</ele>
        <time>2012-02-05T10:30:49Z</time>
      </trkpt>
      <trkpt lat="43.54273" lon="3.3371">
        <ele>173.655273</ele>
        <time>2012-02-05T10:30:57Z</time>
      </trkpt>
      <trkpt lat="43.5427" lon="3.33696">
        <ele>174.616577</ele>
        <time>2012-02-05T10:31:03Z</time>
      </trkpt>
      <trkpt lat="43.54259" lon="3.33684">
        <ele>175.577881</ele>
        <time>2012-02-05T10:31:10Z</time>
      </trkpt>
      <trkpt lat="43.54246" lon="3.33682">
        <ele>174.616577</ele>
        <time>2012-02-05T10:31:15Z</time>
      </trkpt>
      <trkpt lat="43.54226" lon="3.33678">
        <ele>173.655273</ele>
        <time>2012-02-05T10:31:21Z</time>
      </trkpt>
      <trkpt lat="43.5422" lon="3.3367">
        <ele>173.655273</ele>
        <time>2012-02-05T10:31:25Z</time>
      </trkpt>
      <trkpt lat="43.54219" lon="3.33668">
        <ele>173.655273</ele>
        <time>2012-02-05T10:31:26Z</time>
      </trkpt>
      <trkpt lat="43.54222" lon="3.33661">
        <ele>174.616577</ele>
        <time>2012-02-05T10:31:31Z</time>
      </trkpt>
      <trkpt lat="43.54238" lon="3.33654">
        <ele>177.981201</ele>
        <time>2012-02-05T10:31:40Z</time>
      </trkpt>
      <trkpt lat="43.54251" lon="3.33652">
        <ele>179.903809</ele>
        <time>2012-02-05T10:31:47Z</time>
      </trkpt>
      <trkpt lat="43.54263" lon="3.33652">
        <ele>181.345825</ele>
        <time>2012-02-05T10:31:54Z</time>
      </trkpt>
      <trkpt lat="43.54273" lon="3.3365">
        <ele>183.268433</ele>
        <time>2012-02-05T10:32:00Z</time>
      </trkpt>
      <trkpt lat="43.54277" lon="3.33629">
        <ele>186.152466</ele>
        <time>2012-02-05T10:32:10Z</time>
      </trkpt>
      <trkpt lat="43.54281" lon="3.33608">
        <ele>189.036377</ele>
        <time>2012-02-05T10:32:20Z</time>
      </trkpt>
      <trkpt lat="43.54286" lon="3.33585">
        <ele>190.958984</ele>
        <time>2012-02-05T10:32:30Z</time>
      </trkpt>
      <trkpt lat="43.5429" lon="3.33563">
        <ele>192.401123</ele>
        <time>2012-02-05T10:32:39Z</time>
      </trkpt>
      <trkpt lat="43.54293" lon="3.33541">
        <ele>193.362305</ele>
        <time>2012-02-05T10:32:48Z</time>
      </trkpt>
      <trkpt lat="43.54295" lon="3.33523">
        <ele>194.804321</ele>
        <time>2012-02-05T10:32:55Z</time>
      </trkpt>
      <trkpt lat="43.54299" lon="3.33501">
        <ele>196.726929</ele>
        <time>2012-02-05T10:33:04Z</time>
      </trkpt>
      <trkpt lat="43.54301" lon="3.33484">
        <ele>198.168945</ele>
        <time>2012-02-05T10:33:11Z</time>
      </trkpt>
      <trkpt lat="43.54308" lon="3.33472">
        <ele>198.649536</ele>
        <time>2012-02-05T10:33:18Z</time>
      </trkpt>
      <trkpt lat="43.54323" lon="3.33464">
        <ele>199.61084</ele>
        <time>2012-02-05T10:33:27Z</time>
      </trkpt>
      <trkpt lat="43.54328" lon="3.33454">
        <ele>199.61084</ele>
        <time>2012-02-05T10:33:33Z</time>
      </trkpt>
      <trkpt lat="43.54329" lon="3.33449">
        <ele>199.61084</ele>
        <time>2012-02-05T10:33:35Z</time>
      </trkpt>
      <trkpt lat="43.54336" lon="3.33446">
        <ele>199.61084</ele>
        <time>2012-02-05T10:33:39Z</time>
      </trkpt>
      <trkpt lat="43.54345" lon="3.33449">
        <ele>198.168945</ele>
        <time>2012-02-05T10:33:45Z</time>
      </trkpt>
      <trkpt lat="43.54355" lon="3.3345">
        <ele>198.649536</ele>
        <time>2012-02-05T10:33:52Z</time>
      </trkpt>
      <trkpt lat="43.54373" lon="3.3345">
        <ele>199.130127</ele>
        <time>2012-02-05T10:34:00Z</time>
      </trkpt>
      <trkpt lat="43.54395" lon="3.33443">
        <ele>201.052856</ele>
        <time>2012-02-05T10:34:09Z</time>
      </trkpt>
      <trkpt lat="43.54403" lon="3.33428">
        <ele>201.533569</ele>
        <time>2012-02-05T10:34:15Z</time>
      </trkpt>
      <trkpt lat="43.54413" lon="3.33405">
        <ele>202.494873</ele>
        <time>2012-02-05T10:34:24Z</time>
      </trkpt>
      <trkpt lat="43.54427" lon="3.33393">
        <ele>204.898071</ele>
        <time>2012-02-05T10:34:31Z</time>
      </trkpt>
      <trkpt lat="43.54441" lon="3.33377">
        <ele>206.820679</ele>
        <time>2012-02-05T10:34:39Z</time>
      </trkpt>
      <trkpt lat="43.5445" lon="3.33359">
        <ele>208.743408</ele>
        <time>2012-02-05T10:34:47Z</time>
      </trkpt>
      <trkpt lat="43.54456" lon="3.33339">
        <ele>211.146728</ele>
        <time>2012-02-05T10:34:56Z</time>
      </trkpt>
      <trkpt lat="43.5446" lon="3.33329">
        <ele>213.069336</ele>
        <time>2012-02-05T10:35:01Z</time>
      </trkpt>
      <trkpt lat="43.54468" lon="3.33308">
        <ele>214.03064</ele>
        <time>2012-02-05T10:35:10Z</time>
      </trkpt>
      <trkpt lat="43.54476" lon="3.33285">
        <ele>215.953247</ele>
        <time>2012-02-05T10:35:20Z</time>
      </trkpt>
      <trkpt lat="43.54482" lon="3.33266">
        <ele>218.83728</ele>
        <time>2012-02-05T10:35:29Z</time>
      </trkpt>
      <trkpt lat="43.5449" lon="3.33245">
        <ele>220.759888</ele>
        <time>2012-02-05T10:35:39Z</time>
      </trkpt>
      <trkpt lat="43.54499" lon="3.33223">
        <ele>223.163208</ele>
        <time>2012-02-05T10:35:49Z</time>
      </trkpt>
      <trkpt lat="43.54508" lon="3.33202">
        <ele>225.566528</ele>
        <time>2012-02-05T10:35:59Z</time>
      </trkpt>
      <trkpt lat="43.54509" lon="3.332">
        <ele>226.047119</ele>
        <time>2012-02-05T10:36:00Z</time>
      </trkpt>
      <trkpt lat="43.54519" lon="3.33177">
        <ele>227.969727</ele>
        <time>2012-02-05T10:36:11Z</time>
      </trkpt>
      <trkpt lat="43.54529" lon="3.33154">
        <ele>229.411743</ele>
        <time>2012-02-05T10:36:22Z</time>
      </trkpt>
      <trkpt lat="43.54538" lon="3.33135">
        <ele>230.373047</ele>
        <time>2012-02-05T10:36:31Z</time>
      </trkpt>
      <trkpt lat="43.54546" lon="3.33137">
        <ele>231.814941</ele>
        <time>2012-02-05T10:36:36Z</time>
      </trkpt>
      <trkpt lat="43.54546" lon="3.33147">
        <ele>232.295776</ele>
        <time>2012-02-05T10:36:40Z</time>
      </trkpt>
      <trkpt lat="43.5454" lon="3.33175">
        <ele>233.25708</ele>
        <time>2012-02-05T10:36:51Z</time>
      </trkpt>
      <trkpt lat="43.54538" lon="3.33198">
        <ele>234.218384</ele>
        <time>2012-02-05T10:36:59Z</time>
      </trkpt>
      <trkpt lat="43.54538" lon="3.33222">
        <ele>235.179688</ele>
        <time>2012-02-05T10:37:07Z</time>
      </trkpt>
      <trkpt lat="43.54543" lon="3.33248">
        <ele>236.140991</ele>
        <time>2012-02-05T10:37:16Z</time>
      </trkpt>
      <trkpt lat="43.54553" lon="3.33276">
        <ele>237.582886</ele>
        <time>2012-02-05T10:37:27Z</time>
      </trkpt>
      <trkpt lat="43.54559" lon="3.33288">
        <ele>239.986206</ele>
        <time>2012-02-05T10:37:33Z</time>
      </trkpt>
      <trkpt lat="43.54572" lon="3.33308">
        <ele>241.908936</ele>
        <time>2012-02-05T10:37:43Z</time>
      </trkpt>
      <trkpt lat="43.54583" lon="3.33321">
        <ele>243.35083</ele>
        <time>2012-02-05T10:37:51Z</time>
      </trkpt>
      <trkpt lat="43.54598" lon="3.33328">
        <ele>244.792847</ele>
        <time>2012-02-05T10:38:00Z</time>
      </trkpt>
      <trkpt lat="43.54609" lon="3.33329">
        <ele>246.234863</ele>
        <time>2012-02-05T10:38:06Z</time>
      </trkpt>
      <trkpt lat="43.54629" lon="3.33327">
        <ele>248.638184</ele>
        <time>2012-02-05T10:38:16Z</time>
      </trkpt>
      <trkpt lat="43.54649" lon="3.33323">
        <ele>250.0802</ele>
        <time>2012-02-05T10:38:25Z</time>
      </trkpt>
      <trkpt lat="43.54671" lon="3.33318">
        <ele>252.483398</ele>
        <time>2012-02-05T10:38:35Z</time>
      </trkpt>
      <trkpt lat="43.54693" lon="3.33317">
        <ele>252.963989</ele>
        <time>2012-02-05T10:38:44Z</time>
      </trkpt>
      <trkpt lat="43.54714" lon="3.3331">
        <ele>250.560791</ele>
        <time>2012-02-05T10:38:52Z</time>
      </trkpt>
      <trkpt lat="43.54735" lon="3.33289">
        <ele>251.041382</ele>
        <time>2012-02-05T10:39:01Z</time>
      </trkpt>
      <trkpt lat="43.54754" lon="3.33265">
        <ele>251.041382</ele>
        <time>2012-02-05T10:39:09Z</time>
      </trkpt>
      <trkpt lat="43.54772" lon="3.33255">
        <ele>251.041382</ele>
        <time>2012-02-05T10:39:15Z</time>
      </trkpt>
      <trkpt lat="43.54799" lon="3.33256">
        <ele>251.522095</ele>
        <time>2012-02-05T10:39:24Z</time>
      </trkpt>
      <trkpt lat="43.5482" lon="3.33259">
        <ele>252.483398</ele>
        <time>2012-02-05T10:39:32Z</time>
      </trkpt>
      <trkpt lat="43.54838" lon="3.33252">
        <ele>253.444702</ele>
        <time>2012-02-05T10:39:39Z</time>
      </trkpt>
      <trkpt lat="43.54865" lon="3.33241">
        <ele>254.406006</ele>
        <time>2012-02-05T10:39:50Z</time>
      </trkpt>
      <trkpt lat="43.54887" lon="3.33233">
        <ele>255.848023</ele>
        <time>2012-02-05T10:39:59Z</time>
      </trkpt>
      <trkpt lat="43.5491" lon="3.3322">
        <ele>257.770752</ele>
        <time>2012-02-05T10:40:09Z</time>
      </trkpt>
      <trkpt lat="43.54914" lon="3.33206">
        <ele>258.251343</ele>
        <time>2012-02-05T10:40:14Z</time>
      </trkpt>
      <trkpt lat="43.54906" lon="3.33187">
        <ele>260.17395</ele>
        <time>2012-02-05T10:40:22Z</time>
      </trkpt>
      <trkpt lat="43.54904" lon="3.33182">
        <ele>261.615967</ele>
        <time>2012-02-05T10:40:24Z</time>
      </trkpt>
      <trkpt lat="43.54891" lon="3.33161">
        <ele>264.019287</ele>
        <time>2012-02-05T10:40:34Z</time>
      </trkpt>
      <trkpt lat="43.54879" lon="3.33143">
        <ele>265.461304</ele>
        <time>2012-02-05T10:40:43Z</time>
      </trkpt>
      <trkpt lat="43.54872" lon="3.33123">
        <ele>266.903198</ele>
        <time>2012-02-05T10:40:51Z</time>
      </trkpt>
      <trkpt lat="43.54879" lon="3.33106">
        <ele>266.422485</ele>
        <time>2012-02-05T10:40:57Z</time>
      </trkpt>
      <trkpt lat="43.54892" lon="3.33089">
        <ele>266.422485</ele>
        <time>2012-02-05T10:41:05Z</time>
      </trkpt>
      <trkpt lat="43.54907" lon="3.33067">
        <ele>266.903198</ele>
        <time>2012-02-05T10:41:14Z</time>
      </trkpt>
      <trkpt lat="43.54919" lon="3.33047">
        <ele>267.864502</ele>
        <time>2012-02-05T10:41:22Z</time>
      </trkpt>
      <trkpt lat="43.54926" lon="3.33025">
        <ele>269.306519</ele>
        <time>2012-02-05T10:41:30Z</time>
      </trkpt>
      <trkpt lat="43.54925" lon="3.3299">
        <ele>270.2677</ele>
        <time>2012-02-05T10:41:41Z</time>
      </trkpt>
      <trkpt lat="43.54924" lon="3.32967">
        <ele>271.229126</ele>
        <time>2012-02-05T10:41:48Z</time>
      </trkpt>
      <trkpt lat="43.54924" lon="3.32934">
        <ele>273.632446</ele>
        <time>2012-02-05T10:41:58Z</time>
      </trkpt>
      <trkpt lat="43.54926" lon="3.32908">
        <ele>274.59375</ele>
        <time>2012-02-05T10:42:06Z</time>
      </trkpt>
      <trkpt lat="43.54929" lon="3.32881">
        <ele>275.555054</ele>
        <time>2012-02-05T10:42:14Z</time>
      </trkpt>
      <trkpt lat="43.54934" lon="3.32854">
        <ele>276.99707</ele>
        <time>2012-02-05T10:42:23Z</time>
      </trkpt>
      <trkpt lat="43.54936" lon="3.3285">
        <ele>276.99707</ele>
        <time>2012-02-05T10:42:25Z</time>
      </trkpt>
      <trkpt lat="43.54941" lon="3.32848">
        <ele>277.477661</ele>
        <time>2012-02-05T10:42:28Z</time>
      </trkpt>
      <trkpt lat="43.54941" lon="3.32842">
        <ele>278.438965</ele>
        <time>2012-02-05T10:42:32Z</time>
      </trkpt>
      <trkpt lat="43.5494" lon="3.32839">
        <ele>277.958252</ele>
        <time>2012-02-05T10:42:35Z</time>
      </trkpt>
      <trkpt lat="43.54939" lon="3.32839">
        <ele>278.438965</ele>
        <time>2012-02-05T10:42:38Z</time>
      </trkpt>
      <trkpt lat="43.54938" lon="3.32839">
        <ele>277.958252</ele>
        <time>2012-02-05T10:42:39Z</time>
      </trkpt>
      <trkpt lat="43.54936" lon="3.32838">
        <ele>276.99707</ele>
        <time>2012-02-05T10:42:40Z</time>
      </trkpt>
      <trkpt lat="43.54935" lon="3.3284">
        <ele>275.555054</ele>
        <time>2012-02-05T10:45:13Z</time>
      </trkpt>
      <trkpt lat="43.54935" lon="3.32839">
        <ele>276.035644</ele>
        <time>2012-02-05T10:45:14Z</time>
      </trkpt>
      <trkpt lat="43.54935" lon="3.32839">
        <ele>276.035644</ele>
        <time>2012-02-05T10:45:15Z</time>
      </trkpt>
      <trkpt lat="43.54936" lon="3.3284">
        <ele>276.516357</ele>
        <time>2012-02-05T10:45:18Z</time>
      </trkpt>
      <trkpt lat="43.54936" lon="3.3284">
        <ele>276.035644</ele>
        <time>2012-02-05T10:45:19Z</time>
      </trkpt>
      <trkpt lat="43.54938" lon="3.32838">
        <ele>275.555054</ele>
        <time>2012-02-05T10:49:05Z</time>
      </trkpt>
      <trkpt lat="43.54938" lon="3.32838">
        <ele>276.035644</ele>
        <time>2012-02-05T10:49:06Z</time>
      </trkpt>
      <trkpt lat="43.54937" lon="3.32836">
        <ele>276.516357</ele>
        <time>2012-02-05T10:49:51Z</time>
      </trkpt>
      <trkpt lat="43.54937" lon="3.32835">
        <ele>275.555054</ele>
        <time>2012-02-05T10:49:52Z</time>
      </trkpt>
      <trkpt lat="43.54926" lon="3.32832">
        <ele>275.074463</ele>
        <time>2012-02-05T10:49:56Z</time>
      </trkpt>
      <trkpt lat="43.5492" lon="3.32837">
        <ele>274.113037</ele>
        <time>2012-02-05T10:49:58Z</time>
      </trkpt>
      <trkpt lat="43.54902" lon="3.32846">
        <ele>272.671143</ele>
        <time>2012-02-05T10:50:02Z</time>
      </trkpt>
      <trkpt lat="43.54888" lon="3.32845">
        <ele>272.19043</ele>
        <time>2012-02-05T10:50:05Z</time>
      </trkpt>
      <trkpt lat="43.54846" lon="3.32832">
        <ele>271.229126</ele>
        <time>2012-02-05T10:50:15Z</time>
      </trkpt>
      <trkpt lat="43.54813" lon="3.32832">
        <ele>269.787109</ele>
        <time>2012-02-05T10:50:22Z</time>
      </trkpt>
      <trkpt lat="43.54795" lon="3.32836">
        <ele>269.306519</ele>
        <time>2012-02-05T10:50:27Z</time>
      </trkpt>
      <trkpt lat="43.54776" lon="3.32853">
        <ele>267.383911</ele>
        <time>2012-02-05T10:50:31Z</time>
      </trkpt>
      <trkpt lat="43.54752" lon="3.32871">
        <ele>264.499878</ele>
        <time>2012-02-05T10:50:35Z</time>
      </trkpt>
      <trkpt lat="43.54739" lon="3.3288">
        <ele>263.538574</ele>
        <time>2012-02-05T10:50:37Z</time>
      </trkpt>
      <trkpt lat="43.54716" lon="3.32895">
        <ele>261.135254</ele>
        <time>2012-02-05T10:50:41Z</time>
      </trkpt>
      <trkpt lat="43.54698" lon="3.32894">
        <ele>259.693359</ele>
        <time>2012-02-05T10:50:45Z</time>
      </trkpt>
      <trkpt lat="43.54691" lon="3.32879">
        <ele>261.135254</ele>
        <time>2012-02-05T10:50:49Z</time>
      </trkpt>
      <trkpt lat="43.5469" lon="3.32875">
        <ele>261.135254</ele>
        <time>2012-02-05T10:50:50Z</time>
      </trkpt>
      <trkpt lat="43.54682" lon="3.32854">
        <ele>262.577148</ele>
        <time>2012-02-05T10:50:57Z</time>
      </trkpt>
      <trkpt lat="43.54674" lon="3.32856">
        <ele>262.577148</ele>
        <time>2012-02-05T10:51:01Z</time>
      </trkpt>
      <trkpt lat="43.5466" lon="3.32865">
        <ele>260.654541</ele>
        <time>2012-02-05T10:51:05Z</time>
      </trkpt>
      <trkpt lat="43.54623" lon="3.32887">
        <ele>257.770752</ele>
        <time>2012-02-05T10:51:13Z</time>
      </trkpt>
      <trkpt lat="43.54589" lon="3.32908">
        <ele>254.406006</ele>
        <time>2012-02-05T10:51:19Z</time>
      </trkpt>
      <trkpt lat="43.54568" lon="3.3292">
        <ele>251.522095</ele>
        <time>2012-02-05T10:51:22Z</time>
      </trkpt>
      <trkpt lat="43.5454" lon="3.32933">
        <ele>248.638184</ele>
        <time>2012-02-05T10:51:26Z</time>
      </trkpt>
      <trkpt lat="43.54526" lon="3.32927">
        <ele>247.196045</ele>
        <time>2012-02-05T10:51:30Z</time>
      </trkpt>
      <trkpt lat="43.54524" lon="3.32908">
        <ele>247.196045</ele>
        <time>2012-02-05T10:51:34Z</time>
      </trkpt>
      <trkpt lat="43.54524" lon="3.32904">
        <ele>246.715454</ele>
        <time>2012-02-05T10:51:35Z</time>
      </trkpt>
      <trkpt lat="43.54526" lon="3.32873">
        <ele>249.118774</ele>
        <time>2012-02-05T10:51:42Z</time>
      </trkpt>
      <trkpt lat="43.54531" lon="3.32837">
        <ele>250.560791</ele>
        <time>2012-02-05T10:51:51Z</time>
      </trkpt>
      <trkpt lat="43.54536" lon="3.32812">
        <ele>252.483398</ele>
        <time>2012-02-05T10:51:58Z</time>
      </trkpt>
      <trkpt lat="43.54538" lon="3.32785">
        <ele>253.444702</ele>
        <time>2012-02-05T10:52:05Z</time>
      </trkpt>
      <trkpt lat="43.5454" lon="3.32757">
        <ele>252.963989</ele>
        <time>2012-02-05T10:52:14Z</time>
      </trkpt>
      <trkpt lat="43.54541" lon="3.32752">
        <ele>252.963989</ele>
        <time>2012-02-05T10:52:18Z</time>
      </trkpt>
      <trkpt lat="43.54542" lon="3.32742">
        <ele>252.963989</ele>
        <time>2012-02-05T10:52:23Z</time>
      </trkpt>
      <trkpt lat="43.54545" lon="3.32725">
        <ele>252.963989</ele>
        <time>2012-02-05T10:52:29Z</time>
      </trkpt>
      <trkpt lat="43.54541" lon="3.3272">
        <ele>251.522095</ele>
        <time>2012-02-05T10:52:33Z</time>
      </trkpt>
      <trkpt lat="43.54537" lon="3.32726">
        <ele>250.560791</ele>
        <time>2012-02-05T10:52:38Z</time>
      </trkpt>
      <trkpt lat="43.54537" lon="3.32726">
        <ele>250.560791</ele>
        <time>2012-02-05T10:52:39Z</time>
      </trkpt>
      <trkpt lat="43.54537" lon="3.32728">
        <ele>250.560791</ele>
        <time>2012-02-05T10:52:46Z</time>
      </trkpt>
      <trkpt lat="43.54534" lon="3.32744">
        <ele>250.560791</ele>
        <time>2012-02-05T10:52:52Z</time>
      </trkpt>
      <trkpt lat="43.54531" lon="3.32763">
        <ele>249.599487</ele>
        <time>2012-02-05T10:53:00Z</time>
      </trkpt>
      <trkpt lat="43.54529" lon="3.32766">
        <ele>249.599487</ele>
        <time>2012-02-05T10:53:04Z</time>
      </trkpt>
      <trkpt lat="43.54531" lon="3.32765">
        <ele>250.0802</ele>
        <time>2012-02-05T10:53:41Z</time>
      </trkpt>
      <trkpt lat="43.54531" lon="3.32764">
        <ele>250.0802</ele>
        <time>2012-02-05T10:53:42Z</time>
      </trkpt>
      <trkpt lat="43.5453" lon="3.32763">
        <ele>249.118774</ele>
        <time>2012-02-05T10:53:45Z</time>
      </trkpt>
      <trkpt lat="43.54528" lon="3.32764">
        <ele>249.118774</ele>
        <time>2012-02-05T10:53:47Z</time>
      </trkpt>
      <trkpt lat="43.54528" lon="3.32764">
        <ele>248.638184</ele>
        <time>2012-02-05T10:53:50Z</time>
      </trkpt>
      <trkpt lat="43.54521" lon="3.32771">
        <ele>245.75415</ele>
        <time>2012-02-05T10:53:53Z</time>
      </trkpt>
      <trkpt lat="43.54517" lon="3.32773">
        <ele>243.831543</ele>
        <time>2012-02-05T10:53:56Z</time>
      </trkpt>
      <trkpt lat="43.54515" lon="3.32772">
        <ele>242.870239</ele>
        <time>2012-02-05T10:53:58Z</time>
      </trkpt>
      <trkpt lat="43.54514" lon="3.3277">
        <ele>241.428223</ele>
        <time>2012-02-05T10:54:00Z</time>
      </trkpt>
      <trkpt lat="43.54513" lon="3.32769">
        <ele>240.467041</ele>
        <time>2012-02-05T10:54:03Z</time>
      </trkpt>
      <trkpt lat="43.54512" lon="3.3277">
        <ele>241.908936</ele>
        <time>2012-02-05T10:54:12Z</time>
      </trkpt>
      <trkpt lat="43.5451" lon="3.32774">
        <ele>240.467041</ele>
        <time>2012-02-05T10:54:15Z</time>
      </trkpt>
      <trkpt lat="43.54509" lon="3.32776">
        <ele>239.986206</ele>
        <time>2012-02-05T10:54:18Z</time>
      </trkpt>
      <trkpt lat="43.54509" lon="3.32776">
        <ele>239.505493</ele>
        <time>2012-02-05T10:54:21Z</time>
      </trkpt>
      <trkpt lat="43.54502" lon="3.32782">
        <ele>238.063599</ele>
        <time>2012-02-05T10:54:25Z</time>
      </trkpt>
      <trkpt lat="43.545" lon="3.32783">
        <ele>237.102295</ele>
        <time>2012-02-05T10:54:27Z</time>
      </trkpt>
      <trkpt lat="43.54494" lon="3.32783">
        <ele>234.218384</ele>
        <time>2012-02-05T10:54:32Z</time>
      </trkpt>
      <trkpt lat="43.54486" lon="3.32785">
        <ele>232.295776</ele>
        <time>2012-02-05T10:54:35Z</time>
      </trkpt>
      <trkpt lat="43.54481" lon="3.32784">
        <ele>230.85376</ele>
        <time>2012-02-05T10:54:37Z</time>
      </trkpt>
      <trkpt lat="43.54463" lon="3.32788">
        <ele>226.527832</ele>
        <time>2012-02-05T10:54:41Z</time>
      </trkpt>
      <trkpt lat="43.54453" lon="3.32789">
        <ele>224.605225</ele>
        <time>2012-02-05T10:54:44Z</time>
      </trkpt>
      <trkpt lat="43.54451" lon="3.32785">
        <ele>223.643799</ele>
        <time>2012-02-05T10:54:48Z</time>
      </trkpt>
      <trkpt lat="43.54452" lon="3.32786">
        <ele>222.682495</ele>
        <time>2012-02-05T10:55:40Z</time>
      </trkpt>
      <trkpt lat="43.54452" lon="3.32786">
        <ele>222.682495</ele>
        <time>2012-02-05T10:55:41Z</time>
      </trkpt>
      <trkpt lat="43.54451" lon="3.32786">
        <ele>223.163208</ele>
        <time>2012-02-05T10:55:49Z</time>
      </trkpt>
      <trkpt lat="43.54451" lon="3.32801">
        <ele>222.682495</ele>
        <time>2012-02-05T10:55:55Z</time>
      </trkpt>
      <trkpt lat="43.54451" lon="3.328">
        <ele>222.682495</ele>
        <time>2012-02-05T10:56:04Z</time>
      </trkpt>
      <trkpt lat="43.54451" lon="3.32799">
        <ele>222.682495</ele>
        <time>2012-02-05T10:56:05Z</time>
      </trkpt>
      <trkpt lat="43.54452" lon="3.32795">
        <ele>223.163208</ele>
        <time>2012-02-05T10:56:08Z</time>
      </trkpt>
      <trkpt lat="43.54453" lon="3.32791">
        <ele>222.682495</ele>
        <time>2012-02-05T10:56:14Z</time>
      </trkpt>
      <trkpt lat="43.54453" lon="3.3279">
        <ele>222.682495</ele>
        <time>2012-02-05T10:56:18Z</time>
      </trkpt>
      <trkpt lat="43.54452" lon="3.32787">
        <ele>223.163208</ele>
        <time>2012-02-05T10:56:21Z</time>
      </trkpt>
      <trkpt lat="43.54451" lon="3.32786">
        <ele>222.682495</ele>
        <time>2012-02-05T10:56:29Z</time>
      </trkpt>
      <trkpt lat="43.5445" lon="3.32777">
        <ele>223.163208</ele>
        <time>2012-02-05T10:56:34Z</time>
      </trkpt>
      <trkpt lat="43.5445" lon="3.32768">
        <ele>223.163208</ele>
        <time>2012-02-05T10:56:41Z</time>
      </trkpt>
      <trkpt lat="43.5445" lon="3.32758">
        <ele>223.643799</ele>
        <time>2012-02-05T10:56:46Z</time>
      </trkpt>
      <trkpt lat="43.54454" lon="3.32736">
        <ele>225.085938</ele>
        <time>2012-02-05T10:56:51Z</time>
      </trkpt>
      <trkpt lat="43.54461" lon="3.32719">
        <ele>224.124512</ele>
        <time>2012-02-05T10:56:56Z</time>
      </trkpt>
      <trkpt lat="43.54469" lon="3.32695">
        <ele>225.085938</ele>
        <time>2012-02-05T10:57:03Z</time>
      </trkpt>
      <trkpt lat="43.5448" lon="3.32667">
        <ele>225.085938</ele>
        <time>2012-02-05T10:57:11Z</time>
      </trkpt>
      <trkpt lat="43.54481" lon="3.32646">
        <ele>225.566528</ele>
        <time>2012-02-05T10:57:17Z</time>
      </trkpt>
      <trkpt lat="43.54474" lon="3.32617">
        <ele>225.566528</ele>
        <time>2012-02-05T10:57:26Z</time>
      </trkpt>
      <trkpt lat="43.5447" lon="3.32603">
        <ele>226.047119</ele>
        <time>2012-02-05T10:57:32Z</time>
      </trkpt>
      <trkpt lat="43.54466" lon="3.32587">
        <ele>226.527832</ele>
        <time>2012-02-05T10:57:39Z</time>
      </trkpt>
      <trkpt lat="43.54455" lon="3.32565">
        <ele>225.085938</ele>
        <time>2012-02-05T10:57:45Z</time>
      </trkpt>
      <trkpt lat="43.54453" lon="3.32561">
        <ele>225.566528</ele>
        <time>2012-02-05T10:57:46Z</time>
      </trkpt>
      <trkpt lat="43.54436" lon="3.32545">
        <ele>225.085938</ele>
        <time>2012-02-05T10:57:50Z</time>
      </trkpt>
      <trkpt lat="43.54425" lon="3.3254">
        <ele>224.124512</ele>
        <time>2012-02-05T10:57:52Z</time>
      </trkpt>
      <trkpt lat="43.54409" lon="3.32537">
        <ele>222.201782</ele>
        <time>2012-02-05T10:57:56Z</time>
      </trkpt>
      <trkpt lat="43.54399" lon="3.32547">
        <ele>221.240601</ele>
        <time>2012-02-05T10:57:59Z</time>
      </trkpt>
      <trkpt lat="43.54375" lon="3.32574">
        <ele>220.759888</ele>
        <time>2012-02-05T10:58:06Z</time>
      </trkpt>
      <trkpt lat="43.54353" lon="3.32602">
        <ele>218.83728</ele>
        <time>2012-02-05T10:58:12Z</time>
      </trkpt>
      <trkpt lat="43.54348" lon="3.32607">
        <ele>218.83728</ele>
        <time>2012-02-05T10:58:13Z</time>
      </trkpt>
      <trkpt lat="43.54325" lon="3.32617">
        <ele>216.914673</ele>
        <time>2012-02-05T10:58:17Z</time>
      </trkpt>
      <trkpt lat="43.54297" lon="3.32622">
        <ele>215.472656</ele>
        <time>2012-02-05T10:58:21Z</time>
      </trkpt>
      <trkpt lat="43.54285" lon="3.32622">
        <ele>214.511231</ele>
        <time>2012-02-05T10:58:23Z</time>
      </trkpt>
      <trkpt lat="43.54274" lon="3.32617">
        <ele>212.588623</ele>
        <time>2012-02-05T10:58:25Z</time>
      </trkpt>
      <trkpt lat="43.54263" lon="3.32609">
        <ele>211.146728</ele>
        <time>2012-02-05T10:58:27Z</time>
      </trkpt>
      <trkpt lat="43.54249" lon="3.32603">
        <ele>209.704834</ele>
        <time>2012-02-05T10:58:29Z</time>
      </trkpt>
      <trkpt lat="43.54206" lon="3.32593">
        <ele>205.859497</ele>
        <time>2012-02-05T10:58:35Z</time>
      </trkpt>
      <trkpt lat="43.54199" lon="3.32591">
        <ele>204.898071</ele>
        <time>2012-02-05T10:58:37Z</time>
      </trkpt>
      <trkpt lat="43.54195" lon="3.32589">
        <ele>204.417481</ele>
        <time>2012-02-05T10:58:40Z</time>
      </trkpt>
      <trkpt lat="43.54198" lon="3.32588">
        <ele>204.417481</ele>
        <time>2012-02-05T10:58:43Z</time>
      </trkpt>
      <trkpt lat="43.54205" lon="3.32577">
        <ele>205.378784</ele>
        <time>2012-02-05T10:58:49Z</time>
      </trkpt>
      <trkpt lat="43.54212" lon="3.32571">
        <ele>206.340088</ele>
        <time>2012-02-05T10:58:53Z</time>
      </trkpt>
      <trkpt lat="43.54227" lon="3.32554">
        <ele>207.782105</ele>
        <time>2012-02-05T10:59:01Z</time>
      </trkpt>
      <trkpt lat="43.54238" lon="3.3253">
        <ele>209.224121</ele>
        <time>2012-02-05T10:59:09Z</time>
      </trkpt>
      <trkpt lat="43.54248" lon="3.32501">
        <ele>209.224121</ele>
        <time>2012-02-05T10:59:17Z</time>
      </trkpt>
      <trkpt lat="43.54245" lon="3.32481">
        <ele>209.704834</ele>
        <time>2012-02-05T10:59:22Z</time>
      </trkpt>
      <trkpt lat="43.5423" lon="3.32446">
        <ele>210.185425</ele>
        <time>2012-02-05T10:59:31Z</time>
      </trkpt>
      <trkpt lat="43.54215" lon="3.32413">
        <ele>210.666016</ele>
        <time>2012-02-05T10:59:39Z</time>
      </trkpt>
      <trkpt lat="43.54202" lon="3.32389">
        <ele>210.185425</ele>
        <time>2012-02-05T10:59:45Z</time>
      </trkpt>
      <trkpt lat="43.54181" lon="3.32358">
        <ele>210.666016</ele>
        <time>2012-02-05T10:59:53Z</time>
      </trkpt>
      <trkpt lat="43.54164" lon="3.32346">
        <ele>210.666016</ele>
        <time>2012-02-05T10:59:58Z</time>
      </trkpt>
      <trkpt lat="43.54143" lon="3.32334">
        <ele>210.666016</ele>
        <time>2012-02-05T11:00:05Z</time>
      </trkpt>
      <trkpt lat="43.54135" lon="3.32318">
        <ele>209.224121</ele>
        <time>2012-02-05T11:00:09Z</time>
      </trkpt>
      <trkpt lat="43.54133" lon="3.32285">
        <ele>207.301392</ele>
        <time>2012-02-05T11:00:14Z</time>
      </trkpt>
      <trkpt lat="43.54121" lon="3.32261">
        <ele>205.859497</ele>
        <time>2012-02-05T11:00:18Z</time>
      </trkpt>
      <trkpt lat="43.54112" lon="3.3225">
        <ele>203.93689</ele>
        <time>2012-02-05T11:00:20Z</time>
      </trkpt>
      <trkpt lat="43.54105" lon="3.32237">
        <ele>202.494873</ele>
        <time>2012-02-05T11:00:22Z</time>
      </trkpt>
      <trkpt lat="43.54092" lon="3.32206">
        <ele>200.572266</ele>
        <time>2012-02-05T11:00:26Z</time>
      </trkpt>
      <trkpt lat="43.54079" lon="3.32192">
        <ele>198.168945</ele>
        <time>2012-02-05T11:00:28Z</time>
      </trkpt>
      <trkpt lat="43.54055" lon="3.32169">
        <ele>193.843018</ele>
        <time>2012-02-05T11:00:32Z</time>
      </trkpt>
      <trkpt lat="43.5403" lon="3.32141">
        <ele>191.920288</ele>
        <time>2012-02-05T11:00:37Z</time>
      </trkpt>
      <trkpt lat="43.54016" lon="3.32099">
        <ele>190.478394</ele>
        <time>2012-02-05T11:00:42Z</time>
      </trkpt>
      <trkpt lat="43.54015" lon="3.32085">
        <ele>188.555786</ele>
        <time>2012-02-05T11:00:46Z</time>
      </trkpt>
      <trkpt lat="43.54017" lon="3.32082">
        <ele>188.555786</ele>
        <time>2012-02-05T11:00:50Z</time>
      </trkpt>
      <trkpt lat="43.54019" lon="3.32082">
        <ele>188.555786</ele>
        <time>2012-02-05T11:01:25Z</time>
      </trkpt>
      <trkpt lat="43.54022" lon="3.3207">
        <ele>189.997681</ele>
        <time>2012-02-05T11:01:29Z</time>
      </trkpt>
      <trkpt lat="43.54021" lon="3.32063">
        <ele>189.516968</ele>
        <time>2012-02-05T11:01:31Z</time>
      </trkpt>
      <trkpt lat="43.54009" lon="3.32048">
        <ele>189.516968</ele>
        <time>2012-02-05T11:01:37Z</time>
      </trkpt>
      <trkpt lat="43.54001" lon="3.32041">
        <ele>190.478394</ele>
        <time>2012-02-05T11:01:42Z</time>
      </trkpt>
      <trkpt lat="43.53991" lon="3.32032">
        <ele>189.997681</ele>
        <time>2012-02-05T11:01:46Z</time>
      </trkpt>
      <trkpt lat="43.53983" lon="3.32018">
        <ele>189.997681</ele>
        <time>2012-02-05T11:01:51Z</time>
      </trkpt>
      <trkpt lat="43.53976" lon="3.31999">
        <ele>190.478394</ele>
        <time>2012-02-05T11:01:57Z</time>
      </trkpt>
      <trkpt lat="43.53973" lon="3.31985">
        <ele>192.401123</ele>
        <time>2012-02-05T11:02:03Z</time>
      </trkpt>
      <trkpt lat="43.53971" lon="3.31974">
        <ele>193.362305</ele>
        <time>2012-02-05T11:02:10Z</time>
      </trkpt>
      <trkpt lat="43.5397" lon="3.3196">
        <ele>194.804321</ele>
        <time>2012-02-05T11:02:16Z</time>
      </trkpt>
      <trkpt lat="43.53971" lon="3.31945">
        <ele>196.726929</ele>
        <time>2012-02-05T11:02:23Z</time>
      </trkpt>
      <trkpt lat="43.53971" lon="3.31942">
        <ele>197.207519</ele>
        <time>2012-02-05T11:02:24Z</time>
      </trkpt>
      <trkpt lat="43.53962" lon="3.31939">
        <ele>197.207519</ele>
        <time>2012-02-05T11:02:28Z</time>
      </trkpt>
      <trkpt lat="43.53955" lon="3.31947">
        <ele>197.207519</ele>
        <time>2012-02-05T11:02:32Z</time>
      </trkpt>
      <trkpt lat="43.53953" lon="3.3195">
        <ele>197.207519</ele>
        <time>2012-02-05T11:02:33Z</time>
      </trkpt>
      <trkpt lat="43.53947" lon="3.31959">
        <ele>197.688232</ele>
        <time>2012-02-05T11:02:37Z</time>
      </trkpt>
      <trkpt lat="43.53943" lon="3.3196">
        <ele>198.649536</ele>
        <time>2012-02-05T11:02:40Z</time>
      </trkpt>
      <trkpt lat="43.53941" lon="3.31954">
        <ele>200.091675</ele>
        <time>2012-02-05T11:02:44Z</time>
      </trkpt>
      <trkpt lat="43.53941" lon="3.31954">
        <ele>199.61084</ele>
        <time>2012-02-05T11:02:45Z</time>
      </trkpt>
      <trkpt lat="43.5394" lon="3.31954">
        <ele>200.091675</ele>
        <time>2012-02-05T11:02:48Z</time>
      </trkpt>
      <trkpt lat="43.53938" lon="3.31951">
        <ele>201.533569</ele>
        <time>2012-02-05T11:02:50Z</time>
      </trkpt>
      <trkpt lat="43.53938" lon="3.3195">
        <ele>202.014282</ele>
        <time>2012-02-05T11:03:00Z</time>
      </trkpt>
      <trkpt lat="43.53936" lon="3.31949">
        <ele>202.494873</ele>
        <time>2012-02-05T11:03:01Z</time>
      </trkpt>
      <trkpt lat="43.53933" lon="3.31949">
        <ele>203.456177</ele>
        <time>2012-02-05T11:03:04Z</time>
      </trkpt>
      <trkpt lat="43.53929" lon="3.31949">
        <ele>204.417481</ele>
        <time>2012-02-05T11:03:07Z</time>
      </trkpt>
      <trkpt lat="43.53927" lon="3.31945">
        <ele>205.378784</ele>
        <time>2012-02-05T11:03:11Z</time>
      </trkpt>
      <trkpt lat="43.53928" lon="3.31932">
        <ele>206.820679</ele>
        <time>2012-02-05T11:03:19Z</time>
      </trkpt>
      <trkpt lat="43.53926" lon="3.31929">
        <ele>207.782105</ele>
        <time>2012-02-05T11:03:24Z</time>
      </trkpt>
      <trkpt lat="43.53928" lon="3.31923">
        <ele>207.782105</ele>
        <time>2012-02-05T11:03:42Z</time>
      </trkpt>
      <trkpt lat="43.53927" lon="3.31921">
        <ele>208.743408</ele>
        <time>2012-02-05T11:03:45Z</time>
      </trkpt>
      <trkpt lat="43.53927" lon="3.31921">
        <ele>208.262817</ele>
        <time>2012-02-05T11:03:48Z</time>
      </trkpt>
      <trkpt lat="43.53927" lon="3.3192">
        <ele>209.224121</ele>
        <time>2012-02-05T11:03:49Z</time>
      </trkpt>
      <trkpt lat="43.53925" lon="3.31916">
        <ele>210.666016</ele>
        <time>2012-02-05T11:03:54Z</time>
      </trkpt>
      <trkpt lat="43.53925" lon="3.31914">
        <ele>209.704834</ele>
        <time>2012-02-05T11:04:04Z</time>
      </trkpt>
      <trkpt lat="43.53927" lon="3.31909">
        <ele>210.666016</ele>
        <time>2012-02-05T11:04:06Z</time>
      </trkpt>
      <trkpt lat="43.53927" lon="3.31901">
        <ele>212.108032</ele>
        <time>2012-02-05T11:04:09Z</time>
      </trkpt>
      <trkpt lat="43.53921" lon="3.31893">
        <ele>214.03064</ele>
        <time>2012-02-05T11:04:14Z</time>
      </trkpt>
      <trkpt lat="43.5392" lon="3.31887">
        <ele>214.511231</ele>
        <time>2012-02-05T11:04:16Z</time>
      </trkpt>
      <trkpt lat="43.53919" lon="3.31877">
        <ele>216.43396</ele>
        <time>2012-02-05T11:04:20Z</time>
      </trkpt>
      <trkpt lat="43.53916" lon="3.31864">
        <ele>217.875977</ele>
        <time>2012-02-05T11:04:25Z</time>
      </trkpt>
      <trkpt lat="43.53914" lon="3.31847">
        <ele>220.759888</ele>
        <time>2012-02-05T11:04:33Z</time>
      </trkpt>
      <trkpt lat="43.53914" lon="3.31843">
        <ele>220.759888</ele>
        <time>2012-02-05T11:04:35Z</time>
      </trkpt>
      <trkpt lat="43.53915" lon="3.31837">
        <ele>222.682495</ele>
        <time>2012-02-05T11:04:38Z</time>
      </trkpt>
      <trkpt lat="43.53912" lon="3.31823">
        <ele>225.566528</ele>
        <time>2012-02-05T11:04:44Z</time>
      </trkpt>
      <trkpt lat="43.53907" lon="3.31809">
        <ele>226.047119</ele>
        <time>2012-02-05T11:04:51Z</time>
      </trkpt>
      <trkpt lat="43.53904" lon="3.31792">
        <ele>228.931152</ele>
        <time>2012-02-05T11:04:58Z</time>
      </trkpt>
      <trkpt lat="43.53898" lon="3.31782">
        <ele>228.931152</ele>
        <time>2012-02-05T11:05:03Z</time>
      </trkpt>
      <trkpt lat="43.53884" lon="3.31772">
        <ele>229.892334</ele>
        <time>2012-02-05T11:05:10Z</time>
      </trkpt>
      <trkpt lat="43.53879" lon="3.31769">
        <ele>229.892334</ele>
        <time>2012-02-05T11:05:16Z</time>
      </trkpt>
      <trkpt lat="43.53879" lon="3.31769">
        <ele>229.411743</ele>
        <time>2012-02-05T11:05:17Z</time>
      </trkpt>
      <trkpt lat="43.53876" lon="3.31768">
        <ele>230.373047</ele>
        <time>2012-02-05T11:06:25Z</time>
      </trkpt>
      <trkpt lat="43.53876" lon="3.31768">
        <ele>230.373047</ele>
        <time>2012-02-05T11:06:26Z</time>
      </trkpt>
      <trkpt lat="43.53877" lon="3.3177">
        <ele>229.892334</ele>
        <time>2012-02-05T11:07:49Z</time>
      </trkpt>
      <trkpt lat="43.53873" lon="3.31771">
        <ele>230.373047</ele>
        <time>2012-02-05T11:07:51Z</time>
      </trkpt>
      <trkpt lat="43.53861" lon="3.31779">
        <ele>229.411743</ele>
        <time>2012-02-05T11:07:57Z</time>
      </trkpt>
      <trkpt lat="43.53844" lon="3.3179">
        <ele>227.969727</ele>
        <time>2012-02-05T11:08:01Z</time>
      </trkpt>
      <trkpt lat="43.53825" lon="3.31801">
        <ele>226.047119</ele>
        <time>2012-02-05T11:08:04Z</time>
      </trkpt>
      <trkpt lat="43.53798" lon="3.31807">
        <ele>225.566528</ele>
        <time>2012-02-05T11:08:08Z</time>
      </trkpt>
      <trkpt lat="43.53751" lon="3.31802">
        <ele>222.682495</ele>
        <time>2012-02-05T11:08:15Z</time>
      </trkpt>
      <trkpt lat="43.53731" lon="3.31805">
        <ele>221.721191</ele>
        <time>2012-02-05T11:08:19Z</time>
      </trkpt>
      <trkpt lat="43.53717" lon="3.318">
        <ele>221.240601</ele>
        <time>2012-02-05T11:08:23Z</time>
      </trkpt>
      <trkpt lat="43.53713" lon="3.31798">
        <ele>220.279175</ele>
        <time>2012-02-05T11:08:24Z</time>
      </trkpt>
      <trkpt lat="43.53697" lon="3.31809">
        <ele>219.317993</ele>
        <time>2012-02-05T11:08:28Z</time>
      </trkpt>
      <trkpt lat="43.53685" lon="3.3181">
        <ele>218.356567</ele>
        <time>2012-02-05T11:08:31Z</time>
      </trkpt>
      <trkpt lat="43.53681" lon="3.31805">
        <ele>217.395386</ele>
        <time>2012-02-05T11:08:32Z</time>
      </trkpt>
      <trkpt lat="43.53649" lon="3.31771">
        <ele>213.069336</ele>
        <time>2012-02-05T11:08:37Z</time>
      </trkpt>
      <trkpt lat="43.53624" lon="3.31746">
        <ele>213.550049</ele>
        <time>2012-02-05T11:08:41Z</time>
      </trkpt>
      <trkpt lat="43.53607" lon="3.3173">
        <ele>216.914673</ele>
        <time>2012-02-05T11:08:45Z</time>
      </trkpt>
      <trkpt lat="43.53599" lon="3.31719">
        <ele>220.279175</ele>
        <time>2012-02-05T11:08:49Z</time>
      </trkpt>
      <trkpt lat="43.53597" lon="3.31716">
        <ele>220.279175</ele>
        <time>2012-02-05T11:08:50Z</time>
      </trkpt>
      <trkpt lat="43.53588" lon="3.31699">
        <ele>222.682495</ele>
        <time>2012-02-05T11:08:57Z</time>
      </trkpt>
      <trkpt lat="43.53578" lon="3.31682">
        <ele>224.124512</ele>
        <time>2012-02-05T11:09:03Z</time>
      </trkpt>
      <trkpt lat="43.5356" lon="3.31659">
        <ele>224.605225</ele>
        <time>2012-02-05T11:09:13Z</time>
      </trkpt>
      <trkpt lat="43.53547" lon="3.31643">
        <ele>223.643799</ele>
        <time>2012-02-05T11:09:20Z</time>
      </trkpt>
      <trkpt lat="43.53537" lon="3.31618">
        <ele>223.643799</ele>
        <time>2012-02-05T11:09:26Z</time>
      </trkpt>
      <trkpt lat="43.53534" lon="3.31612">
        <ele>223.163208</ele>
        <time>2012-02-05T11:09:27Z</time>
      </trkpt>
      <trkpt lat="43.53527" lon="3.31599">
        <ele>221.721191</ele>
        <time>2012-02-05T11:09:29Z</time>
      </trkpt>
      <trkpt lat="43.53506" lon="3.31571">
        <ele>219.798584</ele>
        <time>2012-02-05T11:09:33Z</time>
      </trkpt>
      <trkpt lat="43.53485" lon="3.31539">
        <ele>216.914673</ele>
        <time>2012-02-05T11:09:37Z</time>
      </trkpt>
      <trkpt lat="43.53474" lon="3.31522">
        <ele>215.472656</ele>
        <time>2012-02-05T11:09:39Z</time>
      </trkpt>
      <trkpt lat="43.5343" lon="3.31459">
        <ele>213.069336</ele>
        <time>2012-02-05T11:09:47Z</time>
      </trkpt>
      <trkpt lat="43.5341" lon="3.31439">
        <ele>211.146728</ele>
        <time>2012-02-05T11:09:51Z</time>
      </trkpt>
      <trkpt lat="43.53406" lon="3.31435">
        <ele>210.185425</ele>
        <time>2012-02-05T11:09:52Z</time>
      </trkpt>
      <trkpt lat="43.53396" lon="3.31422">
        <ele>207.782105</ele>
        <time>2012-02-05T11:09:55Z</time>
      </trkpt>
      <trkpt lat="43.53381" lon="3.31409">
        <ele>202.975464</ele>
        <time>2012-02-05T11:09:58Z</time>
      </trkpt>
      <trkpt lat="43.5337" lon="3.31402">
        <ele>199.130127</ele>
        <time>2012-02-05T11:10:00Z</time>
      </trkpt>
      <trkpt lat="43.53365" lon="3.31397">
        <ele>198.168945</ele>
        <time>2012-02-05T11:10:01Z</time>
      </trkpt>
      <trkpt lat="43.5334" lon="3.31373">
        <ele>193.362305</ele>
        <time>2012-02-05T11:10:05Z</time>
      </trkpt>
      <trkpt lat="43.53317" lon="3.31353">
        <ele>188.555786</ele>
        <time>2012-02-05T11:10:08Z</time>
      </trkpt>
      <trkpt lat="43.5331" lon="3.31347">
        <ele>187.59436</ele>
        <time>2012-02-05T11:10:09Z</time>
      </trkpt>
      <trkpt lat="43.53295" lon="3.31323">
        <ele>185.671753</ele>
        <time>2012-02-05T11:10:13Z</time>
      </trkpt>
      <trkpt lat="43.53293" lon="3.31316">
        <ele>186.152466</ele>
        <time>2012-02-05T11:10:14Z</time>
      </trkpt>
      <trkpt lat="43.53278" lon="3.3128">
        <ele>186.152466</ele>
        <time>2012-02-05T11:10:19Z</time>
      </trkpt>
      <trkpt lat="43.53261" lon="3.31238">
        <ele>186.633179</ele>
        <time>2012-02-05T11:10:26Z</time>
      </trkpt>
      <trkpt lat="43.53249" lon="3.31206">
        <ele>185.191162</ele>
        <time>2012-02-05T11:10:32Z</time>
      </trkpt>
      <trkpt lat="43.53232" lon="3.31172">
        <ele>181.826416</ele>
        <time>2012-02-05T11:10:37Z</time>
      </trkpt>
      <trkpt lat="43.53209" lon="3.31138">
        <ele>180.384522</ele>
        <time>2012-02-05T11:10:43Z</time>
      </trkpt>
      <trkpt lat="43.53197" lon="3.31121">
        <ele>180.865234</ele>
        <time>2012-02-05T11:10:46Z</time>
      </trkpt>
      <trkpt lat="43.5319" lon="3.31101">
        <ele>181.345825</ele>
        <time>2012-02-05T11:10:50Z</time>
      </trkpt>
      <trkpt lat="43.5319" lon="3.31098">
        <ele>180.865234</ele>
        <time>2012-02-05T11:10:53Z</time>
      </trkpt>
      <trkpt lat="43.5319" lon="3.31098">
        <ele>179.903809</ele>
        <time>2012-02-05T11:11:05Z</time>
      </trkpt>
      <trkpt lat="43.5319" lon="3.31092">
        <ele>181.345825</ele>
        <time>2012-02-05T11:11:07Z</time>
      </trkpt>
      <trkpt lat="43.53188" lon="3.31075">
        <ele>181.345825</ele>
        <time>2012-02-05T11:11:13Z</time>
      </trkpt>
      <trkpt lat="43.53181" lon="3.31047">
        <ele>181.345825</ele>
        <time>2012-02-05T11:11:19Z</time>
      </trkpt>
      <trkpt lat="43.53175" lon="3.31035">
        <ele>182.307129</ele>
        <time>2012-02-05T11:11:23Z</time>
      </trkpt>
      <trkpt lat="43.53162" lon="3.3101">
        <ele>182.787842</ele>
        <time>2012-02-05T11:11:31Z</time>
      </trkpt>
      <trkpt lat="43.53149" lon="3.3098">
        <ele>181.826416</ele>
        <time>2012-02-05T11:11:38Z</time>
      </trkpt>
      <trkpt lat="43.53136" lon="3.30946">
        <ele>178.942627</ele>
        <time>2012-02-05T11:11:45Z</time>
      </trkpt>
      <trkpt lat="43.53133" lon="3.30937">
        <ele>178.461914</ele>
        <time>2012-02-05T11:11:47Z</time>
      </trkpt>
      <trkpt lat="43.53115" lon="3.30898">
        <ele>177.020019</ele>
        <time>2012-02-05T11:11:55Z</time>
      </trkpt>
      <trkpt lat="43.53103" lon="3.30868">
        <ele>175.577881</ele>
        <time>2012-02-05T11:12:02Z</time>
      </trkpt>
      <trkpt lat="43.53097" lon="3.30843">
        <ele>174.135864</ele>
        <time>2012-02-05T11:12:07Z</time>
      </trkpt>
      <trkpt lat="43.53089" lon="3.30808">
        <ele>172.213257</ele>
        <time>2012-02-05T11:12:13Z</time>
      </trkpt>
      <trkpt lat="43.53088" lon="3.30784">
        <ele>168.848755</ele>
        <time>2012-02-05T11:12:17Z</time>
      </trkpt>
      <trkpt lat="43.53087" lon="3.30779">
        <ele>168.368042</ele>
        <time>2012-02-05T11:12:18Z</time>
      </trkpt>
      <trkpt lat="43.53086" lon="3.30764">
        <ele>166.926025</ele>
        <time>2012-02-05T11:12:21Z</time>
      </trkpt>
      <trkpt lat="43.53085" lon="3.30757">
        <ele>166.445312</ele>
        <time>2012-02-05T11:12:22Z</time>
      </trkpt>
      <trkpt lat="43.53084" lon="3.30745">
        <ele>165.484131</ele>
        <time>2012-02-05T11:12:24Z</time>
      </trkpt>
      <trkpt lat="43.53086" lon="3.30721">
        <ele>163.080811</ele>
        <time>2012-02-05T11:12:28Z</time>
      </trkpt>
      <trkpt lat="43.53081" lon="3.30703">
        <ele>160.196899</ele>
        <time>2012-02-05T11:12:31Z</time>
      </trkpt>
      <trkpt lat="43.53067" lon="3.30677">
        <ele>157.312866</ele>
        <time>2012-02-05T11:12:35Z</time>
      </trkpt>
      <trkpt lat="43.53055" lon="3.30656">
        <ele>155.870972</ele>
        <time>2012-02-05T11:12:38Z</time>
      </trkpt>
      <trkpt lat="43.5303" lon="3.30631">
        <ele>155.390259</ele>
        <time>2012-02-05T11:12:43Z</time>
      </trkpt>
      <trkpt lat="43.5301" lon="3.30629">
        <ele>155.870972</ele>
        <time>2012-02-05T11:12:47Z</time>
      </trkpt>
      <trkpt lat="43.53" lon="3.30646">
        <ele>153.948364</ele>
        <time>2012-02-05T11:12:50Z</time>
      </trkpt>
      <trkpt lat="43.52995" lon="3.30662">
        <ele>152.986939</ele>
        <time>2012-02-05T11:12:52Z</time>
      </trkpt>
      <trkpt lat="43.52993" lon="3.30679">
        <ele>152.506348</ele>
        <time>2012-02-05T11:12:54Z</time>
      </trkpt>
      <trkpt lat="43.52995" lon="3.30694">
        <ele>152.986939</ele>
        <time>2012-02-05T11:12:56Z</time>
      </trkpt>
      <trkpt lat="43.53001" lon="3.30729">
        <ele>154.428955</ele>
        <time>2012-02-05T11:13:02Z</time>
      </trkpt>
      <trkpt lat="43.53012" lon="3.30757">
        <ele>155.870972</ele>
        <time>2012-02-05T11:13:09Z</time>
      </trkpt>
      <trkpt lat="43.53015" lon="3.30772">
        <ele>157.793579</ele>
        <time>2012-02-05T11:13:13Z</time>
      </trkpt>
      <trkpt lat="43.53014" lon="3.30786">
        <ele>157.312866</ele>
        <time>2012-02-05T11:13:17Z</time>
      </trkpt>
      <trkpt lat="43.53009" lon="3.30797">
        <ele>155.870972</ele>
        <time>2012-02-05T11:13:19Z</time>
      </trkpt>
      <trkpt lat="43.53006" lon="3.30803">
        <ele>154.909546</ele>
        <time>2012-02-05T11:13:20Z</time>
      </trkpt>
      <trkpt lat="43.53" lon="3.30819">
        <ele>154.428955</ele>
        <time>2012-02-05T11:13:22Z</time>
      </trkpt>
      <trkpt lat="43.52998" lon="3.30826">
        <ele>153.948364</ele>
        <time>2012-02-05T11:13:23Z</time>
      </trkpt>
      <trkpt lat="43.52987" lon="3.30834">
        <ele>152.025757</ele>
        <time>2012-02-05T11:13:27Z</time>
      </trkpt>
      <trkpt lat="43.52974" lon="3.30836">
        <ele>149.141602</ele>
        <time>2012-02-05T11:13:31Z</time>
      </trkpt>
      <trkpt lat="43.5297" lon="3.3084">
        <ele>148.661011</ele>
        <time>2012-02-05T11:13:32Z</time>
      </trkpt>
      <trkpt lat="43.52954" lon="3.30857">
        <ele>147.699707</ele>
        <time>2012-02-05T11:13:38Z</time>
      </trkpt>
      <trkpt lat="43.52941" lon="3.30858">
        <ele>146.257812</ele>
        <time>2012-02-05T11:13:42Z</time>
      </trkpt>
      <trkpt lat="43.52937" lon="3.30857">
        <ele>146.257812</ele>
        <time>2012-02-05T11:13:43Z</time>
      </trkpt>
      <trkpt lat="43.52925" lon="3.30851">
        <ele>144.815796</ele>
        <time>2012-02-05T11:13:47Z</time>
      </trkpt>
      <trkpt lat="43.5291" lon="3.30858">
        <ele>143.373657</ele>
        <time>2012-02-05T11:13:52Z</time>
      </trkpt>
      <trkpt lat="43.52895" lon="3.30879">
        <ele>141.931763</ele>
        <time>2012-02-05T11:13:59Z</time>
      </trkpt>
      <trkpt lat="43.5289" lon="3.30884">
        <ele>140.970459</ele>
        <time>2012-02-05T11:14:01Z</time>
      </trkpt>
      <trkpt lat="43.52881" lon="3.30895">
        <ele>138.567261</ele>
        <time>2012-02-05T11:14:07Z</time>
      </trkpt>
      <trkpt lat="43.5288" lon="3.30895">
        <ele>138.086548</ele>
        <time>2012-02-05T11:14:09Z</time>
      </trkpt>
      <trkpt lat="43.52881" lon="3.30893">
        <ele>138.086548</ele>
        <time>2012-02-05T11:15:23Z</time>
      </trkpt>
      <trkpt lat="43.52873" lon="3.30901">
        <ele>136.16394</ele>
        <time>2012-02-05T11:15:25Z</time>
      </trkpt>
      <trkpt lat="43.52859" lon="3.30917">
        <ele>134.721924</ele>
        <time>2012-02-05T11:15:28Z</time>
      </trkpt>
      <trkpt lat="43.5285" lon="3.30933">
        <ele>131.837891</ele>
        <time>2012-02-05T11:15:30Z</time>
      </trkpt>
      <trkpt lat="43.52832" lon="3.30956">
        <ele>127.031372</ele>
        <time>2012-02-05T11:15:33Z</time>
      </trkpt>
      <trkpt lat="43.52797" lon="3.3099">
        <ele>124.147339</ele>
        <time>2012-02-05T11:15:37Z</time>
      </trkpt>
      <trkpt lat="43.52778" lon="3.3101">
        <ele>121.26355</ele>
        <time>2012-02-05T11:15:39Z</time>
      </trkpt>
      <trkpt lat="43.52762" lon="3.31029">
        <ele>120.302124</ele>
        <time>2012-02-05T11:15:41Z</time>
      </trkpt>
      <trkpt lat="43.52752" lon="3.3104">
        <ele>117.898804</ele>
        <time>2012-02-05T11:15:43Z</time>
      </trkpt>
      <trkpt lat="43.52749" lon="3.31042">
        <ele>117.898804</ele>
        <time>2012-02-05T11:15:44Z</time>
      </trkpt>
      <trkpt lat="43.52748" lon="3.31044">
        <ele>118.379395</ele>
        <time>2012-02-05T11:15:47Z</time>
      </trkpt>
      <trkpt lat="43.52748" lon="3.31044">
        <ele>118.379395</ele>
        <time>2012-02-05T11:15:55Z</time>
      </trkpt>
      <trkpt lat="43.52746" lon="3.31047">
        <ele>117.898804</ele>
        <time>2012-02-05T11:15:59Z</time>
      </trkpt>
      <trkpt lat="43.52745" lon="3.31045">
        <ele>117.418213</ele>
        <time>2012-02-05T11:16:02Z</time>
      </trkpt>
      <trkpt lat="43.52743" lon="3.31042">
        <ele>116.9375</ele>
        <time>2012-02-05T11:18:03Z</time>
      </trkpt>
      <trkpt lat="43.52742" lon="3.31042">
        <ele>116.9375</ele>
        <time>2012-02-05T11:18:05Z</time>
      </trkpt>
      <trkpt lat="43.52742" lon="3.31041">
        <ele>116.9375</ele>
        <time>2012-02-05T11:18:08Z</time>
      </trkpt>
      <trkpt lat="43.52741" lon="3.31041">
        <ele>116.456787</ele>
        <time>2012-02-05T11:18:09Z</time>
      </trkpt>
      <trkpt lat="43.52735" lon="3.31033">
        <ele>116.9375</ele>
        <time>2012-02-05T11:18:14Z</time>
      </trkpt>
      <trkpt lat="43.52725" lon="3.31029">
        <ele>117.898804</ele>
        <time>2012-02-05T11:18:21Z</time>
      </trkpt>
      <trkpt lat="43.5271" lon="3.31029">
        <ele>118.860107</ele>
        <time>2012-02-05T11:18:30Z</time>
      </trkpt>
      <trkpt lat="43.52697" lon="3.31026">
        <ele>118.379395</ele>
        <time>2012-02-05T11:18:37Z</time>
      </trkpt>
      <trkpt lat="43.5268" lon="3.31027">
        <ele>117.418213</ele>
        <time>2012-02-05T11:18:43Z</time>
      </trkpt>
      <trkpt lat="43.52662" lon="3.31027">
        <ele>115.014893</ele>
        <time>2012-02-05T11:18:49Z</time>
      </trkpt>
      <trkpt lat="43.52645" lon="3.31011">
        <ele>113.092285</ele>
        <time>2012-02-05T11:18:55Z</time>
      </trkpt>
      <trkpt lat="43.52639" lon="3.31006">
        <ele>112.611572</ele>
        <time>2012-02-05T11:18:57Z</time>
      </trkpt>
      <trkpt lat="43.52613" lon="3.30981">
        <ele>111.650269</ele>
        <time>2012-02-05T11:19:05Z</time>
      </trkpt>
      <trkpt lat="43.52585" lon="3.30955">
        <ele>109.727661</ele>
        <time>2012-02-05T11:19:13Z</time>
      </trkpt>
      <trkpt lat="43.52565" lon="3.30936">
        <ele>108.285645</ele>
        <time>2012-02-05T11:19:19Z</time>
      </trkpt>
      <trkpt lat="43.52548" lon="3.30915">
        <ele>106.843628</ele>
        <time>2012-02-05T11:19:24Z</time>
      </trkpt>
      <trkpt lat="43.52542" lon="3.30908">
        <ele>106.363037</ele>
        <time>2012-02-05T11:19:26Z</time>
      </trkpt>
      <trkpt lat="43.52525" lon="3.30901">
        <ele>104.44043</ele>
        <time>2012-02-05T11:19:30Z</time>
      </trkpt>
      <trkpt lat="43.52514" lon="3.30909">
        <ele>103.479004</ele>
        <time>2012-02-05T11:19:32Z</time>
      </trkpt>
      <trkpt lat="43.52503" lon="3.3092">
        <ele>102.998291</ele>
        <time>2012-02-05T11:19:34Z</time>
      </trkpt>
      <trkpt lat="43.52469" lon="3.30939">
        <ele>98.672485</ele>
        <time>2012-02-05T11:19:39Z</time>
      </trkpt>
      <trkpt lat="43.52445" lon="3.30951">
        <ele>95.307739</ele>
        <time>2012-02-05T11:19:42Z</time>
      </trkpt>
      <trkpt lat="43.52408" lon="3.3097">
        <ele>91.943237</ele>
        <time>2012-02-05T11:19:46Z</time>
      </trkpt>
      <trkpt lat="43.52393" lon="3.30978">
        <ele>88.578735</ele>
        <time>2012-02-05T11:19:48Z</time>
      </trkpt>
      <trkpt lat="43.52382" lon="3.30985">
        <ele>87.617188</ele>
        <time>2012-02-05T11:19:50Z</time>
      </trkpt>
      <trkpt lat="43.52358" lon="3.30988">
        <ele>86.175293</ele>
        <time>2012-02-05T11:19:55Z</time>
      </trkpt>
      <trkpt lat="43.52349" lon="3.3098">
        <ele>86.175293</ele>
        <time>2012-02-05T11:19:57Z</time>
      </trkpt>
      <trkpt lat="43.52318" lon="3.30939">
        <ele>85.213989</ele>
        <time>2012-02-05T11:20:05Z</time>
      </trkpt>
      <trkpt lat="43.52315" lon="3.30934">
        <ele>85.213989</ele>
        <time>2012-02-05T11:20:06Z</time>
      </trkpt>
      <trkpt lat="43.52299" lon="3.30899">
        <ele>84.252685</ele>
        <time>2012-02-05T11:20:12Z</time>
      </trkpt>
      <trkpt lat="43.52284" lon="3.30886">
        <ele>83.771973</ele>
        <time>2012-02-05T11:20:16Z</time>
      </trkpt>
      <trkpt lat="43.52276" lon="3.30884">
        <ele>83.291382</ele>
        <time>2012-02-05T11:20:18Z</time>
      </trkpt>
      <trkpt lat="43.52262" lon="3.30888">
        <ele>84.733398</ele>
        <time>2012-02-05T11:20:22Z</time>
      </trkpt>
      <trkpt lat="43.52259" lon="3.30891">
        <ele>84.733398</ele>
        <time>2012-02-05T11:20:23Z</time>
      </trkpt>
      <trkpt lat="43.52236" lon="3.30915">
        <ele>84.733398</ele>
        <time>2012-02-05T11:20:32Z</time>
      </trkpt>
      <trkpt lat="43.5222" lon="3.30934">
        <ele>84.733398</ele>
        <time>2012-02-05T11:20:38Z</time>
      </trkpt>
      <trkpt lat="43.52197" lon="3.30952">
        <ele>84.252685</ele>
        <time>2012-02-05T11:20:45Z</time>
      </trkpt>
      <trkpt lat="43.52174" lon="3.30968">
        <ele>84.252685</ele>
        <time>2012-02-05T11:20:52Z</time>
      </trkpt>
      <trkpt lat="43.52155" lon="3.30973">
        <ele>83.291382</ele>
        <time>2012-02-05T11:20:58Z</time>
      </trkpt>
      <trkpt lat="43.52147" lon="3.30954">
        <ele>83.771973</ele>
        <time>2012-02-05T11:21:03Z</time>
      </trkpt>
      <trkpt lat="43.52146" lon="3.30945">
        <ele>84.733398</ele>
        <time>2012-02-05T11:21:05Z</time>
      </trkpt>
      <trkpt lat="43.52142" lon="3.30916">
        <ele>85.213989</ele>
        <time>2012-02-05T11:21:12Z</time>
      </trkpt>
      <trkpt lat="43.52137" lon="3.30883">
        <ele>85.69458</ele>
        <time>2012-02-05T11:21:20Z</time>
      </trkpt>
      <trkpt lat="43.52133" lon="3.30869">
        <ele>86.656006</ele>
        <time>2012-02-05T11:21:24Z</time>
      </trkpt>
      <trkpt lat="43.52121" lon="3.30871">
        <ele>86.175293</ele>
        <time>2012-02-05T11:21:29Z</time>
      </trkpt>
      <trkpt lat="43.521" lon="3.30888">
        <ele>87.617188</ele>
        <time>2012-02-05T11:21:37Z</time>
      </trkpt>
      <trkpt lat="43.52076" lon="3.30918">
        <ele>88.578735</ele>
        <time>2012-02-05T11:21:48Z</time>
      </trkpt>
      <trkpt lat="43.52053" lon="3.30948">
        <ele>89.059326</ele>
        <time>2012-02-05T11:21:58Z</time>
      </trkpt>
      <trkpt lat="43.52033" lon="3.30965">
        <ele>90.02063</ele>
        <time>2012-02-05T11:22:06Z</time>
      </trkpt>
      <trkpt lat="43.52007" lon="3.30974">
        <ele>90.981934</ele>
        <time>2012-02-05T11:22:15Z</time>
      </trkpt>
      <trkpt lat="43.51985" lon="3.30985">
        <ele>89.059326</ele>
        <time>2012-02-05T11:22:22Z</time>
      </trkpt>
      <trkpt lat="43.51971" lon="3.30996">
        <ele>89.059326</ele>
        <time>2012-02-05T11:22:26Z</time>
      </trkpt>
      <trkpt lat="43.51952" lon="3.31">
        <ele>87.617188</ele>
        <time>2012-02-05T11:22:30Z</time>
      </trkpt>
      <trkpt lat="43.51917" lon="3.30995">
        <ele>83.771973</ele>
        <time>2012-02-05T11:22:36Z</time>
      </trkpt>
      <trkpt lat="43.51898" lon="3.30999">
        <ele>83.291382</ele>
        <time>2012-02-05T11:22:39Z</time>
      </trkpt>
      <trkpt lat="43.51863" lon="3.31">
        <ele>83.771973</ele>
        <time>2012-02-05T11:22:45Z</time>
      </trkpt>
      <trkpt lat="43.5183" lon="3.30998">
        <ele>84.252685</ele>
        <time>2012-02-05T11:22:52Z</time>
      </trkpt>
      <trkpt lat="43.51801" lon="3.30996">
        <ele>84.733398</ele>
        <time>2012-02-05T11:22:59Z</time>
      </trkpt>
      <trkpt lat="43.51767" lon="3.30988">
        <ele>85.213989</ele>
        <time>2012-02-05T11:23:07Z</time>
      </trkpt>
      <trkpt lat="43.51737" lon="3.30978">
        <ele>86.175293</ele>
        <time>2012-02-05T11:23:15Z</time>
      </trkpt>
      <trkpt lat="43.5171" lon="3.30967">
        <ele>88.578735</ele>
        <time>2012-02-05T11:23:23Z</time>
      </trkpt>
      <trkpt lat="43.51689" lon="3.30953">
        <ele>90.981934</ele>
        <time>2012-02-05T11:23:31Z</time>
      </trkpt>
      <trkpt lat="43.51687" lon="3.30953">
        <ele>90.981934</ele>
        <time>2012-02-05T11:23:35Z</time>
      </trkpt>
      <trkpt lat="43.51686" lon="3.30954">
        <ele>90.501343</ele>
        <time>2012-02-05T11:24:01Z</time>
      </trkpt>
      <trkpt lat="43.51685" lon="3.30954">
        <ele>90.981934</ele>
        <time>2012-02-05T11:24:02Z</time>
      </trkpt>
      <trkpt lat="43.51685" lon="3.30954">
        <ele>90.981934</ele>
        <time>2012-02-05T11:24:23Z</time>
      </trkpt>
      <trkpt lat="43.51674" lon="3.30961">
        <ele>91.943237</ele>
        <time>2012-02-05T11:24:28Z</time>
      </trkpt>
      <trkpt lat="43.5166" lon="3.30969">
        <ele>92.42395</ele>
        <time>2012-02-05T11:24:33Z</time>
      </trkpt>
      <trkpt lat="43.51642" lon="3.30978">
        <ele>93.385132</ele>
        <time>2012-02-05T11:24:41Z</time>
      </trkpt>
      <trkpt lat="43.51622" lon="3.30988">
        <ele>94.827148</ele>
        <time>2012-02-05T11:24:49Z</time>
      </trkpt>
      <trkpt lat="43.51605" lon="3.30997">
        <ele>95.788452</ele>
        <time>2012-02-05T11:24:56Z</time>
      </trkpt>
      <trkpt lat="43.51579" lon="3.31002">
        <ele>96.749878</ele>
        <time>2012-02-05T11:25:05Z</time>
      </trkpt>
      <trkpt lat="43.51551" lon="3.31">
        <ele>97.230469</ele>
        <time>2012-02-05T11:25:14Z</time>
      </trkpt>
      <trkpt lat="43.51539" lon="3.30999">
        <ele>97.711182</ele>
        <time>2012-02-05T11:25:18Z</time>
      </trkpt>
      <trkpt lat="43.51535" lon="3.30987">
        <ele>98.191895</ele>
        <time>2012-02-05T11:25:22Z</time>
      </trkpt>
      <trkpt lat="43.5154" lon="3.30957">
        <ele>99.153076</ele>
        <time>2012-02-05T11:25:30Z</time>
      </trkpt>
      <trkpt lat="43.51552" lon="3.30928">
        <ele>99.633789</ele>
        <time>2012-02-05T11:25:38Z</time>
      </trkpt>
      <trkpt lat="43.51562" lon="3.30905">
        <ele>101.556397</ele>
        <time>2012-02-05T11:25:45Z</time>
      </trkpt>
      <trkpt lat="43.51571" lon="3.30881">
        <ele>104.44043</ele>
        <time>2012-02-05T11:25:53Z</time>
      </trkpt>
      <trkpt lat="43.5157" lon="3.30864">
        <ele>104.44043</ele>
        <time>2012-02-05T11:25:59Z</time>
      </trkpt>
      <trkpt lat="43.51564" lon="3.30845">
        <ele>105.401733</ele>
        <time>2012-02-05T11:26:06Z</time>
      </trkpt>
      <trkpt lat="43.51567" lon="3.30834">
        <ele>106.363037</ele>
        <time>2012-02-05T11:26:10Z</time>
      </trkpt>
      <trkpt lat="43.51581" lon="3.30819">
        <ele>106.843628</ele>
        <time>2012-02-05T11:26:17Z</time>
      </trkpt>
      <trkpt lat="43.51587" lon="3.3081">
        <ele>109.727661</ele>
        <time>2012-02-05T11:26:21Z</time>
      </trkpt>
      <trkpt lat="43.51598" lon="3.30788">
        <ele>113.092285</ele>
        <time>2012-02-05T11:26:30Z</time>
      </trkpt>
      <trkpt lat="43.51599" lon="3.30783">
        <ele>113.092285</ele>
        <time>2012-02-05T11:26:32Z</time>
      </trkpt>
      <trkpt lat="43.51593" lon="3.30767">
        <ele>115.976196</ele>
        <time>2012-02-05T11:26:39Z</time>
      </trkpt>
      <trkpt lat="43.51587" lon="3.30754">
        <ele>119.34082</ele>
        <time>2012-02-05T11:26:46Z</time>
      </trkpt>
      <trkpt lat="43.51584" lon="3.30734">
        <ele>122.224731</ele>
        <time>2012-02-05T11:26:54Z</time>
      </trkpt>
      <trkpt lat="43.51586" lon="3.30717">
        <ele>123.666748</ele>
        <time>2012-02-05T11:27:01Z</time>
      </trkpt>
      <trkpt lat="43.51588" lon="3.30699">
        <ele>126.069946</ele>
        <time>2012-02-05T11:27:09Z</time>
      </trkpt>
      <trkpt lat="43.51587" lon="3.30679">
        <ele>127.031372</ele>
        <time>2012-02-05T11:27:17Z</time>
      </trkpt>
      <trkpt lat="43.51584" lon="3.30662">
        <ele>128.473389</ele>
        <time>2012-02-05T11:27:24Z</time>
      </trkpt>
      <trkpt lat="43.51579" lon="3.30645">
        <ele>129.434692</ele>
        <time>2012-02-05T11:27:31Z</time>
      </trkpt>
      <trkpt lat="43.51576" lon="3.30638">
        <ele>130.876709</ele>
        <time>2012-02-05T11:27:34Z</time>
      </trkpt>
      <trkpt lat="43.5157" lon="3.30625">
        <ele>132.318603</ele>
        <time>2012-02-05T11:27:41Z</time>
      </trkpt>
      <trkpt lat="43.51564" lon="3.30612">
        <ele>135.683106</ele>
        <time>2012-02-05T11:27:48Z</time>
      </trkpt>
      <trkpt lat="43.51563" lon="3.30611">
        <ele>135.683106</ele>
        <time>2012-02-05T11:27:49Z</time>
      </trkpt>
      <trkpt lat="43.51555" lon="3.30593">
        <ele>136.644653</ele>
        <time>2012-02-05T11:27:57Z</time>
      </trkpt>
      <trkpt lat="43.51548" lon="3.30568">
        <ele>138.086548</ele>
        <time>2012-02-05T11:28:06Z</time>
      </trkpt>
      <trkpt lat="43.51544" lon="3.30548">
        <ele>139.528442</ele>
        <time>2012-02-05T11:28:14Z</time>
      </trkpt>
      <trkpt lat="43.51541" lon="3.30543">
        <ele>140.970459</ele>
        <time>2012-02-05T11:28:20Z</time>
      </trkpt>
      <trkpt lat="43.5154" lon="3.30543">
        <ele>141.45105</ele>
        <time>2012-02-05T11:28:21Z</time>
      </trkpt>
      <trkpt lat="43.5154" lon="3.30543">
        <ele>140.970459</ele>
        <time>2012-02-05T11:28:24Z</time>
      </trkpt>
      <trkpt lat="43.5154" lon="3.30544">
        <ele>140.489868</ele>
        <time>2012-02-05T11:28:25Z</time>
      </trkpt>
      <trkpt lat="43.5154" lon="3.30544">
        <ele>140.970459</ele>
        <time>2012-02-05T11:28:28Z</time>
      </trkpt>
      <trkpt lat="43.51534" lon="3.30541">
        <ele>143.373657</ele>
        <time>2012-02-05T11:28:32Z</time>
      </trkpt>
      <trkpt lat="43.51528" lon="3.30536">
        <ele>144.335205</ele>
        <time>2012-02-05T11:28:39Z</time>
      </trkpt>
      <trkpt lat="43.51525" lon="3.30523">
        <ele>145.7771</ele>
        <time>2012-02-05T11:28:47Z</time>
      </trkpt>
      <trkpt lat="43.51522" lon="3.30512">
        <ele>147.699707</ele>
        <time>2012-02-05T11:28:54Z</time>
      </trkpt>
      <trkpt lat="43.51521" lon="3.30496">
        <ele>148.661011</ele>
        <time>2012-02-05T11:29:00Z</time>
      </trkpt>
      <trkpt lat="43.51521" lon="3.30475">
        <ele>148.661011</ele>
        <time>2012-02-05T11:29:07Z</time>
      </trkpt>
      <trkpt lat="43.51519" lon="3.30446">
        <ele>150.583618</ele>
        <time>2012-02-05T11:29:16Z</time>
      </trkpt>
      <trkpt lat="43.51517" lon="3.30424">
        <ele>152.986939</ele>
        <time>2012-02-05T11:29:23Z</time>
      </trkpt>
      <trkpt lat="43.51514" lon="3.30398">
        <ele>153.948364</ele>
        <time>2012-02-05T11:29:31Z</time>
      </trkpt>
      <trkpt lat="43.51512" lon="3.3037">
        <ele>153.948364</ele>
        <time>2012-02-05T11:29:37Z</time>
      </trkpt>
      <trkpt lat="43.51511" lon="3.30345">
        <ele>152.986939</ele>
        <time>2012-02-05T11:29:42Z</time>
      </trkpt>
      <trkpt lat="43.51505" lon="3.30337">
        <ele>153.467651</ele>
        <time>2012-02-05T11:29:46Z</time>
      </trkpt>
      <trkpt lat="43.51505" lon="3.30337">
        <ele>153.467651</ele>
        <time>2012-02-05T11:29:47Z</time>
      </trkpt>
      <trkpt lat="43.51504" lon="3.30337">
        <ele>153.467651</ele>
        <time>2012-02-05T11:29:53Z</time>
      </trkpt>
      <trkpt lat="43.51501" lon="3.30336">
        <ele>153.467651</ele>
        <time>2012-02-05T11:29:56Z</time>
      </trkpt>
      <trkpt lat="43.515" lon="3.30336">
        <ele>153.467651</ele>
        <time>2012-02-05T11:29:58Z</time>
      </trkpt>
      <trkpt lat="43.51499" lon="3.30338">
        <ele>153.948364</ele>
        <time>2012-02-05T11:31:00Z</time>
      </trkpt>
      <trkpt lat="43.5149" lon="3.30335">
        <ele>152.986939</ele>
        <time>2012-02-05T11:31:05Z</time>
      </trkpt>
      <trkpt lat="43.51472" lon="3.3033">
        <ele>153.467651</ele>
        <time>2012-02-05T11:31:11Z</time>
      </trkpt>
      <trkpt lat="43.51461" lon="3.3033">
        <ele>153.467651</ele>
        <time>2012-02-05T11:31:14Z</time>
      </trkpt>
      <trkpt lat="43.51445" lon="3.30331">
        <ele>150.583618</ele>
        <time>2012-02-05T11:31:18Z</time>
      </trkpt>
      <trkpt lat="43.51443" lon="3.30327">
        <ele>150.583618</ele>
        <time>2012-02-05T11:31:19Z</time>
      </trkpt>
      <trkpt lat="43.51427" lon="3.30288">
        <ele>146.738403</ele>
        <time>2012-02-05T11:31:25Z</time>
      </trkpt>
      <trkpt lat="43.51422" lon="3.30273">
        <ele>146.257812</ele>
        <time>2012-02-05T11:31:27Z</time>
      </trkpt>
      <trkpt lat="43.51409" lon="3.30269">
        <ele>143.85437</ele>
        <time>2012-02-05T11:31:31Z</time>
      </trkpt>
      <trkpt lat="43.51404" lon="3.30271">
        <ele>143.373657</ele>
        <time>2012-02-05T11:31:32Z</time>
      </trkpt>
      <trkpt lat="43.51392" lon="3.3027">
        <ele>141.45105</ele>
        <time>2012-02-05T11:31:36Z</time>
      </trkpt>
      <trkpt lat="43.5139" lon="3.30265">
        <ele>141.45105</ele>
        <time>2012-02-05T11:31:37Z</time>
      </trkpt>
      <trkpt lat="43.51388" lon="3.30247">
        <ele>140.970459</ele>
        <time>2012-02-05T11:31:40Z</time>
      </trkpt>
      <trkpt lat="43.51388" lon="3.30235">
        <ele>140.489868</ele>
        <time>2012-02-05T11:31:42Z</time>
      </trkpt>
      <trkpt lat="43.51387" lon="3.30213">
        <ele>140.970459</ele>
        <time>2012-02-05T11:31:46Z</time>
      </trkpt>
      <trkpt lat="43.51388" lon="3.30162">
        <ele>141.45105</ele>
        <time>2012-02-05T11:31:55Z</time>
      </trkpt>
      <trkpt lat="43.51389" lon="3.30128">
        <ele>142.893066</ele>
        <time>2012-02-05T11:32:02Z</time>
      </trkpt>
      <trkpt lat="43.51389" lon="3.30105">
        <ele>143.373657</ele>
        <time>2012-02-05T11:32:07Z</time>
      </trkpt>
      <trkpt lat="43.51378" lon="3.30095">
        <ele>143.373657</ele>
        <time>2012-02-05T11:32:12Z</time>
      </trkpt>
      <trkpt lat="43.51355" lon="3.30085">
        <ele>141.931763</ele>
        <time>2012-02-05T11:32:18Z</time>
      </trkpt>
      <trkpt lat="43.51323" lon="3.30071">
        <ele>141.45105</ele>
        <time>2012-02-05T11:32:26Z</time>
      </trkpt>
      <trkpt lat="43.51276" lon="3.30052">
        <ele>140.489868</ele>
        <time>2012-02-05T11:32:36Z</time>
      </trkpt>
      <trkpt lat="43.51216" lon="3.30028">
        <ele>139.047852</ele>
        <time>2012-02-05T11:32:48Z</time>
      </trkpt>
      <trkpt lat="43.51173" lon="3.30011">
        <ele>138.567261</ele>
        <time>2012-02-05T11:32:57Z</time>
      </trkpt>
      <trkpt lat="43.51152" lon="3.30002">
        <ele>139.047852</ele>
        <time>2012-02-05T11:33:02Z</time>
      </trkpt>
      <trkpt lat="43.51128" lon="3.29994">
        <ele>139.047852</ele>
        <time>2012-02-05T11:33:08Z</time>
      </trkpt>
      <trkpt lat="43.51124" lon="3.29978">
        <ele>139.047852</ele>
        <time>2012-02-05T11:33:12Z</time>
      </trkpt>
      <trkpt lat="43.51127" lon="3.29968">
        <ele>140.009155</ele>
        <time>2012-02-05T11:33:14Z</time>
      </trkpt>
      <trkpt lat="43.5114" lon="3.29914">
        <ele>140.009155</ele>
        <time>2012-02-05T11:33:24Z</time>
      </trkpt>
      <trkpt lat="43.51154" lon="3.29857">
        <ele>140.970459</ele>
        <time>2012-02-05T11:33:35Z</time>
      </trkpt>
      <trkpt lat="43.51169" lon="3.29807">
        <ele>141.45105</ele>
        <time>2012-02-05T11:33:45Z</time>
      </trkpt>
      <trkpt lat="43.51177" lon="3.29795">
        <ele>141.45105</ele>
        <time>2012-02-05T11:33:48Z</time>
      </trkpt>
      <trkpt lat="43.51174" lon="3.29782">
        <ele>141.45105</ele>
        <time>2012-02-05T11:33:52Z</time>
      </trkpt>
      <trkpt lat="43.51147" lon="3.29761">
        <ele>142.893066</ele>
        <time>2012-02-05T11:34:01Z</time>
      </trkpt>
      <trkpt lat="43.51126" lon="3.29734">
        <ele>144.815796</ele>
        <time>2012-02-05T11:34:09Z</time>
      </trkpt>
      <trkpt lat="43.5111" lon="3.29705">
        <ele>145.7771</ele>
        <time>2012-02-05T11:34:17Z</time>
      </trkpt>
      <trkpt lat="43.51087" lon="3.29671">
        <ele>146.738403</ele>
        <time>2012-02-05T11:34:27Z</time>
      </trkpt>
      <trkpt lat="43.51068" lon="3.29643">
        <ele>145.7771</ele>
        <time>2012-02-05T11:34:35Z</time>
      </trkpt>
      <trkpt lat="43.5104" lon="3.2961">
        <ele>145.7771</ele>
        <time>2012-02-05T11:34:45Z</time>
      </trkpt>
      <trkpt lat="43.51015" lon="3.29591">
        <ele>145.7771</ele>
        <time>2012-02-05T11:34:53Z</time>
      </trkpt>
      <trkpt lat="43.50996" lon="3.2959">
        <ele>145.296387</ele>
        <time>2012-02-05T11:34:59Z</time>
      </trkpt>
      <trkpt lat="43.50986" lon="3.29588">
        <ele>146.257812</ele>
        <time>2012-02-05T11:35:04Z</time>
      </trkpt>
      <trkpt lat="43.50984" lon="3.29577">
        <ele>147.218994</ele>
        <time>2012-02-05T11:35:09Z</time>
      </trkpt>
      <trkpt lat="43.50984" lon="3.29554">
        <ele>148.18042</ele>
        <time>2012-02-05T11:35:16Z</time>
      </trkpt>
      <trkpt lat="43.50984" lon="3.2952">
        <ele>149.622314</ele>
        <time>2012-02-05T11:35:26Z</time>
      </trkpt>
      <trkpt lat="43.50984" lon="3.29491">
        <ele>150.583618</ele>
        <time>2012-02-05T11:35:36Z</time>
      </trkpt>
      <trkpt lat="43.50983" lon="3.29489">
        <ele>150.103027</ele>
        <time>2012-02-05T11:35:37Z</time>
      </trkpt>
      <trkpt lat="43.50972" lon="3.29484">
        <ele>150.583618</ele>
        <time>2012-02-05T11:35:43Z</time>
      </trkpt>
      <trkpt lat="43.50965" lon="3.29486">
        <ele>151.544922</ele>
        <time>2012-02-05T11:35:46Z</time>
      </trkpt>
      <trkpt lat="43.50943" lon="3.29486">
        <ele>151.544922</ele>
        <time>2012-02-05T11:35:56Z</time>
      </trkpt>
      <trkpt lat="43.50926" lon="3.29483">
        <ele>152.986939</ele>
        <time>2012-02-05T11:36:04Z</time>
      </trkpt>
      <trkpt lat="43.50913" lon="3.29482">
        <ele>153.467651</ele>
        <time>2012-02-05T11:36:10Z</time>
      </trkpt>
      <trkpt lat="43.50894" lon="3.29479">
        <ele>154.909546</ele>
        <time>2012-02-05T11:36:18Z</time>
      </trkpt>
      <trkpt lat="43.50869" lon="3.29471">
        <ele>155.870972</ele>
        <time>2012-02-05T11:36:28Z</time>
      </trkpt>
      <trkpt lat="43.5085" lon="3.29473">
        <ele>156.832153</ele>
        <time>2012-02-05T11:36:36Z</time>
      </trkpt>
      <trkpt lat="43.50839" lon="3.29469">
        <ele>157.793579</ele>
        <time>2012-02-05T11:36:41Z</time>
      </trkpt>
      <trkpt lat="43.5083" lon="3.29455">
        <ele>158.754761</ele>
        <time>2012-02-05T11:36:47Z</time>
      </trkpt>
      <trkpt lat="43.50819" lon="3.29439">
        <ele>159.716186</ele>
        <time>2012-02-05T11:36:53Z</time>
      </trkpt>
      <trkpt lat="43.50804" lon="3.29415">
        <ele>160.67749</ele>
        <time>2012-02-05T11:37:00Z</time>
      </trkpt>
      <trkpt lat="43.50785" lon="3.29399">
        <ele>161.158203</ele>
        <time>2012-02-05T11:37:07Z</time>
      </trkpt>
      <trkpt lat="43.50766" lon="3.29393">
        <ele>163.080811</ele>
        <time>2012-02-05T11:37:14Z</time>
      </trkpt>
      <trkpt lat="43.50758" lon="3.29392">
        <ele>165.003418</ele>
        <time>2012-02-05T11:37:17Z</time>
      </trkpt>
      <trkpt lat="43.50741" lon="3.29391">
        <ele>166.445312</ele>
        <time>2012-02-05T11:37:23Z</time>
      </trkpt>
      <trkpt lat="43.50721" lon="3.29387">
        <ele>167.887329</ele>
        <time>2012-02-05T11:37:30Z</time>
      </trkpt>
      <trkpt lat="43.50711" lon="3.29384">
        <ele>167.887329</ele>
        <time>2012-02-05T11:37:34Z</time>
      </trkpt>
      <trkpt lat="43.50708" lon="3.29377">
        <ele>169.329468</ele>
        <time>2012-02-05T11:37:38Z</time>
      </trkpt>
      <trkpt lat="43.50725" lon="3.29354">
        <ele>168.368042</ele>
        <time>2012-02-05T11:37:46Z</time>
      </trkpt>
      <trkpt lat="43.50733" lon="3.29344">
        <ele>168.368042</ele>
        <time>2012-02-05T11:37:49Z</time>
      </trkpt>
      <trkpt lat="43.5073" lon="3.29328">
        <ele>168.368042</ele>
        <time>2012-02-05T11:37:53Z</time>
      </trkpt>
      <trkpt lat="43.50728" lon="3.29327">
        <ele>168.368042</ele>
        <time>2012-02-05T11:37:54Z</time>
      </trkpt>
      <trkpt lat="43.50707" lon="3.29322">
        <ele>170.771362</ele>
        <time>2012-02-05T11:38:02Z</time>
      </trkpt>
      <trkpt lat="43.50684" lon="3.29316">
        <ele>174.135864</ele>
        <time>2012-02-05T11:38:12Z</time>
      </trkpt>
      <trkpt lat="43.50661" lon="3.29308">
        <ele>176.058594</ele>
        <time>2012-02-05T11:38:22Z</time>
      </trkpt>
      <trkpt lat="43.50648" lon="3.29304">
        <ele>178.942627</ele>
        <time>2012-02-05T11:38:28Z</time>
      </trkpt>
      <trkpt lat="43.50628" lon="3.29299">
        <ele>180.384522</ele>
        <time>2012-02-05T11:38:37Z</time>
      </trkpt>
      <trkpt lat="43.50608" lon="3.29293">
        <ele>180.865234</ele>
        <time>2012-02-05T11:38:45Z</time>
      </trkpt>
      <trkpt lat="43.50589" lon="3.29287">
        <ele>181.826416</ele>
        <time>2012-02-05T11:38:53Z</time>
      </trkpt>
      <trkpt lat="43.50577" lon="3.2928">
        <ele>182.787842</ele>
        <time>2012-02-05T11:38:59Z</time>
      </trkpt>
      <trkpt lat="43.50572" lon="3.29272">
        <ele>184.229858</ele>
        <time>2012-02-05T11:39:05Z</time>
      </trkpt>
      <trkpt lat="43.50564" lon="3.29257">
        <ele>186.633179</ele>
        <time>2012-02-05T11:39:13Z</time>
      </trkpt>
      <trkpt lat="43.50559" lon="3.2924">
        <ele>189.036377</ele>
        <time>2012-02-05T11:39:21Z</time>
      </trkpt>
      <trkpt lat="43.50557" lon="3.29231">
        <ele>189.997681</ele>
        <time>2012-02-05T11:39:25Z</time>
      </trkpt>
      <trkpt lat="43.5055" lon="3.29212">
        <ele>191.920288</ele>
        <time>2012-02-05T11:39:33Z</time>
      </trkpt>
      <trkpt lat="43.50549" lon="3.29193">
        <ele>193.843018</ele>
        <time>2012-02-05T11:39:40Z</time>
      </trkpt>
      <trkpt lat="43.50553" lon="3.29184">
        <ele>195.765625</ele>
        <time>2012-02-05T11:39:44Z</time>
      </trkpt>
      <trkpt lat="43.5056" lon="3.29177">
        <ele>197.688232</ele>
        <time>2012-02-05T11:39:50Z</time>
      </trkpt>
      <trkpt lat="43.50573" lon="3.29173">
        <ele>198.649536</ele>
        <time>2012-02-05T11:39:58Z</time>
      </trkpt>
      <trkpt lat="43.50586" lon="3.29169">
        <ele>199.130127</ele>
        <time>2012-02-05T11:40:05Z</time>
      </trkpt>
      <trkpt lat="43.50594" lon="3.2916">
        <ele>199.61084</ele>
        <time>2012-02-05T11:40:10Z</time>
      </trkpt>
      <trkpt lat="43.50591" lon="3.29149">
        <ele>200.572266</ele>
        <time>2012-02-05T11:40:15Z</time>
      </trkpt>
      <trkpt lat="43.50589" lon="3.29143">
        <ele>201.052856</ele>
        <time>2012-02-05T11:40:18Z</time>
      </trkpt>
      <trkpt lat="43.50592" lon="3.29134">
        <ele>202.014282</ele>
        <time>2012-02-05T11:40:23Z</time>
      </trkpt>
      <trkpt lat="43.50602" lon="3.29126">
        <ele>203.456177</ele>
        <time>2012-02-05T11:40:29Z</time>
      </trkpt>
      <trkpt lat="43.50604" lon="3.29121">
        <ele>203.93689</ele>
        <time>2012-02-05T11:40:31Z</time>
      </trkpt>
      <trkpt lat="43.50602" lon="3.29108">
        <ele>204.898071</ele>
        <time>2012-02-05T11:40:36Z</time>
      </trkpt>
      <trkpt lat="43.50601" lon="3.29106">
        <ele>204.898071</ele>
        <time>2012-02-05T11:40:37Z</time>
      </trkpt>
      <trkpt lat="43.50593" lon="3.29088">
        <ele>207.301392</ele>
        <time>2012-02-05T11:40:45Z</time>
      </trkpt>
      <trkpt lat="43.50589" lon="3.29079">
        <ele>208.262817</ele>
        <time>2012-02-05T11:40:49Z</time>
      </trkpt>
      <trkpt lat="43.50584" lon="3.29067">
        <ele>210.666016</ele>
        <time>2012-02-05T11:40:54Z</time>
      </trkpt>
      <trkpt lat="43.50577" lon="3.29058">
        <ele>210.666016</ele>
        <time>2012-02-05T11:40:59Z</time>
      </trkpt>
      <trkpt lat="43.50572" lon="3.29044">
        <ele>212.588623</ele>
        <time>2012-02-05T11:41:05Z</time>
      </trkpt>
      <trkpt lat="43.50571" lon="3.29041">
        <ele>213.069336</ele>
        <time>2012-02-05T11:41:07Z</time>
      </trkpt>
      <trkpt lat="43.50566" lon="3.29034">
        <ele>214.991943</ele>
        <time>2012-02-05T11:41:12Z</time>
      </trkpt>
      <trkpt lat="43.50562" lon="3.29024">
        <ele>216.914673</ele>
        <time>2012-02-05T11:41:18Z</time>
      </trkpt>
      <trkpt lat="43.50562" lon="3.29024">
        <ele>216.914673</ele>
        <time>2012-02-05T11:41:20Z</time>
      </trkpt>
      <trkpt lat="43.50562" lon="3.29024">
        <ele>216.43396</ele>
        <time>2012-02-05T11:41:23Z</time>
      </trkpt>
      <trkpt lat="43.50561" lon="3.29024">
        <ele>216.43396</ele>
        <time>2012-02-05T11:41:24Z</time>
      </trkpt>
      <trkpt lat="43.50564" lon="3.29019">
        <ele>216.43396</ele>
        <time>2012-02-05T11:42:54Z</time>
      </trkpt>
      <trkpt lat="43.50563" lon="3.29013">
        <ele>216.914673</ele>
        <time>2012-02-05T11:42:59Z</time>
      </trkpt>
      <trkpt lat="43.50562" lon="3.29006">
        <ele>216.914673</ele>
        <time>2012-02-05T11:43:05Z</time>
      </trkpt>
      <trkpt lat="43.50559" lon="3.28997">
        <ele>217.875977</ele>
        <time>2012-02-05T11:43:10Z</time>
      </trkpt>
      <trkpt lat="43.50557" lon="3.28995">
        <ele>218.356567</ele>
        <time>2012-02-05T11:43:11Z</time>
      </trkpt>
      <trkpt lat="43.50556" lon="3.28983">
        <ele>218.356567</ele>
        <time>2012-02-05T11:43:16Z</time>
      </trkpt>
      <trkpt lat="43.50552" lon="3.28971">
        <ele>219.317993</ele>
        <time>2012-02-05T11:43:21Z</time>
      </trkpt>
      <trkpt lat="43.5055" lon="3.28966">
        <ele>218.83728</ele>
        <time>2012-02-05T11:43:24Z</time>
      </trkpt>
      <trkpt lat="43.50546" lon="3.28953">
        <ele>219.798584</ele>
        <time>2012-02-05T11:43:29Z</time>
      </trkpt>
      <trkpt lat="43.50547" lon="3.28949">
        <ele>219.798584</ele>
        <time>2012-02-05T11:43:31Z</time>
      </trkpt>
      <trkpt lat="43.50541" lon="3.28937">
        <ele>218.356567</ele>
        <time>2012-02-05T11:43:36Z</time>
      </trkpt>
      <trkpt lat="43.50544" lon="3.28928">
        <ele>217.395386</ele>
        <time>2012-02-05T11:43:39Z</time>
      </trkpt>
      <trkpt lat="43.5055" lon="3.28921">
        <ele>217.395386</ele>
        <time>2012-02-05T11:43:42Z</time>
      </trkpt>
      <trkpt lat="43.50552" lon="3.28913">
        <ele>216.43396</ele>
        <time>2012-02-05T11:43:45Z</time>
      </trkpt>
      <trkpt lat="43.50554" lon="3.28911">
        <ele>216.43396</ele>
        <time>2012-02-05T11:43:46Z</time>
      </trkpt>
      <trkpt lat="43.5056" lon="3.28908">
        <ele>216.43396</ele>
        <time>2012-02-05T11:43:49Z</time>
      </trkpt>
      <trkpt lat="43.50568" lon="3.28903">
        <ele>214.991943</ele>
        <time>2012-02-05T11:43:53Z</time>
      </trkpt>
      <trkpt lat="43.50565" lon="3.28896">
        <ele>214.991943</ele>
        <time>2012-02-05T11:43:56Z</time>
      </trkpt>
      <trkpt lat="43.50559" lon="3.28884">
        <ele>214.511231</ele>
        <time>2012-02-05T11:44:00Z</time>
      </trkpt>
      <trkpt lat="43.50559" lon="3.28879">
        <ele>214.03064</ele>
        <time>2012-02-05T11:44:01Z</time>
      </trkpt>
      <trkpt lat="43.50565" lon="3.28856">
        <ele>211.146728</ele>
        <time>2012-02-05T11:44:06Z</time>
      </trkpt>
      <trkpt lat="43.5057" lon="3.28841">
        <ele>209.704834</ele>
        <time>2012-02-05T11:44:09Z</time>
      </trkpt>
      <trkpt lat="43.50569" lon="3.28829">
        <ele>207.782105</ele>
        <time>2012-02-05T11:44:12Z</time>
      </trkpt>
      <trkpt lat="43.50559" lon="3.2882">
        <ele>205.859497</ele>
        <time>2012-02-05T11:44:16Z</time>
      </trkpt>
      <trkpt lat="43.5055" lon="3.28812">
        <ele>203.456177</ele>
        <time>2012-02-05T11:44:19Z</time>
      </trkpt>
      <trkpt lat="43.50552" lon="3.28803">
        <ele>201.533569</ele>
        <time>2012-02-05T11:44:23Z</time>
      </trkpt>
      <trkpt lat="43.50554" lon="3.28801">
        <ele>201.533569</ele>
        <time>2012-02-05T11:44:25Z</time>
      </trkpt>
      <trkpt lat="43.50553" lon="3.28801">
        <ele>201.533569</ele>
        <time>2012-02-05T11:44:28Z</time>
      </trkpt>
      <trkpt lat="43.50553" lon="3.288">
        <ele>201.533569</ele>
        <time>2012-02-05T11:44:29Z</time>
      </trkpt>
      <trkpt lat="43.50552" lon="3.288">
        <ele>200.572266</ele>
        <time>2012-02-05T11:44:30Z</time>
      </trkpt>
      <trkpt lat="43.50551" lon="3.28802">
        <ele>194.804321</ele>
        <time>2012-02-05T12:08:41Z</time>
      </trkpt>
      <trkpt lat="43.50551" lon="3.28802">
        <ele>195.284912</ele>
        <time>2012-02-05T12:08:42Z</time>
      </trkpt>
      <trkpt lat="43.50553" lon="3.28802">
        <ele>195.284912</ele>
        <time>2012-02-05T12:08:45Z</time>
      </trkpt>
      <trkpt lat="43.50555" lon="3.28799">
        <ele>196.246338</ele>
        <time>2012-02-05T12:10:36Z</time>
      </trkpt>
      <trkpt lat="43.50559" lon="3.28798">
        <ele>196.726929</ele>
        <time>2012-02-05T12:10:38Z</time>
      </trkpt>
      <trkpt lat="43.50564" lon="3.28801">
        <ele>196.726929</ele>
        <time>2012-02-05T12:10:44Z</time>
      </trkpt>
      <trkpt lat="43.50571" lon="3.28803">
        <ele>196.726929</ele>
        <time>2012-02-05T12:10:50Z</time>
      </trkpt>
      <trkpt lat="43.50572" lon="3.28806">
        <ele>197.207519</ele>
        <time>2012-02-05T12:10:53Z</time>
      </trkpt>
      <trkpt lat="43.50576" lon="3.2881">
        <ele>198.649536</ele>
        <time>2012-02-05T12:11:00Z</time>
      </trkpt>
      <trkpt lat="43.50584" lon="3.28812">
        <ele>196.246338</ele>
        <time>2012-02-05T12:11:05Z</time>
      </trkpt>
      <trkpt lat="43.50591" lon="3.28807">
        <ele>194.323731</ele>
        <time>2012-02-05T12:11:08Z</time>
      </trkpt>
      <trkpt lat="43.50599" lon="3.28804">
        <ele>193.362305</ele>
        <time>2012-02-05T12:11:11Z</time>
      </trkpt>
      <trkpt lat="43.50605" lon="3.28798">
        <ele>189.997681</ele>
        <time>2012-02-05T12:11:13Z</time>
      </trkpt>
      <trkpt lat="43.50611" lon="3.28794">
        <ele>185.671753</ele>
        <time>2012-02-05T12:11:15Z</time>
      </trkpt>
      <trkpt lat="43.50617" lon="3.28789">
        <ele>181.826416</ele>
        <time>2012-02-05T12:11:18Z</time>
      </trkpt>
      <trkpt lat="43.50627" lon="3.28787">
        <ele>179.423218</ele>
        <time>2012-02-05T12:11:21Z</time>
      </trkpt>
      <trkpt lat="43.50637" lon="3.28784">
        <ele>176.539307</ele>
        <time>2012-02-05T12:11:25Z</time>
      </trkpt>
      <trkpt lat="43.50639" lon="3.28784">
        <ele>174.616577</ele>
        <time>2012-02-05T12:12:40Z</time>
      </trkpt>
      <trkpt lat="43.50641" lon="3.2878">
        <ele>173.174683</ele>
        <time>2012-02-05T12:12:42Z</time>
      </trkpt>
      <trkpt lat="43.50642" lon="3.28774">
        <ele>169.810059</ele>
        <time>2012-02-05T12:12:45Z</time>
      </trkpt>
      <trkpt lat="43.50642" lon="3.28772">
        <ele>168.848755</ele>
        <time>2012-02-05T12:12:46Z</time>
      </trkpt>
      <trkpt lat="43.50647" lon="3.28768">
        <ele>165.964722</ele>
        <time>2012-02-05T12:12:51Z</time>
      </trkpt>
      <trkpt lat="43.50649" lon="3.28767">
        <ele>165.484131</ele>
        <time>2012-02-05T12:12:52Z</time>
      </trkpt>
      <trkpt lat="43.50651" lon="3.28766">
        <ele>165.003418</ele>
        <time>2012-02-05T12:12:53Z</time>
      </trkpt>
      <trkpt lat="43.50656" lon="3.28762">
        <ele>162.600098</ele>
        <time>2012-02-05T12:12:56Z</time>
      </trkpt>
      <trkpt lat="43.50663" lon="3.28752">
        <ele>160.196899</ele>
        <time>2012-02-05T12:13:01Z</time>
      </trkpt>
      <trkpt lat="43.50667" lon="3.28741">
        <ele>157.793579</ele>
        <time>2012-02-05T12:13:03Z</time>
      </trkpt>
      <trkpt lat="43.50675" lon="3.28721">
        <ele>154.428955</ele>
        <time>2012-02-05T12:13:06Z</time>
      </trkpt>
      <trkpt lat="43.50684" lon="3.28703">
        <ele>150.583618</ele>
        <time>2012-02-05T12:13:10Z</time>
      </trkpt>
      <trkpt lat="43.50689" lon="3.28695">
        <ele>148.661011</ele>
        <time>2012-02-05T12:13:14Z</time>
      </trkpt>
      <trkpt lat="43.50689" lon="3.28695">
        <ele>148.18042</ele>
        <time>2012-02-05T12:13:15Z</time>
      </trkpt>
      <trkpt lat="43.50691" lon="3.2869">
        <ele>148.18042</ele>
        <time>2012-02-05T12:13:25Z</time>
      </trkpt>
      <trkpt lat="43.50692" lon="3.28686">
        <ele>148.18042</ele>
        <time>2012-02-05T12:13:27Z</time>
      </trkpt>
      <trkpt lat="43.50696" lon="3.28677">
        <ele>146.257812</ele>
        <time>2012-02-05T12:13:31Z</time>
      </trkpt>
      <trkpt lat="43.50697" lon="3.28664">
        <ele>145.296387</ele>
        <time>2012-02-05T12:13:35Z</time>
      </trkpt>
      <trkpt lat="43.50702" lon="3.28652">
        <ele>145.296387</ele>
        <time>2012-02-05T12:13:39Z</time>
      </trkpt>
      <trkpt lat="43.50704" lon="3.28645">
        <ele>144.815796</ele>
        <time>2012-02-05T12:13:43Z</time>
      </trkpt>
      <trkpt lat="43.50704" lon="3.28644">
        <ele>145.296387</ele>
        <time>2012-02-05T12:13:45Z</time>
      </trkpt>
      <trkpt lat="43.50704" lon="3.28643">
        <ele>144.335205</ele>
        <time>2012-02-05T12:13:48Z</time>
      </trkpt>
      <trkpt lat="43.50703" lon="3.28641">
        <ele>142.893066</ele>
        <time>2012-02-05T12:13:50Z</time>
      </trkpt>
      <trkpt lat="43.50703" lon="3.2864">
        <ele>142.893066</ele>
        <time>2012-02-05T12:13:51Z</time>
      </trkpt>
      <trkpt lat="43.50704" lon="3.28637">
        <ele>140.970459</ele>
        <time>2012-02-05T12:13:54Z</time>
      </trkpt>
      <trkpt lat="43.50706" lon="3.28627">
        <ele>141.931763</ele>
        <time>2012-02-05T12:15:14Z</time>
      </trkpt>
      <trkpt lat="43.50706" lon="3.28629">
        <ele>141.931763</ele>
        <time>2012-02-05T12:15:16Z</time>
      </trkpt>
      <trkpt lat="43.50706" lon="3.28631">
        <ele>141.45105</ele>
        <time>2012-02-05T12:15:34Z</time>
      </trkpt>
      <trkpt lat="43.50718" lon="3.2863">
        <ele>141.45105</ele>
        <time>2012-02-05T12:15:38Z</time>
      </trkpt>
      <trkpt lat="43.50721" lon="3.28629">
        <ele>140.489868</ele>
        <time>2012-02-05T12:15:40Z</time>
      </trkpt>
      <trkpt lat="43.50726" lon="3.28633">
        <ele>140.009155</ele>
        <time>2012-02-05T12:15:44Z</time>
      </trkpt>
      <trkpt lat="43.50729" lon="3.28645">
        <ele>139.528442</ele>
        <time>2012-02-05T12:15:52Z</time>
      </trkpt>
      <trkpt lat="43.5073" lon="3.28646">
        <ele>139.047852</ele>
        <time>2012-02-05T12:15:58Z</time>
      </trkpt>
      <trkpt lat="43.50731" lon="3.28652">
        <ele>140.009155</ele>
        <time>2012-02-05T12:16:00Z</time>
      </trkpt>
      <trkpt lat="43.50741" lon="3.28669">
        <ele>140.009155</ele>
        <time>2012-02-05T12:16:07Z</time>
      </trkpt>
      <trkpt lat="43.50751" lon="3.28687">
        <ele>141.45105</ele>
        <time>2012-02-05T12:16:14Z</time>
      </trkpt>
      <trkpt lat="43.50761" lon="3.28695">
        <ele>140.970459</ele>
        <time>2012-02-05T12:16:20Z</time>
      </trkpt>
      <trkpt lat="43.50763" lon="3.28697">
        <ele>141.45105</ele>
        <time>2012-02-05T12:16:21Z</time>
      </trkpt>
      <trkpt lat="43.50766" lon="3.28708">
        <ele>142.412476</ele>
        <time>2012-02-05T12:16:25Z</time>
      </trkpt>
      <trkpt lat="43.50772" lon="3.28726">
        <ele>143.85437</ele>
        <time>2012-02-05T12:16:33Z</time>
      </trkpt>
      <trkpt lat="43.50775" lon="3.28748">
        <ele>146.257812</ele>
        <time>2012-02-05T12:16:42Z</time>
      </trkpt>
      <trkpt lat="43.50777" lon="3.28761">
        <ele>146.738403</ele>
        <time>2012-02-05T12:16:48Z</time>
      </trkpt>
      <trkpt lat="43.50783" lon="3.2878">
        <ele>146.738403</ele>
        <time>2012-02-05T12:16:56Z</time>
      </trkpt>
      <trkpt lat="43.50785" lon="3.28791">
        <ele>147.218994</ele>
        <time>2012-02-05T12:17:00Z</time>
      </trkpt>
      <trkpt lat="43.50786" lon="3.28796">
        <ele>146.738403</ele>
        <time>2012-02-05T12:17:02Z</time>
      </trkpt>
      <trkpt lat="43.50792" lon="3.28798">
        <ele>146.738403</ele>
        <time>2012-02-05T12:17:06Z</time>
      </trkpt>
      <trkpt lat="43.50815" lon="3.28791">
        <ele>144.335205</ele>
        <time>2012-02-05T12:17:12Z</time>
      </trkpt>
      <trkpt lat="43.50831" lon="3.28786">
        <ele>141.45105</ele>
        <time>2012-02-05T12:17:15Z</time>
      </trkpt>
      <trkpt lat="43.50836" lon="3.28785">
        <ele>141.45105</ele>
        <time>2012-02-05T12:17:16Z</time>
      </trkpt>
      <trkpt lat="43.5084" lon="3.28784">
        <ele>141.931763</ele>
        <time>2012-02-05T12:17:17Z</time>
      </trkpt>
      <trkpt lat="43.50846" lon="3.2879">
        <ele>141.45105</ele>
        <time>2012-02-05T12:17:21Z</time>
      </trkpt>
      <trkpt lat="43.50846" lon="3.28791">
        <ele>141.931763</ele>
        <time>2012-02-05T12:17:22Z</time>
      </trkpt>
      <trkpt lat="43.50849" lon="3.28808">
        <ele>141.931763</ele>
        <time>2012-02-05T12:17:29Z</time>
      </trkpt>
      <trkpt lat="43.50854" lon="3.2883">
        <ele>142.893066</ele>
        <time>2012-02-05T12:17:36Z</time>
      </trkpt>
      <trkpt lat="43.5086" lon="3.28859">
        <ele>143.85437</ele>
        <time>2012-02-05T12:17:46Z</time>
      </trkpt>
      <trkpt lat="43.50862" lon="3.28864">
        <ele>143.85437</ele>
        <time>2012-02-05T12:17:50Z</time>
      </trkpt>
      <trkpt lat="43.50863" lon="3.28865">
        <ele>143.85437</ele>
        <time>2012-02-05T12:17:51Z</time>
      </trkpt>
      <trkpt lat="43.50863" lon="3.28876">
        <ele>143.85437</ele>
        <time>2012-02-05T12:17:57Z</time>
      </trkpt>
      <trkpt lat="43.5087" lon="3.2888">
        <ele>143.85437</ele>
        <time>2012-02-05T12:18:01Z</time>
      </trkpt>
      <trkpt lat="43.50903" lon="3.2887">
        <ele>142.412476</ele>
        <time>2012-02-05T12:18:09Z</time>
      </trkpt>
      <trkpt lat="43.50918" lon="3.28872">
        <ele>141.45105</ele>
        <time>2012-02-05T12:18:13Z</time>
      </trkpt>
      <trkpt lat="43.50924" lon="3.28875">
        <ele>141.931763</ele>
        <time>2012-02-05T12:18:15Z</time>
      </trkpt>
      <trkpt lat="43.5093" lon="3.28894">
        <ele>142.412476</ele>
        <time>2012-02-05T12:18:21Z</time>
      </trkpt>
      <trkpt lat="43.50931" lon="3.28898">
        <ele>142.412476</ele>
        <time>2012-02-05T12:18:25Z</time>
      </trkpt>
      <trkpt lat="43.5093" lon="3.28898">
        <ele>141.45105</ele>
        <time>2012-02-05T12:18:41Z</time>
      </trkpt>
      <trkpt lat="43.50932" lon="3.28915">
        <ele>141.931763</ele>
        <time>2012-02-05T12:18:45Z</time>
      </trkpt>
      <trkpt lat="43.50938" lon="3.28957">
        <ele>142.412476</ele>
        <time>2012-02-05T12:18:52Z</time>
      </trkpt>
      <trkpt lat="43.50945" lon="3.29001">
        <ele>142.412476</ele>
        <time>2012-02-05T12:19:00Z</time>
      </trkpt>
      <trkpt lat="43.50949" lon="3.29028">
        <ele>142.893066</ele>
        <time>2012-02-05T12:19:07Z</time>
      </trkpt>
      <trkpt lat="43.50949" lon="3.29033">
        <ele>142.893066</ele>
        <time>2012-02-05T12:19:12Z</time>
      </trkpt>
      <trkpt lat="43.50949" lon="3.29033">
        <ele>143.373657</ele>
        <time>2012-02-05T12:19:19Z</time>
      </trkpt>
      <trkpt lat="43.50949" lon="3.29031">
        <ele>142.893066</ele>
        <time>2012-02-05T12:19:20Z</time>
      </trkpt>
      <trkpt lat="43.50948" lon="3.29018">
        <ele>142.412476</ele>
        <time>2012-02-05T12:19:26Z</time>
      </trkpt>
      <trkpt lat="43.50958" lon="3.29017">
        <ele>141.45105</ele>
        <time>2012-02-05T12:19:30Z</time>
      </trkpt>
      <trkpt lat="43.50964" lon="3.29016">
        <ele>140.489868</ele>
        <time>2012-02-05T12:19:33Z</time>
      </trkpt>
      <trkpt lat="43.50965" lon="3.29015">
        <ele>140.489868</ele>
        <time>2012-02-05T12:19:36Z</time>
      </trkpt>
      <trkpt lat="43.50974" lon="3.29013">
        <ele>140.489868</ele>
        <time>2012-02-05T12:19:37Z</time>
      </trkpt>
      <trkpt lat="43.50983" lon="3.29002">
        <ele>140.009155</ele>
        <time>2012-02-05T12:19:41Z</time>
      </trkpt>
      <trkpt lat="43.5099" lon="3.28993">
        <ele>140.009155</ele>
        <time>2012-02-05T12:19:44Z</time>
      </trkpt>
      <trkpt lat="43.50998" lon="3.28984">
        <ele>140.489868</ele>
        <time>2012-02-05T12:19:48Z</time>
      </trkpt>
      <trkpt lat="43.51005" lon="3.2899">
        <ele>139.528442</ele>
        <time>2012-02-05T12:19:53Z</time>
      </trkpt>
      <trkpt lat="43.51011" lon="3.29">
        <ele>139.047852</ele>
        <time>2012-02-05T12:19:59Z</time>
      </trkpt>
      <trkpt lat="43.51019" lon="3.29012">
        <ele>139.528442</ele>
        <time>2012-02-05T12:20:06Z</time>
      </trkpt>
      <trkpt lat="43.51024" lon="3.2902">
        <ele>139.528442</ele>
        <time>2012-02-05T12:20:12Z</time>
      </trkpt>
      <trkpt lat="43.51025" lon="3.29022">
        <ele>138.086548</ele>
        <time>2012-02-05T12:20:15Z</time>
      </trkpt>
      <trkpt lat="43.51024" lon="3.29032">
        <ele>140.489868</ele>
        <time>2012-02-05T12:20:21Z</time>
      </trkpt>
      <trkpt lat="43.51024" lon="3.29033">
        <ele>140.489868</ele>
        <time>2012-02-05T12:20:22Z</time>
      </trkpt>
      <trkpt lat="43.51025" lon="3.29036">
        <ele>140.970459</ele>
        <time>2012-02-05T12:20:24Z</time>
      </trkpt>
      <trkpt lat="43.5103" lon="3.29045">
        <ele>141.45105</ele>
        <time>2012-02-05T12:20:30Z</time>
      </trkpt>
      <trkpt lat="43.51034" lon="3.29052">
        <ele>141.931763</ele>
        <time>2012-02-05T12:20:34Z</time>
      </trkpt>
      <trkpt lat="43.5103" lon="3.29064">
        <ele>141.931763</ele>
        <time>2012-02-05T12:20:39Z</time>
      </trkpt>
      <trkpt lat="43.51028" lon="3.29079">
        <ele>142.412476</ele>
        <time>2012-02-05T12:20:44Z</time>
      </trkpt>
      <trkpt lat="43.51031" lon="3.29087">
        <ele>142.412476</ele>
        <time>2012-02-05T12:20:47Z</time>
      </trkpt>
      <trkpt lat="43.51032" lon="3.29101">
        <ele>142.412476</ele>
        <time>2012-02-05T12:20:52Z</time>
      </trkpt>
      <trkpt lat="43.51037" lon="3.29103">
        <ele>141.931763</ele>
        <time>2012-02-05T12:20:56Z</time>
      </trkpt>
      <trkpt lat="43.5105" lon="3.29112">
        <ele>140.009155</ele>
        <time>2012-02-05T12:21:03Z</time>
      </trkpt>
      <trkpt lat="43.51058" lon="3.29113">
        <ele>138.567261</ele>
        <time>2012-02-05T12:21:06Z</time>
      </trkpt>
      <trkpt lat="43.51065" lon="3.29121">
        <ele>137.125244</ele>
        <time>2012-02-05T12:21:11Z</time>
      </trkpt>
      <trkpt lat="43.51067" lon="3.29122">
        <ele>137.125244</ele>
        <time>2012-02-05T12:21:12Z</time>
      </trkpt>
      <trkpt lat="43.51075" lon="3.29128">
        <ele>136.16394</ele>
        <time>2012-02-05T12:21:15Z</time>
      </trkpt>
      <trkpt lat="43.51076" lon="3.29133">
        <ele>135.202515</ele>
        <time>2012-02-05T12:21:18Z</time>
      </trkpt>
      <trkpt lat="43.51074" lon="3.29141">
        <ele>136.644653</ele>
        <time>2012-02-05T12:21:21Z</time>
      </trkpt>
      <trkpt lat="43.5107" lon="3.29151">
        <ele>138.086548</ele>
        <time>2012-02-05T12:21:26Z</time>
      </trkpt>
      <trkpt lat="43.51067" lon="3.29156">
        <ele>138.567261</ele>
        <time>2012-02-05T12:21:30Z</time>
      </trkpt>
      <trkpt lat="43.51067" lon="3.29157">
        <ele>139.528442</ele>
        <time>2012-02-05T12:21:31Z</time>
      </trkpt>
      <trkpt lat="43.51065" lon="3.29161">
        <ele>139.047852</ele>
        <time>2012-02-05T12:21:47Z</time>
      </trkpt>
      <trkpt lat="43.51062" lon="3.29166">
        <ele>140.009155</ele>
        <time>2012-02-05T12:21:52Z</time>
      </trkpt>
      <trkpt lat="43.51055" lon="3.2917">
        <ele>141.45105</ele>
        <time>2012-02-05T12:21:56Z</time>
      </trkpt>
      <trkpt lat="43.51048" lon="3.29173">
        <ele>142.412476</ele>
        <time>2012-02-05T12:22:02Z</time>
      </trkpt>
      <trkpt lat="43.51047" lon="3.29174">
        <ele>142.412476</ele>
        <time>2012-02-05T12:22:03Z</time>
      </trkpt>
      <trkpt lat="43.51045" lon="3.29178">
        <ele>142.893066</ele>
        <time>2012-02-05T12:22:38Z</time>
      </trkpt>
      <trkpt lat="43.51045" lon="3.29179">
        <ele>142.893066</ele>
        <time>2012-02-05T12:22:39Z</time>
      </trkpt>
      <trkpt lat="43.51044" lon="3.29185">
        <ele>142.412476</ele>
        <time>2012-02-05T12:22:43Z</time>
      </trkpt>
      <trkpt lat="43.51041" lon="3.29189">
        <ele>143.373657</ele>
        <time>2012-02-05T12:22:46Z</time>
      </trkpt>
      <trkpt lat="43.51039" lon="3.29199">
        <ele>142.893066</ele>
        <time>2012-02-05T12:22:53Z</time>
      </trkpt>
      <trkpt lat="43.51046" lon="3.29204">
        <ele>141.45105</ele>
        <time>2012-02-05T12:22:58Z</time>
      </trkpt>
      <trkpt lat="43.5105" lon="3.29209">
        <ele>140.489868</ele>
        <time>2012-02-05T12:23:00Z</time>
      </trkpt>
      <trkpt lat="43.51053" lon="3.29215">
        <ele>139.047852</ele>
        <time>2012-02-05T12:23:03Z</time>
      </trkpt>
      <trkpt lat="43.51058" lon="3.29221">
        <ele>137.605835</ele>
        <time>2012-02-05T12:23:06Z</time>
      </trkpt>
      <trkpt lat="43.51061" lon="3.29226">
        <ele>136.644653</ele>
        <time>2012-02-05T12:23:08Z</time>
      </trkpt>
      <trkpt lat="43.51067" lon="3.29236">
        <ele>136.16394</ele>
        <time>2012-02-05T12:23:12Z</time>
      </trkpt>
      <trkpt lat="43.51067" lon="3.29237">
        <ele>135.683106</ele>
        <time>2012-02-05T12:23:13Z</time>
      </trkpt>
      <trkpt lat="43.51066" lon="3.29241">
        <ele>136.16394</ele>
        <time>2012-02-05T12:23:16Z</time>
      </trkpt>
      <trkpt lat="43.51064" lon="3.29247">
        <ele>136.16394</ele>
        <time>2012-02-05T12:23:30Z</time>
      </trkpt>
      <trkpt lat="43.51064" lon="3.29249">
        <ele>136.16394</ele>
        <time>2012-02-05T12:23:32Z</time>
      </trkpt>
      <trkpt lat="43.51065" lon="3.29253">
        <ele>136.16394</ele>
        <time>2012-02-05T12:23:41Z</time>
      </trkpt>
      <trkpt lat="43.51067" lon="3.29256">
        <ele>136.644653</ele>
        <time>2012-02-05T12:23:45Z</time>
      </trkpt>
      <trkpt lat="43.51072" lon="3.29263">
        <ele>138.567261</ele>
        <time>2012-02-05T12:23:50Z</time>
      </trkpt>
      <trkpt lat="43.51073" lon="3.29267">
        <ele>139.047852</ele>
        <time>2012-02-05T12:23:54Z</time>
      </trkpt>
      <trkpt lat="43.51075" lon="3.29268">
        <ele>139.047852</ele>
        <time>2012-02-05T12:24:00Z</time>
      </trkpt>
      <trkpt lat="43.51078" lon="3.29266">
        <ele>139.047852</ele>
        <time>2012-02-05T12:24:02Z</time>
      </trkpt>
      <trkpt lat="43.51088" lon="3.29263">
        <ele>137.605835</ele>
        <time>2012-02-05T12:24:08Z</time>
      </trkpt>
      <trkpt lat="43.51091" lon="3.29262">
        <ele>138.086548</ele>
        <time>2012-02-05T12:24:12Z</time>
      </trkpt>
      <trkpt lat="43.51093" lon="3.29262">
        <ele>137.605835</ele>
        <time>2012-02-05T12:24:17Z</time>
      </trkpt>
      <trkpt lat="43.51098" lon="3.29268">
        <ele>138.567261</ele>
        <time>2012-02-05T12:24:23Z</time>
      </trkpt>
      <trkpt lat="43.51098" lon="3.29268">
        <ele>138.567261</ele>
        <time>2012-02-05T12:24:24Z</time>
      </trkpt>
      <trkpt lat="43.511" lon="3.29272">
        <ele>138.567261</ele>
        <time>2012-02-05T12:24:32Z</time>
      </trkpt>
      <trkpt lat="43.51104" lon="3.29277">
        <ele>139.047852</ele>
        <time>2012-02-05T12:24:36Z</time>
      </trkpt>
      <trkpt lat="43.51106" lon="3.29277">
        <ele>138.567261</ele>
        <time>2012-02-05T12:24:40Z</time>
      </trkpt>
      <trkpt lat="43.51108" lon="3.29278">
        <ele>138.086548</ele>
        <time>2012-02-05T12:24:43Z</time>
      </trkpt>
      <trkpt lat="43.51109" lon="3.29279">
        <ele>137.605835</ele>
        <time>2012-02-05T12:24:49Z</time>
      </trkpt>
      <trkpt lat="43.51109" lon="3.29279">
        <ele>138.086548</ele>
        <time>2012-02-05T12:24:50Z</time>
      </trkpt>
      <trkpt lat="43.5111" lon="3.29281">
        <ele>138.086548</ele>
        <time>2012-02-05T12:24:55Z</time>
      </trkpt>
      <trkpt lat="43.51111" lon="3.29283">
        <ele>137.605835</ele>
        <time>2012-02-05T12:24:56Z</time>
      </trkpt>
      <trkpt lat="43.51111" lon="3.29283">
        <ele>137.125244</ele>
        <time>2012-02-05T12:24:58Z</time>
      </trkpt>
      <trkpt lat="43.51112" lon="3.29283">
        <ele>136.644653</ele>
        <time>2012-02-05T12:25:01Z</time>
      </trkpt>
      <trkpt lat="43.51117" lon="3.29283">
        <ele>135.683106</ele>
        <time>2012-02-05T12:25:02Z</time>
      </trkpt>
      <trkpt lat="43.51123" lon="3.29282">
        <ele>134.721924</ele>
        <time>2012-02-05T12:25:05Z</time>
      </trkpt>
      <trkpt lat="43.51123" lon="3.29282">
        <ele>134.721924</ele>
        <time>2012-02-05T12:25:06Z</time>
      </trkpt>
      <trkpt lat="43.51126" lon="3.29281">
        <ele>134.241211</ele>
        <time>2012-02-05T12:25:32Z</time>
      </trkpt>
      <trkpt lat="43.51134" lon="3.29275">
        <ele>133.760498</ele>
        <time>2012-02-05T12:25:35Z</time>
      </trkpt>
      <trkpt lat="43.51137" lon="3.29272">
        <ele>133.760498</ele>
        <time>2012-02-05T12:25:36Z</time>
      </trkpt>
      <trkpt lat="43.51136" lon="3.29263">
        <ele>131.837891</ele>
        <time>2012-02-05T12:25:39Z</time>
      </trkpt>
      <trkpt lat="43.51137" lon="3.29259">
        <ele>133.279907</ele>
        <time>2012-02-05T12:25:41Z</time>
      </trkpt>
      <trkpt lat="43.51147" lon="3.29252">
        <ele>131.3573</ele>
        <time>2012-02-05T12:25:47Z</time>
      </trkpt>
      <trkpt lat="43.51149" lon="3.29243">
        <ele>131.837891</ele>
        <time>2012-02-05T12:25:51Z</time>
      </trkpt>
      <trkpt lat="43.51159" lon="3.29241">
        <ele>130.876709</ele>
        <time>2012-02-05T12:25:54Z</time>
      </trkpt>
      <trkpt lat="43.51175" lon="3.29246">
        <ele>128.473389</ele>
        <time>2012-02-05T12:25:58Z</time>
      </trkpt>
      <trkpt lat="43.51182" lon="3.29255">
        <ele>128.954102</ele>
        <time>2012-02-05T12:26:02Z</time>
      </trkpt>
      <trkpt lat="43.51181" lon="3.29262">
        <ele>129.915283</ele>
        <time>2012-02-05T12:26:08Z</time>
      </trkpt>
      <trkpt lat="43.5118" lon="3.29264">
        <ele>129.915283</ele>
        <time>2012-02-05T12:26:16Z</time>
      </trkpt>
      <trkpt lat="43.51182" lon="3.29264">
        <ele>129.915283</ele>
        <time>2012-02-05T12:26:17Z</time>
      </trkpt>
      <trkpt lat="43.51189" lon="3.29267">
        <ele>129.915283</ele>
        <time>2012-02-05T12:26:22Z</time>
      </trkpt>
      <trkpt lat="43.51189" lon="3.29268">
        <ele>129.434692</ele>
        <time>2012-02-05T12:26:23Z</time>
      </trkpt>
      <trkpt lat="43.51193" lon="3.29268">
        <ele>130.395996</ele>
        <time>2012-02-05T12:26:40Z</time>
      </trkpt>
      <trkpt lat="43.51201" lon="3.29266">
        <ele>129.915283</ele>
        <time>2012-02-05T12:26:43Z</time>
      </trkpt>
      <trkpt lat="43.51213" lon="3.29267">
        <ele>130.395996</ele>
        <time>2012-02-05T12:26:48Z</time>
      </trkpt>
      <trkpt lat="43.51226" lon="3.29262">
        <ele>129.434692</ele>
        <time>2012-02-05T12:26:53Z</time>
      </trkpt>
      <trkpt lat="43.51241" lon="3.29261">
        <ele>128.473389</ele>
        <time>2012-02-05T12:26:58Z</time>
      </trkpt>
      <trkpt lat="43.51244" lon="3.29264">
        <ele>128.473389</ele>
        <time>2012-02-05T12:26:59Z</time>
      </trkpt>
      <trkpt lat="43.51257" lon="3.29267">
        <ele>127.992554</ele>
        <time>2012-02-05T12:27:04Z</time>
      </trkpt>
      <trkpt lat="43.51259" lon="3.2927">
        <ele>127.992554</ele>
        <time>2012-02-05T12:27:07Z</time>
      </trkpt>
      <trkpt lat="43.51264" lon="3.29276">
        <ele>128.473389</ele>
        <time>2012-02-05T12:27:11Z</time>
      </trkpt>
      <trkpt lat="43.51278" lon="3.29277">
        <ele>126.550659</ele>
        <time>2012-02-05T12:27:15Z</time>
      </trkpt>
      <trkpt lat="43.51296" lon="3.29273">
        <ele>123.666748</ele>
        <time>2012-02-05T12:27:20Z</time>
      </trkpt>
      <trkpt lat="43.51309" lon="3.29272">
        <ele>122.705444</ele>
        <time>2012-02-05T12:27:24Z</time>
      </trkpt>
      <trkpt lat="43.5132" lon="3.2927">
        <ele>120.302124</ele>
        <time>2012-02-05T12:27:27Z</time>
      </trkpt>
      <trkpt lat="43.51328" lon="3.29276">
        <ele>118.379395</ele>
        <time>2012-02-05T12:27:30Z</time>
      </trkpt>
      <trkpt lat="43.51335" lon="3.29278">
        <ele>117.898804</ele>
        <time>2012-02-05T12:27:33Z</time>
      </trkpt>
      <trkpt lat="43.51346" lon="3.29283">
        <ele>116.9375</ele>
        <time>2012-02-05T12:27:38Z</time>
      </trkpt>
      <trkpt lat="43.51346" lon="3.29283">
        <ele>116.9375</ele>
        <time>2012-02-05T12:27:39Z</time>
      </trkpt>
      <trkpt lat="43.51349" lon="3.29284">
        <ele>117.898804</ele>
        <time>2012-02-05T12:27:48Z</time>
      </trkpt>
      <trkpt lat="43.51353" lon="3.29284">
        <ele>117.418213</ele>
        <time>2012-02-05T12:27:51Z</time>
      </trkpt>
      <trkpt lat="43.51353" lon="3.29283">
        <ele>117.418213</ele>
        <time>2012-02-05T12:27:52Z</time>
      </trkpt>
      <trkpt lat="43.51353" lon="3.29281">
        <ele>118.379395</ele>
        <time>2012-02-05T12:28:03Z</time>
      </trkpt>
      <trkpt lat="43.51355" lon="3.29279">
        <ele>117.898804</ele>
        <time>2012-02-05T12:28:04Z</time>
      </trkpt>
      <trkpt lat="43.51355" lon="3.29278">
        <ele>118.860107</ele>
        <time>2012-02-05T12:28:12Z</time>
      </trkpt>
      <trkpt lat="43.51356" lon="3.29277">
        <ele>118.860107</ele>
        <time>2012-02-05T12:28:13Z</time>
      </trkpt>
      <trkpt lat="43.51356" lon="3.29277">
        <ele>118.860107</ele>
        <time>2012-02-05T12:28:16Z</time>
      </trkpt>
      <trkpt lat="43.51358" lon="3.29276">
        <ele>118.379395</ele>
        <time>2012-02-05T12:28:17Z</time>
      </trkpt>
      <trkpt lat="43.51359" lon="3.29274">
        <ele>117.898804</ele>
        <time>2012-02-05T12:28:21Z</time>
      </trkpt>
      <trkpt lat="43.5136" lon="3.29273">
        <ele>117.418213</ele>
        <time>2012-02-05T12:28:24Z</time>
      </trkpt>
      <trkpt lat="43.51359" lon="3.29273">
        <ele>117.898804</ele>
        <time>2012-02-05T12:28:25Z</time>
      </trkpt>
      <trkpt lat="43.51359" lon="3.29273">
        <ele>116.9375</ele>
        <time>2012-02-05T12:28:28Z</time>
      </trkpt>
      <trkpt lat="43.5136" lon="3.29274">
        <ele>115.495605</ele>
        <time>2012-02-05T12:28:29Z</time>
      </trkpt>
      <trkpt lat="43.51362" lon="3.29274">
        <ele>114.53418</ele>
        <time>2012-02-05T12:28:30Z</time>
      </trkpt>
      <trkpt lat="43.51368" lon="3.29278">
        <ele>115.495605</ele>
        <time>2012-02-05T12:28:34Z</time>
      </trkpt>
      <trkpt lat="43.5137" lon="3.29277">
        <ele>115.976196</ele>
        <time>2012-02-05T12:28:36Z</time>
      </trkpt>
      <trkpt lat="43.51375" lon="3.29269">
        <ele>115.014893</ele>
        <time>2012-02-05T12:28:41Z</time>
      </trkpt>
      <trkpt lat="43.51381" lon="3.29264">
        <ele>114.53418</ele>
        <time>2012-02-05T12:28:45Z</time>
      </trkpt>
      <trkpt lat="43.51382" lon="3.29264">
        <ele>114.053589</ele>
        <time>2012-02-05T12:28:46Z</time>
      </trkpt>
      <trkpt lat="43.51382" lon="3.29264">
        <ele>114.053589</ele>
        <time>2012-02-05T12:28:49Z</time>
      </trkpt>
      <trkpt lat="43.51386" lon="3.29261">
        <ele>114.53418</ele>
        <time>2012-02-05T12:28:50Z</time>
      </trkpt>
      <trkpt lat="43.51393" lon="3.29255">
        <ele>114.053589</ele>
        <time>2012-02-05T12:28:55Z</time>
      </trkpt>
      <trkpt lat="43.51396" lon="3.29238">
        <ele>111.169556</ele>
        <time>2012-02-05T12:28:59Z</time>
      </trkpt>
      <trkpt lat="43.51397" lon="3.29234">
        <ele>110.688843</ele>
        <time>2012-02-05T12:29:00Z</time>
      </trkpt>
      <trkpt lat="43.51397" lon="3.29227">
        <ele>110.688843</ele>
        <time>2012-02-05T12:29:03Z</time>
      </trkpt>
      <trkpt lat="43.51401" lon="3.29217">
        <ele>108.766235</ele>
        <time>2012-02-05T12:29:08Z</time>
      </trkpt>
      <trkpt lat="43.51402" lon="3.29212">
        <ele>108.766235</ele>
        <time>2012-02-05T12:29:19Z</time>
      </trkpt>
      <trkpt lat="43.51402" lon="3.29211">
        <ele>108.766235</ele>
        <time>2012-02-05T12:29:20Z</time>
      </trkpt>
      <trkpt lat="43.51399" lon="3.29205">
        <ele>108.766235</ele>
        <time>2012-02-05T12:29:24Z</time>
      </trkpt>
      <trkpt lat="43.5139" lon="3.29207">
        <ele>108.766235</ele>
        <time>2012-02-05T12:29:30Z</time>
      </trkpt>
      <trkpt lat="43.51386" lon="3.29211">
        <ele>109.246948</ele>
        <time>2012-02-05T12:29:34Z</time>
      </trkpt>
      <trkpt lat="43.51375" lon="3.29219">
        <ele>109.727661</ele>
        <time>2012-02-05T12:29:40Z</time>
      </trkpt>
      <trkpt lat="43.51365" lon="3.29222">
        <ele>110.688843</ele>
        <time>2012-02-05T12:29:44Z</time>
      </trkpt>
      <trkpt lat="43.5136" lon="3.29222">
        <ele>111.169556</ele>
        <time>2012-02-05T12:29:46Z</time>
      </trkpt>
      <trkpt lat="43.51358" lon="3.29212">
        <ele>112.611572</ele>
        <time>2012-02-05T12:29:51Z</time>
      </trkpt>
      <trkpt lat="43.51356" lon="3.292">
        <ele>114.53418</ele>
        <time>2012-02-05T12:29:55Z</time>
      </trkpt>
      <trkpt lat="43.51351" lon="3.29192">
        <ele>115.976196</ele>
        <time>2012-02-05T12:29:59Z</time>
      </trkpt>
      <trkpt lat="43.51338" lon="3.29179">
        <ele>116.9375</ele>
        <time>2012-02-05T12:30:07Z</time>
      </trkpt>
      <trkpt lat="43.51328" lon="3.29176">
        <ele>116.9375</ele>
        <time>2012-02-05T12:30:13Z</time>
      </trkpt>
      <trkpt lat="43.51326" lon="3.29176">
        <ele>116.9375</ele>
        <time>2012-02-05T12:30:18Z</time>
      </trkpt>
      <trkpt lat="43.51324" lon="3.29175">
        <ele>118.860107</ele>
        <time>2012-02-05T12:31:33Z</time>
      </trkpt>
      <trkpt lat="43.51324" lon="3.29175">
        <ele>118.379395</ele>
        <time>2012-02-05T12:31:34Z</time>
      </trkpt>
      <trkpt lat="43.51324" lon="3.29175">
        <ele>118.379395</ele>
        <time>2012-02-05T12:31:35Z</time>
      </trkpt>
      <trkpt lat="43.51324" lon="3.29174">
        <ele>118.379395</ele>
        <time>2012-02-05T12:31:48Z</time>
      </trkpt>
      <trkpt lat="43.51324" lon="3.29174">
        <ele>118.860107</ele>
        <time>2012-02-05T12:31:49Z</time>
      </trkpt>
      <trkpt lat="43.51315" lon="3.29168">
        <ele>119.34082</ele>
        <time>2012-02-05T12:31:56Z</time>
      </trkpt>
      <trkpt lat="43.51306" lon="3.29161">
        <ele>118.860107</ele>
        <time>2012-02-05T12:32:04Z</time>
      </trkpt>
      <trkpt lat="43.51293" lon="3.29151">
        <ele>119.34082</ele>
        <time>2012-02-05T12:32:14Z</time>
      </trkpt>
      <trkpt lat="43.51286" lon="3.29139">
        <ele>119.821411</ele>
        <time>2012-02-05T12:32:22Z</time>
      </trkpt>
      <trkpt lat="43.51279" lon="3.29126">
        <ele>120.302124</ele>
        <time>2012-02-05T12:32:31Z</time>
      </trkpt>
      <trkpt lat="43.51271" lon="3.29118">
        <ele>120.782837</ele>
        <time>2012-02-05T12:32:37Z</time>
      </trkpt>
      <trkpt lat="43.51254" lon="3.2911">
        <ele>122.224731</ele>
        <time>2012-02-05T12:32:45Z</time>
      </trkpt>
      <trkpt lat="43.51231" lon="3.29104">
        <ele>124.628052</ele>
        <time>2012-02-05T12:32:55Z</time>
      </trkpt>
      <trkpt lat="43.5121" lon="3.29101">
        <ele>126.069946</ele>
        <time>2012-02-05T12:33:03Z</time>
      </trkpt>
      <trkpt lat="43.51186" lon="3.29094">
        <ele>128.473389</ele>
        <time>2012-02-05T12:33:13Z</time>
      </trkpt>
      <trkpt lat="43.51177" lon="3.29082">
        <ele>129.434692</ele>
        <time>2012-02-05T12:33:18Z</time>
      </trkpt>
      <trkpt lat="43.51165" lon="3.29065">
        <ele>130.395996</ele>
        <time>2012-02-05T12:33:26Z</time>
      </trkpt>
      <trkpt lat="43.51146" lon="3.2904">
        <ele>132.318603</ele>
        <time>2012-02-05T12:33:37Z</time>
      </trkpt>
      <trkpt lat="43.51133" lon="3.29021">
        <ele>134.241211</ele>
        <time>2012-02-05T12:33:46Z</time>
      </trkpt>
      <trkpt lat="43.51123" lon="3.29004">
        <ele>135.202515</ele>
        <time>2012-02-05T12:33:53Z</time>
      </trkpt>
      <trkpt lat="43.51112" lon="3.28989">
        <ele>135.683106</ele>
        <time>2012-02-05T12:34:00Z</time>
      </trkpt>
      <trkpt lat="43.51099" lon="3.28972">
        <ele>137.125244</ele>
        <time>2012-02-05T12:34:08Z</time>
      </trkpt>
      <trkpt lat="43.51084" lon="3.28952">
        <ele>138.086548</ele>
        <time>2012-02-05T12:34:17Z</time>
      </trkpt>
      <trkpt lat="43.51066" lon="3.28925">
        <ele>139.528442</ele>
        <time>2012-02-05T12:34:29Z</time>
      </trkpt>
      <trkpt lat="43.51053" lon="3.28908">
        <ele>141.45105</ele>
        <time>2012-02-05T12:34:37Z</time>
      </trkpt>
      <trkpt lat="43.51051" lon="3.28891">
        <ele>142.412476</ele>
        <time>2012-02-05T12:34:43Z</time>
      </trkpt>
      <trkpt lat="43.51037" lon="3.28865">
        <ele>144.815796</ele>
        <time>2012-02-05T12:34:53Z</time>
      </trkpt>
      <trkpt lat="43.51026" lon="3.28837">
        <ele>146.738403</ele>
        <time>2012-02-05T12:35:03Z</time>
      </trkpt>
      <trkpt lat="43.51019" lon="3.28814">
        <ele>148.18042</ele>
        <time>2012-02-05T12:35:11Z</time>
      </trkpt>
      <trkpt lat="43.51017" lon="3.28809">
        <ele>148.661011</ele>
        <time>2012-02-05T12:35:13Z</time>
      </trkpt>
      <trkpt lat="43.51005" lon="3.28801">
        <ele>148.661011</ele>
        <time>2012-02-05T12:35:19Z</time>
      </trkpt>
      <trkpt lat="43.50995" lon="3.28794">
        <ele>147.699707</ele>
        <time>2012-02-05T12:35:24Z</time>
      </trkpt>
      <trkpt lat="43.51001" lon="3.28786">
        <ele>147.699707</ele>
        <time>2012-02-05T12:35:29Z</time>
      </trkpt>
      <trkpt lat="43.51005" lon="3.28783">
        <ele>148.18042</ele>
        <time>2012-02-05T12:35:31Z</time>
      </trkpt>
      <trkpt lat="43.51022" lon="3.28768">
        <ele>149.141602</ele>
        <time>2012-02-05T12:35:40Z</time>
      </trkpt>
      <trkpt lat="43.51034" lon="3.28756">
        <ele>149.622314</ele>
        <time>2012-02-05T12:35:47Z</time>
      </trkpt>
      <trkpt lat="43.51048" lon="3.28745">
        <ele>151.544922</ele>
        <time>2012-02-05T12:35:54Z</time>
      </trkpt>
      <trkpt lat="43.5105" lon="3.28745">
        <ele>152.506348</ele>
        <time>2012-02-05T12:35:55Z</time>
      </trkpt>
      <trkpt lat="43.51056" lon="3.28737">
        <ele>153.467651</ele>
        <time>2012-02-05T12:36:00Z</time>
      </trkpt>
      <trkpt lat="43.5106" lon="3.2872">
        <ele>154.428955</ele>
        <time>2012-02-05T12:36:07Z</time>
      </trkpt>
      <trkpt lat="43.51063" lon="3.28702">
        <ele>155.870972</ele>
        <time>2012-02-05T12:36:13Z</time>
      </trkpt>
      <trkpt lat="43.51061" lon="3.28685">
        <ele>156.351562</ele>
        <time>2012-02-05T12:36:19Z</time>
      </trkpt>
      <trkpt lat="43.51068" lon="3.28672">
        <ele>158.27417</ele>
        <time>2012-02-05T12:36:24Z</time>
      </trkpt>
      <trkpt lat="43.51072" lon="3.28668">
        <ele>159.235474</ele>
        <time>2012-02-05T12:36:26Z</time>
      </trkpt>
      <trkpt lat="43.51083" lon="3.28654">
        <ele>160.196899</ele>
        <time>2012-02-05T12:36:33Z</time>
      </trkpt>
      <trkpt lat="43.51093" lon="3.28641">
        <ele>162.119507</ele>
        <time>2012-02-05T12:36:39Z</time>
      </trkpt>
      <trkpt lat="43.51101" lon="3.28625">
        <ele>163.080811</ele>
        <time>2012-02-05T12:36:45Z</time>
      </trkpt>
      <trkpt lat="43.51107" lon="3.28613">
        <ele>164.522705</ele>
        <time>2012-02-05T12:36:50Z</time>
      </trkpt>
      <trkpt lat="43.5111" lon="3.28598">
        <ele>167.406738</ele>
        <time>2012-02-05T12:36:56Z</time>
      </trkpt>
      <trkpt lat="43.51118" lon="3.28586">
        <ele>168.848755</ele>
        <time>2012-02-05T12:37:01Z</time>
      </trkpt>
      <trkpt lat="43.51123" lon="3.28573">
        <ele>170.771362</ele>
        <time>2012-02-05T12:37:07Z</time>
      </trkpt>
      <trkpt lat="43.51124" lon="3.28572">
        <ele>171.252075</ele>
        <time>2012-02-05T12:37:08Z</time>
      </trkpt>
      <trkpt lat="43.51127" lon="3.28559">
        <ele>171.732666</ele>
        <time>2012-02-05T12:37:14Z</time>
      </trkpt>
      <trkpt lat="43.51129" lon="3.28555">
        <ele>172.69397</ele>
        <time>2012-02-05T12:37:16Z</time>
      </trkpt>
      <trkpt lat="43.51135" lon="3.28544">
        <ele>175.577881</ele>
        <time>2012-02-05T12:37:23Z</time>
      </trkpt>
      <trkpt lat="43.51143" lon="3.28532">
        <ele>177.981201</ele>
        <time>2012-02-05T12:37:31Z</time>
      </trkpt>
      <trkpt lat="43.51148" lon="3.2852">
        <ele>179.903809</ele>
        <time>2012-02-05T12:37:39Z</time>
      </trkpt>
      <trkpt lat="43.51153" lon="3.28504">
        <ele>180.865234</ele>
        <time>2012-02-05T12:37:47Z</time>
      </trkpt>
      <trkpt lat="43.51159" lon="3.28482">
        <ele>183.268433</ele>
        <time>2012-02-05T12:37:56Z</time>
      </trkpt>
      <trkpt lat="43.51163" lon="3.2847">
        <ele>184.710571</ele>
        <time>2012-02-05T12:38:02Z</time>
      </trkpt>
      <trkpt lat="43.51171" lon="3.28456">
        <ele>187.113769</ele>
        <time>2012-02-05T12:38:10Z</time>
      </trkpt>
      <trkpt lat="43.51174" lon="3.28453">
        <ele>188.555786</ele>
        <time>2012-02-05T12:38:13Z</time>
      </trkpt>
      <trkpt lat="43.51176" lon="3.28434">
        <ele>188.075073</ele>
        <time>2012-02-05T12:38:20Z</time>
      </trkpt>
      <trkpt lat="43.51182" lon="3.28407">
        <ele>189.036377</ele>
        <time>2012-02-05T12:38:27Z</time>
      </trkpt>
      <trkpt lat="43.51186" lon="3.28404">
        <ele>189.997681</ele>
        <time>2012-02-05T12:38:30Z</time>
      </trkpt>
      <trkpt lat="43.51189" lon="3.28394">
        <ele>190.478394</ele>
        <time>2012-02-05T12:38:34Z</time>
      </trkpt>
      <trkpt lat="43.5119" lon="3.28378">
        <ele>189.997681</ele>
        <time>2012-02-05T12:38:38Z</time>
      </trkpt>
      <trkpt lat="43.51196" lon="3.28359">
        <ele>191.439575</ele>
        <time>2012-02-05T12:38:44Z</time>
      </trkpt>
      <trkpt lat="43.512" lon="3.28346">
        <ele>191.920288</ele>
        <time>2012-02-05T12:38:49Z</time>
      </trkpt>
      <trkpt lat="43.51205" lon="3.28331">
        <ele>192.881714</ele>
        <time>2012-02-05T12:38:55Z</time>
      </trkpt>
      <trkpt lat="43.51211" lon="3.28314">
        <ele>193.843018</ele>
        <time>2012-02-05T12:39:01Z</time>
      </trkpt>
      <trkpt lat="43.51219" lon="3.28299">
        <ele>195.765625</ele>
        <time>2012-02-05T12:39:06Z</time>
      </trkpt>
      <trkpt lat="43.51227" lon="3.28277">
        <ele>196.726929</ele>
        <time>2012-02-05T12:39:12Z</time>
      </trkpt>
      <trkpt lat="43.51238" lon="3.2827">
        <ele>197.688232</ele>
        <time>2012-02-05T12:39:17Z</time>
      </trkpt>
      <trkpt lat="43.51242" lon="3.2826">
        <ele>198.168945</ele>
        <time>2012-02-05T12:39:21Z</time>
      </trkpt>
      <trkpt lat="43.51245" lon="3.28258">
        <ele>198.649536</ele>
        <time>2012-02-05T12:39:22Z</time>
      </trkpt>
      <trkpt lat="43.51249" lon="3.28255">
        <ele>198.649536</ele>
        <time>2012-02-05T12:39:24Z</time>
      </trkpt>
      <trkpt lat="43.51263" lon="3.28254">
        <ele>198.649536</ele>
        <time>2012-02-05T12:39:30Z</time>
      </trkpt>
      <trkpt lat="43.51265" lon="3.28255">
        <ele>198.649536</ele>
        <time>2012-02-05T12:39:31Z</time>
      </trkpt>
      <trkpt lat="43.51279" lon="3.28258">
        <ele>199.130127</ele>
        <time>2012-02-05T12:39:37Z</time>
      </trkpt>
      <trkpt lat="43.51292" lon="3.28259">
        <ele>198.649536</ele>
        <time>2012-02-05T12:39:42Z</time>
      </trkpt>
      <trkpt lat="43.51295" lon="3.28261">
        <ele>198.649536</ele>
        <time>2012-02-05T12:39:43Z</time>
      </trkpt>
      <trkpt lat="43.51311" lon="3.28265">
        <ele>199.130127</ele>
        <time>2012-02-05T12:39:48Z</time>
      </trkpt>
      <trkpt lat="43.5132" lon="3.28257">
        <ele>198.649536</ele>
        <time>2012-02-05T12:39:51Z</time>
      </trkpt>
      <trkpt lat="43.51331" lon="3.28255">
        <ele>198.168945</ele>
        <time>2012-02-05T12:39:54Z</time>
      </trkpt>
      <trkpt lat="43.51343" lon="3.28258">
        <ele>196.726929</ele>
        <time>2012-02-05T12:39:58Z</time>
      </trkpt>
      <trkpt lat="43.51343" lon="3.28258">
        <ele>197.207519</ele>
        <time>2012-02-05T12:40:00Z</time>
      </trkpt>
      <trkpt lat="43.51343" lon="3.28257">
        <ele>196.726929</ele>
        <time>2012-02-05T12:40:03Z</time>
      </trkpt>
      <trkpt lat="43.51349" lon="3.28248">
        <ele>194.804321</ele>
        <time>2012-02-05T12:40:06Z</time>
      </trkpt>
      <trkpt lat="43.51359" lon="3.28252">
        <ele>195.284912</ele>
        <time>2012-02-05T12:40:10Z</time>
      </trkpt>
      <trkpt lat="43.51369" lon="3.28258">
        <ele>196.246338</ele>
        <time>2012-02-05T12:40:14Z</time>
      </trkpt>
      <trkpt lat="43.51375" lon="3.28268">
        <ele>196.726929</ele>
        <time>2012-02-05T12:40:19Z</time>
      </trkpt>
      <trkpt lat="43.51383" lon="3.28269">
        <ele>196.246338</ele>
        <time>2012-02-05T12:40:24Z</time>
      </trkpt>
      <trkpt lat="43.51385" lon="3.28272">
        <ele>195.765625</ele>
        <time>2012-02-05T12:40:28Z</time>
      </trkpt>
      <trkpt lat="43.51386" lon="3.28272">
        <ele>195.765625</ele>
        <time>2012-02-05T12:40:33Z</time>
      </trkpt>
      <trkpt lat="43.51382" lon="3.28281">
        <ele>194.323731</ele>
        <time>2012-02-05T12:40:37Z</time>
      </trkpt>
      <trkpt lat="43.51378" lon="3.28282">
        <ele>194.323731</ele>
        <time>2012-02-05T12:40:39Z</time>
      </trkpt>
      <trkpt lat="43.51363" lon="3.28282">
        <ele>194.323731</ele>
        <time>2012-02-05T12:40:45Z</time>
      </trkpt>
      <trkpt lat="43.51358" lon="3.2828">
        <ele>194.804321</ele>
        <time>2012-02-05T12:40:47Z</time>
      </trkpt>
      <trkpt lat="43.51347" lon="3.28288">
        <ele>194.323731</ele>
        <time>2012-02-05T12:40:52Z</time>
      </trkpt>
      <trkpt lat="43.51338" lon="3.28299">
        <ele>193.843018</ele>
        <time>2012-02-05T12:40:56Z</time>
      </trkpt>
      <trkpt lat="43.51324" lon="3.28309">
        <ele>191.439575</ele>
        <time>2012-02-05T12:41:01Z</time>
      </trkpt>
      <trkpt lat="43.51309" lon="3.28321">
        <ele>190.478394</ele>
        <time>2012-02-05T12:41:06Z</time>
      </trkpt>
      <trkpt lat="43.51296" lon="3.28339">
        <ele>188.075073</ele>
        <time>2012-02-05T12:41:10Z</time>
      </trkpt>
      <trkpt lat="43.51285" lon="3.28351">
        <ele>187.113769</ele>
        <time>2012-02-05T12:41:12Z</time>
      </trkpt>
      <trkpt lat="43.51269" lon="3.28385">
        <ele>185.191162</ele>
        <time>2012-02-05T12:41:16Z</time>
      </trkpt>
      <trkpt lat="43.51264" lon="3.28404">
        <ele>182.787842</ele>
        <time>2012-02-05T12:41:18Z</time>
      </trkpt>
      <trkpt lat="43.51267" lon="3.28431">
        <ele>180.865234</ele>
        <time>2012-02-05T12:41:21Z</time>
      </trkpt>
      <trkpt lat="43.51271" lon="3.28438">
        <ele>179.903809</ele>
        <time>2012-02-05T12:41:22Z</time>
      </trkpt>
      <trkpt lat="43.51272" lon="3.28458">
        <ele>178.461914</ele>
        <time>2012-02-05T12:41:25Z</time>
      </trkpt>
      <trkpt lat="43.51263" lon="3.28475">
        <ele>177.981201</ele>
        <time>2012-02-05T12:41:28Z</time>
      </trkpt>
      <trkpt lat="43.5125" lon="3.28491">
        <ele>175.09729</ele>
        <time>2012-02-05T12:41:32Z</time>
      </trkpt>
      <trkpt lat="43.51248" lon="3.28504">
        <ele>173.655273</ele>
        <time>2012-02-05T12:41:34Z</time>
      </trkpt>
      <trkpt lat="43.51248" lon="3.28512">
        <ele>173.174683</ele>
        <time>2012-02-05T12:41:35Z</time>
      </trkpt>
      <trkpt lat="43.51239" lon="3.28551">
        <ele>168.848755</ele>
        <time>2012-02-05T12:41:40Z</time>
      </trkpt>
      <trkpt lat="43.51219" lon="3.28574">
        <ele>168.368042</ele>
        <time>2012-02-05T12:41:44Z</time>
      </trkpt>
      <trkpt lat="43.51208" lon="3.28583">
        <ele>168.848755</ele>
        <time>2012-02-05T12:41:46Z</time>
      </trkpt>
      <trkpt lat="43.51177" lon="3.28594">
        <ele>167.406738</ele>
        <time>2012-02-05T12:41:51Z</time>
      </trkpt>
      <trkpt lat="43.51145" lon="3.28602">
        <ele>165.964722</ele>
        <time>2012-02-05T12:41:57Z</time>
      </trkpt>
      <trkpt lat="43.51132" lon="3.28602">
        <ele>165.003418</ele>
        <time>2012-02-05T12:41:59Z</time>
      </trkpt>
      <trkpt lat="43.51114" lon="3.28609">
        <ele>164.522705</ele>
        <time>2012-02-05T12:42:03Z</time>
      </trkpt>
      <trkpt lat="43.5111" lon="3.28614">
        <ele>164.042114</ele>
        <time>2012-02-05T12:42:08Z</time>
      </trkpt>
      <trkpt lat="43.51107" lon="3.28616">
        <ele>164.042114</ele>
        <time>2012-02-05T12:42:51Z</time>
      </trkpt>
      <trkpt lat="43.51107" lon="3.28616">
        <ele>164.042114</ele>
        <time>2012-02-05T12:42:52Z</time>
      </trkpt>
      <trkpt lat="43.51108" lon="3.28612">
        <ele>164.042114</ele>
        <time>2012-02-05T12:43:17Z</time>
      </trkpt>
      <trkpt lat="43.51121" lon="3.28609">
        <ele>165.964722</ele>
        <time>2012-02-05T12:43:23Z</time>
      </trkpt>
      <trkpt lat="43.51142" lon="3.28609">
        <ele>166.445312</ele>
        <time>2012-02-05T12:43:30Z</time>
      </trkpt>
      <trkpt lat="43.51162" lon="3.28605">
        <ele>167.887329</ele>
        <time>2012-02-05T12:43:36Z</time>
      </trkpt>
      <trkpt lat="43.51177" lon="3.28601">
        <ele>167.887329</ele>
        <time>2012-02-05T12:43:40Z</time>
      </trkpt>
      <trkpt lat="43.51196" lon="3.28593">
        <ele>168.368042</ele>
        <time>2012-02-05T12:43:46Z</time>
      </trkpt>
      <trkpt lat="43.51208" lon="3.28581">
        <ele>168.848755</ele>
        <time>2012-02-05T12:43:51Z</time>
      </trkpt>
      <trkpt lat="43.51222" lon="3.28567">
        <ele>170.290649</ele>
        <time>2012-02-05T12:43:57Z</time>
      </trkpt>
      <trkpt lat="43.51235" lon="3.28548">
        <ele>170.771362</ele>
        <time>2012-02-05T12:44:02Z</time>
      </trkpt>
      <trkpt lat="43.51241" lon="3.2853">
        <ele>171.732666</ele>
        <time>2012-02-05T12:44:07Z</time>
      </trkpt>
      <trkpt lat="43.51242" lon="3.28513">
        <ele>172.69397</ele>
        <time>2012-02-05T12:44:13Z</time>
      </trkpt>
      <trkpt lat="43.51247" lon="3.28497">
        <ele>173.655273</ele>
        <time>2012-02-05T12:44:18Z</time>
      </trkpt>
      <trkpt lat="43.51251" lon="3.28489">
        <ele>174.616577</ele>
        <time>2012-02-05T12:44:21Z</time>
      </trkpt>
      <trkpt lat="43.51263" lon="3.28474">
        <ele>177.50061</ele>
        <time>2012-02-05T12:44:29Z</time>
      </trkpt>
      <trkpt lat="43.51269" lon="3.28458">
        <ele>177.50061</ele>
        <time>2012-02-05T12:44:35Z</time>
      </trkpt>
      <trkpt lat="43.51274" lon="3.28445">
        <ele>178.461914</ele>
        <time>2012-02-05T12:44:42Z</time>
      </trkpt>
      <trkpt lat="43.51274" lon="3.28445">
        <ele>178.942627</ele>
        <time>2012-02-05T12:44:43Z</time>
      </trkpt>
      <trkpt lat="43.51275" lon="3.28442">
        <ele>178.461914</ele>
        <time>2012-02-05T12:44:56Z</time>
      </trkpt>
      <trkpt lat="43.51283" lon="3.28443">
        <ele>177.50061</ele>
        <time>2012-02-05T12:45:00Z</time>
      </trkpt>
      <trkpt lat="43.51292" lon="3.28446">
        <ele>175.577881</ele>
        <time>2012-02-05T12:45:04Z</time>
      </trkpt>
      <trkpt lat="43.51294" lon="3.28447">
        <ele>175.09729</ele>
        <time>2012-02-05T12:45:05Z</time>
      </trkpt>
      <trkpt lat="43.51299" lon="3.28459">
        <ele>174.135864</ele>
        <time>2012-02-05T12:45:10Z</time>
      </trkpt>
      <trkpt lat="43.51298" lon="3.28473">
        <ele>171.252075</ele>
        <time>2012-02-05T12:45:14Z</time>
      </trkpt>
      <trkpt lat="43.51305" lon="3.28475">
        <ele>170.290649</ele>
        <time>2012-02-05T12:45:18Z</time>
      </trkpt>
      <trkpt lat="43.51316" lon="3.28474">
        <ele>169.810059</ele>
        <time>2012-02-05T12:45:22Z</time>
      </trkpt>
      <trkpt lat="43.51319" lon="3.28474">
        <ele>169.329468</ele>
        <time>2012-02-05T12:45:23Z</time>
      </trkpt>
      <trkpt lat="43.51327" lon="3.28476">
        <ele>169.810059</ele>
        <time>2012-02-05T12:45:26Z</time>
      </trkpt>
      <trkpt lat="43.51337" lon="3.28479">
        <ele>167.406738</ele>
        <time>2012-02-05T12:45:30Z</time>
      </trkpt>
      <trkpt lat="43.51345" lon="3.28479">
        <ele>167.406738</ele>
        <time>2012-02-05T12:45:34Z</time>
      </trkpt>
      <trkpt lat="43.51354" lon="3.28482">
        <ele>165.964722</ele>
        <time>2012-02-05T12:45:38Z</time>
      </trkpt>
      <trkpt lat="43.51364" lon="3.28489">
        <ele>163.561523</ele>
        <time>2012-02-05T12:45:42Z</time>
      </trkpt>
      <trkpt lat="43.51373" lon="3.28492">
        <ele>163.080811</ele>
        <time>2012-02-05T12:45:45Z</time>
      </trkpt>
      <trkpt lat="43.51376" lon="3.28495">
        <ele>162.600098</ele>
        <time>2012-02-05T12:45:49Z</time>
      </trkpt>
      <trkpt lat="43.51377" lon="3.28496">
        <ele>162.119507</ele>
        <time>2012-02-05T12:45:50Z</time>
      </trkpt>
      <trkpt lat="43.51383" lon="3.28502">
        <ele>158.754761</ele>
        <time>2012-02-05T12:45:55Z</time>
      </trkpt>
      <trkpt lat="43.51383" lon="3.28503">
        <ele>158.27417</ele>
        <time>2012-02-05T12:45:56Z</time>
      </trkpt>
      <trkpt lat="43.51383" lon="3.28503">
        <ele>157.793579</ele>
        <time>2012-02-05T12:45:58Z</time>
      </trkpt>
      <trkpt lat="43.51384" lon="3.28505">
        <ele>157.793579</ele>
        <time>2012-02-05T12:46:10Z</time>
      </trkpt>
      <trkpt lat="43.51379" lon="3.28511">
        <ele>157.312866</ele>
        <time>2012-02-05T12:46:14Z</time>
      </trkpt>
      <trkpt lat="43.51371" lon="3.28518">
        <ele>155.390259</ele>
        <time>2012-02-05T12:46:19Z</time>
      </trkpt>
      <trkpt lat="43.51362" lon="3.28518">
        <ele>153.948364</ele>
        <time>2012-02-05T12:46:22Z</time>
      </trkpt>
      <trkpt lat="43.51353" lon="3.28526">
        <ele>152.506348</ele>
        <time>2012-02-05T12:46:26Z</time>
      </trkpt>
      <trkpt lat="43.51348" lon="3.28534">
        <ele>151.544922</ele>
        <time>2012-02-05T12:46:29Z</time>
      </trkpt>
      <trkpt lat="43.51346" lon="3.2854">
        <ele>150.103027</ele>
        <time>2012-02-05T12:46:31Z</time>
      </trkpt>
      <trkpt lat="43.51344" lon="3.28546">
        <ele>149.622314</ele>
        <time>2012-02-05T12:46:34Z</time>
      </trkpt>
      <trkpt lat="43.51335" lon="3.28554">
        <ele>148.661011</ele>
        <time>2012-02-05T12:46:39Z</time>
      </trkpt>
      <trkpt lat="43.51337" lon="3.28565">
        <ele>147.699707</ele>
        <time>2012-02-05T12:46:43Z</time>
      </trkpt>
      <trkpt lat="43.51339" lon="3.28574">
        <ele>147.218994</ele>
        <time>2012-02-05T12:46:45Z</time>
      </trkpt>
      <trkpt lat="43.5134" lon="3.28591">
        <ele>146.257812</ele>
        <time>2012-02-05T12:46:48Z</time>
      </trkpt>
      <trkpt lat="43.51348" lon="3.28615">
        <ele>144.335205</ele>
        <time>2012-02-05T12:46:52Z</time>
      </trkpt>
      <trkpt lat="43.51355" lon="3.28638">
        <ele>143.373657</ele>
        <time>2012-02-05T12:46:57Z</time>
      </trkpt>
      <trkpt lat="43.51357" lon="3.28648">
        <ele>142.412476</ele>
        <time>2012-02-05T12:46:59Z</time>
      </trkpt>
      <trkpt lat="43.5136" lon="3.28659">
        <ele>142.412476</ele>
        <time>2012-02-05T12:47:01Z</time>
      </trkpt>
      <trkpt lat="43.51363" lon="3.2869">
        <ele>139.528442</ele>
        <time>2012-02-05T12:47:06Z</time>
      </trkpt>
      <trkpt lat="43.51366" lon="3.28705">
        <ele>138.567261</ele>
        <time>2012-02-05T12:47:08Z</time>
      </trkpt>
      <trkpt lat="43.5137" lon="3.28722">
        <ele>135.683106</ele>
        <time>2012-02-05T12:47:12Z</time>
      </trkpt>
      <trkpt lat="43.51373" lon="3.28721">
        <ele>136.16394</ele>
        <time>2012-02-05T12:47:17Z</time>
      </trkpt>
      <trkpt lat="43.51373" lon="3.28722">
        <ele>136.644653</ele>
        <time>2012-02-05T12:47:31Z</time>
      </trkpt>
      <trkpt lat="43.51387" lon="3.28717">
        <ele>138.086548</ele>
        <time>2012-02-05T12:47:36Z</time>
      </trkpt>
      <trkpt lat="43.51403" lon="3.28709">
        <ele>138.567261</ele>
        <time>2012-02-05T12:47:42Z</time>
      </trkpt>
      <trkpt lat="43.51422" lon="3.28697">
        <ele>137.125244</ele>
        <time>2012-02-05T12:47:50Z</time>
      </trkpt>
      <trkpt lat="43.5144" lon="3.28694">
        <ele>137.125244</ele>
        <time>2012-02-05T12:47:57Z</time>
      </trkpt>
      <trkpt lat="43.51455" lon="3.28692">
        <ele>137.605835</ele>
        <time>2012-02-05T12:48:04Z</time>
      </trkpt>
      <trkpt lat="43.51478" lon="3.28686">
        <ele>139.528442</ele>
        <time>2012-02-05T12:48:14Z</time>
      </trkpt>
      <trkpt lat="43.51504" lon="3.28678">
        <ele>140.970459</ele>
        <time>2012-02-05T12:48:24Z</time>
      </trkpt>
      <trkpt lat="43.51521" lon="3.28673">
        <ele>141.931763</ele>
        <time>2012-02-05T12:48:31Z</time>
      </trkpt>
      <trkpt lat="43.51544" lon="3.28666">
        <ele>143.85437</ele>
        <time>2012-02-05T12:48:41Z</time>
      </trkpt>
      <trkpt lat="43.51563" lon="3.28657">
        <ele>145.296387</ele>
        <time>2012-02-05T12:48:50Z</time>
      </trkpt>
      <trkpt lat="43.51581" lon="3.28647">
        <ele>146.257812</ele>
        <time>2012-02-05T12:48:58Z</time>
      </trkpt>
      <trkpt lat="43.51594" lon="3.28634">
        <ele>147.218994</ele>
        <time>2012-02-05T12:49:05Z</time>
      </trkpt>
      <trkpt lat="43.51609" lon="3.28616">
        <ele>148.18042</ele>
        <time>2012-02-05T12:49:13Z</time>
      </trkpt>
      <trkpt lat="43.51622" lon="3.28597">
        <ele>150.103027</ele>
        <time>2012-02-05T12:49:21Z</time>
      </trkpt>
      <trkpt lat="43.51633" lon="3.28581">
        <ele>151.544922</ele>
        <time>2012-02-05T12:49:29Z</time>
      </trkpt>
      <trkpt lat="43.51649" lon="3.28567">
        <ele>153.467651</ele>
        <time>2012-02-05T12:49:38Z</time>
      </trkpt>
      <trkpt lat="43.51659" lon="3.28551">
        <ele>154.428955</ele>
        <time>2012-02-05T12:49:45Z</time>
      </trkpt>
      <trkpt lat="43.51666" lon="3.28533">
        <ele>155.870972</ele>
        <time>2012-02-05T12:49:52Z</time>
      </trkpt>
      <trkpt lat="43.51674" lon="3.28514">
        <ele>157.312866</ele>
        <time>2012-02-05T12:49:59Z</time>
      </trkpt>
      <trkpt lat="43.51689" lon="3.28493">
        <ele>159.235474</ele>
        <time>2012-02-05T12:50:07Z</time>
      </trkpt>
      <trkpt lat="43.51708" lon="3.28473">
        <ele>159.235474</ele>
        <time>2012-02-05T12:50:15Z</time>
      </trkpt>
      <trkpt lat="43.51723" lon="3.28464">
        <ele>158.754761</ele>
        <time>2012-02-05T12:50:19Z</time>
      </trkpt>
      <trkpt lat="43.51743" lon="3.28466">
        <ele>157.793579</ele>
        <time>2012-02-05T12:50:24Z</time>
      </trkpt>
      <trkpt lat="43.51749" lon="3.28473">
        <ele>157.793579</ele>
        <time>2012-02-05T12:50:26Z</time>
      </trkpt>
      <trkpt lat="43.51766" lon="3.28512">
        <ele>158.27417</ele>
        <time>2012-02-05T12:50:34Z</time>
      </trkpt>
      <trkpt lat="43.51778" lon="3.28532">
        <ele>159.235474</ele>
        <time>2012-02-05T12:50:40Z</time>
      </trkpt>
      <trkpt lat="43.51793" lon="3.28553">
        <ele>160.67749</ele>
        <time>2012-02-05T12:50:48Z</time>
      </trkpt>
      <trkpt lat="43.5181" lon="3.28572">
        <ele>162.600098</ele>
        <time>2012-02-05T12:50:56Z</time>
      </trkpt>
      <trkpt lat="43.51828" lon="3.2859">
        <ele>163.561523</ele>
        <time>2012-02-05T12:51:04Z</time>
      </trkpt>
      <trkpt lat="43.5185" lon="3.28604">
        <ele>163.561523</ele>
        <time>2012-02-05T12:51:12Z</time>
      </trkpt>
      <trkpt lat="43.51872" lon="3.28617">
        <ele>163.561523</ele>
        <time>2012-02-05T12:51:19Z</time>
      </trkpt>
      <trkpt lat="43.51888" lon="3.28639">
        <ele>163.561523</ele>
        <time>2012-02-05T12:51:25Z</time>
      </trkpt>
      <trkpt lat="43.51904" lon="3.28672">
        <ele>162.600098</ele>
        <time>2012-02-05T12:51:32Z</time>
      </trkpt>
      <trkpt lat="43.51906" lon="3.28677">
        <ele>162.119507</ele>
        <time>2012-02-05T12:51:33Z</time>
      </trkpt>
      <trkpt lat="43.5192" lon="3.2871">
        <ele>160.67749</ele>
        <time>2012-02-05T12:51:39Z</time>
      </trkpt>
      <trkpt lat="43.51945" lon="3.28751">
        <ele>160.196899</ele>
        <time>2012-02-05T12:51:47Z</time>
      </trkpt>
      <trkpt lat="43.51969" lon="3.28793">
        <ele>162.119507</ele>
        <time>2012-02-05T12:51:56Z</time>
      </trkpt>
      <trkpt lat="43.51984" lon="3.28826">
        <ele>164.042114</ele>
        <time>2012-02-05T12:52:04Z</time>
      </trkpt>
      <trkpt lat="43.51987" lon="3.2885">
        <ele>166.926025</ele>
        <time>2012-02-05T12:52:10Z</time>
      </trkpt>
      <trkpt lat="43.51989" lon="3.28857">
        <ele>167.887329</ele>
        <time>2012-02-05T12:52:12Z</time>
      </trkpt>
      <trkpt lat="43.5199" lon="3.28865">
        <ele>169.329468</ele>
        <time>2012-02-05T12:52:14Z</time>
      </trkpt>
      <trkpt lat="43.52" lon="3.28889">
        <ele>169.329468</ele>
        <time>2012-02-05T12:52:21Z</time>
      </trkpt>
      <trkpt lat="43.52013" lon="3.2891">
        <ele>170.290649</ele>
        <time>2012-02-05T12:52:28Z</time>
      </trkpt>
      <trkpt lat="43.52027" lon="3.28935">
        <ele>168.848755</ele>
        <time>2012-02-05T12:52:34Z</time>
      </trkpt>
      <trkpt lat="43.52047" lon="3.28948">
        <ele>167.406738</ele>
        <time>2012-02-05T12:52:38Z</time>
      </trkpt>
      <trkpt lat="43.52076" lon="3.28959">
        <ele>165.964722</ele>
        <time>2012-02-05T12:52:43Z</time>
      </trkpt>
      <trkpt lat="43.52106" lon="3.28985">
        <ele>167.406738</ele>
        <time>2012-02-05T12:52:50Z</time>
      </trkpt>
      <trkpt lat="43.52133" lon="3.29">
        <ele>168.368042</ele>
        <time>2012-02-05T12:52:57Z</time>
      </trkpt>
      <trkpt lat="43.52164" lon="3.29015">
        <ele>170.290649</ele>
        <time>2012-02-05T12:53:06Z</time>
      </trkpt>
      <trkpt lat="43.52187" lon="3.29021">
        <ele>170.771362</ele>
        <time>2012-02-05T12:53:13Z</time>
      </trkpt>
      <trkpt lat="43.52209" lon="3.29029">
        <ele>172.69397</ele>
        <time>2012-02-05T12:53:20Z</time>
      </trkpt>
      <trkpt lat="43.52232" lon="3.29036">
        <ele>174.135864</ele>
        <time>2012-02-05T12:53:29Z</time>
      </trkpt>
      <trkpt lat="43.52254" lon="3.29037">
        <ele>176.058594</ele>
        <time>2012-02-05T12:53:37Z</time>
      </trkpt>
      <trkpt lat="43.52272" lon="3.2904">
        <ele>177.020019</ele>
        <time>2012-02-05T12:53:45Z</time>
      </trkpt>
      <trkpt lat="43.52287" lon="3.29045">
        <ele>177.020019</ele>
        <time>2012-02-05T12:53:51Z</time>
      </trkpt>
      <trkpt lat="43.52306" lon="3.29051">
        <ele>177.50061</ele>
        <time>2012-02-05T12:53:58Z</time>
      </trkpt>
      <trkpt lat="43.52328" lon="3.29052">
        <ele>178.942627</ele>
        <time>2012-02-05T12:54:05Z</time>
      </trkpt>
      <trkpt lat="43.52356" lon="3.29055">
        <ele>179.423218</ele>
        <time>2012-02-05T12:54:13Z</time>
      </trkpt>
      <trkpt lat="43.5237" lon="3.29056">
        <ele>180.384522</ele>
        <time>2012-02-05T12:54:17Z</time>
      </trkpt>
      <trkpt lat="43.52373" lon="3.29065">
        <ele>181.826416</ele>
        <time>2012-02-05T12:54:21Z</time>
      </trkpt>
      <trkpt lat="43.52373" lon="3.29068">
        <ele>181.345825</ele>
        <time>2012-02-05T12:54:22Z</time>
      </trkpt>
      <trkpt lat="43.52376" lon="3.29088">
        <ele>184.229858</ele>
        <time>2012-02-05T12:54:29Z</time>
      </trkpt>
      <trkpt lat="43.52377" lon="3.29093">
        <ele>184.710571</ele>
        <time>2012-02-05T12:54:31Z</time>
      </trkpt>
      <trkpt lat="43.52386" lon="3.29117">
        <ele>188.075073</ele>
        <time>2012-02-05T12:54:40Z</time>
      </trkpt>
      <trkpt lat="43.52387" lon="3.29137">
        <ele>189.516968</ele>
        <time>2012-02-05T12:54:47Z</time>
      </trkpt>
      <trkpt lat="43.52389" lon="3.29161">
        <ele>189.516968</ele>
        <time>2012-02-05T12:54:54Z</time>
      </trkpt>
      <trkpt lat="43.52392" lon="3.2918">
        <ele>189.516968</ele>
        <time>2012-02-05T12:54:59Z</time>
      </trkpt>
      <trkpt lat="43.52405" lon="3.292">
        <ele>189.997681</ele>
        <time>2012-02-05T12:55:06Z</time>
      </trkpt>
      <trkpt lat="43.52412" lon="3.29207">
        <ele>191.439575</ele>
        <time>2012-02-05T12:55:09Z</time>
      </trkpt>
      <trkpt lat="43.52419" lon="3.29227">
        <ele>191.920288</ele>
        <time>2012-02-05T12:55:15Z</time>
      </trkpt>
      <trkpt lat="43.52429" lon="3.29242">
        <ele>192.881714</ele>
        <time>2012-02-05T12:55:20Z</time>
      </trkpt>
      <trkpt lat="43.52443" lon="3.29254">
        <ele>193.843018</ele>
        <time>2012-02-05T12:55:26Z</time>
      </trkpt>
      <trkpt lat="43.52454" lon="3.29273">
        <ele>193.843018</ele>
        <time>2012-02-05T12:55:32Z</time>
      </trkpt>
      <trkpt lat="43.52468" lon="3.29286">
        <ele>193.362305</ele>
        <time>2012-02-05T12:55:37Z</time>
      </trkpt>
      <trkpt lat="43.5249" lon="3.29288">
        <ele>193.843018</ele>
        <time>2012-02-05T12:55:43Z</time>
      </trkpt>
      <trkpt lat="43.52503" lon="3.29289">
        <ele>194.804321</ele>
        <time>2012-02-05T12:55:48Z</time>
      </trkpt>
      <trkpt lat="43.52512" lon="3.29293">
        <ele>194.323731</ele>
        <time>2012-02-05T12:55:51Z</time>
      </trkpt>
      <trkpt lat="43.52529" lon="3.29316">
        <ele>193.362305</ele>
        <time>2012-02-05T12:55:56Z</time>
      </trkpt>
      <trkpt lat="43.52539" lon="3.29334">
        <ele>192.401123</ele>
        <time>2012-02-05T12:55:59Z</time>
      </trkpt>
      <trkpt lat="43.52553" lon="3.29345">
        <ele>191.439575</ele>
        <time>2012-02-05T12:56:03Z</time>
      </trkpt>
      <trkpt lat="43.52555" lon="3.29337">
        <ele>192.401123</ele>
        <time>2012-02-05T12:56:06Z</time>
      </trkpt>
      <trkpt lat="43.52552" lon="3.29323">
        <ele>192.881714</ele>
        <time>2012-02-05T12:56:10Z</time>
      </trkpt>
      <trkpt lat="43.52545" lon="3.29304">
        <ele>195.765625</ele>
        <time>2012-02-05T12:56:15Z</time>
      </trkpt>
      <trkpt lat="43.52545" lon="3.2929">
        <ele>196.726929</ele>
        <time>2012-02-05T12:56:19Z</time>
      </trkpt>
      <trkpt lat="43.52552" lon="3.29275">
        <ele>197.688232</ele>
        <time>2012-02-05T12:56:25Z</time>
      </trkpt>
      <trkpt lat="43.52561" lon="3.2926">
        <ele>198.649536</ele>
        <time>2012-02-05T12:56:31Z</time>
      </trkpt>
      <trkpt lat="43.52572" lon="3.29239">
        <ele>199.130127</ele>
        <time>2012-02-05T12:56:38Z</time>
      </trkpt>
      <trkpt lat="43.52585" lon="3.29216">
        <ele>200.091675</ele>
        <time>2012-02-05T12:56:46Z</time>
      </trkpt>
      <trkpt lat="43.52593" lon="3.29204">
        <ele>202.014282</ele>
        <time>2012-02-05T12:56:53Z</time>
      </trkpt>
      <trkpt lat="43.52594" lon="3.29202">
        <ele>201.052856</ele>
        <time>2012-02-05T12:56:56Z</time>
      </trkpt>
      <trkpt lat="43.52594" lon="3.29202">
        <ele>201.052856</ele>
        <time>2012-02-05T12:56:59Z</time>
      </trkpt>
      <trkpt lat="43.52596" lon="3.29198">
        <ele>201.052856</ele>
        <time>2012-02-05T12:57:02Z</time>
      </trkpt>
      <trkpt lat="43.52596" lon="3.29198">
        <ele>201.052856</ele>
        <time>2012-02-05T12:58:05Z</time>
      </trkpt>
      <trkpt lat="43.52601" lon="3.29186">
        <ele>199.61084</ele>
        <time>2012-02-05T12:58:09Z</time>
      </trkpt>
      <trkpt lat="43.52602" lon="3.29183">
        <ele>199.61084</ele>
        <time>2012-02-05T12:58:12Z</time>
      </trkpt>
      <trkpt lat="43.52602" lon="3.29182">
        <ele>199.130127</ele>
        <time>2012-02-05T12:58:15Z</time>
      </trkpt>
      <trkpt lat="43.52607" lon="3.29173">
        <ele>196.246338</ele>
        <time>2012-02-05T12:58:18Z</time>
      </trkpt>
      <trkpt lat="43.5261" lon="3.29171">
        <ele>195.765625</ele>
        <time>2012-02-05T12:58:19Z</time>
      </trkpt>
      <trkpt lat="43.52629" lon="3.29169">
        <ele>190.958984</ele>
        <time>2012-02-05T12:58:23Z</time>
      </trkpt>
      <trkpt lat="43.52651" lon="3.29163">
        <ele>186.633179</ele>
        <time>2012-02-05T12:58:27Z</time>
      </trkpt>
      <trkpt lat="43.52681" lon="3.29162">
        <ele>184.229858</ele>
        <time>2012-02-05T12:58:31Z</time>
      </trkpt>
      <trkpt lat="43.52693" lon="3.29159">
        <ele>184.710571</ele>
        <time>2012-02-05T12:58:33Z</time>
      </trkpt>
      <trkpt lat="43.52701" lon="3.29154">
        <ele>185.191162</ele>
        <time>2012-02-05T12:58:36Z</time>
      </trkpt>
      <trkpt lat="43.52707" lon="3.29157">
        <ele>185.191162</ele>
        <time>2012-02-05T12:58:40Z</time>
      </trkpt>
      <trkpt lat="43.52724" lon="3.29175">
        <ele>185.191162</ele>
        <time>2012-02-05T12:58:49Z</time>
      </trkpt>
      <trkpt lat="43.52741" lon="3.29182">
        <ele>184.229858</ele>
        <time>2012-02-05T12:58:53Z</time>
      </trkpt>
      <trkpt lat="43.52753" lon="3.29185">
        <ele>180.384522</ele>
        <time>2012-02-05T12:58:56Z</time>
      </trkpt>
      <trkpt lat="43.52763" lon="3.29189">
        <ele>178.942627</ele>
        <time>2012-02-05T12:59:00Z</time>
      </trkpt>
      <trkpt lat="43.52773" lon="3.29188">
        <ele>175.09729</ele>
        <time>2012-02-05T12:59:06Z</time>
      </trkpt>
      <trkpt lat="43.52777" lon="3.29184">
        <ele>173.174683</ele>
        <time>2012-02-05T12:59:08Z</time>
      </trkpt>
      <trkpt lat="43.52786" lon="3.29182">
        <ele>169.810059</ele>
        <time>2012-02-05T12:59:11Z</time>
      </trkpt>
      <trkpt lat="43.52792" lon="3.29182">
        <ele>165.964722</ele>
        <time>2012-02-05T12:59:13Z</time>
      </trkpt>
      <trkpt lat="43.52795" lon="3.29184">
        <ele>165.964722</ele>
        <time>2012-02-05T12:59:14Z</time>
      </trkpt>
      <trkpt lat="43.52803" lon="3.29192">
        <ele>162.600098</ele>
        <time>2012-02-05T12:59:17Z</time>
      </trkpt>
      <trkpt lat="43.5281" lon="3.29194">
        <ele>158.754761</ele>
        <time>2012-02-05T12:59:20Z</time>
      </trkpt>
      <trkpt lat="43.52815" lon="3.29182">
        <ele>157.312866</ele>
        <time>2012-02-05T12:59:23Z</time>
      </trkpt>
      <trkpt lat="43.52821" lon="3.29172">
        <ele>154.909546</ele>
        <time>2012-02-05T12:59:27Z</time>
      </trkpt>
      <trkpt lat="43.52824" lon="3.29167">
        <ele>153.467651</ele>
        <time>2012-02-05T12:59:29Z</time>
      </trkpt>
      <trkpt lat="43.52828" lon="3.29156">
        <ele>148.18042</ele>
        <time>2012-02-05T12:59:32Z</time>
      </trkpt>
      <trkpt lat="43.52829" lon="3.29152">
        <ele>147.699707</ele>
        <time>2012-02-05T12:59:33Z</time>
      </trkpt>
      <trkpt lat="43.52843" lon="3.29146">
        <ele>142.893066</ele>
        <time>2012-02-05T12:59:38Z</time>
      </trkpt>
      <trkpt lat="43.52846" lon="3.29149">
        <ele>142.893066</ele>
        <time>2012-02-05T12:59:39Z</time>
      </trkpt>
      <trkpt lat="43.52848" lon="3.29158">
        <ele>141.931763</ele>
        <time>2012-02-05T12:59:41Z</time>
      </trkpt>
      <trkpt lat="43.52851" lon="3.29164">
        <ele>141.45105</ele>
        <time>2012-02-05T12:59:44Z</time>
      </trkpt>
      <trkpt lat="43.52852" lon="3.29167">
        <ele>140.970459</ele>
        <time>2012-02-05T12:59:46Z</time>
      </trkpt>
      <trkpt lat="43.52861" lon="3.29179">
        <ele>137.125244</ele>
        <time>2012-02-05T12:59:51Z</time>
      </trkpt>
      <trkpt lat="43.52863" lon="3.29182">
        <ele>136.16394</ele>
        <time>2012-02-05T12:59:52Z</time>
      </trkpt>
      <trkpt lat="43.52867" lon="3.29185">
        <ele>135.683106</ele>
        <time>2012-02-05T12:59:54Z</time>
      </trkpt>
      <trkpt lat="43.52873" lon="3.29197">
        <ele>131.837891</ele>
        <time>2012-02-05T12:59:58Z</time>
      </trkpt>
      <trkpt lat="43.52876" lon="3.29201">
        <ele>130.395996</ele>
        <time>2012-02-05T13:00:00Z</time>
      </trkpt>
      <trkpt lat="43.52876" lon="3.29202">
        <ele>130.395996</ele>
        <time>2012-02-05T13:00:02Z</time>
      </trkpt>
      <trkpt lat="43.52877" lon="3.29202">
        <ele>130.395996</ele>
        <time>2012-02-05T13:00:05Z</time>
      </trkpt>
      <trkpt lat="43.52884" lon="3.29205">
        <ele>129.434692</ele>
        <time>2012-02-05T13:00:06Z</time>
      </trkpt>
      <trkpt lat="43.52891" lon="3.29212">
        <ele>128.473389</ele>
        <time>2012-02-05T13:00:09Z</time>
      </trkpt>
      <trkpt lat="43.52899" lon="3.29212">
        <ele>127.511963</ele>
        <time>2012-02-05T13:00:12Z</time>
      </trkpt>
      <trkpt lat="43.52904" lon="3.29223">
        <ele>126.069946</ele>
        <time>2012-02-05T13:00:15Z</time>
      </trkpt>
      <trkpt lat="43.5291" lon="3.29225">
        <ele>124.147339</ele>
        <time>2012-02-05T13:00:18Z</time>
      </trkpt>
      <trkpt lat="43.52919" lon="3.29223">
        <ele>122.224731</ele>
        <time>2012-02-05T13:00:21Z</time>
      </trkpt>
      <trkpt lat="43.52922" lon="3.29233">
        <ele>121.26355</ele>
        <time>2012-02-05T13:00:24Z</time>
      </trkpt>
      <trkpt lat="43.52926" lon="3.29237">
        <ele>122.224731</ele>
        <time>2012-02-05T13:00:28Z</time>
      </trkpt>
      <trkpt lat="43.52926" lon="3.29238">
        <ele>123.186157</ele>
        <time>2012-02-05T13:00:29Z</time>
      </trkpt>
      <trkpt lat="43.52926" lon="3.29251">
        <ele>122.705444</ele>
        <time>2012-02-05T13:00:36Z</time>
      </trkpt>
      <trkpt lat="43.52926" lon="3.29253">
        <ele>123.186157</ele>
        <time>2012-02-05T13:00:38Z</time>
      </trkpt>
      <trkpt lat="43.52924" lon="3.29253">
        <ele>122.705444</ele>
        <time>2012-02-05T13:00:49Z</time>
      </trkpt>
      <trkpt lat="43.52917" lon="3.29266">
        <ele>120.302124</ele>
        <time>2012-02-05T13:00:52Z</time>
      </trkpt>
      <trkpt lat="43.52919" lon="3.29283">
        <ele>120.302124</ele>
        <time>2012-02-05T13:00:55Z</time>
      </trkpt>
      <trkpt lat="43.52927" lon="3.29289">
        <ele>121.26355</ele>
        <time>2012-02-05T13:00:58Z</time>
      </trkpt>
      <trkpt lat="43.52931" lon="3.29292">
        <ele>122.224731</ele>
        <time>2012-02-05T13:01:00Z</time>
      </trkpt>
      <trkpt lat="43.52939" lon="3.2931">
        <ele>122.224731</ele>
        <time>2012-02-05T13:01:06Z</time>
      </trkpt>
      <trkpt lat="43.52938" lon="3.29324">
        <ele>121.744141</ele>
        <time>2012-02-05T13:01:10Z</time>
      </trkpt>
      <trkpt lat="43.52938" lon="3.29326">
        <ele>121.26355</ele>
        <time>2012-02-05T13:01:12Z</time>
      </trkpt>
      <trkpt lat="43.52936" lon="3.29328">
        <ele>121.744141</ele>
        <time>2012-02-05T13:01:25Z</time>
      </trkpt>
      <trkpt lat="43.52933" lon="3.29338">
        <ele>121.26355</ele>
        <time>2012-02-05T13:01:28Z</time>
      </trkpt>
      <trkpt lat="43.52941" lon="3.29362">
        <ele>119.821411</ele>
        <time>2012-02-05T13:01:32Z</time>
      </trkpt>
      <trkpt lat="43.52947" lon="3.29375">
        <ele>119.821411</ele>
        <time>2012-02-05T13:01:34Z</time>
      </trkpt>
      <trkpt lat="43.52951" lon="3.29391">
        <ele>118.860107</ele>
        <time>2012-02-05T13:01:36Z</time>
      </trkpt>
      <trkpt lat="43.52957" lon="3.29415">
        <ele>118.860107</ele>
        <time>2012-02-05T13:01:39Z</time>
      </trkpt>
      <trkpt lat="43.52966" lon="3.29436">
        <ele>118.860107</ele>
        <time>2012-02-05T13:01:42Z</time>
      </trkpt>
      <trkpt lat="43.5298" lon="3.29481">
        <ele>118.860107</ele>
        <time>2012-02-05T13:01:48Z</time>
      </trkpt>
      <trkpt lat="43.52985" lon="3.2951">
        <ele>118.379395</ele>
        <time>2012-02-05T13:01:51Z</time>
      </trkpt>
      <trkpt lat="43.52993" lon="3.2954">
        <ele>118.379395</ele>
        <time>2012-02-05T13:01:55Z</time>
      </trkpt>
      <trkpt lat="43.53005" lon="3.29553">
        <ele>120.302124</ele>
        <time>2012-02-05T13:01:59Z</time>
      </trkpt>
      <trkpt lat="43.5302" lon="3.29573">
        <ele>123.666748</ele>
        <time>2012-02-05T13:02:07Z</time>
      </trkpt>
      <trkpt lat="43.5303" lon="3.29588">
        <ele>126.550659</ele>
        <time>2012-02-05T13:02:14Z</time>
      </trkpt>
      <trkpt lat="43.53031" lon="3.29599">
        <ele>127.992554</ele>
        <time>2012-02-05T13:02:18Z</time>
      </trkpt>
      <trkpt lat="43.53034" lon="3.29613">
        <ele>129.434692</ele>
        <time>2012-02-05T13:02:24Z</time>
      </trkpt>
      <trkpt lat="43.53041" lon="3.29623">
        <ele>129.915283</ele>
        <time>2012-02-05T13:02:30Z</time>
      </trkpt>
      <trkpt lat="43.53041" lon="3.29636">
        <ele>129.434692</ele>
        <time>2012-02-05T13:02:35Z</time>
      </trkpt>
      <trkpt lat="43.53038" lon="3.29658">
        <ele>129.434692</ele>
        <time>2012-02-05T13:02:42Z</time>
      </trkpt>
      <trkpt lat="43.53035" lon="3.29679">
        <ele>127.992554</ele>
        <time>2012-02-05T13:02:47Z</time>
      </trkpt>
      <trkpt lat="43.53035" lon="3.2969">
        <ele>126.550659</ele>
        <time>2012-02-05T13:02:51Z</time>
      </trkpt>
      <trkpt lat="43.53036" lon="3.29694">
        <ele>125.589355</ele>
        <time>2012-02-05T13:02:55Z</time>
      </trkpt>
      <trkpt lat="43.53045" lon="3.29694">
        <ele>125.589355</ele>
        <time>2012-02-05T13:03:00Z</time>
      </trkpt>
      <trkpt lat="43.53059" lon="3.29688">
        <ele>125.589355</ele>
        <time>2012-02-05T13:03:06Z</time>
      </trkpt>
      <trkpt lat="43.53077" lon="3.2968">
        <ele>126.069946</ele>
        <time>2012-02-05T13:03:13Z</time>
      </trkpt>
      <trkpt lat="43.53091" lon="3.29673">
        <ele>126.069946</ele>
        <time>2012-02-05T13:03:19Z</time>
      </trkpt>
      <trkpt lat="43.53112" lon="3.29665">
        <ele>126.069946</ele>
        <time>2012-02-05T13:03:27Z</time>
      </trkpt>
      <trkpt lat="43.53131" lon="3.2966">
        <ele>124.628052</ele>
        <time>2012-02-05T13:03:32Z</time>
      </trkpt>
      <trkpt lat="43.53152" lon="3.29654">
        <ele>124.147339</ele>
        <time>2012-02-05T13:03:38Z</time>
      </trkpt>
      <trkpt lat="43.53166" lon="3.29648">
        <ele>124.147339</ele>
        <time>2012-02-05T13:03:42Z</time>
      </trkpt>
      <trkpt lat="43.5318" lon="3.2965">
        <ele>121.26355</ele>
        <time>2012-02-05T13:03:46Z</time>
      </trkpt>
      <trkpt lat="43.53179" lon="3.29663">
        <ele>122.224731</ele>
        <time>2012-02-05T13:03:49Z</time>
      </trkpt>
      <trkpt lat="43.53177" lon="3.29667">
        <ele>122.224731</ele>
        <time>2012-02-05T13:03:50Z</time>
      </trkpt>
      <trkpt lat="43.5317" lon="3.29686">
        <ele>124.147339</ele>
        <time>2012-02-05T13:03:55Z</time>
      </trkpt>
      <trkpt lat="43.53162" lon="3.29704">
        <ele>126.069946</ele>
        <time>2012-02-05T13:04:01Z</time>
      </trkpt>
      <trkpt lat="43.53153" lon="3.2972">
        <ele>127.992554</ele>
        <time>2012-02-05T13:04:07Z</time>
      </trkpt>
      <trkpt lat="43.53151" lon="3.29724">
        <ele>128.954102</ele>
        <time>2012-02-05T13:04:09Z</time>
      </trkpt>
      <trkpt lat="43.53145" lon="3.29738">
        <ele>131.837891</ele>
        <time>2012-02-05T13:04:16Z</time>
      </trkpt>
      <trkpt lat="43.53144" lon="3.29756">
        <ele>134.241211</ele>
        <time>2012-02-05T13:04:24Z</time>
      </trkpt>
      <trkpt lat="43.53149" lon="3.29774">
        <ele>135.202515</ele>
        <time>2012-02-05T13:04:31Z</time>
      </trkpt>
      <trkpt lat="43.53154" lon="3.29794">
        <ele>135.202515</ele>
        <time>2012-02-05T13:04:37Z</time>
      </trkpt>
      <trkpt lat="43.53157" lon="3.29803">
        <ele>135.202515</ele>
        <time>2012-02-05T13:04:39Z</time>
      </trkpt>
      <trkpt lat="43.53176" lon="3.29824">
        <ele>134.241211</ele>
        <time>2012-02-05T13:04:44Z</time>
      </trkpt>
      <trkpt lat="43.53184" lon="3.29831">
        <ele>133.760498</ele>
        <time>2012-02-05T13:04:46Z</time>
      </trkpt>
      <trkpt lat="43.53199" lon="3.29855">
        <ele>135.202515</ele>
        <time>2012-02-05T13:04:52Z</time>
      </trkpt>
      <trkpt lat="43.53198" lon="3.29875">
        <ele>135.683106</ele>
        <time>2012-02-05T13:04:57Z</time>
      </trkpt>
      <trkpt lat="43.5319" lon="3.29911">
        <ele>136.644653</ele>
        <time>2012-02-05T13:05:04Z</time>
      </trkpt>
      <trkpt lat="43.53188" lon="3.2994">
        <ele>137.125244</ele>
        <time>2012-02-05T13:05:10Z</time>
      </trkpt>
      <trkpt lat="43.53185" lon="3.2997">
        <ele>138.086548</ele>
        <time>2012-02-05T13:05:16Z</time>
      </trkpt>
      <trkpt lat="43.53182" lon="3.29986">
        <ele>140.009155</ele>
        <time>2012-02-05T13:05:20Z</time>
      </trkpt>
      <trkpt lat="43.53184" lon="3.29993">
        <ele>140.009155</ele>
        <time>2012-02-05T13:05:24Z</time>
      </trkpt>
      <trkpt lat="43.53184" lon="3.29992">
        <ele>139.047852</ele>
        <time>2012-02-05T13:07:28Z</time>
      </trkpt>
      <trkpt lat="43.53189" lon="3.29999">
        <ele>140.009155</ele>
        <time>2012-02-05T13:07:32Z</time>
      </trkpt>
      <trkpt lat="43.53197" lon="3.30002">
        <ele>138.086548</ele>
        <time>2012-02-05T13:07:35Z</time>
      </trkpt>
      <trkpt lat="43.53206" lon="3.30002">
        <ele>135.683106</ele>
        <time>2012-02-05T13:07:38Z</time>
      </trkpt>
      <trkpt lat="43.53219" lon="3.30013">
        <ele>134.241211</ele>
        <time>2012-02-05T13:07:43Z</time>
      </trkpt>
      <trkpt lat="43.53222" lon="3.30021">
        <ele>131.3573</ele>
        <time>2012-02-05T13:07:47Z</time>
      </trkpt>
      <trkpt lat="43.53222" lon="3.30025">
        <ele>130.395996</ele>
        <time>2012-02-05T13:07:48Z</time>
      </trkpt>
      <trkpt lat="43.53228" lon="3.3004">
        <ele>128.954102</ele>
        <time>2012-02-05T13:07:52Z</time>
      </trkpt>
      <trkpt lat="43.53238" lon="3.30055">
        <ele>124.628052</ele>
        <time>2012-02-05T13:07:56Z</time>
      </trkpt>
      <trkpt lat="43.53239" lon="3.30073">
        <ele>122.224731</ele>
        <time>2012-02-05T13:07:59Z</time>
      </trkpt>
      <trkpt lat="43.53238" lon="3.30099">
        <ele>118.860107</ele>
        <time>2012-02-05T13:08:03Z</time>
      </trkpt>
      <trkpt lat="43.53238" lon="3.30115">
        <ele>116.9375</ele>
        <time>2012-02-05T13:08:07Z</time>
      </trkpt>
      <trkpt lat="43.5324" lon="3.30123">
        <ele>115.014893</ele>
        <time>2012-02-05T13:08:13Z</time>
      </trkpt>
      <trkpt lat="43.53241" lon="3.30124">
        <ele>114.053589</ele>
        <time>2012-02-05T13:08:48Z</time>
      </trkpt>
      <trkpt lat="43.53246" lon="3.30128">
        <ele>111.650269</ele>
        <time>2012-02-05T13:08:53Z</time>
      </trkpt>
      <trkpt lat="43.53248" lon="3.30129">
        <ele>110.688843</ele>
        <time>2012-02-05T13:08:57Z</time>
      </trkpt>
      <trkpt lat="43.53251" lon="3.30132">
        <ele>110.688843</ele>
        <time>2012-02-05T13:09:24Z</time>
      </trkpt>
      <trkpt lat="43.5325" lon="3.30143">
        <ele>108.285645</ele>
        <time>2012-02-05T13:09:28Z</time>
      </trkpt>
      <trkpt lat="43.5325" lon="3.30145">
        <ele>108.285645</ele>
        <time>2012-02-05T13:09:29Z</time>
      </trkpt>
      <trkpt lat="43.53255" lon="3.30164">
        <ele>105.401733</ele>
        <time>2012-02-05T13:09:34Z</time>
      </trkpt>
      <trkpt lat="43.53257" lon="3.30177">
        <ele>105.882446</ele>
        <time>2012-02-05T13:09:37Z</time>
      </trkpt>
      <trkpt lat="43.53255" lon="3.30185">
        <ele>105.401733</ele>
        <time>2012-02-05T13:09:39Z</time>
      </trkpt>
      <trkpt lat="43.53255" lon="3.30206">
        <ele>102.5177</ele>
        <time>2012-02-05T13:09:43Z</time>
      </trkpt>
      <trkpt lat="43.53263" lon="3.30219">
        <ele>102.037109</ele>
        <time>2012-02-05T13:09:47Z</time>
      </trkpt>
      <trkpt lat="43.53267" lon="3.30225">
        <ele>101.556397</ele>
        <time>2012-02-05T13:09:52Z</time>
      </trkpt>
      <trkpt lat="43.53269" lon="3.30226">
        <ele>101.556397</ele>
        <time>2012-02-05T13:09:55Z</time>
      </trkpt>
      <trkpt lat="43.53267" lon="3.30222">
        <ele>102.037109</ele>
        <time>2012-02-05T13:10:47Z</time>
      </trkpt>
      <trkpt lat="43.53274" lon="3.30224">
        <ele>102.037109</ele>
        <time>2012-02-05T13:10:52Z</time>
      </trkpt>
      <trkpt lat="43.53288" lon="3.30225">
        <ele>102.998291</ele>
        <time>2012-02-05T13:10:59Z</time>
      </trkpt>
      <trkpt lat="43.53304" lon="3.30219">
        <ele>102.998291</ele>
        <time>2012-02-05T13:11:06Z</time>
      </trkpt>
      <trkpt lat="43.53317" lon="3.30204">
        <ele>103.479004</ele>
        <time>2012-02-05T13:11:11Z</time>
      </trkpt>
      <trkpt lat="43.53326" lon="3.30186">
        <ele>104.44043</ele>
        <time>2012-02-05T13:11:16Z</time>
      </trkpt>
      <trkpt lat="43.5333" lon="3.30173">
        <ele>104.92102</ele>
        <time>2012-02-05T13:11:20Z</time>
      </trkpt>
      <trkpt lat="43.53336" lon="3.30163">
        <ele>104.44043</ele>
        <time>2012-02-05T13:11:24Z</time>
      </trkpt>
      <trkpt lat="43.53345" lon="3.30153">
        <ele>102.998291</ele>
        <time>2012-02-05T13:11:28Z</time>
      </trkpt>
      <trkpt lat="43.53353" lon="3.30141">
        <ele>102.998291</ele>
        <time>2012-02-05T13:11:32Z</time>
      </trkpt>
      <trkpt lat="43.53362" lon="3.30122">
        <ele>103.479004</ele>
        <time>2012-02-05T13:11:38Z</time>
      </trkpt>
      <trkpt lat="43.53374" lon="3.30103">
        <ele>103.959717</ele>
        <time>2012-02-05T13:11:45Z</time>
      </trkpt>
      <trkpt lat="43.53389" lon="3.30082">
        <ele>104.44043</ele>
        <time>2012-02-05T13:11:52Z</time>
      </trkpt>
      <trkpt lat="43.53402" lon="3.30069">
        <ele>104.92102</ele>
        <time>2012-02-05T13:11:57Z</time>
      </trkpt>
      <trkpt lat="43.53413" lon="3.30058">
        <ele>105.401733</ele>
        <time>2012-02-05T13:12:02Z</time>
      </trkpt>
      <trkpt lat="43.53415" lon="3.30055">
        <ele>104.92102</ele>
        <time>2012-02-05T13:12:03Z</time>
      </trkpt>
      <trkpt lat="43.53427" lon="3.30059">
        <ele>104.92102</ele>
        <time>2012-02-05T13:12:08Z</time>
      </trkpt>
      <trkpt lat="43.53433" lon="3.30054">
        <ele>104.44043</ele>
        <time>2012-02-05T13:12:11Z</time>
      </trkpt>
      <trkpt lat="43.53438" lon="3.30049">
        <ele>104.92102</ele>
        <time>2012-02-05T13:12:13Z</time>
      </trkpt>
      <trkpt lat="43.53458" lon="3.30037">
        <ele>106.363037</ele>
        <time>2012-02-05T13:12:21Z</time>
      </trkpt>
      <trkpt lat="43.53473" lon="3.3002">
        <ele>107.324341</ele>
        <time>2012-02-05T13:12:28Z</time>
      </trkpt>
      <trkpt lat="43.53494" lon="3.30003">
        <ele>107.805054</ele>
        <time>2012-02-05T13:12:35Z</time>
      </trkpt>
      <trkpt lat="43.53498" lon="3.30001">
        <ele>108.285645</ele>
        <time>2012-02-05T13:12:36Z</time>
      </trkpt>
      <trkpt lat="43.53514" lon="3.29984">
        <ele>107.805054</ele>
        <time>2012-02-05T13:12:41Z</time>
      </trkpt>
      <trkpt lat="43.53518" lon="3.29979">
        <ele>107.805054</ele>
        <time>2012-02-05T13:12:42Z</time>
      </trkpt>
      <trkpt lat="43.53532" lon="3.2995">
        <ele>107.324341</ele>
        <time>2012-02-05T13:12:48Z</time>
      </trkpt>
      <trkpt lat="43.5355" lon="3.29914">
        <ele>107.805054</ele>
        <time>2012-02-05T13:12:56Z</time>
      </trkpt>
      <trkpt lat="43.53565" lon="3.29897">
        <ele>108.766235</ele>
        <time>2012-02-05T13:13:02Z</time>
      </trkpt>
      <trkpt lat="43.53572" lon="3.29876">
        <ele>109.246948</ele>
        <time>2012-02-05T13:13:07Z</time>
      </trkpt>
      <trkpt lat="43.53585" lon="3.29856">
        <ele>110.208252</ele>
        <time>2012-02-05T13:13:13Z</time>
      </trkpt>
      <trkpt lat="43.53603" lon="3.29833">
        <ele>111.169556</ele>
        <time>2012-02-05T13:13:20Z</time>
      </trkpt>
      <trkpt lat="43.53616" lon="3.29807">
        <ele>112.130981</ele>
        <time>2012-02-05T13:13:27Z</time>
      </trkpt>
      <trkpt lat="43.53635" lon="3.29785">
        <ele>113.092285</ele>
        <time>2012-02-05T13:13:34Z</time>
      </trkpt>
      <trkpt lat="43.53645" lon="3.29754">
        <ele>113.572998</ele>
        <time>2012-02-05T13:13:41Z</time>
      </trkpt>
      <trkpt lat="43.53659" lon="3.29706">
        <ele>114.53418</ele>
        <time>2012-02-05T13:13:52Z</time>
      </trkpt>
      <trkpt lat="43.53671" lon="3.29667">
        <ele>116.456787</ele>
        <time>2012-02-05T13:14:01Z</time>
      </trkpt>
      <trkpt lat="43.53673" lon="3.29662">
        <ele>116.9375</ele>
        <time>2012-02-05T13:14:02Z</time>
      </trkpt>
      <trkpt lat="43.53688" lon="3.29636">
        <ele>117.418213</ele>
        <time>2012-02-05T13:14:09Z</time>
      </trkpt>
      <trkpt lat="43.53711" lon="3.29619">
        <ele>117.418213</ele>
        <time>2012-02-05T13:14:16Z</time>
      </trkpt>
      <trkpt lat="43.53739" lon="3.29605">
        <ele>118.379395</ele>
        <time>2012-02-05T13:14:25Z</time>
      </trkpt>
      <trkpt lat="43.53768" lon="3.29594">
        <ele>120.302124</ele>
        <time>2012-02-05T13:14:34Z</time>
      </trkpt>
      <trkpt lat="43.53789" lon="3.2959">
        <ele>120.782837</ele>
        <time>2012-02-05T13:14:41Z</time>
      </trkpt>
      <trkpt lat="43.53811" lon="3.29595">
        <ele>121.26355</ele>
        <time>2012-02-05T13:14:48Z</time>
      </trkpt>
      <trkpt lat="43.53834" lon="3.29602">
        <ele>122.705444</ele>
        <time>2012-02-05T13:14:56Z</time>
      </trkpt>
      <trkpt lat="43.53853" lon="3.29619">
        <ele>124.147339</ele>
        <time>2012-02-05T13:15:03Z</time>
      </trkpt>
      <trkpt lat="43.5388" lon="3.29643">
        <ele>126.069946</ele>
        <time>2012-02-05T13:15:13Z</time>
      </trkpt>
      <trkpt lat="43.53902" lon="3.29651">
        <ele>127.511963</ele>
        <time>2012-02-05T13:15:21Z</time>
      </trkpt>
      <trkpt lat="43.53913" lon="3.29635">
        <ele>128.473389</ele>
        <time>2012-02-05T13:15:26Z</time>
      </trkpt>
      <trkpt lat="43.53927" lon="3.29609">
        <ele>128.954102</ele>
        <time>2012-02-05T13:15:33Z</time>
      </trkpt>
      <trkpt lat="43.53941" lon="3.29602">
        <ele>129.434692</ele>
        <time>2012-02-05T13:15:38Z</time>
      </trkpt>
      <trkpt lat="43.53958" lon="3.29599">
        <ele>130.876709</ele>
        <time>2012-02-05T13:15:44Z</time>
      </trkpt>
      <trkpt lat="43.53984" lon="3.29598">
        <ele>132.799316</ele>
        <time>2012-02-05T13:15:53Z</time>
      </trkpt>
      <trkpt lat="43.54002" lon="3.29608">
        <ele>133.760498</ele>
        <time>2012-02-05T13:16:00Z</time>
      </trkpt>
      <trkpt lat="43.54022" lon="3.29614">
        <ele>134.241211</ele>
        <time>2012-02-05T13:16:07Z</time>
      </trkpt>
      <trkpt lat="43.54034" lon="3.29602">
        <ele>134.721924</ele>
        <time>2012-02-05T13:16:12Z</time>
      </trkpt>
      <trkpt lat="43.54053" lon="3.29568">
        <ele>136.644653</ele>
        <time>2012-02-05T13:16:22Z</time>
      </trkpt>
      <trkpt lat="43.54071" lon="3.2954">
        <ele>134.721924</ele>
        <time>2012-02-05T13:16:29Z</time>
      </trkpt>
      <trkpt lat="43.54104" lon="3.29497">
        <ele>133.760498</ele>
        <time>2012-02-05T13:16:38Z</time>
      </trkpt>
      <trkpt lat="43.54129" lon="3.29467">
        <ele>134.241211</ele>
        <time>2012-02-05T13:16:46Z</time>
      </trkpt>
      <trkpt lat="43.54151" lon="3.29438">
        <ele>135.202515</ele>
        <time>2012-02-05T13:16:54Z</time>
      </trkpt>
      <trkpt lat="43.54176" lon="3.29406">
        <ele>136.644653</ele>
        <time>2012-02-05T13:17:04Z</time>
      </trkpt>
      <trkpt lat="43.54195" lon="3.29379">
        <ele>138.567261</ele>
        <time>2012-02-05T13:17:13Z</time>
      </trkpt>
      <trkpt lat="43.54215" lon="3.29361">
        <ele>139.047852</ele>
        <time>2012-02-05T13:17:21Z</time>
      </trkpt>
      <trkpt lat="43.54241" lon="3.29348">
        <ele>140.970459</ele>
        <time>2012-02-05T13:17:30Z</time>
      </trkpt>
      <trkpt lat="43.54271" lon="3.29337">
        <ele>140.970459</ele>
        <time>2012-02-05T13:17:39Z</time>
      </trkpt>
      <trkpt lat="43.54288" lon="3.2934">
        <ele>140.489868</ele>
        <time>2012-02-05T13:17:44Z</time>
      </trkpt>
      <trkpt lat="43.54319" lon="3.29358">
        <ele>140.489868</ele>
        <time>2012-02-05T13:17:53Z</time>
      </trkpt>
      <trkpt lat="43.54337" lon="3.29363">
        <ele>141.931763</ele>
        <time>2012-02-05T13:17:59Z</time>
      </trkpt>
      <trkpt lat="43.54366" lon="3.29362">
        <ele>142.893066</ele>
        <time>2012-02-05T13:18:08Z</time>
      </trkpt>
      <trkpt lat="43.54401" lon="3.29364">
        <ele>143.373657</ele>
        <time>2012-02-05T13:18:18Z</time>
      </trkpt>
      <trkpt lat="43.54425" lon="3.29377">
        <ele>145.296387</ele>
        <time>2012-02-05T13:18:26Z</time>
      </trkpt>
      <trkpt lat="43.54446" lon="3.29395">
        <ele>147.699707</ele>
        <time>2012-02-05T13:18:34Z</time>
      </trkpt>
      <trkpt lat="43.54474" lon="3.29405">
        <ele>149.141602</ele>
        <time>2012-02-05T13:18:43Z</time>
      </trkpt>
      <trkpt lat="43.54499" lon="3.29418">
        <ele>150.583618</ele>
        <time>2012-02-05T13:18:52Z</time>
      </trkpt>
      <trkpt lat="43.54519" lon="3.2943">
        <ele>152.025757</ele>
        <time>2012-02-05T13:19:00Z</time>
      </trkpt>
      <trkpt lat="43.54525" lon="3.2942">
        <ele>152.506348</ele>
        <time>2012-02-05T13:19:04Z</time>
      </trkpt>
      <trkpt lat="43.54527" lon="3.29386">
        <ele>152.986939</ele>
        <time>2012-02-05T13:19:12Z</time>
      </trkpt>
      <trkpt lat="43.54531" lon="3.29351">
        <ele>152.986939</ele>
        <time>2012-02-05T13:19:20Z</time>
      </trkpt>
      <trkpt lat="43.54537" lon="3.29315">
        <ele>152.986939</ele>
        <time>2012-02-05T13:19:28Z</time>
      </trkpt>
      <trkpt lat="43.54547" lon="3.29284">
        <ele>152.986939</ele>
        <time>2012-02-05T13:19:35Z</time>
      </trkpt>
      <trkpt lat="43.54565" lon="3.29248">
        <ele>153.467651</ele>
        <time>2012-02-05T13:19:44Z</time>
      </trkpt>
      <trkpt lat="43.54585" lon="3.29217">
        <ele>154.428955</ele>
        <time>2012-02-05T13:19:53Z</time>
      </trkpt>
      <trkpt lat="43.54602" lon="3.29189">
        <ele>156.351562</ele>
        <time>2012-02-05T13:20:01Z</time>
      </trkpt>
      <trkpt lat="43.54627" lon="3.29156">
        <ele>157.312866</ele>
        <time>2012-02-05T13:20:11Z</time>
      </trkpt>
      <trkpt lat="43.54647" lon="3.2914">
        <ele>157.312866</ele>
        <time>2012-02-05T13:20:17Z</time>
      </trkpt>
      <trkpt lat="43.54666" lon="3.29116">
        <ele>156.351562</ele>
        <time>2012-02-05T13:20:23Z</time>
      </trkpt>
      <trkpt lat="43.54668" lon="3.2911">
        <ele>156.832153</ele>
        <time>2012-02-05T13:20:24Z</time>
      </trkpt>
      <trkpt lat="43.54679" lon="3.29075">
        <ele>159.716186</ele>
        <time>2012-02-05T13:20:32Z</time>
      </trkpt>
      <trkpt lat="43.54683" lon="3.29065">
        <ele>161.158203</ele>
        <time>2012-02-05T13:20:35Z</time>
      </trkpt>
      <trkpt lat="43.54697" lon="3.29035">
        <ele>162.119507</ele>
        <time>2012-02-05T13:20:44Z</time>
      </trkpt>
      <trkpt lat="43.547" lon="3.29026">
        <ele>162.600098</ele>
        <time>2012-02-05T13:20:47Z</time>
      </trkpt>
      <trkpt lat="43.54706" lon="3.29027">
        <ele>164.042114</ele>
        <time>2012-02-05T13:20:51Z</time>
      </trkpt>
      <trkpt lat="43.54708" lon="3.29033">
        <ele>165.003418</ele>
        <time>2012-02-05T13:20:53Z</time>
      </trkpt>
      <trkpt lat="43.54718" lon="3.29062">
        <ele>166.926025</ele>
        <time>2012-02-05T13:21:03Z</time>
      </trkpt>
      <trkpt lat="43.54733" lon="3.2909">
        <ele>168.368042</ele>
        <time>2012-02-05T13:21:13Z</time>
      </trkpt>
      <trkpt lat="43.54747" lon="3.29115">
        <ele>170.290649</ele>
        <time>2012-02-05T13:21:22Z</time>
      </trkpt>
      <trkpt lat="43.54764" lon="3.29145">
        <ele>172.69397</ele>
        <time>2012-02-05T13:21:33Z</time>
      </trkpt>
      <trkpt lat="43.54773" lon="3.29171">
        <ele>173.655273</ele>
        <time>2012-02-05T13:21:41Z</time>
      </trkpt>
      <trkpt lat="43.54784" lon="3.29191">
        <ele>176.058594</ele>
        <time>2012-02-05T13:21:48Z</time>
      </trkpt>
      <trkpt lat="43.54795" lon="3.29201">
        <ele>176.539307</ele>
        <time>2012-02-05T13:21:53Z</time>
      </trkpt>
      <trkpt lat="43.548" lon="3.29193">
        <ele>177.50061</ele>
        <time>2012-02-05T13:21:57Z</time>
      </trkpt>
      <trkpt lat="43.54799" lon="3.2919">
        <ele>177.50061</ele>
        <time>2012-02-05T13:21:58Z</time>
      </trkpt>
      <trkpt lat="43.5479" lon="3.29162">
        <ele>179.423218</ele>
        <time>2012-02-05T13:22:06Z</time>
      </trkpt>
      <trkpt lat="43.54788" lon="3.29125">
        <ele>181.345825</ele>
        <time>2012-02-05T13:22:16Z</time>
      </trkpt>
      <trkpt lat="43.54786" lon="3.29084">
        <ele>183.749023</ele>
        <time>2012-02-05T13:22:27Z</time>
      </trkpt>
      <trkpt lat="43.54784" lon="3.29048">
        <ele>185.191162</ele>
        <time>2012-02-05T13:22:37Z</time>
      </trkpt>
      <trkpt lat="43.54783" lon="3.29007">
        <ele>187.59436</ele>
        <time>2012-02-05T13:22:48Z</time>
      </trkpt>
      <trkpt lat="43.54787" lon="3.28974">
        <ele>189.997681</ele>
        <time>2012-02-05T13:22:57Z</time>
      </trkpt>
      <trkpt lat="43.54796" lon="3.28936">
        <ele>191.439575</ele>
        <time>2012-02-05T13:23:08Z</time>
      </trkpt>
      <trkpt lat="43.54801" lon="3.28919">
        <ele>192.881714</ele>
        <time>2012-02-05T13:23:13Z</time>
      </trkpt>
      <trkpt lat="43.54813" lon="3.28882">
        <ele>195.765625</ele>
        <time>2012-02-05T13:23:24Z</time>
      </trkpt>
      <trkpt lat="43.54824" lon="3.28853">
        <ele>197.207519</ele>
        <time>2012-02-05T13:23:33Z</time>
      </trkpt>
      <trkpt lat="43.54836" lon="3.28828">
        <ele>198.168945</ele>
        <time>2012-02-05T13:23:41Z</time>
      </trkpt>
      <trkpt lat="43.54856" lon="3.2879">
        <ele>200.091675</ele>
        <time>2012-02-05T13:23:53Z</time>
      </trkpt>
      <trkpt lat="43.54879" lon="3.28756">
        <ele>202.014282</ele>
        <time>2012-02-05T13:24:04Z</time>
      </trkpt>
      <trkpt lat="43.54899" lon="3.28746">
        <ele>202.494873</ele>
        <time>2012-02-05T13:24:10Z</time>
      </trkpt>
      <trkpt lat="43.54929" lon="3.28731">
        <ele>202.494873</ele>
        <time>2012-02-05T13:24:19Z</time>
      </trkpt>
      <trkpt lat="43.54952" lon="3.28715">
        <ele>202.975464</ele>
        <time>2012-02-05T13:24:26Z</time>
      </trkpt>
      <trkpt lat="43.54973" lon="3.28698">
        <ele>202.014282</ele>
        <time>2012-02-05T13:24:33Z</time>
      </trkpt>
      <trkpt lat="43.54999" lon="3.28686">
        <ele>202.975464</ele>
        <time>2012-02-05T13:24:41Z</time>
      </trkpt>
      <trkpt lat="43.55032" lon="3.28687">
        <ele>201.052856</ele>
        <time>2012-02-05T13:24:50Z</time>
      </trkpt>
      <trkpt lat="43.55057" lon="3.28689">
        <ele>200.572266</ele>
        <time>2012-02-05T13:24:57Z</time>
      </trkpt>
      <trkpt lat="43.55076" lon="3.28683">
        <ele>201.533569</ele>
        <time>2012-02-05T13:25:03Z</time>
      </trkpt>
      <trkpt lat="43.55098" lon="3.28675">
        <ele>203.456177</ele>
        <time>2012-02-05T13:25:11Z</time>
      </trkpt>
      <trkpt lat="43.55113" lon="3.28683">
        <ele>204.417481</ele>
        <time>2012-02-05T13:25:17Z</time>
      </trkpt>
      <trkpt lat="43.55126" lon="3.28688">
        <ele>205.378784</ele>
        <time>2012-02-05T13:25:22Z</time>
      </trkpt>
      <trkpt lat="43.55134" lon="3.28671">
        <ele>205.378784</ele>
        <time>2012-02-05T13:25:27Z</time>
      </trkpt>
      <trkpt lat="43.55133" lon="3.28667">
        <ele>205.378784</ele>
        <time>2012-02-05T13:25:28Z</time>
      </trkpt>
      <trkpt lat="43.55121" lon="3.28636">
        <ele>206.340088</ele>
        <time>2012-02-05T13:25:36Z</time>
      </trkpt>
      <trkpt lat="43.55106" lon="3.28611">
        <ele>207.301392</ele>
        <time>2012-02-05T13:25:44Z</time>
      </trkpt>
      <trkpt lat="43.55093" lon="3.28593">
        <ele>208.743408</ele>
        <time>2012-02-05T13:25:51Z</time>
      </trkpt>
      <trkpt lat="43.55087" lon="3.28582">
        <ele>208.743408</ele>
        <time>2012-02-05T13:25:55Z</time>
      </trkpt>
      <trkpt lat="43.55088" lon="3.28572">
        <ele>209.224121</ele>
        <time>2012-02-05T13:25:59Z</time>
      </trkpt>
      <trkpt lat="43.55089" lon="3.28572">
        <ele>209.704834</ele>
        <time>2012-02-05T13:26:00Z</time>
      </trkpt>
      <trkpt lat="43.55096" lon="3.28583">
        <ele>210.185425</ele>
        <time>2012-02-05T13:26:06Z</time>
      </trkpt>
      <trkpt lat="43.55104" lon="3.28595">
        <ele>210.666016</ele>
        <time>2012-02-05T13:26:11Z</time>
      </trkpt>
      <trkpt lat="43.55122" lon="3.2861">
        <ele>212.108032</ele>
        <time>2012-02-05T13:26:20Z</time>
      </trkpt>
      <trkpt lat="43.55135" lon="3.28623">
        <ele>213.550049</ele>
        <time>2012-02-05T13:26:27Z</time>
      </trkpt>
      <trkpt lat="43.55154" lon="3.28639">
        <ele>214.991943</ele>
        <time>2012-02-05T13:26:36Z</time>
      </trkpt>
      <trkpt lat="43.55173" lon="3.28659">
        <ele>216.43396</ele>
        <time>2012-02-05T13:26:45Z</time>
      </trkpt>
      <trkpt lat="43.55183" lon="3.28681">
        <ele>217.875977</ele>
        <time>2012-02-05T13:26:52Z</time>
      </trkpt>
      <trkpt lat="43.55191" lon="3.28704">
        <ele>220.279175</ele>
        <time>2012-02-05T13:26:59Z</time>
      </trkpt>
      <trkpt lat="43.55197" lon="3.28726">
        <ele>220.279175</ele>
        <time>2012-02-05T13:27:05Z</time>
      </trkpt>
      <trkpt lat="43.55209" lon="3.28758">
        <ele>222.201782</ele>
        <time>2012-02-05T13:27:15Z</time>
      </trkpt>
      <trkpt lat="43.55226" lon="3.28779">
        <ele>224.124512</ele>
        <time>2012-02-05T13:27:24Z</time>
      </trkpt>
      <trkpt lat="43.55233" lon="3.28788">
        <ele>224.605225</ele>
        <time>2012-02-05T13:27:28Z</time>
      </trkpt>
      <trkpt lat="43.55229" lon="3.28806">
        <ele>225.085938</ele>
        <time>2012-02-05T13:27:34Z</time>
      </trkpt>
      <trkpt lat="43.55216" lon="3.28829">
        <ele>226.047119</ele>
        <time>2012-02-05T13:27:42Z</time>
      </trkpt>
      <trkpt lat="43.55202" lon="3.28841">
        <ele>227.008545</ele>
        <time>2012-02-05T13:27:48Z</time>
      </trkpt>
      <trkpt lat="43.55179" lon="3.28849">
        <ele>228.450439</ele>
        <time>2012-02-05T13:27:57Z</time>
      </trkpt>
      <trkpt lat="43.5516" lon="3.2885">
        <ele>230.373047</ele>
        <time>2012-02-05T13:28:04Z</time>
      </trkpt>
      <trkpt lat="43.55147" lon="3.28846">
        <ele>232.295776</ele>
        <time>2012-02-05T13:28:09Z</time>
      </trkpt>
      <trkpt lat="43.55143" lon="3.28854">
        <ele>234.218384</ele>
        <time>2012-02-05T13:28:13Z</time>
      </trkpt>
      <trkpt lat="43.55153" lon="3.28864">
        <ele>235.660278</ele>
        <time>2012-02-05T13:28:18Z</time>
      </trkpt>
      <trkpt lat="43.55173" lon="3.28881">
        <ele>237.102295</ele>
        <time>2012-02-05T13:28:28Z</time>
      </trkpt>
      <trkpt lat="43.55189" lon="3.2889">
        <ele>238.544311</ele>
        <time>2012-02-05T13:28:35Z</time>
      </trkpt>
      <trkpt lat="43.55211" lon="3.28901">
        <ele>239.986206</ele>
        <time>2012-02-05T13:28:44Z</time>
      </trkpt>
      <trkpt lat="43.5523" lon="3.28907">
        <ele>242.389648</ele>
        <time>2012-02-05T13:28:52Z</time>
      </trkpt>
      <trkpt lat="43.55247" lon="3.28911">
        <ele>243.831543</ele>
        <time>2012-02-05T13:29:00Z</time>
      </trkpt>
      <trkpt lat="43.55262" lon="3.2891">
        <ele>245.273438</ele>
        <time>2012-02-05T13:29:07Z</time>
      </trkpt>
      <trkpt lat="43.55282" lon="3.28913">
        <ele>246.715454</ele>
        <time>2012-02-05T13:29:16Z</time>
      </trkpt>
      <trkpt lat="43.55302" lon="3.28916">
        <ele>248.638184</ele>
        <time>2012-02-05T13:29:25Z</time>
      </trkpt>
      <trkpt lat="43.55327" lon="3.28921">
        <ele>250.560791</ele>
        <time>2012-02-05T13:29:36Z</time>
      </trkpt>
      <trkpt lat="43.55345" lon="3.28916">
        <ele>252.483398</ele>
        <time>2012-02-05T13:29:44Z</time>
      </trkpt>
      <trkpt lat="43.55359" lon="3.28905">
        <ele>254.886597</ele>
        <time>2012-02-05T13:29:51Z</time>
      </trkpt>
      <trkpt lat="43.55371" lon="3.28893">
        <ele>256.328735</ele>
        <time>2012-02-05T13:29:57Z</time>
      </trkpt>
      <trkpt lat="43.55387" lon="3.28875">
        <ele>257.290039</ele>
        <time>2012-02-05T13:30:06Z</time>
      </trkpt>
      <trkpt lat="43.55397" lon="3.28858">
        <ele>258.251343</ele>
        <time>2012-02-05T13:30:13Z</time>
      </trkpt>
      <trkpt lat="43.55397" lon="3.28828">
        <ele>260.654541</ele>
        <time>2012-02-05T13:30:23Z</time>
      </trkpt>
      <trkpt lat="43.55393" lon="3.28809">
        <ele>261.615967</ele>
        <time>2012-02-05T13:30:29Z</time>
      </trkpt>
      <trkpt lat="43.55398" lon="3.28788">
        <ele>263.538574</ele>
        <time>2012-02-05T13:30:36Z</time>
      </trkpt>
      <trkpt lat="43.55407" lon="3.28771">
        <ele>265.461304</ele>
        <time>2012-02-05T13:30:43Z</time>
      </trkpt>
      <trkpt lat="43.55418" lon="3.28764">
        <ele>265.941894</ele>
        <time>2012-02-05T13:30:49Z</time>
      </trkpt>
      <trkpt lat="43.5542" lon="3.28764">
        <ele>265.941894</ele>
        <time>2012-02-05T13:30:50Z</time>
      </trkpt>
      <trkpt lat="43.55423" lon="3.28769">
        <ele>265.461304</ele>
        <time>2012-02-05T13:30:55Z</time>
      </trkpt>
      <trkpt lat="43.55421" lon="3.28772">
        <ele>265.941894</ele>
        <time>2012-02-05T13:32:00Z</time>
      </trkpt>
      <trkpt lat="43.55427" lon="3.28787">
        <ele>266.422485</ele>
        <time>2012-02-05T13:32:05Z</time>
      </trkpt>
      <trkpt lat="43.55441" lon="3.28803">
        <ele>266.903198</ele>
        <time>2012-02-05T13:32:12Z</time>
      </trkpt>
      <trkpt lat="43.55452" lon="3.28821">
        <ele>266.903198</ele>
        <time>2012-02-05T13:32:18Z</time>
      </trkpt>
      <trkpt lat="43.55453" lon="3.28831">
        <ele>267.383911</ele>
        <time>2012-02-05T13:32:22Z</time>
      </trkpt>
      <trkpt lat="43.55454" lon="3.28833">
        <ele>266.903198</ele>
        <time>2012-02-05T13:32:25Z</time>
      </trkpt>
      <trkpt lat="43.55456" lon="3.28833">
        <ele>266.903198</ele>
        <time>2012-02-05T13:33:00Z</time>
      </trkpt>
      <trkpt lat="43.55455" lon="3.28835">
        <ele>266.903198</ele>
        <time>2012-02-05T13:33:03Z</time>
      </trkpt>
      <trkpt lat="43.55455" lon="3.28836">
        <ele>266.422485</ele>
        <time>2012-02-05T13:33:25Z</time>
      </trkpt>
      <trkpt lat="43.55454" lon="3.28837">
        <ele>265.941894</ele>
        <time>2012-02-05T13:33:26Z</time>
      </trkpt>
      <trkpt lat="43.55446" lon="3.28847">
        <ele>266.903198</ele>
        <time>2012-02-05T13:33:30Z</time>
      </trkpt>
      <trkpt lat="43.55443" lon="3.2885">
        <ele>266.422485</ele>
        <time>2012-02-05T13:33:31Z</time>
      </trkpt>
      <trkpt lat="43.55423" lon="3.28869">
        <ele>264.980591</ele>
        <time>2012-02-05T13:33:37Z</time>
      </trkpt>
      <trkpt lat="43.55421" lon="3.28875">
        <ele>265.461304</ele>
        <time>2012-02-05T13:33:38Z</time>
      </trkpt>
      <trkpt lat="43.55413" lon="3.28899">
        <ele>264.499878</ele>
        <time>2012-02-05T13:33:42Z</time>
      </trkpt>
      <trkpt lat="43.55405" lon="3.2892">
        <ele>265.461304</ele>
        <time>2012-02-05T13:33:46Z</time>
      </trkpt>
      <trkpt lat="43.55398" lon="3.2893">
        <ele>264.019287</ele>
        <time>2012-02-05T13:33:49Z</time>
      </trkpt>
      <trkpt lat="43.55392" lon="3.28943">
        <ele>264.980591</ele>
        <time>2012-02-05T13:33:53Z</time>
      </trkpt>
      <trkpt lat="43.55385" lon="3.28959">
        <ele>264.980591</ele>
        <time>2012-02-05T13:33:57Z</time>
      </trkpt>
      <trkpt lat="43.5538" lon="3.28974">
        <ele>265.461304</ele>
        <time>2012-02-05T13:34:00Z</time>
      </trkpt>
      <trkpt lat="43.5537" lon="3.28994">
        <ele>265.461304</ele>
        <time>2012-02-05T13:34:05Z</time>
      </trkpt>
      <trkpt lat="43.55367" lon="3.28998">
        <ele>265.461304</ele>
        <time>2012-02-05T13:34:06Z</time>
      </trkpt>
      <trkpt lat="43.5535" lon="3.28997">
        <ele>265.461304</ele>
        <time>2012-02-05T13:34:10Z</time>
      </trkpt>
      <trkpt lat="43.55335" lon="3.28985">
        <ele>264.499878</ele>
        <time>2012-02-05T13:34:14Z</time>
      </trkpt>
      <trkpt lat="43.55322" lon="3.28985">
        <ele>264.499878</ele>
        <time>2012-02-05T13:34:17Z</time>
      </trkpt>
      <trkpt lat="43.55293" lon="3.28979">
        <ele>264.019287</ele>
        <time>2012-02-05T13:34:23Z</time>
      </trkpt>
      <trkpt lat="43.5528" lon="3.28976">
        <ele>263.057861</ele>
        <time>2012-02-05T13:34:26Z</time>
      </trkpt>
      <trkpt lat="43.55277" lon="3.28978">
        <ele>263.057861</ele>
        <time>2012-02-05T13:34:27Z</time>
      </trkpt>
      <trkpt lat="43.55269" lon="3.28981">
        <ele>263.538574</ele>
        <time>2012-02-05T13:34:29Z</time>
      </trkpt>
      <trkpt lat="43.55252" lon="3.28986">
        <ele>264.499878</ele>
        <time>2012-02-05T13:34:33Z</time>
      </trkpt>
      <trkpt lat="43.55237" lon="3.28989">
        <ele>264.019287</ele>
        <time>2012-02-05T13:34:36Z</time>
      </trkpt>
      <trkpt lat="43.55228" lon="3.2899">
        <ele>263.538574</ele>
        <time>2012-02-05T13:34:38Z</time>
      </trkpt>
      <trkpt lat="43.55207" lon="3.29">
        <ele>263.057861</ele>
        <time>2012-02-05T13:34:43Z</time>
      </trkpt>
      <trkpt lat="43.55191" lon="3.29002">
        <ele>263.057861</ele>
        <time>2012-02-05T13:34:49Z</time>
      </trkpt>
      <trkpt lat="43.55173" lon="3.29">
        <ele>263.057861</ele>
        <time>2012-02-05T13:34:54Z</time>
      </trkpt>
      <trkpt lat="43.55161" lon="3.29006">
        <ele>262.577148</ele>
        <time>2012-02-05T13:34:58Z</time>
      </trkpt>
      <trkpt lat="43.55151" lon="3.29005">
        <ele>262.096558</ele>
        <time>2012-02-05T13:35:02Z</time>
      </trkpt>
      <trkpt lat="43.55142" lon="3.29008">
        <ele>262.577148</ele>
        <time>2012-02-05T13:35:05Z</time>
      </trkpt>
      <trkpt lat="43.55139" lon="3.29011">
        <ele>262.096558</ele>
        <time>2012-02-05T13:35:06Z</time>
      </trkpt>
      <trkpt lat="43.55126" lon="3.29013">
        <ele>261.615967</ele>
        <time>2012-02-05T13:35:11Z</time>
      </trkpt>
      <trkpt lat="43.55113" lon="3.29022">
        <ele>260.654541</ele>
        <time>2012-02-05T13:35:17Z</time>
      </trkpt>
      <trkpt lat="43.55104" lon="3.29028">
        <ele>260.654541</ele>
        <time>2012-02-05T13:35:21Z</time>
      </trkpt>
      <trkpt lat="43.55087" lon="3.29019">
        <ele>260.17395</ele>
        <time>2012-02-05T13:35:26Z</time>
      </trkpt>
      <trkpt lat="43.5508" lon="3.29003">
        <ele>259.693359</ele>
        <time>2012-02-05T13:35:30Z</time>
      </trkpt>
      <trkpt lat="43.55073" lon="3.28992">
        <ele>260.17395</ele>
        <time>2012-02-05T13:35:33Z</time>
      </trkpt>
      <trkpt lat="43.5506" lon="3.28981">
        <ele>259.212647</ele>
        <time>2012-02-05T13:35:37Z</time>
      </trkpt>
      <trkpt lat="43.55058" lon="3.28957">
        <ele>259.693359</ele>
        <time>2012-02-05T13:35:41Z</time>
      </trkpt>
      <trkpt lat="43.55047" lon="3.28948">
        <ele>258.731934</ele>
        <time>2012-02-05T13:35:44Z</time>
      </trkpt>
      <trkpt lat="43.55039" lon="3.28946">
        <ele>257.290039</ele>
        <time>2012-02-05T13:35:46Z</time>
      </trkpt>
      <trkpt lat="43.55016" lon="3.28946">
        <ele>257.770752</ele>
        <time>2012-02-05T13:35:51Z</time>
      </trkpt>
      <trkpt lat="43.55012" lon="3.28947">
        <ele>257.770752</ele>
        <time>2012-02-05T13:35:52Z</time>
      </trkpt>
      <trkpt lat="43.54988" lon="3.28955">
        <ele>256.809326</ele>
        <time>2012-02-05T13:35:57Z</time>
      </trkpt>
      <trkpt lat="43.5497" lon="3.28974">
        <ele>256.328735</ele>
        <time>2012-02-05T13:36:02Z</time>
      </trkpt>
      <trkpt lat="43.54953" lon="3.28986">
        <ele>256.809326</ele>
        <time>2012-02-05T13:36:06Z</time>
      </trkpt>
      <trkpt lat="43.54949" lon="3.28991">
        <ele>256.328735</ele>
        <time>2012-02-05T13:36:07Z</time>
      </trkpt>
      <trkpt lat="43.54942" lon="3.29022">
        <ele>255.848023</ele>
        <time>2012-02-05T13:36:12Z</time>
      </trkpt>
      <trkpt lat="43.54953" lon="3.29032">
        <ele>255.848023</ele>
        <time>2012-02-05T13:36:15Z</time>
      </trkpt>
      <trkpt lat="43.54964" lon="3.29034">
        <ele>256.809326</ele>
        <time>2012-02-05T13:36:18Z</time>
      </trkpt>
      <trkpt lat="43.54971" lon="3.2904">
        <ele>257.290039</ele>
        <time>2012-02-05T13:36:20Z</time>
      </trkpt>
      <trkpt lat="43.54986" lon="3.29065">
        <ele>257.770752</ele>
        <time>2012-02-05T13:36:25Z</time>
      </trkpt>
      <trkpt lat="43.54999" lon="3.29071">
        <ele>257.290039</ele>
        <time>2012-02-05T13:36:30Z</time>
      </trkpt>
      <trkpt lat="43.55007" lon="3.29059">
        <ele>258.731934</ele>
        <time>2012-02-05T13:36:33Z</time>
      </trkpt>
      <trkpt lat="43.55012" lon="3.2905">
        <ele>258.731934</ele>
        <time>2012-02-05T13:36:35Z</time>
      </trkpt>
      <trkpt lat="43.55025" lon="3.29051">
        <ele>259.212647</ele>
        <time>2012-02-05T13:36:39Z</time>
      </trkpt>
      <trkpt lat="43.55042" lon="3.29058">
        <ele>259.212647</ele>
        <time>2012-02-05T13:36:44Z</time>
      </trkpt>
      <trkpt lat="43.55046" lon="3.29059">
        <ele>259.212647</ele>
        <time>2012-02-05T13:36:45Z</time>
      </trkpt>
      <trkpt lat="43.55065" lon="3.29063">
        <ele>259.212647</ele>
        <time>2012-02-05T13:36:50Z</time>
      </trkpt>
      <trkpt lat="43.55074" lon="3.29077">
        <ele>259.212647</ele>
        <time>2012-02-05T13:36:53Z</time>
      </trkpt>
      <trkpt lat="43.55087" lon="3.29083">
        <ele>259.212647</ele>
        <time>2012-02-05T13:36:56Z</time>
      </trkpt>
      <trkpt lat="43.55093" lon="3.29075">
        <ele>259.212647</ele>
        <time>2012-02-05T13:36:58Z</time>
      </trkpt>
      <trkpt lat="43.55104" lon="3.2905">
        <ele>260.17395</ele>
        <time>2012-02-05T13:37:04Z</time>
      </trkpt>
      <trkpt lat="43.55114" lon="3.29047">
        <ele>260.654541</ele>
        <time>2012-02-05T13:37:07Z</time>
      </trkpt>
      <trkpt lat="43.55138" lon="3.29059">
        <ele>260.654541</ele>
        <time>2012-02-05T13:37:13Z</time>
      </trkpt>
      <trkpt lat="43.5515" lon="3.29061">
        <ele>260.654541</ele>
        <time>2012-02-05T13:37:16Z</time>
      </trkpt>
      <trkpt lat="43.55173" lon="3.29051">
        <ele>262.577148</ele>
        <time>2012-02-05T13:37:22Z</time>
      </trkpt>
      <trkpt lat="43.55177" lon="3.29053">
        <ele>262.096558</ele>
        <time>2012-02-05T13:37:23Z</time>
      </trkpt>
      <trkpt lat="43.55185" lon="3.29056">
        <ele>262.577148</ele>
        <time>2012-02-05T13:37:25Z</time>
      </trkpt>
      <trkpt lat="43.552" lon="3.29051">
        <ele>261.615967</ele>
        <time>2012-02-05T13:37:29Z</time>
      </trkpt>
      <trkpt lat="43.55218" lon="3.29035">
        <ele>263.057861</ele>
        <time>2012-02-05T13:37:35Z</time>
      </trkpt>
      <trkpt lat="43.55229" lon="3.29029">
        <ele>263.538574</ele>
        <time>2012-02-05T13:37:39Z</time>
      </trkpt>
      <trkpt lat="43.55245" lon="3.29043">
        <ele>264.019287</ele>
        <time>2012-02-05T13:37:44Z</time>
      </trkpt>
      <trkpt lat="43.55275" lon="3.29054">
        <ele>264.980591</ele>
        <time>2012-02-05T13:37:52Z</time>
      </trkpt>
      <trkpt lat="43.55297" lon="3.29061">
        <ele>264.499878</ele>
        <time>2012-02-05T13:37:58Z</time>
      </trkpt>
      <trkpt lat="43.553" lon="3.29062">
        <ele>264.499878</ele>
        <time>2012-02-05T13:38:02Z</time>
      </trkpt>
      <trkpt lat="43.55303" lon="3.29061">
        <ele>263.057861</ele>
        <time>2012-02-05T13:44:07Z</time>
      </trkpt>
      <trkpt lat="43.55312" lon="3.29054">
        <ele>263.538574</ele>
        <time>2012-02-05T13:44:14Z</time>
      </trkpt>
      <trkpt lat="43.55326" lon="3.29044">
        <ele>264.019287</ele>
        <time>2012-02-05T13:44:19Z</time>
      </trkpt>
      <trkpt lat="43.55342" lon="3.2904">
        <ele>264.019287</ele>
        <time>2012-02-05T13:44:23Z</time>
      </trkpt>
      <trkpt lat="43.55358" lon="3.29034">
        <ele>264.980591</ele>
        <time>2012-02-05T13:44:27Z</time>
      </trkpt>
      <trkpt lat="43.55372" lon="3.29039">
        <ele>265.941894</ele>
        <time>2012-02-05T13:44:31Z</time>
      </trkpt>
      <trkpt lat="43.55392" lon="3.29046">
        <ele>265.461304</ele>
        <time>2012-02-05T13:44:36Z</time>
      </trkpt>
      <trkpt lat="43.55402" lon="3.29028">
        <ele>266.422485</ele>
        <time>2012-02-05T13:44:40Z</time>
      </trkpt>
      <trkpt lat="43.55416" lon="3.29013">
        <ele>266.422485</ele>
        <time>2012-02-05T13:44:44Z</time>
      </trkpt>
      <trkpt lat="43.55424" lon="3.29015">
        <ele>266.422485</ele>
        <time>2012-02-05T13:44:46Z</time>
      </trkpt>
      <trkpt lat="43.55446" lon="3.29019">
        <ele>265.941894</ele>
        <time>2012-02-05T13:44:51Z</time>
      </trkpt>
      <trkpt lat="43.55455" lon="3.29018">
        <ele>266.903198</ele>
        <time>2012-02-05T13:44:53Z</time>
      </trkpt>
      <trkpt lat="43.55473" lon="3.29004">
        <ele>266.903198</ele>
        <time>2012-02-05T13:44:58Z</time>
      </trkpt>
      <trkpt lat="43.55481" lon="3.28993">
        <ele>266.903198</ele>
        <time>2012-02-05T13:45:01Z</time>
      </trkpt>
      <trkpt lat="43.55497" lon="3.28985">
        <ele>267.864502</ele>
        <time>2012-02-05T13:45:07Z</time>
      </trkpt>
      <trkpt lat="43.55509" lon="3.28974">
        <ele>267.864502</ele>
        <time>2012-02-05T13:45:11Z</time>
      </trkpt>
      <trkpt lat="43.55525" lon="3.28954">
        <ele>267.864502</ele>
        <time>2012-02-05T13:45:17Z</time>
      </trkpt>
      <trkpt lat="43.55531" lon="3.2894">
        <ele>268.825806</ele>
        <time>2012-02-05T13:45:20Z</time>
      </trkpt>
      <trkpt lat="43.55537" lon="3.28936">
        <ele>267.383911</ele>
        <time>2012-02-05T13:45:24Z</time>
      </trkpt>
      <trkpt lat="43.55543" lon="3.28931">
        <ele>264.019287</ele>
        <time>2012-02-05T13:45:28Z</time>
      </trkpt>
      <trkpt lat="43.55549" lon="3.28928">
        <ele>262.096558</ele>
        <time>2012-02-05T13:45:30Z</time>
      </trkpt>
      <trkpt lat="43.55554" lon="3.2893">
        <ele>260.654541</ele>
        <time>2012-02-05T13:45:32Z</time>
      </trkpt>
      <trkpt lat="43.55566" lon="3.28933">
        <ele>258.731934</ele>
        <time>2012-02-05T13:45:37Z</time>
      </trkpt>
      <trkpt lat="43.55574" lon="3.2893">
        <ele>256.809326</ele>
        <time>2012-02-05T13:45:40Z</time>
      </trkpt>
      <trkpt lat="43.55577" lon="3.2893">
        <ele>256.809326</ele>
        <time>2012-02-05T13:45:41Z</time>
      </trkpt>
      <trkpt lat="43.55583" lon="3.28932">
        <ele>256.328735</ele>
        <time>2012-02-05T13:45:43Z</time>
      </trkpt>
      <trkpt lat="43.55598" lon="3.28929">
        <ele>253.444702</ele>
        <time>2012-02-05T13:45:48Z</time>
      </trkpt>
      <trkpt lat="43.556" lon="3.28915">
        <ele>255.36731</ele>
        <time>2012-02-05T13:45:52Z</time>
      </trkpt>
      <trkpt lat="43.55604" lon="3.28893">
        <ele>256.809326</ele>
        <time>2012-02-05T13:45:58Z</time>
      </trkpt>
      <trkpt lat="43.55606" lon="3.28886">
        <ele>256.328735</ele>
        <time>2012-02-05T13:46:00Z</time>
      </trkpt>
      <trkpt lat="43.55618" lon="3.28881">
        <ele>257.290039</ele>
        <time>2012-02-05T13:46:05Z</time>
      </trkpt>
      <trkpt lat="43.55632" lon="3.2888">
        <ele>257.770752</ele>
        <time>2012-02-05T13:46:10Z</time>
      </trkpt>
      <trkpt lat="43.55646" lon="3.28874">
        <ele>258.731934</ele>
        <time>2012-02-05T13:46:16Z</time>
      </trkpt>
      <trkpt lat="43.55663" lon="3.28867">
        <ele>261.615967</ele>
        <time>2012-02-05T13:46:24Z</time>
      </trkpt>
      <trkpt lat="43.55666" lon="3.28867">
        <ele>262.096558</ele>
        <time>2012-02-05T13:46:25Z</time>
      </trkpt>
      <trkpt lat="43.55682" lon="3.28863">
        <ele>264.980591</ele>
        <time>2012-02-05T13:46:34Z</time>
      </trkpt>
      <trkpt lat="43.55687" lon="3.28861">
        <ele>266.903198</ele>
        <time>2012-02-05T13:46:37Z</time>
      </trkpt>
      <trkpt lat="43.55701" lon="3.28863">
        <ele>268.825806</ele>
        <time>2012-02-05T13:46:45Z</time>
      </trkpt>
      <trkpt lat="43.55712" lon="3.28872">
        <ele>268.345093</ele>
        <time>2012-02-05T13:46:51Z</time>
      </trkpt>
      <trkpt lat="43.5572" lon="3.28876">
        <ele>267.864502</ele>
        <time>2012-02-05T13:46:54Z</time>
      </trkpt>
      <trkpt lat="43.55733" lon="3.28878">
        <ele>266.422485</ele>
        <time>2012-02-05T13:46:57Z</time>
      </trkpt>
      <trkpt lat="43.55743" lon="3.28884">
        <ele>264.980591</ele>
        <time>2012-02-05T13:46:59Z</time>
      </trkpt>
      <trkpt lat="43.5575" lon="3.28898">
        <ele>264.980591</ele>
        <time>2012-02-05T13:47:01Z</time>
      </trkpt>
      <trkpt lat="43.55755" lon="3.28939">
        <ele>262.096558</ele>
        <time>2012-02-05T13:47:06Z</time>
      </trkpt>
      <trkpt lat="43.55764" lon="3.28949">
        <ele>260.17395</ele>
        <time>2012-02-05T13:47:09Z</time>
      </trkpt>
      <trkpt lat="43.55772" lon="3.28941">
        <ele>259.212647</ele>
        <time>2012-02-05T13:47:11Z</time>
      </trkpt>
      <trkpt lat="43.55781" lon="3.2893">
        <ele>258.251343</ele>
        <time>2012-02-05T13:47:13Z</time>
      </trkpt>
      <trkpt lat="43.55807" lon="3.28913">
        <ele>255.848023</ele>
        <time>2012-02-05T13:47:17Z</time>
      </trkpt>
      <trkpt lat="43.55819" lon="3.28902">
        <ele>252.963989</ele>
        <time>2012-02-05T13:47:19Z</time>
      </trkpt>
      <trkpt lat="43.55851" lon="3.2888">
        <ele>249.599487</ele>
        <time>2012-02-05T13:47:24Z</time>
      </trkpt>
      <trkpt lat="43.55866" lon="3.28885">
        <ele>248.638184</ele>
        <time>2012-02-05T13:47:26Z</time>
      </trkpt>
      <trkpt lat="43.55888" lon="3.28902">
        <ele>247.196045</ele>
        <time>2012-02-05T13:47:29Z</time>
      </trkpt>
      <trkpt lat="43.55917" lon="3.28938">
        <ele>248.157593</ele>
        <time>2012-02-05T13:47:35Z</time>
      </trkpt>
      <trkpt lat="43.55932" lon="3.28959">
        <ele>248.638184</ele>
        <time>2012-02-05T13:47:40Z</time>
      </trkpt>
      <trkpt lat="43.5594" lon="3.28969">
        <ele>250.560791</ele>
        <time>2012-02-05T13:47:43Z</time>
      </trkpt>
      <trkpt lat="43.55954" lon="3.28982">
        <ele>251.522095</ele>
        <time>2012-02-05T13:47:49Z</time>
      </trkpt>
      <trkpt lat="43.55974" lon="3.28989">
        <ele>254.406006</ele>
        <time>2012-02-05T13:47:58Z</time>
      </trkpt>
      <trkpt lat="43.55984" lon="3.28992">
        <ele>256.809326</ele>
        <time>2012-02-05T13:48:03Z</time>
      </trkpt>
      <trkpt lat="43.55997" lon="3.28997">
        <ele>259.693359</ele>
        <time>2012-02-05T13:48:10Z</time>
      </trkpt>
      <trkpt lat="43.56004" lon="3.28997">
        <ele>261.615967</ele>
        <time>2012-02-05T13:48:14Z</time>
      </trkpt>
      <trkpt lat="43.56019" lon="3.28995">
        <ele>262.577148</ele>
        <time>2012-02-05T13:48:23Z</time>
      </trkpt>
      <trkpt lat="43.56034" lon="3.28991">
        <ele>263.057861</ele>
        <time>2012-02-05T13:48:31Z</time>
      </trkpt>
      <trkpt lat="43.5605" lon="3.28987">
        <ele>264.019287</ele>
        <time>2012-02-05T13:48:38Z</time>
      </trkpt>
      <trkpt lat="43.56066" lon="3.28979">
        <ele>264.980591</ele>
        <time>2012-02-05T13:48:45Z</time>
      </trkpt>
      <trkpt lat="43.56081" lon="3.28985">
        <ele>265.461304</ele>
        <time>2012-02-05T13:48:50Z</time>
      </trkpt>
      <trkpt lat="43.56106" lon="3.28997">
        <ele>265.941894</ele>
        <time>2012-02-05T13:48:57Z</time>
      </trkpt>
      <trkpt lat="43.56122" lon="3.29007">
        <ele>265.461304</ele>
        <time>2012-02-05T13:49:01Z</time>
      </trkpt>
      <trkpt lat="43.56145" lon="3.29009">
        <ele>265.941894</ele>
        <time>2012-02-05T13:49:06Z</time>
      </trkpt>
      <trkpt lat="43.56158" lon="3.29005">
        <ele>267.864502</ele>
        <time>2012-02-05T13:49:10Z</time>
      </trkpt>
      <trkpt lat="43.56183" lon="3.28993">
        <ele>270.2677</ele>
        <time>2012-02-05T13:49:19Z</time>
      </trkpt>
      <trkpt lat="43.56195" lon="3.28987">
        <ele>270.2677</ele>
        <time>2012-02-05T13:49:23Z</time>
      </trkpt>
      <trkpt lat="43.56213" lon="3.28987">
        <ele>268.825806</ele>
        <time>2012-02-05T13:49:27Z</time>
      </trkpt>
      <trkpt lat="43.5624" lon="3.29002">
        <ele>266.903198</ele>
        <time>2012-02-05T13:49:32Z</time>
      </trkpt>
      <trkpt lat="43.56245" lon="3.29004">
        <ele>266.422485</ele>
        <time>2012-02-05T13:49:33Z</time>
      </trkpt>
      <trkpt lat="43.56274" lon="3.29004">
        <ele>264.019287</ele>
        <time>2012-02-05T13:49:38Z</time>
      </trkpt>
      <trkpt lat="43.56287" lon="3.29">
        <ele>262.577148</ele>
        <time>2012-02-05T13:49:40Z</time>
      </trkpt>
      <trkpt lat="43.56299" lon="3.2899">
        <ele>262.577148</ele>
        <time>2012-02-05T13:49:42Z</time>
      </trkpt>
      <trkpt lat="43.56339" lon="3.28966">
        <ele>263.057861</ele>
        <time>2012-02-05T13:49:49Z</time>
      </trkpt>
      <trkpt lat="43.56359" lon="3.28954">
        <ele>263.538574</ele>
        <time>2012-02-05T13:49:54Z</time>
      </trkpt>
      <trkpt lat="43.56379" lon="3.28943">
        <ele>263.538574</ele>
        <time>2012-02-05T13:50:00Z</time>
      </trkpt>
      <trkpt lat="43.56396" lon="3.28931">
        <ele>262.096558</ele>
        <time>2012-02-05T13:50:04Z</time>
      </trkpt>
      <trkpt lat="43.56421" lon="3.28909">
        <ele>259.693359</ele>
        <time>2012-02-05T13:50:09Z</time>
      </trkpt>
      <trkpt lat="43.56448" lon="3.28878">
        <ele>260.17395</ele>
        <time>2012-02-05T13:50:15Z</time>
      </trkpt>
      <trkpt lat="43.56458" lon="3.28857">
        <ele>261.615967</ele>
        <time>2012-02-05T13:50:20Z</time>
      </trkpt>
      <trkpt lat="43.56462" lon="3.28845">
        <ele>263.057861</ele>
        <time>2012-02-05T13:50:23Z</time>
      </trkpt>
      <trkpt lat="43.56476" lon="3.28833">
        <ele>264.499878</ele>
        <time>2012-02-05T13:50:28Z</time>
      </trkpt>
      <trkpt lat="43.56495" lon="3.28824">
        <ele>265.941894</ele>
        <time>2012-02-05T13:50:34Z</time>
      </trkpt>
      <trkpt lat="43.565" lon="3.28808">
        <ele>266.422485</ele>
        <time>2012-02-05T13:50:38Z</time>
      </trkpt>
      <trkpt lat="43.56516" lon="3.2878">
        <ele>266.903198</ele>
        <time>2012-02-05T13:50:45Z</time>
      </trkpt>
      <trkpt lat="43.56525" lon="3.28757">
        <ele>268.345093</ele>
        <time>2012-02-05T13:50:51Z</time>
      </trkpt>
      <trkpt lat="43.56534" lon="3.28735">
        <ele>269.787109</ele>
        <time>2012-02-05T13:50:57Z</time>
      </trkpt>
      <trkpt lat="43.56544" lon="3.28716">
        <ele>269.306519</ele>
        <time>2012-02-05T13:51:02Z</time>
      </trkpt>
      <trkpt lat="43.56554" lon="3.28701">
        <ele>267.864502</ele>
        <time>2012-02-05T13:51:05Z</time>
      </trkpt>
      <trkpt lat="43.56567" lon="3.28685">
        <ele>266.422485</ele>
        <time>2012-02-05T13:51:08Z</time>
      </trkpt>
      <trkpt lat="43.56584" lon="3.28658">
        <ele>266.903198</ele>
        <time>2012-02-05T13:51:12Z</time>
      </trkpt>
      <trkpt lat="43.56615" lon="3.28633">
        <ele>264.019287</ele>
        <time>2012-02-05T13:51:17Z</time>
      </trkpt>
      <trkpt lat="43.56636" lon="3.28618">
        <ele>261.615967</ele>
        <time>2012-02-05T13:51:20Z</time>
      </trkpt>
      <trkpt lat="43.56654" lon="3.28597">
        <ele>260.17395</ele>
        <time>2012-02-05T13:51:23Z</time>
      </trkpt>
      <trkpt lat="43.56685" lon="3.28562">
        <ele>260.17395</ele>
        <time>2012-02-05T13:51:29Z</time>
      </trkpt>
      <trkpt lat="43.56695" lon="3.28545">
        <ele>260.654541</ele>
        <time>2012-02-05T13:51:32Z</time>
      </trkpt>
      <trkpt lat="43.56708" lon="3.28509">
        <ele>261.135254</ele>
        <time>2012-02-05T13:51:39Z</time>
      </trkpt>
      <trkpt lat="43.56717" lon="3.2848">
        <ele>264.019287</ele>
        <time>2012-02-05T13:51:47Z</time>
      </trkpt>
      <trkpt lat="43.5672" lon="3.28468">
        <ele>264.499878</ele>
        <time>2012-02-05T13:51:52Z</time>
      </trkpt>
      <trkpt lat="43.5672" lon="3.28468">
        <ele>264.499878</ele>
        <time>2012-02-05T13:51:54Z</time>
      </trkpt>
      <trkpt lat="43.56718" lon="3.28468">
        <ele>264.499878</ele>
        <time>2012-02-05T13:54:04Z</time>
      </trkpt>
      <trkpt lat="43.56718" lon="3.28468">
        <ele>264.019287</ele>
        <time>2012-02-05T13:54:05Z</time>
      </trkpt>
      <trkpt lat="43.56718" lon="3.28467">
        <ele>264.499878</ele>
        <time>2012-02-05T13:54:14Z</time>
      </trkpt>
      <trkpt lat="43.56718" lon="3.28467">
        <ele>264.499878</ele>
        <time>2012-02-05T13:54:15Z</time>
      </trkpt>
      <trkpt lat="43.56717" lon="3.28465">
        <ele>263.538574</ele>
        <time>2012-02-05T13:54:46Z</time>
      </trkpt>
      <trkpt lat="43.56716" lon="3.28464">
        <ele>264.019287</ele>
        <time>2012-02-05T13:54:47Z</time>
      </trkpt>
      <trkpt lat="43.56716" lon="3.28464">
        <ele>263.538574</ele>
        <time>2012-02-05T13:54:50Z</time>
      </trkpt>
      <trkpt lat="43.56716" lon="3.28451">
        <ele>263.538574</ele>
        <time>2012-02-05T13:54:54Z</time>
      </trkpt>
      <trkpt lat="43.56716" lon="3.28423">
        <ele>265.941894</ele>
        <time>2012-02-05T13:55:03Z</time>
      </trkpt>
      <trkpt lat="43.56715" lon="3.28399">
        <ele>266.903198</ele>
        <time>2012-02-05T13:55:11Z</time>
      </trkpt>
      <trkpt lat="43.56716" lon="3.28379">
        <ele>267.383911</ele>
        <time>2012-02-05T13:55:18Z</time>
      </trkpt>
      <trkpt lat="43.56725" lon="3.28366">
        <ele>269.306519</ele>
        <time>2012-02-05T13:55:24Z</time>
      </trkpt>
      <trkpt lat="43.56731" lon="3.28352">
        <ele>271.229126</ele>
        <time>2012-02-05T13:55:31Z</time>
      </trkpt>
      <trkpt lat="43.56739" lon="3.28343">
        <ele>273.632446</ele>
        <time>2012-02-05T13:55:37Z</time>
      </trkpt>
      <trkpt lat="43.56745" lon="3.2833">
        <ele>274.59375</ele>
        <time>2012-02-05T13:55:44Z</time>
      </trkpt>
      <trkpt lat="43.56752" lon="3.28317">
        <ele>276.516357</ele>
        <time>2012-02-05T13:55:52Z</time>
      </trkpt>
      <trkpt lat="43.56759" lon="3.28302">
        <ele>277.958252</ele>
        <time>2012-02-05T13:56:00Z</time>
      </trkpt>
      <trkpt lat="43.56767" lon="3.28289">
        <ele>277.477661</ele>
        <time>2012-02-05T13:56:07Z</time>
      </trkpt>
      <trkpt lat="43.56782" lon="3.28271">
        <ele>278.919678</ele>
        <time>2012-02-05T13:56:16Z</time>
      </trkpt>
      <trkpt lat="43.56794" lon="3.2825">
        <ele>279.400269</ele>
        <time>2012-02-05T13:56:24Z</time>
      </trkpt>
      <trkpt lat="43.56803" lon="3.28234">
        <ele>279.400269</ele>
        <time>2012-02-05T13:56:30Z</time>
      </trkpt>
      <trkpt lat="43.56818" lon="3.28224">
        <ele>279.880859</ele>
        <time>2012-02-05T13:56:36Z</time>
      </trkpt>
      <trkpt lat="43.56834" lon="3.28203">
        <ele>280.361694</ele>
        <time>2012-02-05T13:56:44Z</time>
      </trkpt>
      <trkpt lat="43.56843" lon="3.28187">
        <ele>282.284302</ele>
        <time>2012-02-05T13:56:50Z</time>
      </trkpt>
      <trkpt lat="43.56849" lon="3.28168">
        <ele>284.206909</ele>
        <time>2012-02-05T13:56:57Z</time>
      </trkpt>
      <trkpt lat="43.56855" lon="3.28155">
        <ele>285.648804</ele>
        <time>2012-02-05T13:57:03Z</time>
      </trkpt>
      <trkpt lat="43.56858" lon="3.28145">
        <ele>286.61023</ele>
        <time>2012-02-05T13:57:07Z</time>
      </trkpt>
      <trkpt lat="43.56865" lon="3.28133">
        <ele>288.052246</ele>
        <time>2012-02-05T13:57:13Z</time>
      </trkpt>
      <trkpt lat="43.56872" lon="3.28117">
        <ele>288.532959</ele>
        <time>2012-02-05T13:57:20Z</time>
      </trkpt>
      <trkpt lat="43.56883" lon="3.28101">
        <ele>290.455566</ele>
        <time>2012-02-05T13:57:28Z</time>
      </trkpt>
      <trkpt lat="43.56889" lon="3.28088">
        <ele>291.416748</ele>
        <time>2012-02-05T13:57:34Z</time>
      </trkpt>
      <trkpt lat="43.56901" lon="3.28079">
        <ele>293.339356</ele>
        <time>2012-02-05T13:57:42Z</time>
      </trkpt>
      <trkpt lat="43.5691" lon="3.2806">
        <ele>294.781372</ele>
        <time>2012-02-05T13:57:51Z</time>
      </trkpt>
      <trkpt lat="43.56918" lon="3.28042">
        <ele>294.781372</ele>
        <time>2012-02-05T13:57:58Z</time>
      </trkpt>
      <trkpt lat="43.5693" lon="3.28029">
        <ele>294.300781</ele>
        <time>2012-02-05T13:58:04Z</time>
      </trkpt>
      <trkpt lat="43.56942" lon="3.28017">
        <ele>295.261963</ele>
        <time>2012-02-05T13:58:10Z</time>
      </trkpt>
      <trkpt lat="43.56956" lon="3.28">
        <ele>296.223511</ele>
        <time>2012-02-05T13:58:18Z</time>
      </trkpt>
      <trkpt lat="43.56968" lon="3.27983">
        <ele>298.146118</ele>
        <time>2012-02-05T13:58:25Z</time>
      </trkpt>
      <trkpt lat="43.5698" lon="3.27967">
        <ele>300.068726</ele>
        <time>2012-02-05T13:58:33Z</time>
      </trkpt>
      <trkpt lat="43.56992" lon="3.27958">
        <ele>302.471924</ele>
        <time>2012-02-05T13:58:40Z</time>
      </trkpt>
      <trkpt lat="43.57003" lon="3.2795">
        <ele>303.91394</ele>
        <time>2012-02-05T13:58:47Z</time>
      </trkpt>
      <trkpt lat="43.57006" lon="3.27938">
        <ele>305.83667</ele>
        <time>2012-02-05T13:58:54Z</time>
      </trkpt>
      <trkpt lat="43.57007" lon="3.27931">
        <ele>306.797852</ele>
        <time>2012-02-05T13:59:00Z</time>
      </trkpt>
      <trkpt lat="43.57007" lon="3.2793">
        <ele>307.278565</ele>
        <time>2012-02-05T13:59:01Z</time>
      </trkpt>
      <trkpt lat="43.57011" lon="3.27921">
        <ele>307.278565</ele>
        <time>2012-02-05T13:59:10Z</time>
      </trkpt>
      <trkpt lat="43.57011" lon="3.27921">
        <ele>307.759277</ele>
        <time>2012-02-05T13:59:16Z</time>
      </trkpt>
      <trkpt lat="43.57014" lon="3.27915">
        <ele>308.720459</ele>
        <time>2012-02-05T13:59:20Z</time>
      </trkpt>
      <trkpt lat="43.57014" lon="3.27915">
        <ele>307.759277</ele>
        <time>2012-02-05T13:59:21Z</time>
      </trkpt>
      <trkpt lat="43.57015" lon="3.27915">
        <ele>308.239868</ele>
        <time>2012-02-05T13:59:24Z</time>
      </trkpt>
      <trkpt lat="43.57017" lon="3.27911">
        <ele>309.201172</ele>
        <time>2012-02-05T13:59:26Z</time>
      </trkpt>
      <trkpt lat="43.57021" lon="3.27907">
        <ele>309.681885</ele>
        <time>2012-02-05T13:59:32Z</time>
      </trkpt>
      <trkpt lat="43.57022" lon="3.27893">
        <ele>310.643066</ele>
        <time>2012-02-05T13:59:38Z</time>
      </trkpt>
      <trkpt lat="43.5703" lon="3.27875">
        <ele>312.085205</ele>
        <time>2012-02-05T13:59:45Z</time>
      </trkpt>
      <trkpt lat="43.57038" lon="3.27856">
        <ele>313.046509</ele>
        <time>2012-02-05T13:59:52Z</time>
      </trkpt>
      <trkpt lat="43.57034" lon="3.27843">
        <ele>313.527222</ele>
        <time>2012-02-05T13:59:56Z</time>
      </trkpt>
      <trkpt lat="43.57031" lon="3.27836">
        <ele>314.007812</ele>
        <time>2012-02-05T13:59:58Z</time>
      </trkpt>
      <trkpt lat="43.57036" lon="3.27821">
        <ele>314.007812</ele>
        <time>2012-02-05T14:00:02Z</time>
      </trkpt>
      <trkpt lat="43.57045" lon="3.27802">
        <ele>314.488403</ele>
        <time>2012-02-05T14:00:07Z</time>
      </trkpt>
      <trkpt lat="43.57053" lon="3.27782">
        <ele>315.449829</ele>
        <time>2012-02-05T14:00:13Z</time>
      </trkpt>
      <trkpt lat="43.57058" lon="3.27759">
        <ele>316.891724</ele>
        <time>2012-02-05T14:00:20Z</time>
      </trkpt>
      <trkpt lat="43.57066" lon="3.27734">
        <ele>317.853027</ele>
        <time>2012-02-05T14:00:28Z</time>
      </trkpt>
      <trkpt lat="43.57077" lon="3.27706">
        <ele>318.333618</ele>
        <time>2012-02-05T14:00:36Z</time>
      </trkpt>
      <trkpt lat="43.5709" lon="3.27683">
        <ele>318.814331</ele>
        <time>2012-02-05T14:00:44Z</time>
      </trkpt>
      <trkpt lat="43.57098" lon="3.27673">
        <ele>319.775635</ele>
        <time>2012-02-05T14:00:50Z</time>
      </trkpt>
      <trkpt lat="43.5711" lon="3.27672">
        <ele>322.178955</ele>
        <time>2012-02-05T14:00:57Z</time>
      </trkpt>
      <trkpt lat="43.57117" lon="3.27663">
        <ele>322.659668</ele>
        <time>2012-02-05T14:01:02Z</time>
      </trkpt>
      <trkpt lat="43.57125" lon="3.27649">
        <ele>323.140381</ele>
        <time>2012-02-05T14:01:08Z</time>
      </trkpt>
      <trkpt lat="43.57134" lon="3.27637">
        <ele>324.582275</ele>
        <time>2012-02-05T14:01:15Z</time>
      </trkpt>
      <trkpt lat="43.57143" lon="3.27627">
        <ele>325.543579</ele>
        <time>2012-02-05T14:01:21Z</time>
      </trkpt>
      <trkpt lat="43.57148" lon="3.27602">
        <ele>326.504883</ele>
        <time>2012-02-05T14:01:30Z</time>
      </trkpt>
      <trkpt lat="43.5715" lon="3.27572">
        <ele>326.985596</ele>
        <time>2012-02-05T14:01:39Z</time>
      </trkpt>
      <trkpt lat="43.5715" lon="3.27546">
        <ele>327.946777</ele>
        <time>2012-02-05T14:01:46Z</time>
      </trkpt>
      <trkpt lat="43.57154" lon="3.27522">
        <ele>328.908325</ele>
        <time>2012-02-05T14:01:53Z</time>
      </trkpt>
      <trkpt lat="43.57159" lon="3.2749">
        <ele>330.35022</ele>
        <time>2012-02-05T14:02:02Z</time>
      </trkpt>
      <trkpt lat="43.57151" lon="3.27476">
        <ele>331.311523</ele>
        <time>2012-02-05T14:02:07Z</time>
      </trkpt>
      <trkpt lat="43.57135" lon="3.27453">
        <ele>331.792114</ele>
        <time>2012-02-05T14:02:15Z</time>
      </trkpt>
      <trkpt lat="43.57128" lon="3.27426">
        <ele>332.75354</ele>
        <time>2012-02-05T14:02:22Z</time>
      </trkpt>
      <trkpt lat="43.57129" lon="3.274">
        <ele>333.234131</ele>
        <time>2012-02-05T14:02:29Z</time>
      </trkpt>
      <trkpt lat="43.57128" lon="3.27373">
        <ele>334.195435</ele>
        <time>2012-02-05T14:02:36Z</time>
      </trkpt>
      <trkpt lat="43.5712" lon="3.2735">
        <ele>334.195435</ele>
        <time>2012-02-05T14:02:42Z</time>
      </trkpt>
      <trkpt lat="43.57119" lon="3.27328">
        <ele>335.156738</ele>
        <time>2012-02-05T14:02:47Z</time>
      </trkpt>
      <trkpt lat="43.57117" lon="3.27294">
        <ele>335.637329</ele>
        <time>2012-02-05T14:02:55Z</time>
      </trkpt>
      <trkpt lat="43.57114" lon="3.27291">
        <ele>335.637329</ele>
        <time>2012-02-05T14:02:56Z</time>
      </trkpt>
      <trkpt lat="43.57105" lon="3.2727">
        <ele>335.156738</ele>
        <time>2012-02-05T14:03:00Z</time>
      </trkpt>
      <trkpt lat="43.57097" lon="3.27252">
        <ele>334.676148</ele>
        <time>2012-02-05T14:03:03Z</time>
      </trkpt>
      <trkpt lat="43.5709" lon="3.27227">
        <ele>334.676148</ele>
        <time>2012-02-05T14:03:07Z</time>
      </trkpt>
      <trkpt lat="43.57084" lon="3.27182">
        <ele>334.676148</ele>
        <time>2012-02-05T14:03:15Z</time>
      </trkpt>
      <trkpt lat="43.57076" lon="3.27158">
        <ele>336.118164</ele>
        <time>2012-02-05T14:03:20Z</time>
      </trkpt>
      <trkpt lat="43.57067" lon="3.27137">
        <ele>337.560059</ele>
        <time>2012-02-05T14:03:26Z</time>
      </trkpt>
      <trkpt lat="43.57061" lon="3.27116">
        <ele>338.521484</ele>
        <time>2012-02-05T14:03:33Z</time>
      </trkpt>
      <trkpt lat="43.57055" lon="3.27092">
        <ele>339.963379</ele>
        <time>2012-02-05T14:03:42Z</time>
      </trkpt>
      <trkpt lat="43.57047" lon="3.27073">
        <ele>342.366699</ele>
        <time>2012-02-05T14:03:50Z</time>
      </trkpt>
      <trkpt lat="43.57045" lon="3.27065">
        <ele>342.84729</ele>
        <time>2012-02-05T14:03:53Z</time>
      </trkpt>
      <trkpt lat="43.57052" lon="3.27059">
        <ele>343.808594</ele>
        <time>2012-02-05T14:03:58Z</time>
      </trkpt>
      <trkpt lat="43.57056" lon="3.27053">
        <ele>343.808594</ele>
        <time>2012-02-05T14:04:01Z</time>
      </trkpt>
      <trkpt lat="43.57061" lon="3.27043">
        <ele>343.808594</ele>
        <time>2012-02-05T14:04:05Z</time>
      </trkpt>
      <trkpt lat="43.57057" lon="3.27032">
        <ele>344.770019</ele>
        <time>2012-02-05T14:04:10Z</time>
      </trkpt>
      <trkpt lat="43.57052" lon="3.27018">
        <ele>345.25061</ele>
        <time>2012-02-05T14:04:16Z</time>
      </trkpt>
      <trkpt lat="43.57056" lon="3.26999">
        <ele>345.731323</ele>
        <time>2012-02-05T14:04:23Z</time>
      </trkpt>
      <trkpt lat="43.57061" lon="3.26981">
        <ele>346.212036</ele>
        <time>2012-02-05T14:04:30Z</time>
      </trkpt>
      <trkpt lat="43.57071" lon="3.26963">
        <ele>345.731323</ele>
        <time>2012-02-05T14:04:36Z</time>
      </trkpt>
      <trkpt lat="43.57075" lon="3.26951">
        <ele>346.212036</ele>
        <time>2012-02-05T14:04:39Z</time>
      </trkpt>
      <trkpt lat="43.57068" lon="3.26941">
        <ele>345.731323</ele>
        <time>2012-02-05T14:04:43Z</time>
      </trkpt>
      <trkpt lat="43.5706" lon="3.26946">
        <ele>346.212036</ele>
        <time>2012-02-05T14:04:47Z</time>
      </trkpt>
      <trkpt lat="43.57045" lon="3.26958">
        <ele>348.134644</ele>
        <time>2012-02-05T14:04:55Z</time>
      </trkpt>
      <trkpt lat="43.57036" lon="3.26968">
        <ele>349.576538</ele>
        <time>2012-02-05T14:05:01Z</time>
      </trkpt>
      <trkpt lat="43.57027" lon="3.26977">
        <ele>350.537842</ele>
        <time>2012-02-05T14:05:06Z</time>
      </trkpt>
      <trkpt lat="43.57021" lon="3.26982">
        <ele>350.057251</ele>
        <time>2012-02-05T14:05:09Z</time>
      </trkpt>
      <trkpt lat="43.5702" lon="3.26976">
        <ele>350.537842</ele>
        <time>2012-02-05T14:05:14Z</time>
      </trkpt>
      <trkpt lat="43.57022" lon="3.26972">
        <ele>350.537842</ele>
        <time>2012-02-05T14:05:16Z</time>
      </trkpt>
      <trkpt lat="43.57034" lon="3.26948">
        <ele>350.057251</ele>
        <time>2012-02-05T14:05:24Z</time>
      </trkpt>
      <trkpt lat="43.57046" lon="3.26926">
        <ele>349.576538</ele>
        <time>2012-02-05T14:05:30Z</time>
      </trkpt>
      <trkpt lat="43.57054" lon="3.26902">
        <ele>348.615234</ele>
        <time>2012-02-05T14:05:36Z</time>
      </trkpt>
      <trkpt lat="43.57065" lon="3.26875">
        <ele>348.134644</ele>
        <time>2012-02-05T14:05:42Z</time>
      </trkpt>
      <trkpt lat="43.57075" lon="3.2687">
        <ele>346.692627</ele>
        <time>2012-02-05T14:05:46Z</time>
      </trkpt>
      <trkpt lat="43.57082" lon="3.2686">
        <ele>345.731323</ele>
        <time>2012-02-05T14:05:50Z</time>
      </trkpt>
      <trkpt lat="43.57083" lon="3.26844">
        <ele>347.173218</ele>
        <time>2012-02-05T14:05:54Z</time>
      </trkpt>
      <trkpt lat="43.57083" lon="3.2684">
        <ele>347.173218</ele>
        <time>2012-02-05T14:05:55Z</time>
      </trkpt>
      <trkpt lat="43.57085" lon="3.26804">
        <ele>348.134644</ele>
        <time>2012-02-05T14:06:04Z</time>
      </trkpt>
      <trkpt lat="43.57085" lon="3.26789">
        <ele>349.095825</ele>
        <time>2012-02-05T14:06:09Z</time>
      </trkpt>
      <trkpt lat="43.57095" lon="3.26769">
        <ele>349.576538</ele>
        <time>2012-02-05T14:06:16Z</time>
      </trkpt>
      <trkpt lat="43.57108" lon="3.26746">
        <ele>350.057251</ele>
        <time>2012-02-05T14:06:24Z</time>
      </trkpt>
      <trkpt lat="43.57112" lon="3.26717">
        <ele>351.499145</ele>
        <time>2012-02-05T14:06:32Z</time>
      </trkpt>
      <trkpt lat="43.57113" lon="3.26702">
        <ele>352.460571</ele>
        <time>2012-02-05T14:06:36Z</time>
      </trkpt>
      <trkpt lat="43.57114" lon="3.26682">
        <ele>353.902588</ele>
        <time>2012-02-05T14:06:42Z</time>
      </trkpt>
      <trkpt lat="43.57117" lon="3.26658">
        <ele>355.344482</ele>
        <time>2012-02-05T14:06:51Z</time>
      </trkpt>
      <trkpt lat="43.57121" lon="3.2663">
        <ele>356.786377</ele>
        <time>2012-02-05T14:07:02Z</time>
      </trkpt>
      <trkpt lat="43.57117" lon="3.26615">
        <ele>357.747803</ele>
        <time>2012-02-05T14:07:08Z</time>
      </trkpt>
      <trkpt lat="43.57109" lon="3.26604">
        <ele>358.708984</ele>
        <time>2012-02-05T14:07:14Z</time>
      </trkpt>
      <trkpt lat="43.57105" lon="3.2659">
        <ele>359.189697</ele>
        <time>2012-02-05T14:07:20Z</time>
      </trkpt>
      <trkpt lat="43.57107" lon="3.26584">
        <ele>360.151123</ele>
        <time>2012-02-05T14:07:23Z</time>
      </trkpt>
      <trkpt lat="43.57103" lon="3.26577">
        <ele>360.631714</ele>
        <time>2012-02-05T14:07:27Z</time>
      </trkpt>
      <trkpt lat="43.57101" lon="3.26571">
        <ele>360.631714</ele>
        <time>2012-02-05T14:07:30Z</time>
      </trkpt>
      <trkpt lat="43.571" lon="3.26557">
        <ele>360.631714</ele>
        <time>2012-02-05T14:07:35Z</time>
      </trkpt>
      <trkpt lat="43.57106" lon="3.26549">
        <ele>360.631714</ele>
        <time>2012-02-05T14:07:40Z</time>
      </trkpt>
      <trkpt lat="43.57107" lon="3.26551">
        <ele>360.631714</ele>
        <time>2012-02-05T14:07:44Z</time>
      </trkpt>
      <trkpt lat="43.57108" lon="3.26551">
        <ele>360.631714</ele>
        <time>2012-02-05T14:07:47Z</time>
      </trkpt>
      <trkpt lat="43.57108" lon="3.26552">
        <ele>360.631714</ele>
        <time>2012-02-05T14:07:48Z</time>
      </trkpt>
      <trkpt lat="43.57115" lon="3.26561">
        <ele>361.112427</ele>
        <time>2012-02-05T14:07:54Z</time>
      </trkpt>
      <trkpt lat="43.57121" lon="3.26565">
        <ele>360.631714</ele>
        <time>2012-02-05T14:07:59Z</time>
      </trkpt>
      <trkpt lat="43.57126" lon="3.26565">
        <ele>361.112427</ele>
        <time>2012-02-05T14:08:02Z</time>
      </trkpt>
      <trkpt lat="43.57132" lon="3.26565">
        <ele>361.112427</ele>
        <time>2012-02-05T14:08:06Z</time>
      </trkpt>
      <trkpt lat="43.57142" lon="3.2657">
        <ele>361.112427</ele>
        <time>2012-02-05T14:08:11Z</time>
      </trkpt>
      <trkpt lat="43.57151" lon="3.26574">
        <ele>361.112427</ele>
        <time>2012-02-05T14:08:15Z</time>
      </trkpt>
      <trkpt lat="43.57158" lon="3.26565">
        <ele>361.112427</ele>
        <time>2012-02-05T14:08:19Z</time>
      </trkpt>
      <trkpt lat="43.57176" lon="3.26539">
        <ele>361.59314</ele>
        <time>2012-02-05T14:08:27Z</time>
      </trkpt>
      <trkpt lat="43.57193" lon="3.26511">
        <ele>362.073731</ele>
        <time>2012-02-05T14:08:34Z</time>
      </trkpt>
      <trkpt lat="43.57204" lon="3.26489">
        <ele>362.073731</ele>
        <time>2012-02-05T14:08:39Z</time>
      </trkpt>
      <trkpt lat="43.57219" lon="3.26454">
        <ele>361.59314</ele>
        <time>2012-02-05T14:08:46Z</time>
      </trkpt>
      <trkpt lat="43.57223" lon="3.26444">
        <ele>362.073731</ele>
        <time>2012-02-05T14:08:48Z</time>
      </trkpt>
      <trkpt lat="43.57233" lon="3.26421">
        <ele>361.59314</ele>
        <time>2012-02-05T14:08:53Z</time>
      </trkpt>
      <trkpt lat="43.57235" lon="3.26417">
        <ele>361.59314</ele>
        <time>2012-02-05T14:08:54Z</time>
      </trkpt>
      <trkpt lat="43.57242" lon="3.26402">
        <ele>361.112427</ele>
        <time>2012-02-05T14:08:57Z</time>
      </trkpt>
      <trkpt lat="43.57262" lon="3.26368">
        <ele>360.631714</ele>
        <time>2012-02-05T14:09:04Z</time>
      </trkpt>
      <trkpt lat="43.57275" lon="3.26349">
        <ele>361.112427</ele>
        <time>2012-02-05T14:09:09Z</time>
      </trkpt>
      <trkpt lat="43.57284" lon="3.26335">
        <ele>361.112427</ele>
        <time>2012-02-05T14:09:13Z</time>
      </trkpt>
      <trkpt lat="43.57292" lon="3.26316">
        <ele>361.112427</ele>
        <time>2012-02-05T14:09:18Z</time>
      </trkpt>
      <trkpt lat="43.57305" lon="3.26305">
        <ele>362.073731</ele>
        <time>2012-02-05T14:09:25Z</time>
      </trkpt>
      <trkpt lat="43.57318" lon="3.26289">
        <ele>362.073731</ele>
        <time>2012-02-05T14:09:31Z</time>
      </trkpt>
      <trkpt lat="43.57332" lon="3.26269">
        <ele>361.59314</ele>
        <time>2012-02-05T14:09:37Z</time>
      </trkpt>
      <trkpt lat="43.57345" lon="3.26248">
        <ele>361.112427</ele>
        <time>2012-02-05T14:09:42Z</time>
      </trkpt>
      <trkpt lat="43.57348" lon="3.26244">
        <ele>361.112427</ele>
        <time>2012-02-05T14:09:43Z</time>
      </trkpt>
      <trkpt lat="43.57362" lon="3.26232">
        <ele>360.631714</ele>
        <time>2012-02-05T14:09:47Z</time>
      </trkpt>
      <trkpt lat="43.57367" lon="3.26209">
        <ele>358.708984</ele>
        <time>2012-02-05T14:09:51Z</time>
      </trkpt>
      <trkpt lat="43.57371" lon="3.26193">
        <ele>358.228394</ele>
        <time>2012-02-05T14:09:54Z</time>
      </trkpt>
      <trkpt lat="43.57374" lon="3.26171">
        <ele>357.26709</ele>
        <time>2012-02-05T14:09:58Z</time>
      </trkpt>
      <trkpt lat="43.57381" lon="3.26156">
        <ele>357.26709</ele>
        <time>2012-02-05T14:10:01Z</time>
      </trkpt>
      <trkpt lat="43.57394" lon="3.26109">
        <ele>355.825195</ele>
        <time>2012-02-05T14:10:08Z</time>
      </trkpt>
      <trkpt lat="43.57396" lon="3.26088">
        <ele>355.344482</ele>
        <time>2012-02-05T14:10:11Z</time>
      </trkpt>
      <trkpt lat="43.57396" lon="3.26074">
        <ele>355.344482</ele>
        <time>2012-02-05T14:10:13Z</time>
      </trkpt>
      <trkpt lat="43.57399" lon="3.26045">
        <ele>354.383179</ele>
        <time>2012-02-05T14:10:17Z</time>
      </trkpt>
      <trkpt lat="43.57404" lon="3.26018">
        <ele>353.421875</ele>
        <time>2012-02-05T14:10:21Z</time>
      </trkpt>
      <trkpt lat="43.57403" lon="3.25992">
        <ele>352.941162</ele>
        <time>2012-02-05T14:10:25Z</time>
      </trkpt>
      <trkpt lat="43.5739" lon="3.25973">
        <ele>351.979858</ele>
        <time>2012-02-05T14:10:29Z</time>
      </trkpt>
      <trkpt lat="43.57387" lon="3.25969">
        <ele>351.979858</ele>
        <time>2012-02-05T14:10:30Z</time>
      </trkpt>
      <trkpt lat="43.57382" lon="3.25949">
        <ele>351.018433</ele>
        <time>2012-02-05T14:10:34Z</time>
      </trkpt>
      <trkpt lat="43.57388" lon="3.25936">
        <ele>350.537842</ele>
        <time>2012-02-05T14:10:38Z</time>
      </trkpt>
      <trkpt lat="43.57395" lon="3.2593">
        <ele>350.537842</ele>
        <time>2012-02-05T14:10:40Z</time>
      </trkpt>
      <trkpt lat="43.57401" lon="3.25918">
        <ele>350.537842</ele>
        <time>2012-02-05T14:10:44Z</time>
      </trkpt>
      <trkpt lat="43.57403" lon="3.25908">
        <ele>349.576538</ele>
        <time>2012-02-05T14:10:47Z</time>
      </trkpt>
      <trkpt lat="43.57422" lon="3.25875">
        <ele>348.615234</ele>
        <time>2012-02-05T14:10:55Z</time>
      </trkpt>
      <trkpt lat="43.57434" lon="3.25873">
        <ele>348.134644</ele>
        <time>2012-02-05T14:10:58Z</time>
      </trkpt>
      <trkpt lat="43.57442" lon="3.25871">
        <ele>349.095825</ele>
        <time>2012-02-05T14:11:00Z</time>
      </trkpt>
      <trkpt lat="43.57464" lon="3.25874">
        <ele>347.653931</ele>
        <time>2012-02-05T14:11:05Z</time>
      </trkpt>
      <trkpt lat="43.57473" lon="3.25876">
        <ele>347.173218</ele>
        <time>2012-02-05T14:11:07Z</time>
      </trkpt>
      <trkpt lat="43.57489" lon="3.25884">
        <ele>345.25061</ele>
        <time>2012-02-05T14:11:10Z</time>
      </trkpt>
      <trkpt lat="43.57503" lon="3.25889">
        <ele>344.289429</ele>
        <time>2012-02-05T14:11:12Z</time>
      </trkpt>
      <trkpt lat="43.5751" lon="3.2589">
        <ele>343.327881</ele>
        <time>2012-02-05T14:11:13Z</time>
      </trkpt>
      <trkpt lat="43.57525" lon="3.259">
        <ele>340.444092</ele>
        <time>2012-02-05T14:11:16Z</time>
      </trkpt>
      <trkpt lat="43.57551" lon="3.25912">
        <ele>337.079468</ele>
        <time>2012-02-05T14:11:20Z</time>
      </trkpt>
      <trkpt lat="43.57565" lon="3.25921">
        <ele>332.272827</ele>
        <time>2012-02-05T14:11:22Z</time>
      </trkpt>
      <trkpt lat="43.57577" lon="3.25937">
        <ele>329.388916</ele>
        <time>2012-02-05T14:11:25Z</time>
      </trkpt>
      <trkpt lat="43.57577" lon="3.25944">
        <ele>329.388916</ele>
        <time>2012-02-05T14:11:26Z</time>
      </trkpt>
      <trkpt lat="43.57577" lon="3.25952">
        <ele>328.908325</ele>
        <time>2012-02-05T14:11:27Z</time>
      </trkpt>
      <trkpt lat="43.57573" lon="3.26008">
        <ele>328.427612</ele>
        <time>2012-02-05T14:11:34Z</time>
      </trkpt>
      <trkpt lat="43.57587" lon="3.26035">
        <ele>326.504883</ele>
        <time>2012-02-05T14:11:38Z</time>
      </trkpt>
      <trkpt lat="43.57604" lon="3.26059">
        <ele>323.140381</ele>
        <time>2012-02-05T14:11:41Z</time>
      </trkpt>
      <trkpt lat="43.57609" lon="3.26067">
        <ele>322.178955</ele>
        <time>2012-02-05T14:11:42Z</time>
      </trkpt>
      <trkpt lat="43.57613" lon="3.26091">
        <ele>320.256348</ele>
        <time>2012-02-05T14:11:45Z</time>
      </trkpt>
      <trkpt lat="43.5761" lon="3.26096">
        <ele>320.256348</ele>
        <time>2012-02-05T14:11:46Z</time>
      </trkpt>
      <trkpt lat="43.57605" lon="3.26116">
        <ele>320.256348</ele>
        <time>2012-02-05T14:11:50Z</time>
      </trkpt>
      <trkpt lat="43.57615" lon="3.26127">
        <ele>320.73706</ele>
        <time>2012-02-05T14:11:53Z</time>
      </trkpt>
      <trkpt lat="43.57632" lon="3.26136">
        <ele>322.659668</ele>
        <time>2012-02-05T14:11:59Z</time>
      </trkpt>
      <trkpt lat="43.57647" lon="3.26135">
        <ele>323.140381</ele>
        <time>2012-02-05T14:12:04Z</time>
      </trkpt>
      <trkpt lat="43.57662" lon="3.26145">
        <ele>323.620972</ele>
        <time>2012-02-05T14:12:09Z</time>
      </trkpt>
      <trkpt lat="43.57677" lon="3.26155">
        <ele>325.543579</ele>
        <time>2012-02-05T14:12:15Z</time>
      </trkpt>
      <trkpt lat="43.57685" lon="3.26157">
        <ele>326.985596</ele>
        <time>2012-02-05T14:12:19Z</time>
      </trkpt>
      <trkpt lat="43.577" lon="3.26161">
        <ele>327.946777</ele>
        <time>2012-02-05T14:12:26Z</time>
      </trkpt>
      <trkpt lat="43.57708" lon="3.26164">
        <ele>330.35022</ele>
        <time>2012-02-05T14:12:31Z</time>
      </trkpt>
      <trkpt lat="43.57719" lon="3.26169">
        <ele>331.792114</ele>
        <time>2012-02-05T14:12:39Z</time>
      </trkpt>
      <trkpt lat="43.57732" lon="3.26169">
        <ele>332.75354</ele>
        <time>2012-02-05T14:12:47Z</time>
      </trkpt>
      <trkpt lat="43.57735" lon="3.26169">
        <ele>332.272827</ele>
        <time>2012-02-05T14:12:50Z</time>
      </trkpt>
      <trkpt lat="43.5774" lon="3.2617">
        <ele>331.792114</ele>
        <time>2012-02-05T14:12:55Z</time>
      </trkpt>
      <trkpt lat="43.57741" lon="3.2617">
        <ele>331.311523</ele>
        <time>2012-02-05T14:13:48Z</time>
      </trkpt>
      <trkpt lat="43.57749" lon="3.26167">
        <ele>330.35022</ele>
        <time>2012-02-05T14:13:52Z</time>
      </trkpt>
      <trkpt lat="43.57764" lon="3.26155">
        <ele>329.869507</ele>
        <time>2012-02-05T14:13:57Z</time>
      </trkpt>
      <trkpt lat="43.5778" lon="3.26144">
        <ele>328.908325</ele>
        <time>2012-02-05T14:14:02Z</time>
      </trkpt>
      <trkpt lat="43.57806" lon="3.26126">
        <ele>327.466186</ele>
        <time>2012-02-05T14:14:10Z</time>
      </trkpt>
      <trkpt lat="43.57823" lon="3.26116">
        <ele>326.985596</ele>
        <time>2012-02-05T14:14:15Z</time>
      </trkpt>
      <trkpt lat="43.57825" lon="3.26115">
        <ele>326.02417</ele>
        <time>2012-02-05T14:14:18Z</time>
      </trkpt>
      <trkpt lat="43.57826" lon="3.26116">
        <ele>326.02417</ele>
        <time>2012-02-05T14:14:21Z</time>
      </trkpt>
      <trkpt lat="43.57827" lon="3.26117">
        <ele>326.02417</ele>
        <time>2012-02-05T14:14:22Z</time>
      </trkpt>
      <trkpt lat="43.57831" lon="3.2612">
        <ele>325.543579</ele>
        <time>2012-02-05T14:14:28Z</time>
      </trkpt>
      <trkpt lat="43.57836" lon="3.26116">
        <ele>325.062988</ele>
        <time>2012-02-05T14:14:32Z</time>
      </trkpt>
      <trkpt lat="43.57857" lon="3.26104">
        <ele>323.140381</ele>
        <time>2012-02-05T14:14:39Z</time>
      </trkpt>
      <trkpt lat="43.57867" lon="3.26102">
        <ele>321.698364</ele>
        <time>2012-02-05T14:14:42Z</time>
      </trkpt>
      <trkpt lat="43.57874" lon="3.2609">
        <ele>320.256348</ele>
        <time>2012-02-05T14:14:47Z</time>
      </trkpt>
      <trkpt lat="43.5788" lon="3.26091">
        <ele>319.775635</ele>
        <time>2012-02-05T14:14:50Z</time>
      </trkpt>
      <trkpt lat="43.5789" lon="3.26088">
        <ele>318.814331</ele>
        <time>2012-02-05T14:14:54Z</time>
      </trkpt>
      <trkpt lat="43.57911" lon="3.26072">
        <ele>317.853027</ele>
        <time>2012-02-05T14:15:02Z</time>
      </trkpt>
      <trkpt lat="43.57929" lon="3.26061">
        <ele>318.814331</ele>
        <time>2012-02-05T14:15:09Z</time>
      </trkpt>
      <trkpt lat="43.5795" lon="3.26063">
        <ele>318.333618</ele>
        <time>2012-02-05T14:15:16Z</time>
      </trkpt>
      <trkpt lat="43.57971" lon="3.26066">
        <ele>317.372436</ele>
        <time>2012-02-05T14:15:22Z</time>
      </trkpt>
      <trkpt lat="43.57983" lon="3.26061">
        <ele>319.295044</ele>
        <time>2012-02-05T14:15:27Z</time>
      </trkpt>
      <trkpt lat="43.57995" lon="3.26062">
        <ele>320.73706</ele>
        <time>2012-02-05T14:15:32Z</time>
      </trkpt>
      <trkpt lat="43.5801" lon="3.26065">
        <ele>320.73706</ele>
        <time>2012-02-05T14:15:39Z</time>
      </trkpt>
      <trkpt lat="43.58014" lon="3.2606">
        <ele>321.217773</ele>
        <time>2012-02-05T14:15:43Z</time>
      </trkpt>
      <trkpt lat="43.58013" lon="3.26057">
        <ele>321.698364</ele>
        <time>2012-02-05T14:15:44Z</time>
      </trkpt>
      <trkpt lat="43.58001" lon="3.2604">
        <ele>321.698364</ele>
        <time>2012-02-05T14:15:51Z</time>
      </trkpt>
      <trkpt lat="43.57993" lon="3.26024">
        <ele>323.620972</ele>
        <time>2012-02-05T14:15:58Z</time>
      </trkpt>
      <trkpt lat="43.5799" lon="3.26011">
        <ele>326.504883</ele>
        <time>2012-02-05T14:16:06Z</time>
      </trkpt>
      <trkpt lat="43.57988" lon="3.26">
        <ele>328.427612</ele>
        <time>2012-02-05T14:16:12Z</time>
      </trkpt>
      <trkpt lat="43.57987" lon="3.25993">
        <ele>329.869507</ele>
        <time>2012-02-05T14:16:16Z</time>
      </trkpt>
      <trkpt lat="43.57985" lon="3.25975">
        <ele>332.272827</ele>
        <time>2012-02-05T14:16:25Z</time>
      </trkpt>
      <trkpt lat="43.57985" lon="3.25958">
        <ele>334.676148</ele>
        <time>2012-02-05T14:16:34Z</time>
      </trkpt>
      <trkpt lat="43.57979" lon="3.25948">
        <ele>333.714722</ele>
        <time>2012-02-05T14:16:39Z</time>
      </trkpt>
      <trkpt lat="43.57977" lon="3.25937">
        <ele>333.234131</ele>
        <time>2012-02-05T14:16:42Z</time>
      </trkpt>
      <trkpt lat="43.57973" lon="3.25926">
        <ele>331.792114</ele>
        <time>2012-02-05T14:16:45Z</time>
      </trkpt>
      <trkpt lat="43.5798" lon="3.2591">
        <ele>330.830933</ele>
        <time>2012-02-05T14:16:49Z</time>
      </trkpt>
      <trkpt lat="43.57993" lon="3.259">
        <ele>331.792114</ele>
        <time>2012-02-05T14:16:55Z</time>
      </trkpt>
      <trkpt lat="43.58" lon="3.25889">
        <ele>333.234131</ele>
        <time>2012-02-05T14:17:00Z</time>
      </trkpt>
      <trkpt lat="43.58006" lon="3.25886">
        <ele>334.195435</ele>
        <time>2012-02-05T14:17:03Z</time>
      </trkpt>
      <trkpt lat="43.58012" lon="3.25883">
        <ele>334.676148</ele>
        <time>2012-02-05T14:17:06Z</time>
      </trkpt>
      <trkpt lat="43.58021" lon="3.25869">
        <ele>332.75354</ele>
        <time>2012-02-05T14:17:12Z</time>
      </trkpt>
      <trkpt lat="43.58024" lon="3.25866">
        <ele>332.272827</ele>
        <time>2012-02-05T14:17:13Z</time>
      </trkpt>
      <trkpt lat="43.58034" lon="3.25852">
        <ele>331.311523</ele>
        <time>2012-02-05T14:17:18Z</time>
      </trkpt>
      <trkpt lat="43.58039" lon="3.25841">
        <ele>327.946777</ele>
        <time>2012-02-05T14:17:22Z</time>
      </trkpt>
      <trkpt lat="43.58044" lon="3.25828">
        <ele>325.543579</ele>
        <time>2012-02-05T14:17:26Z</time>
      </trkpt>
      <trkpt lat="43.58054" lon="3.25823">
        <ele>326.504883</ele>
        <time>2012-02-05T14:17:31Z</time>
      </trkpt>
      <trkpt lat="43.58062" lon="3.25814">
        <ele>325.543579</ele>
        <time>2012-02-05T14:17:36Z</time>
      </trkpt>
      <trkpt lat="43.58074" lon="3.25802">
        <ele>327.946777</ele>
        <time>2012-02-05T14:17:43Z</time>
      </trkpt>
      <trkpt lat="43.58081" lon="3.25791">
        <ele>328.908325</ele>
        <time>2012-02-05T14:17:48Z</time>
      </trkpt>
      <trkpt lat="43.58088" lon="3.25781">
        <ele>329.869507</ele>
        <time>2012-02-05T14:17:53Z</time>
      </trkpt>
      <trkpt lat="43.58089" lon="3.25778">
        <ele>329.869507</ele>
        <time>2012-02-05T14:17:55Z</time>
      </trkpt>
      <trkpt lat="43.58095" lon="3.25767">
        <ele>331.311523</ele>
        <time>2012-02-05T14:18:02Z</time>
      </trkpt>
      <trkpt lat="43.58096" lon="3.25764">
        <ele>330.830933</ele>
        <time>2012-02-05T14:18:04Z</time>
      </trkpt>
      <trkpt lat="43.58099" lon="3.25755">
        <ele>331.792114</ele>
        <time>2012-02-05T14:18:09Z</time>
      </trkpt>
      <trkpt lat="43.58104" lon="3.25744">
        <ele>333.234131</ele>
        <time>2012-02-05T14:18:15Z</time>
      </trkpt>
      <trkpt lat="43.58108" lon="3.25726">
        <ele>333.234131</ele>
        <time>2012-02-05T14:18:21Z</time>
      </trkpt>
      <trkpt lat="43.58117" lon="3.25703">
        <ele>333.234131</ele>
        <time>2012-02-05T14:18:27Z</time>
      </trkpt>
      <trkpt lat="43.58125" lon="3.25688">
        <ele>335.156738</ele>
        <time>2012-02-05T14:18:33Z</time>
      </trkpt>
      <trkpt lat="43.58126" lon="3.25685">
        <ele>334.195435</ele>
        <time>2012-02-05T14:18:34Z</time>
      </trkpt>
      <trkpt lat="43.58127" lon="3.25669">
        <ele>333.234131</ele>
        <time>2012-02-05T14:18:39Z</time>
      </trkpt>
      <trkpt lat="43.58128" lon="3.25653">
        <ele>332.272827</ele>
        <time>2012-02-05T14:18:44Z</time>
      </trkpt>
      <trkpt lat="43.58134" lon="3.25648">
        <ele>332.75354</ele>
        <time>2012-02-05T14:18:48Z</time>
      </trkpt>
      <trkpt lat="43.58146" lon="3.25635">
        <ele>334.195435</ele>
        <time>2012-02-05T14:18:57Z</time>
      </trkpt>
      <trkpt lat="43.58149" lon="3.25632">
        <ele>335.156738</ele>
        <time>2012-02-05T14:18:59Z</time>
      </trkpt>
      <trkpt lat="43.58162" lon="3.25624">
        <ele>336.598877</ele>
        <time>2012-02-05T14:19:07Z</time>
      </trkpt>
      <trkpt lat="43.58173" lon="3.25616">
        <ele>337.560059</ele>
        <time>2012-02-05T14:19:14Z</time>
      </trkpt>
      <trkpt lat="43.58188" lon="3.25604">
        <ele>339.002075</ele>
        <time>2012-02-05T14:19:23Z</time>
      </trkpt>
      <trkpt lat="43.58202" lon="3.2559">
        <ele>339.482666</ele>
        <time>2012-02-05T14:19:31Z</time>
      </trkpt>
      <trkpt lat="43.58224" lon="3.25572">
        <ele>339.963379</ele>
        <time>2012-02-05T14:19:42Z</time>
      </trkpt>
      <trkpt lat="43.58237" lon="3.25564">
        <ele>342.366699</ele>
        <time>2012-02-05T14:19:49Z</time>
      </trkpt>
      <trkpt lat="43.58246" lon="3.25555">
        <ele>343.327881</ele>
        <time>2012-02-05T14:19:55Z</time>
      </trkpt>
      <trkpt lat="43.58253" lon="3.25541">
        <ele>344.770019</ele>
        <time>2012-02-05T14:20:02Z</time>
      </trkpt>
      <trkpt lat="43.58266" lon="3.25526">
        <ele>345.731323</ele>
        <time>2012-02-05T14:20:11Z</time>
      </trkpt>
      <trkpt lat="43.58276" lon="3.25519">
        <ele>346.692627</ele>
        <time>2012-02-05T14:20:18Z</time>
      </trkpt>
      <trkpt lat="43.58289" lon="3.25511">
        <ele>348.615234</ele>
        <time>2012-02-05T14:20:27Z</time>
      </trkpt>
      <trkpt lat="43.583" lon="3.25504">
        <ele>350.057251</ele>
        <time>2012-02-05T14:20:36Z</time>
      </trkpt>
      <trkpt lat="43.58308" lon="3.25498">
        <ele>351.499145</ele>
        <time>2012-02-05T14:20:43Z</time>
      </trkpt>
      <trkpt lat="43.58321" lon="3.25489">
        <ele>353.421875</ele>
        <time>2012-02-05T14:20:53Z</time>
      </trkpt>
      <trkpt lat="43.58334" lon="3.25481">
        <ele>355.344482</ele>
        <time>2012-02-05T14:21:02Z</time>
      </trkpt>
      <trkpt lat="43.58345" lon="3.25481">
        <ele>354.863769</ele>
        <time>2012-02-05T14:21:09Z</time>
      </trkpt>
      <trkpt lat="43.58358" lon="3.25476">
        <ele>355.344482</ele>
        <time>2012-02-05T14:21:16Z</time>
      </trkpt>
      <trkpt lat="43.58373" lon="3.25461">
        <ele>357.747803</ele>
        <time>2012-02-05T14:21:25Z</time>
      </trkpt>
      <trkpt lat="43.58387" lon="3.25442">
        <ele>358.708984</ele>
        <time>2012-02-05T14:21:34Z</time>
      </trkpt>
      <trkpt lat="43.58396" lon="3.25418">
        <ele>359.189697</ele>
        <time>2012-02-05T14:21:43Z</time>
      </trkpt>
      <trkpt lat="43.58399" lon="3.25394">
        <ele>360.631714</ele>
        <time>2012-02-05T14:21:51Z</time>
      </trkpt>
      <trkpt lat="43.58401" lon="3.25366">
        <ele>360.631714</ele>
        <time>2012-02-05T14:21:59Z</time>
      </trkpt>
      <trkpt lat="43.58402" lon="3.2533">
        <ele>361.59314</ele>
        <time>2012-02-05T14:22:09Z</time>
      </trkpt>
      <trkpt lat="43.58398" lon="3.25306">
        <ele>362.554321</ele>
        <time>2012-02-05T14:22:16Z</time>
      </trkpt>
      <trkpt lat="43.58396" lon="3.25285">
        <ele>363.035034</ele>
        <time>2012-02-05T14:22:23Z</time>
      </trkpt>
      <trkpt lat="43.58398" lon="3.25267">
        <ele>363.996338</ele>
        <time>2012-02-05T14:22:29Z</time>
      </trkpt>
      <trkpt lat="43.58403" lon="3.25246">
        <ele>363.996338</ele>
        <time>2012-02-05T14:22:36Z</time>
      </trkpt>
      <trkpt lat="43.58405" lon="3.25236">
        <ele>364.957642</ele>
        <time>2012-02-05T14:22:39Z</time>
      </trkpt>
      <trkpt lat="43.58406" lon="3.25208">
        <ele>367.360962</ele>
        <time>2012-02-05T14:22:48Z</time>
      </trkpt>
      <trkpt lat="43.58405" lon="3.25191">
        <ele>368.802978</ele>
        <time>2012-02-05T14:22:55Z</time>
      </trkpt>
      <trkpt lat="43.58405" lon="3.25169">
        <ele>370.725586</ele>
        <time>2012-02-05T14:23:04Z</time>
      </trkpt>
      <trkpt lat="43.58405" lon="3.25153">
        <ele>372.648193</ele>
        <time>2012-02-05T14:23:12Z</time>
      </trkpt>
      <trkpt lat="43.58406" lon="3.25139">
        <ele>374.090088</ele>
        <time>2012-02-05T14:23:20Z</time>
      </trkpt>
      <trkpt lat="43.58407" lon="3.2513">
        <ele>375.532105</ele>
        <time>2012-02-05T14:23:27Z</time>
      </trkpt>
      <trkpt lat="43.58408" lon="3.25118">
        <ele>377.454834</ele>
        <time>2012-02-05T14:23:34Z</time>
      </trkpt>
      <trkpt lat="43.5841" lon="3.25106">
        <ele>378.416138</ele>
        <time>2012-02-05T14:23:41Z</time>
      </trkpt>
      <trkpt lat="43.58416" lon="3.25095">
        <ele>379.377441</ele>
        <time>2012-02-05T14:23:49Z</time>
      </trkpt>
      <trkpt lat="43.58423" lon="3.25087">
        <ele>380.338745</ele>
        <time>2012-02-05T14:23:55Z</time>
      </trkpt>
      <trkpt lat="43.58431" lon="3.25076">
        <ele>381.78064</ele>
        <time>2012-02-05T14:24:03Z</time>
      </trkpt>
      <trkpt lat="43.5844" lon="3.25062">
        <ele>383.222656</ele>
        <time>2012-02-05T14:24:11Z</time>
      </trkpt>
      <trkpt lat="43.58441" lon="3.2506">
        <ele>383.222656</ele>
        <time>2012-02-05T14:24:12Z</time>
      </trkpt>
      <trkpt lat="43.58446" lon="3.25047">
        <ele>384.184082</ele>
        <time>2012-02-05T14:24:18Z</time>
      </trkpt>
      <trkpt lat="43.58451" lon="3.25027">
        <ele>385.625977</ele>
        <time>2012-02-05T14:24:27Z</time>
      </trkpt>
      <trkpt lat="43.58458" lon="3.25011">
        <ele>386.587402</ele>
        <time>2012-02-05T14:24:35Z</time>
      </trkpt>
      <trkpt lat="43.58465" lon="3.24999">
        <ele>386.587402</ele>
        <time>2012-02-05T14:24:43Z</time>
      </trkpt>
      <trkpt lat="43.58469" lon="3.24993">
        <ele>387.067993</ele>
        <time>2012-02-05T14:24:49Z</time>
      </trkpt>
      <trkpt lat="43.58476" lon="3.24981">
        <ele>387.067993</ele>
        <time>2012-02-05T14:24:56Z</time>
      </trkpt>
      <trkpt lat="43.58486" lon="3.24967">
        <ele>387.067993</ele>
        <time>2012-02-05T14:25:02Z</time>
      </trkpt>
      <trkpt lat="43.58494" lon="3.24956">
        <ele>389.471191</ele>
        <time>2012-02-05T14:25:08Z</time>
      </trkpt>
      <trkpt lat="43.58503" lon="3.24948">
        <ele>390.913208</ele>
        <time>2012-02-05T14:25:15Z</time>
      </trkpt>
      <trkpt lat="43.58516" lon="3.24942">
        <ele>391.874512</ele>
        <time>2012-02-05T14:25:23Z</time>
      </trkpt>
      <trkpt lat="43.58524" lon="3.24943">
        <ele>391.393799</ele>
        <time>2012-02-05T14:25:29Z</time>
      </trkpt>
      <trkpt lat="43.58535" lon="3.24945">
        <ele>391.874512</ele>
        <time>2012-02-05T14:25:35Z</time>
      </trkpt>
      <trkpt lat="43.58551" lon="3.24947">
        <ele>391.874512</ele>
        <time>2012-02-05T14:25:43Z</time>
      </trkpt>
      <trkpt lat="43.58564" lon="3.24951">
        <ele>390.913208</ele>
        <time>2012-02-05T14:25:49Z</time>
      </trkpt>
      <trkpt lat="43.58575" lon="3.24957">
        <ele>388.990601</ele>
        <time>2012-02-05T14:25:55Z</time>
      </trkpt>
      <trkpt lat="43.58587" lon="3.24957">
        <ele>387.548584</ele>
        <time>2012-02-05T14:26:01Z</time>
      </trkpt>
      <trkpt lat="43.58597" lon="3.24947">
        <ele>386.587402</ele>
        <time>2012-02-05T14:26:07Z</time>
      </trkpt>
      <trkpt lat="43.58597" lon="3.24946">
        <ele>387.067993</ele>
        <time>2012-02-05T14:26:08Z</time>
      </trkpt>
      <trkpt lat="43.58598" lon="3.24946">
        <ele>386.587402</ele>
        <time>2012-02-05T14:26:17Z</time>
      </trkpt>
      <trkpt lat="43.58599" lon="3.24945">
        <ele>387.067993</ele>
        <time>2012-02-05T14:26:18Z</time>
      </trkpt>
      <trkpt lat="43.58602" lon="3.24942">
        <ele>385.625977</ele>
        <time>2012-02-05T14:26:21Z</time>
      </trkpt>
      <trkpt lat="43.58602" lon="3.2494">
        <ele>385.145386</ele>
        <time>2012-02-05T14:30:39Z</time>
      </trkpt>
      <trkpt lat="43.58611" lon="3.24927">
        <ele>384.184082</ele>
        <time>2012-02-05T14:30:45Z</time>
      </trkpt>
      <trkpt lat="43.58621" lon="3.24906">
        <ele>380.819458</ele>
        <time>2012-02-05T14:30:50Z</time>
      </trkpt>
      <trkpt lat="43.58632" lon="3.249">
        <ele>377.454834</ele>
        <time>2012-02-05T14:30:54Z</time>
      </trkpt>
      <trkpt lat="43.58642" lon="3.24897">
        <ele>376.012817</ele>
        <time>2012-02-05T14:30:57Z</time>
      </trkpt>
      <trkpt lat="43.58649" lon="3.24896">
        <ele>373.609497</ele>
        <time>2012-02-05T14:30:59Z</time>
      </trkpt>
      <trkpt lat="43.5866" lon="3.24891">
        <ele>369.283691</ele>
        <time>2012-02-05T14:31:03Z</time>
      </trkpt>
      <trkpt lat="43.58677" lon="3.2487">
        <ele>364.957642</ele>
        <time>2012-02-05T14:31:09Z</time>
      </trkpt>
      <trkpt lat="43.58687" lon="3.24861">
        <ele>363.035034</ele>
        <time>2012-02-05T14:31:12Z</time>
      </trkpt>
      <trkpt lat="43.58697" lon="3.24847">
        <ele>359.67041</ele>
        <time>2012-02-05T14:31:16Z</time>
      </trkpt>
      <trkpt lat="43.58716" lon="3.24833">
        <ele>353.902588</ele>
        <time>2012-02-05T14:31:21Z</time>
      </trkpt>
      <trkpt lat="43.5872" lon="3.24831">
        <ele>353.421875</ele>
        <time>2012-02-05T14:31:22Z</time>
      </trkpt>
      <trkpt lat="43.58736" lon="3.24826">
        <ele>348.615234</ele>
        <time>2012-02-05T14:31:26Z</time>
      </trkpt>
      <trkpt lat="43.58746" lon="3.24817">
        <ele>346.212036</ele>
        <time>2012-02-05T14:31:29Z</time>
      </trkpt>
      <trkpt lat="43.58759" lon="3.24805">
        <ele>344.770019</ele>
        <time>2012-02-05T14:31:32Z</time>
      </trkpt>
      <trkpt lat="43.58777" lon="3.24775">
        <ele>342.366699</ele>
        <time>2012-02-05T14:31:37Z</time>
      </trkpt>
      <trkpt lat="43.58784" lon="3.2476">
        <ele>338.521484</ele>
        <time>2012-02-05T14:31:41Z</time>
      </trkpt>
      <trkpt lat="43.58791" lon="3.24745">
        <ele>336.598877</ele>
        <time>2012-02-05T14:31:45Z</time>
      </trkpt>
      <trkpt lat="43.58791" lon="3.24738">
        <ele>335.156738</ele>
        <time>2012-02-05T14:31:47Z</time>
      </trkpt>
      <trkpt lat="43.58791" lon="3.24727">
        <ele>332.75354</ele>
        <time>2012-02-05T14:31:51Z</time>
      </trkpt>
      <trkpt lat="43.58791" lon="3.24727">
        <ele>332.75354</ele>
        <time>2012-02-05T14:31:53Z</time>
      </trkpt>
      <trkpt lat="43.58791" lon="3.24722">
        <ele>332.272827</ele>
        <time>2012-02-05T14:32:21Z</time>
      </trkpt>
      <trkpt lat="43.58785" lon="3.24708">
        <ele>330.830933</ele>
        <time>2012-02-05T14:32:25Z</time>
      </trkpt>
      <trkpt lat="43.58784" lon="3.24701">
        <ele>329.869507</ele>
        <time>2012-02-05T14:32:27Z</time>
      </trkpt>
      <trkpt lat="43.58796" lon="3.24701">
        <ele>328.427612</ele>
        <time>2012-02-05T14:32:32Z</time>
      </trkpt>
      <trkpt lat="43.5881" lon="3.24694">
        <ele>326.02417</ele>
        <time>2012-02-05T14:32:36Z</time>
      </trkpt>
      <trkpt lat="43.58824" lon="3.24687">
        <ele>322.659668</ele>
        <time>2012-02-05T14:32:40Z</time>
      </trkpt>
      <trkpt lat="43.58836" lon="3.24678">
        <ele>320.256348</ele>
        <time>2012-02-05T14:32:44Z</time>
      </trkpt>
      <trkpt lat="43.58842" lon="3.2467">
        <ele>320.73706</ele>
        <time>2012-02-05T14:32:47Z</time>
      </trkpt>
      <trkpt lat="43.58855" lon="3.24677">
        <ele>320.256348</ele>
        <time>2012-02-05T14:32:52Z</time>
      </trkpt>
      <trkpt lat="43.58858" lon="3.24681">
        <ele>319.775635</ele>
        <time>2012-02-05T14:32:53Z</time>
      </trkpt>
      <trkpt lat="43.5888" lon="3.24701">
        <ele>318.814331</ele>
        <time>2012-02-05T14:32:59Z</time>
      </trkpt>
      <trkpt lat="43.58887" lon="3.2471">
        <ele>316.891724</ele>
        <time>2012-02-05T14:33:01Z</time>
      </trkpt>
      <trkpt lat="43.58904" lon="3.24728">
        <ele>312.085205</ele>
        <time>2012-02-05T14:33:05Z</time>
      </trkpt>
      <trkpt lat="43.58912" lon="3.24737">
        <ele>311.123779</ele>
        <time>2012-02-05T14:33:07Z</time>
      </trkpt>
      <trkpt lat="43.5892" lon="3.24745">
        <ele>310.162476</ele>
        <time>2012-02-05T14:33:09Z</time>
      </trkpt>
      <trkpt lat="43.58933" lon="3.24761">
        <ele>306.797852</ele>
        <time>2012-02-05T14:33:12Z</time>
      </trkpt>
      <trkpt lat="43.58946" lon="3.24787">
        <ele>302.471924</ele>
        <time>2012-02-05T14:33:16Z</time>
      </trkpt>
      <trkpt lat="43.5895" lon="3.24794">
        <ele>301.51062</ele>
        <time>2012-02-05T14:33:17Z</time>
      </trkpt>
      <trkpt lat="43.58958" lon="3.24818">
        <ele>299.588013</ele>
        <time>2012-02-05T14:33:20Z</time>
      </trkpt>
      <trkpt lat="43.58963" lon="3.24855">
        <ele>293.339356</ele>
        <time>2012-02-05T14:33:25Z</time>
      </trkpt>
      <trkpt lat="43.58961" lon="3.24875">
        <ele>290.455566</ele>
        <time>2012-02-05T14:33:28Z</time>
      </trkpt>
      <trkpt lat="43.58958" lon="3.24896">
        <ele>287.09082</ele>
        <time>2012-02-05T14:33:33Z</time>
      </trkpt>
      <trkpt lat="43.58958" lon="3.24906">
        <ele>284.687622</ele>
        <time>2012-02-05T14:33:36Z</time>
      </trkpt>
      <trkpt lat="43.58953" lon="3.24914">
        <ele>282.765015</ele>
        <time>2012-02-05T14:33:41Z</time>
      </trkpt>
      <trkpt lat="43.58949" lon="3.24921">
        <ele>278.919678</ele>
        <time>2012-02-05T14:33:44Z</time>
      </trkpt>
      <trkpt lat="43.58946" lon="3.24927">
        <ele>275.074463</ele>
        <time>2012-02-05T14:33:48Z</time>
      </trkpt>
      <trkpt lat="43.58946" lon="3.2493">
        <ele>275.074463</ele>
        <time>2012-02-05T14:33:49Z</time>
      </trkpt>
      <trkpt lat="43.58956" lon="3.24939">
        <ele>272.671143</ele>
        <time>2012-02-05T14:33:53Z</time>
      </trkpt>
      <trkpt lat="43.58966" lon="3.24947">
        <ele>271.229126</ele>
        <time>2012-02-05T14:33:56Z</time>
      </trkpt>
      <trkpt lat="43.5898" lon="3.24964">
        <ele>268.825806</ele>
        <time>2012-02-05T14:34:01Z</time>
      </trkpt>
      <trkpt lat="43.58991" lon="3.24962">
        <ele>267.864502</ele>
        <time>2012-02-05T14:34:05Z</time>
      </trkpt>
      <trkpt lat="43.58998" lon="3.24958">
        <ele>266.422485</ele>
        <time>2012-02-05T14:34:07Z</time>
      </trkpt>
      <trkpt lat="43.59014" lon="3.24945">
        <ele>261.615967</ele>
        <time>2012-02-05T14:34:12Z</time>
      </trkpt>
      <trkpt lat="43.59018" lon="3.24942">
        <ele>260.17395</ele>
        <time>2012-02-05T14:34:14Z</time>
      </trkpt>
      <trkpt lat="43.59021" lon="3.24949">
        <ele>257.770752</ele>
        <time>2012-02-05T14:34:18Z</time>
      </trkpt>
      <trkpt lat="43.5902" lon="3.24951">
        <ele>257.770752</ele>
        <time>2012-02-05T14:34:19Z</time>
      </trkpt>
      <trkpt lat="43.59017" lon="3.24954">
        <ele>256.809326</ele>
        <time>2012-02-05T14:34:23Z</time>
      </trkpt>
      <trkpt lat="43.59018" lon="3.24957">
        <ele>256.809326</ele>
        <time>2012-02-05T14:35:20Z</time>
      </trkpt>
      <trkpt lat="43.59012" lon="3.2497">
        <ele>255.36731</ele>
        <time>2012-02-05T14:35:26Z</time>
      </trkpt>
      <trkpt lat="43.59008" lon="3.24982">
        <ele>253.444702</ele>
        <time>2012-02-05T14:35:29Z</time>
      </trkpt>
      <trkpt lat="43.58994" lon="3.25001">
        <ele>250.560791</ele>
        <time>2012-02-05T14:35:34Z</time>
      </trkpt>
      <trkpt lat="43.58989" lon="3.25002">
        <ele>250.560791</ele>
        <time>2012-02-05T14:35:35Z</time>
      </trkpt>
      <trkpt lat="43.5898" lon="3.25006">
        <ele>248.157593</ele>
        <time>2012-02-05T14:35:38Z</time>
      </trkpt>
      <trkpt lat="43.58982" lon="3.25015">
        <ele>246.715454</ele>
        <time>2012-02-05T14:35:41Z</time>
      </trkpt>
      <trkpt lat="43.58985" lon="3.25017">
        <ele>247.196045</ele>
        <time>2012-02-05T14:35:42Z</time>
      </trkpt>
      <trkpt lat="43.59" lon="3.25016">
        <ele>245.273438</ele>
        <time>2012-02-05T14:35:47Z</time>
      </trkpt>
      <trkpt lat="43.59009" lon="3.25012">
        <ele>245.273438</ele>
        <time>2012-02-05T14:35:50Z</time>
      </trkpt>
      <trkpt lat="43.59017" lon="3.2503">
        <ele>244.312256</ele>
        <time>2012-02-05T14:35:54Z</time>
      </trkpt>
      <trkpt lat="43.59021" lon="3.25054">
        <ele>244.792847</ele>
        <time>2012-02-05T14:35:59Z</time>
      </trkpt>
      <trkpt lat="43.59027" lon="3.25071">
        <ele>244.312256</ele>
        <time>2012-02-05T14:36:05Z</time>
      </trkpt>
      <trkpt lat="43.59033" lon="3.25078">
        <ele>245.75415</ele>
        <time>2012-02-05T14:36:10Z</time>
      </trkpt>
      <trkpt lat="43.59041" lon="3.25079">
        <ele>246.715454</ele>
        <time>2012-02-05T14:36:15Z</time>
      </trkpt>
      <trkpt lat="43.59037" lon="3.25082">
        <ele>247.196045</ele>
        <time>2012-02-05T14:36:18Z</time>
      </trkpt>
      <trkpt lat="43.59036" lon="3.25083">
        <ele>247.676758</ele>
        <time>2012-02-05T14:36:19Z</time>
      </trkpt>
      <trkpt lat="43.59027" lon="3.25091">
        <ele>248.638184</ele>
        <time>2012-02-05T14:36:26Z</time>
      </trkpt>
      <trkpt lat="43.59019" lon="3.25101">
        <ele>250.560791</ele>
        <time>2012-02-05T14:36:33Z</time>
      </trkpt>
      <trkpt lat="43.5901" lon="3.25116">
        <ele>252.002808</ele>
        <time>2012-02-05T14:36:41Z</time>
      </trkpt>
      <trkpt lat="43.59004" lon="3.25124">
        <ele>252.002808</ele>
        <time>2012-02-05T14:36:46Z</time>
      </trkpt>
      <trkpt lat="43.58995" lon="3.2514">
        <ele>252.002808</ele>
        <time>2012-02-05T14:36:53Z</time>
      </trkpt>
      <trkpt lat="43.58988" lon="3.25153">
        <ele>254.406006</ele>
        <time>2012-02-05T14:37:00Z</time>
      </trkpt>
      <trkpt lat="43.58983" lon="3.25165">
        <ele>256.328735</ele>
        <time>2012-02-05T14:37:07Z</time>
      </trkpt>
      <trkpt lat="43.58975" lon="3.25179">
        <ele>258.731934</ele>
        <time>2012-02-05T14:37:15Z</time>
      </trkpt>
      <trkpt lat="43.58963" lon="3.25191">
        <ele>261.135254</ele>
        <time>2012-02-05T14:37:24Z</time>
      </trkpt>
      <trkpt lat="43.58952" lon="3.25202">
        <ele>263.057861</ele>
        <time>2012-02-05T14:37:33Z</time>
      </trkpt>
      <trkpt lat="43.58949" lon="3.25204">
        <ele>264.019287</ele>
        <time>2012-02-05T14:37:35Z</time>
      </trkpt>
      <trkpt lat="43.5895" lon="3.2521">
        <ele>264.980591</ele>
        <time>2012-02-05T14:37:39Z</time>
      </trkpt>
      <trkpt lat="43.58956" lon="3.25209">
        <ele>265.941894</ele>
        <time>2012-02-05T14:37:43Z</time>
      </trkpt>
      <trkpt lat="43.58958" lon="3.25209">
        <ele>265.941894</ele>
        <time>2012-02-05T14:37:44Z</time>
      </trkpt>
      <trkpt lat="43.58967" lon="3.25206">
        <ele>267.864502</ele>
        <time>2012-02-05T14:37:51Z</time>
      </trkpt>
      <trkpt lat="43.5897" lon="3.25211">
        <ele>269.306519</ele>
        <time>2012-02-05T14:37:57Z</time>
      </trkpt>
      <trkpt lat="43.58969" lon="3.25212">
        <ele>269.306519</ele>
        <time>2012-02-05T14:37:59Z</time>
      </trkpt>
      <trkpt lat="43.58968" lon="3.25212">
        <ele>269.787109</ele>
        <time>2012-02-05T14:38:03Z</time>
      </trkpt>
      <trkpt lat="43.58967" lon="3.25213">
        <ele>269.787109</ele>
        <time>2012-02-05T14:38:04Z</time>
      </trkpt>
      <trkpt lat="43.58966" lon="3.25213">
        <ele>269.787109</ele>
        <time>2012-02-05T14:38:05Z</time>
      </trkpt>
      <trkpt lat="43.58962" lon="3.25215">
        <ele>270.2677</ele>
        <time>2012-02-05T14:38:08Z</time>
      </trkpt>
      <trkpt lat="43.58954" lon="3.25221">
        <ele>271.229126</ele>
        <time>2012-02-05T14:38:17Z</time>
      </trkpt>
      <trkpt lat="43.58947" lon="3.25229">
        <ele>271.709717</ele>
        <time>2012-02-05T14:38:27Z</time>
      </trkpt>
      <trkpt lat="43.58948" lon="3.25233">
        <ele>271.709717</ele>
        <time>2012-02-05T14:38:32Z</time>
      </trkpt>
      <trkpt lat="43.58948" lon="3.25233">
        <ele>272.19043</ele>
        <time>2012-02-05T14:38:43Z</time>
      </trkpt>
      <trkpt lat="43.58947" lon="3.25233">
        <ele>271.709717</ele>
        <time>2012-02-05T14:38:45Z</time>
      </trkpt>
      <trkpt lat="43.58948" lon="3.25233">
        <ele>272.19043</ele>
        <time>2012-02-05T14:38:57Z</time>
      </trkpt>
      <trkpt lat="43.58951" lon="3.25233">
        <ele>273.151856</ele>
        <time>2012-02-05T14:38:59Z</time>
      </trkpt>
      <trkpt lat="43.5896" lon="3.25227">
        <ele>273.632446</ele>
        <time>2012-02-05T14:39:07Z</time>
      </trkpt>
      <trkpt lat="43.58973" lon="3.25223">
        <ele>275.555054</ele>
        <time>2012-02-05T14:39:16Z</time>
      </trkpt>
      <trkpt lat="43.58982" lon="3.25219">
        <ele>276.99707</ele>
        <time>2012-02-05T14:39:24Z</time>
      </trkpt>
      <trkpt lat="43.58993" lon="3.25214">
        <ele>278.438965</ele>
        <time>2012-02-05T14:39:33Z</time>
      </trkpt>
      <trkpt lat="43.59002" lon="3.25214">
        <ele>279.880859</ele>
        <time>2012-02-05T14:39:42Z</time>
      </trkpt>
      <trkpt lat="43.59004" lon="3.25213">
        <ele>280.361694</ele>
        <time>2012-02-05T14:39:46Z</time>
      </trkpt>
      <trkpt lat="43.59005" lon="3.25214">
        <ele>280.842407</ele>
        <time>2012-02-05T14:39:49Z</time>
      </trkpt>
      <trkpt lat="43.5901" lon="3.25213">
        <ele>281.803589</ele>
        <time>2012-02-05T14:39:55Z</time>
      </trkpt>
      <trkpt lat="43.59011" lon="3.25213">
        <ele>281.803589</ele>
        <time>2012-02-05T14:39:56Z</time>
      </trkpt>
      <trkpt lat="43.59011" lon="3.25213">
        <ele>281.803589</ele>
        <time>2012-02-05T14:39:59Z</time>
      </trkpt>
      <trkpt lat="43.59015" lon="3.25213">
        <ele>282.765015</ele>
        <time>2012-02-05T14:40:03Z</time>
      </trkpt>
      <trkpt lat="43.59023" lon="3.25212">
        <ele>284.687622</ele>
        <time>2012-02-05T14:40:13Z</time>
      </trkpt>
      <trkpt lat="43.59029" lon="3.25212">
        <ele>286.129517</ele>
        <time>2012-02-05T14:40:22Z</time>
      </trkpt>
      <trkpt lat="43.59031" lon="3.25212">
        <ele>286.129517</ele>
        <time>2012-02-05T14:40:25Z</time>
      </trkpt>
      <trkpt lat="43.59032" lon="3.25212">
        <ele>286.129517</ele>
        <time>2012-02-05T14:40:28Z</time>
      </trkpt>
      <trkpt lat="43.59034" lon="3.25212">
        <ele>286.129517</ele>
        <time>2012-02-05T14:40:31Z</time>
      </trkpt>
      <trkpt lat="43.59033" lon="3.25211">
        <ele>286.129517</ele>
        <time>2012-02-05T14:40:32Z</time>
      </trkpt>
      <trkpt lat="43.59032" lon="3.25205">
        <ele>286.61023</ele>
        <time>2012-02-05T14:41:03Z</time>
      </trkpt>
      <trkpt lat="43.59039" lon="3.25208">
        <ele>288.052246</ele>
        <time>2012-02-05T14:41:08Z</time>
      </trkpt>
      <trkpt lat="43.59039" lon="3.25209">
        <ele>288.532959</ele>
        <time>2012-02-05T14:41:10Z</time>
      </trkpt>
      <trkpt lat="43.59039" lon="3.25209">
        <ele>288.052246</ele>
        <time>2012-02-05T14:41:13Z</time>
      </trkpt>
      <trkpt lat="43.59041" lon="3.25209">
        <ele>289.974853</ele>
        <time>2012-02-05T14:41:14Z</time>
      </trkpt>
      <trkpt lat="43.59046" lon="3.25211">
        <ele>290.936157</ele>
        <time>2012-02-05T14:41:21Z</time>
      </trkpt>
      <trkpt lat="43.59049" lon="3.25212">
        <ele>290.455566</ele>
        <time>2012-02-05T14:41:25Z</time>
      </trkpt>
      <trkpt lat="43.59056" lon="3.25218">
        <ele>292.378174</ele>
        <time>2012-02-05T14:41:32Z</time>
      </trkpt>
      <trkpt lat="43.59059" lon="3.25224">
        <ele>294.300781</ele>
        <time>2012-02-05T14:41:38Z</time>
      </trkpt>
      <trkpt lat="43.59055" lon="3.2523">
        <ele>294.781372</ele>
        <time>2012-02-05T14:41:45Z</time>
      </trkpt>
      <trkpt lat="43.59053" lon="3.25235">
        <ele>297.184692</ele>
        <time>2012-02-05T14:41:50Z</time>
      </trkpt>
      <trkpt lat="43.59059" lon="3.25242">
        <ele>298.146118</ele>
        <time>2012-02-05T14:41:58Z</time>
      </trkpt>
      <trkpt lat="43.59063" lon="3.25245">
        <ele>299.588013</ele>
        <time>2012-02-05T14:42:04Z</time>
      </trkpt>
      <trkpt lat="43.59067" lon="3.25252">
        <ele>301.991333</ele>
        <time>2012-02-05T14:42:12Z</time>
      </trkpt>
      <trkpt lat="43.59069" lon="3.25259">
        <ele>302.471924</ele>
        <time>2012-02-05T14:42:20Z</time>
      </trkpt>
      <trkpt lat="43.59073" lon="3.25261">
        <ele>303.433227</ele>
        <time>2012-02-05T14:42:26Z</time>
      </trkpt>
      <trkpt lat="43.59078" lon="3.25257">
        <ele>305.355957</ele>
        <time>2012-02-05T14:42:34Z</time>
      </trkpt>
      <trkpt lat="43.59082" lon="3.25259">
        <ele>306.797852</ele>
        <time>2012-02-05T14:42:41Z</time>
      </trkpt>
      <trkpt lat="43.59082" lon="3.25267">
        <ele>307.759277</ele>
        <time>2012-02-05T14:42:50Z</time>
      </trkpt>
      <trkpt lat="43.59081" lon="3.25273">
        <ele>308.239868</ele>
        <time>2012-02-05T14:42:57Z</time>
      </trkpt>
      <trkpt lat="43.5908" lon="3.25278">
        <ele>310.162476</ele>
        <time>2012-02-05T14:43:04Z</time>
      </trkpt>
      <trkpt lat="43.5908" lon="3.25279">
        <ele>309.681885</ele>
        <time>2012-02-05T14:43:07Z</time>
      </trkpt>
      <trkpt lat="43.5908" lon="3.25286">
        <ele>311.604492</ele>
        <time>2012-02-05T14:43:14Z</time>
      </trkpt>
      <trkpt lat="43.59082" lon="3.25297">
        <ele>313.527222</ele>
        <time>2012-02-05T14:43:24Z</time>
      </trkpt>
      <trkpt lat="43.59083" lon="3.25307">
        <ele>315.449829</ele>
        <time>2012-02-05T14:43:34Z</time>
      </trkpt>
      <trkpt lat="43.59084" lon="3.25315">
        <ele>316.891724</ele>
        <time>2012-02-05T14:43:41Z</time>
      </trkpt>
      <trkpt lat="43.59085" lon="3.25323">
        <ele>318.333618</ele>
        <time>2012-02-05T14:43:50Z</time>
      </trkpt>
      <trkpt lat="43.59088" lon="3.25331">
        <ele>318.814331</ele>
        <time>2012-02-05T14:43:58Z</time>
      </trkpt>
      <trkpt lat="43.59089" lon="3.25335">
        <ele>319.775635</ele>
        <time>2012-02-05T14:44:03Z</time>
      </trkpt>
      <trkpt lat="43.59089" lon="3.25335">
        <ele>319.295044</ele>
        <time>2012-02-05T14:44:06Z</time>
      </trkpt>
      <trkpt lat="43.59089" lon="3.25334">
        <ele>319.295044</ele>
        <time>2012-02-05T14:44:07Z</time>
      </trkpt>
      <trkpt lat="43.59089" lon="3.25335">
        <ele>318.814331</ele>
        <time>2012-02-05T14:44:08Z</time>
      </trkpt>
      <trkpt lat="43.5909" lon="3.25335">
        <ele>319.295044</ele>
        <time>2012-02-05T14:44:11Z</time>
      </trkpt>
      <trkpt lat="43.59091" lon="3.2534">
        <ele>319.775635</ele>
        <time>2012-02-05T14:44:12Z</time>
      </trkpt>
      <trkpt lat="43.59095" lon="3.25346">
        <ele>320.256348</ele>
        <time>2012-02-05T14:44:18Z</time>
      </trkpt>
      <trkpt lat="43.59097" lon="3.25351">
        <ele>321.698364</ele>
        <time>2012-02-05T14:44:25Z</time>
      </trkpt>
      <trkpt lat="43.59098" lon="3.25352">
        <ele>321.698364</ele>
        <time>2012-02-05T14:44:28Z</time>
      </trkpt>
      <trkpt lat="43.59098" lon="3.25353">
        <ele>321.698364</ele>
        <time>2012-02-05T14:44:29Z</time>
      </trkpt>
      <trkpt lat="43.59103" lon="3.2536">
        <ele>323.140381</ele>
        <time>2012-02-05T14:44:35Z</time>
      </trkpt>
      <trkpt lat="43.59107" lon="3.25367">
        <ele>324.101562</ele>
        <time>2012-02-05T14:44:44Z</time>
      </trkpt>
      <trkpt lat="43.59111" lon="3.25373">
        <ele>324.582275</ele>
        <time>2012-02-05T14:44:53Z</time>
      </trkpt>
      <trkpt lat="43.59111" lon="3.25375">
        <ele>325.543579</ele>
        <time>2012-02-05T14:44:55Z</time>
      </trkpt>
      <trkpt lat="43.59112" lon="3.25376">
        <ele>325.543579</ele>
        <time>2012-02-05T14:45:00Z</time>
      </trkpt>
      <trkpt lat="43.59112" lon="3.25377">
        <ele>325.543579</ele>
        <time>2012-02-05T14:45:01Z</time>
      </trkpt>
      <trkpt lat="43.59113" lon="3.25377">
        <ele>326.02417</ele>
        <time>2012-02-05T14:45:04Z</time>
      </trkpt>
      <trkpt lat="43.59113" lon="3.25378">
        <ele>326.02417</ele>
        <time>2012-02-05T14:45:05Z</time>
      </trkpt>
      <trkpt lat="43.59116" lon="3.25384">
        <ele>326.504883</ele>
        <time>2012-02-05T14:45:14Z</time>
      </trkpt>
      <trkpt lat="43.59117" lon="3.25384">
        <ele>326.504883</ele>
        <time>2012-02-05T14:45:15Z</time>
      </trkpt>
      <trkpt lat="43.59117" lon="3.25385">
        <ele>326.985596</ele>
        <time>2012-02-05T14:45:19Z</time>
      </trkpt>
      <trkpt lat="43.5912" lon="3.25391">
        <ele>326.985596</ele>
        <time>2012-02-05T14:45:22Z</time>
      </trkpt>
      <trkpt lat="43.59123" lon="3.25408">
        <ele>327.466186</ele>
        <time>2012-02-05T14:45:29Z</time>
      </trkpt>
      <trkpt lat="43.59127" lon="3.25428">
        <ele>327.946777</ele>
        <time>2012-02-05T14:45:37Z</time>
      </trkpt>
      <trkpt lat="43.59128" lon="3.25438">
        <ele>328.908325</ele>
        <time>2012-02-05T14:45:43Z</time>
      </trkpt>
      <trkpt lat="43.5913" lon="3.25445">
        <ele>330.830933</ele>
        <time>2012-02-05T14:45:51Z</time>
      </trkpt>
      <trkpt lat="43.59131" lon="3.25454">
        <ele>332.272827</ele>
        <time>2012-02-05T14:46:00Z</time>
      </trkpt>
      <trkpt lat="43.59132" lon="3.25461">
        <ele>333.234131</ele>
        <time>2012-02-05T14:46:07Z</time>
      </trkpt>
      <trkpt lat="43.59134" lon="3.25466">
        <ele>334.676148</ele>
        <time>2012-02-05T14:46:14Z</time>
      </trkpt>
      <trkpt lat="43.59133" lon="3.25465">
        <ele>334.195435</ele>
        <time>2012-02-05T14:46:29Z</time>
      </trkpt>
      <trkpt lat="43.59136" lon="3.25464">
        <ele>335.637329</ele>
        <time>2012-02-05T14:46:34Z</time>
      </trkpt>
      <trkpt lat="43.59137" lon="3.25464">
        <ele>335.637329</ele>
        <time>2012-02-05T14:46:37Z</time>
      </trkpt>
      <trkpt lat="43.59137" lon="3.25464">
        <ele>336.598877</ele>
        <time>2012-02-05T14:46:38Z</time>
      </trkpt>
      <trkpt lat="43.59138" lon="3.25464">
        <ele>336.598877</ele>
        <time>2012-02-05T14:46:41Z</time>
      </trkpt>
      <trkpt lat="43.5914" lon="3.25465">
        <ele>338.521484</ele>
        <time>2012-02-05T14:46:43Z</time>
      </trkpt>
      <trkpt lat="43.5914" lon="3.25465">
        <ele>337.560059</ele>
        <time>2012-02-05T14:46:46Z</time>
      </trkpt>
      <trkpt lat="43.5914" lon="3.25466">
        <ele>339.002075</ele>
        <time>2012-02-05T14:46:47Z</time>
      </trkpt>
      <trkpt lat="43.5914" lon="3.25467">
        <ele>339.002075</ele>
        <time>2012-02-05T14:46:48Z</time>
      </trkpt>
      <trkpt lat="43.59143" lon="3.25467">
        <ele>337.560059</ele>
        <time>2012-02-05T14:52:47Z</time>
      </trkpt>
      <trkpt lat="43.59143" lon="3.25468">
        <ele>337.560059</ele>
        <time>2012-02-05T14:52:48Z</time>
      </trkpt>
      <trkpt lat="43.59144" lon="3.25469">
        <ele>337.560059</ele>
        <time>2012-02-05T14:52:50Z</time>
      </trkpt>
      <trkpt lat="43.59143" lon="3.25475">
        <ele>338.040772</ele>
        <time>2012-02-05T14:53:21Z</time>
      </trkpt>
      <trkpt lat="43.59144" lon="3.2548">
        <ele>339.963379</ele>
        <time>2012-02-05T14:53:26Z</time>
      </trkpt>
      <trkpt lat="43.59146" lon="3.25488">
        <ele>340.444092</ele>
        <time>2012-02-05T14:53:34Z</time>
      </trkpt>
      <trkpt lat="43.59148" lon="3.25494">
        <ele>340.924683</ele>
        <time>2012-02-05T14:53:41Z</time>
      </trkpt>
      <trkpt lat="43.5915" lon="3.25505">
        <ele>342.366699</ele>
        <time>2012-02-05T14:53:50Z</time>
      </trkpt>
      <trkpt lat="43.59151" lon="3.25518">
        <ele>344.289429</ele>
        <time>2012-02-05T14:54:00Z</time>
      </trkpt>
      <trkpt lat="43.59155" lon="3.2553">
        <ele>345.731323</ele>
        <time>2012-02-05T14:54:10Z</time>
      </trkpt>
      <trkpt lat="43.59156" lon="3.25537">
        <ele>346.212036</ele>
        <time>2012-02-05T14:54:17Z</time>
      </trkpt>
      <trkpt lat="43.59156" lon="3.25543">
        <ele>346.212036</ele>
        <time>2012-02-05T14:54:29Z</time>
      </trkpt>
      <trkpt lat="43.59157" lon="3.25551">
        <ele>346.692627</ele>
        <time>2012-02-05T14:54:33Z</time>
      </trkpt>
      <trkpt lat="43.59158" lon="3.25561">
        <ele>347.173218</ele>
        <time>2012-02-05T14:54:39Z</time>
      </trkpt>
      <trkpt lat="43.59159" lon="3.25572">
        <ele>347.653931</ele>
        <time>2012-02-05T14:54:45Z</time>
      </trkpt>
      <trkpt lat="43.59162" lon="3.25583">
        <ele>348.134644</ele>
        <time>2012-02-05T14:54:51Z</time>
      </trkpt>
      <trkpt lat="43.59163" lon="3.25587">
        <ele>349.095825</ele>
        <time>2012-02-05T14:54:53Z</time>
      </trkpt>
      <trkpt lat="43.59164" lon="3.25591">
        <ele>349.576538</ele>
        <time>2012-02-05T14:54:56Z</time>
      </trkpt>
      <trkpt lat="43.59165" lon="3.25592">
        <ele>349.576538</ele>
        <time>2012-02-05T14:55:00Z</time>
      </trkpt>
      <trkpt lat="43.59165" lon="3.25593">
        <ele>349.576538</ele>
        <time>2012-02-05T14:55:01Z</time>
      </trkpt>
      <trkpt lat="43.59168" lon="3.25605">
        <ele>351.499145</ele>
        <time>2012-02-05T14:55:08Z</time>
      </trkpt>
      <trkpt lat="43.59168" lon="3.25606">
        <ele>351.499145</ele>
        <time>2012-02-05T14:55:09Z</time>
      </trkpt>
      <trkpt lat="43.59169" lon="3.25608">
        <ele>351.018433</ele>
        <time>2012-02-05T14:55:17Z</time>
      </trkpt>
      <trkpt lat="43.59169" lon="3.25614">
        <ele>352.941162</ele>
        <time>2012-02-05T14:55:21Z</time>
      </trkpt>
      <trkpt lat="43.5917" lon="3.25616">
        <ele>353.902588</ele>
        <time>2012-02-05T14:55:23Z</time>
      </trkpt>
      <trkpt lat="43.59173" lon="3.25625">
        <ele>355.825195</ele>
        <time>2012-02-05T14:55:33Z</time>
      </trkpt>
      <trkpt lat="43.59177" lon="3.25632">
        <ele>356.786377</ele>
        <time>2012-02-05T14:55:42Z</time>
      </trkpt>
      <trkpt lat="43.59178" lon="3.25635">
        <ele>356.786377</ele>
        <time>2012-02-05T14:55:45Z</time>
      </trkpt>
      <trkpt lat="43.59178" lon="3.25637">
        <ele>357.26709</ele>
        <time>2012-02-05T14:56:30Z</time>
      </trkpt>
      <trkpt lat="43.5918" lon="3.25644">
        <ele>357.26709</ele>
        <time>2012-02-05T14:56:34Z</time>
      </trkpt>
      <trkpt lat="43.59181" lon="3.25655">
        <ele>358.228394</ele>
        <time>2012-02-05T14:56:40Z</time>
      </trkpt>
      <trkpt lat="43.59181" lon="3.25662">
        <ele>358.708984</ele>
        <time>2012-02-05T14:56:43Z</time>
      </trkpt>
      <trkpt lat="43.59184" lon="3.25679">
        <ele>359.189697</ele>
        <time>2012-02-05T14:56:50Z</time>
      </trkpt>
      <trkpt lat="43.59189" lon="3.25702">
        <ele>360.151123</ele>
        <time>2012-02-05T14:56:59Z</time>
      </trkpt>
      <trkpt lat="43.59192" lon="3.25728">
        <ele>361.112427</ele>
        <time>2012-02-05T14:57:09Z</time>
      </trkpt>
      <trkpt lat="43.59189" lon="3.25752">
        <ele>362.073731</ele>
        <time>2012-02-05T14:57:18Z</time>
      </trkpt>
      <trkpt lat="43.59186" lon="3.25776">
        <ele>363.035034</ele>
        <time>2012-02-05T14:57:27Z</time>
      </trkpt>
      <trkpt lat="43.59182" lon="3.25799">
        <ele>364.476929</ele>
        <time>2012-02-05T14:57:36Z</time>
      </trkpt>
      <trkpt lat="43.59179" lon="3.25825">
        <ele>364.957642</ele>
        <time>2012-02-05T14:57:46Z</time>
      </trkpt>
      <trkpt lat="43.59181" lon="3.25849">
        <ele>366.399536</ele>
        <time>2012-02-05T14:57:55Z</time>
      </trkpt>
      <trkpt lat="43.59192" lon="3.2587">
        <ele>366.880249</ele>
        <time>2012-02-05T14:58:03Z</time>
      </trkpt>
      <trkpt lat="43.59207" lon="3.25885">
        <ele>367.360962</ele>
        <time>2012-02-05T14:58:10Z</time>
      </trkpt>
      <trkpt lat="43.59227" lon="3.25897">
        <ele>368.322266</ele>
        <time>2012-02-05T14:58:18Z</time>
      </trkpt>
      <trkpt lat="43.59253" lon="3.25908">
        <ele>369.764282</ele>
        <time>2012-02-05T14:58:28Z</time>
      </trkpt>
      <trkpt lat="43.59273" lon="3.25916">
        <ele>370.244873</ele>
        <time>2012-02-05T14:58:36Z</time>
      </trkpt>
      <trkpt lat="43.59293" lon="3.2593">
        <ele>372.648193</ele>
        <time>2012-02-05T14:58:45Z</time>
      </trkpt>
      <trkpt lat="43.59308" lon="3.25951">
        <ele>374.090088</ele>
        <time>2012-02-05T14:58:54Z</time>
      </trkpt>
      <trkpt lat="43.59316" lon="3.25971">
        <ele>374.570801</ele>
        <time>2012-02-05T14:59:01Z</time>
      </trkpt>
      <trkpt lat="43.59317" lon="3.2599">
        <ele>375.051514</ele>
        <time>2012-02-05T14:59:06Z</time>
      </trkpt>
      <trkpt lat="43.59316" lon="3.26016">
        <ele>375.051514</ele>
        <time>2012-02-05T14:59:12Z</time>
      </trkpt>
      <trkpt lat="43.59315" lon="3.26046">
        <ele>374.090088</ele>
        <time>2012-02-05T14:59:17Z</time>
      </trkpt>
      <trkpt lat="43.59314" lon="3.2606">
        <ele>373.609497</ele>
        <time>2012-02-05T14:59:19Z</time>
      </trkpt>
      <trkpt lat="43.59308" lon="3.26094">
        <ele>371.68689</ele>
        <time>2012-02-05T14:59:24Z</time>
      </trkpt>
      <trkpt lat="43.593" lon="3.26107">
        <ele>370.244873</ele>
        <time>2012-02-05T14:59:27Z</time>
      </trkpt>
      <trkpt lat="43.59287" lon="3.26116">
        <ele>369.283691</ele>
        <time>2012-02-05T14:59:30Z</time>
      </trkpt>
      <trkpt lat="43.5928" lon="3.26137">
        <ele>369.283691</ele>
        <time>2012-02-05T14:59:33Z</time>
      </trkpt>
      <trkpt lat="43.59272" lon="3.26163">
        <ele>367.841553</ele>
        <time>2012-02-05T14:59:37Z</time>
      </trkpt>
      <trkpt lat="43.59266" lon="3.26183">
        <ele>366.880249</ele>
        <time>2012-02-05T14:59:41Z</time>
      </trkpt>
      <trkpt lat="43.59264" lon="3.26188">
        <ele>366.880249</ele>
        <time>2012-02-05T14:59:42Z</time>
      </trkpt>
      <trkpt lat="43.59256" lon="3.26205">
        <ele>362.554321</ele>
        <time>2012-02-05T14:59:46Z</time>
      </trkpt>
      <trkpt lat="43.59249" lon="3.26211">
        <ele>361.112427</ele>
        <time>2012-02-05T14:59:49Z</time>
      </trkpt>
      <trkpt lat="43.59249" lon="3.26219">
        <ele>360.151123</ele>
        <time>2012-02-05T14:59:51Z</time>
      </trkpt>
      <trkpt lat="43.59251" lon="3.26246">
        <ele>360.151123</ele>
        <time>2012-02-05T14:59:56Z</time>
      </trkpt>
      <trkpt lat="43.5925" lon="3.26273">
        <ele>357.747803</ele>
        <time>2012-02-05T15:00:01Z</time>
      </trkpt>
      <trkpt lat="43.59251" lon="3.26303">
        <ele>357.26709</ele>
        <time>2012-02-05T15:00:08Z</time>
      </trkpt>
      <trkpt lat="43.59247" lon="3.26323">
        <ele>356.786377</ele>
        <time>2012-02-05T15:00:13Z</time>
      </trkpt>
      <trkpt lat="43.59245" lon="3.26342">
        <ele>355.825195</ele>
        <time>2012-02-05T15:00:19Z</time>
      </trkpt>
      <trkpt lat="43.59243" lon="3.26358">
        <ele>356.305786</ele>
        <time>2012-02-05T15:00:24Z</time>
      </trkpt>
      <trkpt lat="43.59234" lon="3.26376">
        <ele>355.825195</ele>
        <time>2012-02-05T15:00:29Z</time>
      </trkpt>
      <trkpt lat="43.59223" lon="3.26397">
        <ele>354.863769</ele>
        <time>2012-02-05T15:00:35Z</time>
      </trkpt>
      <trkpt lat="43.59211" lon="3.26419">
        <ele>354.383179</ele>
        <time>2012-02-05T15:00:41Z</time>
      </trkpt>
      <trkpt lat="43.59201" lon="3.26436">
        <ele>353.902588</ele>
        <time>2012-02-05T15:00:45Z</time>
      </trkpt>
      <trkpt lat="43.59187" lon="3.26448">
        <ele>351.979858</ele>
        <time>2012-02-05T15:00:49Z</time>
      </trkpt>
      <trkpt lat="43.59166" lon="3.2647">
        <ele>351.018433</ele>
        <time>2012-02-05T15:00:56Z</time>
      </trkpt>
      <trkpt lat="43.59155" lon="3.26487">
        <ele>351.018433</ele>
        <time>2012-02-05T15:01:01Z</time>
      </trkpt>
      <trkpt lat="43.59143" lon="3.26511">
        <ele>350.057251</ele>
        <time>2012-02-05T15:01:07Z</time>
      </trkpt>
      <trkpt lat="43.59126" lon="3.26544">
        <ele>348.134644</ele>
        <time>2012-02-05T15:01:13Z</time>
      </trkpt>
      <trkpt lat="43.59123" lon="3.2655">
        <ele>347.653931</ele>
        <time>2012-02-05T15:01:14Z</time>
      </trkpt>
      <trkpt lat="43.59117" lon="3.26561">
        <ele>347.173218</ele>
        <time>2012-02-05T15:01:16Z</time>
      </trkpt>
      <trkpt lat="43.59105" lon="3.26584">
        <ele>345.731323</ele>
        <time>2012-02-05T15:01:21Z</time>
      </trkpt>
      <trkpt lat="43.59094" lon="3.26613">
        <ele>345.731323</ele>
        <time>2012-02-05T15:01:27Z</time>
      </trkpt>
      <trkpt lat="43.59089" lon="3.26623">
        <ele>345.731323</ele>
        <time>2012-02-05T15:01:29Z</time>
      </trkpt>
      <trkpt lat="43.59083" lon="3.26639">
        <ele>345.731323</ele>
        <time>2012-02-05T15:01:32Z</time>
      </trkpt>
      <trkpt lat="43.59079" lon="3.26665">
        <ele>343.327881</ele>
        <time>2012-02-05T15:01:36Z</time>
      </trkpt>
      <trkpt lat="43.59076" lon="3.26679">
        <ele>341.885986</ele>
        <time>2012-02-05T15:01:38Z</time>
      </trkpt>
      <trkpt lat="43.5908" lon="3.2671">
        <ele>339.002075</ele>
        <time>2012-02-05T15:01:43Z</time>
      </trkpt>
      <trkpt lat="43.59093" lon="3.26729">
        <ele>336.118164</ele>
        <time>2012-02-05T15:01:48Z</time>
      </trkpt>
      <trkpt lat="43.59105" lon="3.26741">
        <ele>334.195435</ele>
        <time>2012-02-05T15:01:52Z</time>
      </trkpt>
      <trkpt lat="43.59109" lon="3.2675">
        <ele>333.234131</ele>
        <time>2012-02-05T15:01:57Z</time>
      </trkpt>
      <trkpt lat="43.59114" lon="3.26763">
        <ele>332.75354</ele>
        <time>2012-02-05T15:02:02Z</time>
      </trkpt>
      <trkpt lat="43.5912" lon="3.26779">
        <ele>330.830933</ele>
        <time>2012-02-05T15:02:07Z</time>
      </trkpt>
      <trkpt lat="43.59127" lon="3.26797">
        <ele>330.830933</ele>
        <time>2012-02-05T15:02:12Z</time>
      </trkpt>
      <trkpt lat="43.59133" lon="3.2682">
        <ele>329.388916</ele>
        <time>2012-02-05T15:02:17Z</time>
      </trkpt>
      <trkpt lat="43.59135" lon="3.26843">
        <ele>327.946777</ele>
        <time>2012-02-05T15:02:21Z</time>
      </trkpt>
      <trkpt lat="43.59137" lon="3.26867">
        <ele>325.543579</ele>
        <time>2012-02-05T15:02:26Z</time>
      </trkpt>
      <trkpt lat="43.59136" lon="3.26883">
        <ele>324.582275</ele>
        <time>2012-02-05T15:02:29Z</time>
      </trkpt>
      <trkpt lat="43.59132" lon="3.26906">
        <ele>321.698364</ele>
        <time>2012-02-05T15:02:34Z</time>
      </trkpt>
      <trkpt lat="43.59127" lon="3.2693">
        <ele>319.775635</ele>
        <time>2012-02-05T15:02:40Z</time>
      </trkpt>
      <trkpt lat="43.59123" lon="3.26947">
        <ele>319.295044</ele>
        <time>2012-02-05T15:02:44Z</time>
      </trkpt>
      <trkpt lat="43.59119" lon="3.26969">
        <ele>318.814331</ele>
        <time>2012-02-05T15:02:49Z</time>
      </trkpt>
      <trkpt lat="43.59117" lon="3.26993">
        <ele>317.372436</ele>
        <time>2012-02-05T15:02:55Z</time>
      </trkpt>
      <trkpt lat="43.59119" lon="3.27003">
        <ele>315.449829</ele>
        <time>2012-02-05T15:02:58Z</time>
      </trkpt>
      <trkpt lat="43.59126" lon="3.27013">
        <ele>313.046509</ele>
        <time>2012-02-05T15:03:02Z</time>
      </trkpt>
      <trkpt lat="43.59132" lon="3.2702">
        <ele>311.604492</ele>
        <time>2012-02-05T15:03:05Z</time>
      </trkpt>
      <trkpt lat="43.59136" lon="3.27027">
        <ele>311.123779</ele>
        <time>2012-02-05T15:03:07Z</time>
      </trkpt>
      <trkpt lat="43.59146" lon="3.27031">
        <ele>308.239868</ele>
        <time>2012-02-05T15:03:11Z</time>
      </trkpt>
      <trkpt lat="43.59154" lon="3.27039">
        <ele>305.83667</ele>
        <time>2012-02-05T15:03:15Z</time>
      </trkpt>
      <trkpt lat="43.5916" lon="3.2705">
        <ele>303.91394</ele>
        <time>2012-02-05T15:03:19Z</time>
      </trkpt>
      <trkpt lat="43.59172" lon="3.27063">
        <ele>300.549316</ele>
        <time>2012-02-05T15:03:25Z</time>
      </trkpt>
      <trkpt lat="43.59175" lon="3.2707">
        <ele>299.1073</ele>
        <time>2012-02-05T15:03:28Z</time>
      </trkpt>
      <trkpt lat="43.59183" lon="3.27083">
        <ele>296.704102</ele>
        <time>2012-02-05T15:03:33Z</time>
      </trkpt>
      <trkpt lat="43.59182" lon="3.27094">
        <ele>296.223511</ele>
        <time>2012-02-05T15:03:37Z</time>
      </trkpt>
      <trkpt lat="43.59173" lon="3.27106">
        <ele>293.339356</ele>
        <time>2012-02-05T15:03:42Z</time>
      </trkpt>
      <trkpt lat="43.59172" lon="3.27107">
        <ele>292.378174</ele>
        <time>2012-02-05T15:03:45Z</time>
      </trkpt>
      <trkpt lat="43.59174" lon="3.2711">
        <ele>291.897461</ele>
        <time>2012-02-05T15:03:58Z</time>
      </trkpt>
      <trkpt lat="43.59175" lon="3.2712">
        <ele>290.455566</ele>
        <time>2012-02-05T15:04:00Z</time>
      </trkpt>
      <trkpt lat="43.59172" lon="3.27127">
        <ele>289.494141</ele>
        <time>2012-02-05T15:04:02Z</time>
      </trkpt>
      <trkpt lat="43.5917" lon="3.27143">
        <ele>285.648804</ele>
        <time>2012-02-05T15:04:07Z</time>
      </trkpt>
      <trkpt lat="43.59179" lon="3.27154">
        <ele>282.284302</ele>
        <time>2012-02-05T15:04:11Z</time>
      </trkpt>
      <trkpt lat="43.59178" lon="3.27157">
        <ele>282.284302</ele>
        <time>2012-02-05T15:04:12Z</time>
      </trkpt>
      <trkpt lat="43.59167" lon="3.27166">
        <ele>279.400269</ele>
        <time>2012-02-05T15:04:15Z</time>
      </trkpt>
      <trkpt lat="43.59156" lon="3.27167">
        <ele>276.035644</ele>
        <time>2012-02-05T15:04:18Z</time>
      </trkpt>
      <trkpt lat="43.59157" lon="3.27177">
        <ele>274.59375</ele>
        <time>2012-02-05T15:04:21Z</time>
      </trkpt>
      <trkpt lat="43.59161" lon="3.27194">
        <ele>271.709717</ele>
        <time>2012-02-05T15:04:25Z</time>
      </trkpt>
      <trkpt lat="43.59168" lon="3.27198">
        <ele>269.787109</ele>
        <time>2012-02-05T15:04:29Z</time>
      </trkpt>
      <trkpt lat="43.59176" lon="3.27201">
        <ele>267.383911</ele>
        <time>2012-02-05T15:04:34Z</time>
      </trkpt>
      <trkpt lat="43.5919" lon="3.272">
        <ele>264.499878</ele>
        <time>2012-02-05T15:04:39Z</time>
      </trkpt>
      <trkpt lat="43.59193" lon="3.27199">
        <ele>264.499878</ele>
        <time>2012-02-05T15:04:40Z</time>
      </trkpt>
      <trkpt lat="43.59202" lon="3.27199">
        <ele>261.615967</ele>
        <time>2012-02-05T15:04:44Z</time>
      </trkpt>
      <trkpt lat="43.59205" lon="3.27204">
        <ele>261.135254</ele>
        <time>2012-02-05T15:04:48Z</time>
      </trkpt>
      <trkpt lat="43.59205" lon="3.27205">
        <ele>260.654541</ele>
        <time>2012-02-05T15:04:49Z</time>
      </trkpt>
      <trkpt lat="43.59203" lon="3.27216">
        <ele>258.251343</ele>
        <time>2012-02-05T15:04:55Z</time>
      </trkpt>
      <trkpt lat="43.59205" lon="3.27216">
        <ele>257.770752</ele>
        <time>2012-02-05T15:04:56Z</time>
      </trkpt>
      <trkpt lat="43.59212" lon="3.27218">
        <ele>255.36731</ele>
        <time>2012-02-05T15:04:59Z</time>
      </trkpt>
      <trkpt lat="43.59219" lon="3.27226">
        <ele>254.406006</ele>
        <time>2012-02-05T15:05:04Z</time>
      </trkpt>
      <trkpt lat="43.59226" lon="3.27233">
        <ele>253.444702</ele>
        <time>2012-02-05T15:05:08Z</time>
      </trkpt>
      <trkpt lat="43.59229" lon="3.27244">
        <ele>252.483398</ele>
        <time>2012-02-05T15:05:12Z</time>
      </trkpt>
      <trkpt lat="43.59231" lon="3.27247">
        <ele>252.002808</ele>
        <time>2012-02-05T15:05:16Z</time>
      </trkpt>
      <trkpt lat="43.59234" lon="3.27248">
        <ele>252.483398</ele>
        <time>2012-02-05T15:05:38Z</time>
      </trkpt>
      <trkpt lat="43.5924" lon="3.27245">
        <ele>252.002808</ele>
        <time>2012-02-05T15:05:43Z</time>
      </trkpt>
      <trkpt lat="43.59252" lon="3.27245">
        <ele>251.522095</ele>
        <time>2012-02-05T15:05:50Z</time>
      </trkpt>
      <trkpt lat="43.59262" lon="3.27242">
        <ele>250.560791</ele>
        <time>2012-02-05T15:05:53Z</time>
      </trkpt>
      <trkpt lat="43.59283" lon="3.27234">
        <ele>249.118774</ele>
        <time>2012-02-05T15:05:58Z</time>
      </trkpt>
      <trkpt lat="43.59306" lon="3.27241">
        <ele>248.157593</ele>
        <time>2012-02-05T15:06:02Z</time>
      </trkpt>
      <trkpt lat="43.59309" lon="3.27257">
        <ele>248.638184</ele>
        <time>2012-02-05T15:06:05Z</time>
      </trkpt>
      <trkpt lat="43.59306" lon="3.2726">
        <ele>248.638184</ele>
        <time>2012-02-05T15:06:06Z</time>
      </trkpt>
      <trkpt lat="43.59292" lon="3.27284">
        <ele>249.599487</ele>
        <time>2012-02-05T15:06:13Z</time>
      </trkpt>
      <trkpt lat="43.5928" lon="3.27309">
        <ele>250.560791</ele>
        <time>2012-02-05T15:06:20Z</time>
      </trkpt>
      <trkpt lat="43.59281" lon="3.27332">
        <ele>250.560791</ele>
        <time>2012-02-05T15:06:25Z</time>
      </trkpt>
      <trkpt lat="43.59292" lon="3.2736">
        <ele>251.041382</ele>
        <time>2012-02-05T15:06:32Z</time>
      </trkpt>
      <trkpt lat="43.59309" lon="3.27388">
        <ele>252.002808</ele>
        <time>2012-02-05T15:06:40Z</time>
      </trkpt>
      <trkpt lat="43.59326" lon="3.27409">
        <ele>252.963989</ele>
        <time>2012-02-05T15:06:47Z</time>
      </trkpt>
      <trkpt lat="43.59342" lon="3.27429">
        <ele>253.444702</ele>
        <time>2012-02-05T15:06:54Z</time>
      </trkpt>
      <trkpt lat="43.5935" lon="3.27441">
        <ele>253.925415</ele>
        <time>2012-02-05T15:06:57Z</time>
      </trkpt>
      <trkpt lat="43.59365" lon="3.27473">
        <ele>252.483398</ele>
        <time>2012-02-05T15:07:03Z</time>
      </trkpt>
      <trkpt lat="43.59372" lon="3.27499">
        <ele>252.483398</ele>
        <time>2012-02-05T15:07:08Z</time>
      </trkpt>
      <trkpt lat="43.59379" lon="3.27519">
        <ele>254.886597</ele>
        <time>2012-02-05T15:07:13Z</time>
      </trkpt>
      <trkpt lat="43.59382" lon="3.27531">
        <ele>255.848023</ele>
        <time>2012-02-05T15:07:18Z</time>
      </trkpt>
      <trkpt lat="43.59387" lon="3.27545">
        <ele>256.809326</ele>
        <time>2012-02-05T15:07:23Z</time>
      </trkpt>
      <trkpt lat="43.59394" lon="3.27565">
        <ele>257.290039</ele>
        <time>2012-02-05T15:07:30Z</time>
      </trkpt>
      <trkpt lat="43.594" lon="3.27581">
        <ele>258.251343</ele>
        <time>2012-02-05T15:07:36Z</time>
      </trkpt>
      <trkpt lat="43.59408" lon="3.27598">
        <ele>260.17395</ele>
        <time>2012-02-05T15:07:43Z</time>
      </trkpt>
      <trkpt lat="43.59413" lon="3.2761">
        <ele>261.615967</ele>
        <time>2012-02-05T15:07:48Z</time>
      </trkpt>
      <trkpt lat="43.59423" lon="3.27634">
        <ele>262.577148</ele>
        <time>2012-02-05T15:07:57Z</time>
      </trkpt>
      <trkpt lat="43.59433" lon="3.27659">
        <ele>264.019287</ele>
        <time>2012-02-05T15:08:06Z</time>
      </trkpt>
      <trkpt lat="43.59437" lon="3.27682">
        <ele>264.980591</ele>
        <time>2012-02-05T15:08:14Z</time>
      </trkpt>
      <trkpt lat="43.59443" lon="3.27704">
        <ele>264.980591</ele>
        <time>2012-02-05T15:08:21Z</time>
      </trkpt>
      <trkpt lat="43.59451" lon="3.27725">
        <ele>265.941894</ele>
        <time>2012-02-05T15:08:28Z</time>
      </trkpt>
      <trkpt lat="43.59458" lon="3.27756">
        <ele>266.422485</ele>
        <time>2012-02-05T15:08:37Z</time>
      </trkpt>
      <trkpt lat="43.59464" lon="3.27782">
        <ele>266.903198</ele>
        <time>2012-02-05T15:08:44Z</time>
      </trkpt>
      <trkpt lat="43.59471" lon="3.27806">
        <ele>268.345093</ele>
        <time>2012-02-05T15:08:51Z</time>
      </trkpt>
      <trkpt lat="43.59475" lon="3.27824">
        <ele>268.825806</ele>
        <time>2012-02-05T15:08:56Z</time>
      </trkpt>
      <trkpt lat="43.59476" lon="3.2785">
        <ele>268.825806</ele>
        <time>2012-02-05T15:09:03Z</time>
      </trkpt>
      <trkpt lat="43.59475" lon="3.27878">
        <ele>269.787109</ele>
        <time>2012-02-05T15:09:10Z</time>
      </trkpt>
      <trkpt lat="43.5947" lon="3.27903">
        <ele>270.748413</ele>
        <time>2012-02-05T15:09:17Z</time>
      </trkpt>
      <trkpt lat="43.59464" lon="3.27922">
        <ele>272.671143</ele>
        <time>2012-02-05T15:09:23Z</time>
      </trkpt>
      <trkpt lat="43.59465" lon="3.27941">
        <ele>273.632446</ele>
        <time>2012-02-05T15:09:29Z</time>
      </trkpt>
      <trkpt lat="43.59461" lon="3.27963">
        <ele>275.555054</ele>
        <time>2012-02-05T15:09:38Z</time>
      </trkpt>
      <trkpt lat="43.59455" lon="3.27981">
        <ele>277.477661</ele>
        <time>2012-02-05T15:09:46Z</time>
      </trkpt>
      <trkpt lat="43.59446" lon="3.27998">
        <ele>277.958252</ele>
        <time>2012-02-05T15:09:54Z</time>
      </trkpt>
      <trkpt lat="43.59436" lon="3.28013">
        <ele>278.919678</ele>
        <time>2012-02-05T15:10:02Z</time>
      </trkpt>
      <trkpt lat="43.5943" lon="3.28027">
        <ele>280.361694</ele>
        <time>2012-02-05T15:10:09Z</time>
      </trkpt>
      <trkpt lat="43.59423" lon="3.28046">
        <ele>281.803589</ele>
        <time>2012-02-05T15:10:18Z</time>
      </trkpt>
      <trkpt lat="43.59416" lon="3.28056">
        <ele>282.765015</ele>
        <time>2012-02-05T15:10:24Z</time>
      </trkpt>
      <trkpt lat="43.59403" lon="3.28063">
        <ele>284.206909</ele>
        <time>2012-02-05T15:10:32Z</time>
      </trkpt>
      <trkpt lat="43.5939" lon="3.28066">
        <ele>286.61023</ele>
        <time>2012-02-05T15:10:40Z</time>
      </trkpt>
      <trkpt lat="43.59379" lon="3.28073">
        <ele>288.052246</ele>
        <time>2012-02-05T15:10:47Z</time>
      </trkpt>
      <trkpt lat="43.59369" lon="3.28084">
        <ele>289.01355</ele>
        <time>2012-02-05T15:10:55Z</time>
      </trkpt>
      <trkpt lat="43.5936" lon="3.28095">
        <ele>290.455566</ele>
        <time>2012-02-05T15:11:03Z</time>
      </trkpt>
      <trkpt lat="43.59353" lon="3.28105">
        <ele>291.416748</ele>
        <time>2012-02-05T15:11:10Z</time>
      </trkpt>
      <trkpt lat="43.59343" lon="3.28117">
        <ele>291.416748</ele>
        <time>2012-02-05T15:11:18Z</time>
      </trkpt>
      <trkpt lat="43.59336" lon="3.28127">
        <ele>292.858765</ele>
        <time>2012-02-05T15:11:24Z</time>
      </trkpt>
      <trkpt lat="43.5933" lon="3.2813">
        <ele>292.858765</ele>
        <time>2012-02-05T15:11:27Z</time>
      </trkpt>
      <trkpt lat="43.59317" lon="3.28128">
        <ele>290.936157</ele>
        <time>2012-02-05T15:11:30Z</time>
      </trkpt>
      <trkpt lat="43.59297" lon="3.28118">
        <ele>288.052246</ele>
        <time>2012-02-05T15:11:34Z</time>
      </trkpt>
      <trkpt lat="43.59293" lon="3.28121">
        <ele>288.052246</ele>
        <time>2012-02-05T15:11:35Z</time>
      </trkpt>
      <trkpt lat="43.59284" lon="3.28128">
        <ele>287.09082</ele>
        <time>2012-02-05T15:11:37Z</time>
      </trkpt>
      <trkpt lat="43.59271" lon="3.28149">
        <ele>286.61023</ele>
        <time>2012-02-05T15:11:42Z</time>
      </trkpt>
      <trkpt lat="43.59258" lon="3.2818">
        <ele>288.052246</ele>
        <time>2012-02-05T15:11:50Z</time>
      </trkpt>
      <trkpt lat="43.59249" lon="3.28206">
        <ele>289.01355</ele>
        <time>2012-02-05T15:11:57Z</time>
      </trkpt>
      <trkpt lat="43.5924" lon="3.28226">
        <ele>289.494141</ele>
        <time>2012-02-05T15:12:03Z</time>
      </trkpt>
      <trkpt lat="43.59224" lon="3.28248">
        <ele>289.494141</ele>
        <time>2012-02-05T15:12:10Z</time>
      </trkpt>
      <trkpt lat="43.59221" lon="3.28251">
        <ele>289.494141</ele>
        <time>2012-02-05T15:12:11Z</time>
      </trkpt>
      <trkpt lat="43.59209" lon="3.28266">
        <ele>287.571411</ele>
        <time>2012-02-05T15:12:15Z</time>
      </trkpt>
      <trkpt lat="43.59207" lon="3.28279">
        <ele>288.052246</ele>
        <time>2012-02-05T15:12:18Z</time>
      </trkpt>
      <trkpt lat="43.59206" lon="3.2831">
        <ele>288.532959</ele>
        <time>2012-02-05T15:12:25Z</time>
      </trkpt>
      <trkpt lat="43.59209" lon="3.2834">
        <ele>289.494141</ele>
        <time>2012-02-05T15:12:33Z</time>
      </trkpt>
      <trkpt lat="43.59209" lon="3.28357">
        <ele>289.01355</ele>
        <time>2012-02-05T15:12:38Z</time>
      </trkpt>
      <trkpt lat="43.5921" lon="3.28375">
        <ele>290.455566</ele>
        <time>2012-02-05T15:12:44Z</time>
      </trkpt>
      <trkpt lat="43.59213" lon="3.28395">
        <ele>290.936157</ele>
        <time>2012-02-05T15:12:50Z</time>
      </trkpt>
      <trkpt lat="43.59216" lon="3.28416">
        <ele>291.897461</ele>
        <time>2012-02-05T15:12:57Z</time>
      </trkpt>
      <trkpt lat="43.59211" lon="3.28433">
        <ele>292.858765</ele>
        <time>2012-02-05T15:13:03Z</time>
      </trkpt>
      <trkpt lat="43.59206" lon="3.28453">
        <ele>294.300781</ele>
        <time>2012-02-05T15:13:09Z</time>
      </trkpt>
      <trkpt lat="43.59207" lon="3.28468">
        <ele>294.300781</ele>
        <time>2012-02-05T15:13:14Z</time>
      </trkpt>
      <trkpt lat="43.59211" lon="3.28493">
        <ele>295.261963</ele>
        <time>2012-02-05T15:13:22Z</time>
      </trkpt>
      <trkpt lat="43.59213" lon="3.2851">
        <ele>295.261963</ele>
        <time>2012-02-05T15:13:27Z</time>
      </trkpt>
      <trkpt lat="43.59213" lon="3.2853">
        <ele>296.223511</ele>
        <time>2012-02-05T15:13:33Z</time>
      </trkpt>
      <trkpt lat="43.5921" lon="3.28551">
        <ele>297.184692</ele>
        <time>2012-02-05T15:13:40Z</time>
      </trkpt>
      <trkpt lat="43.59205" lon="3.28568">
        <ele>297.184692</ele>
        <time>2012-02-05T15:13:46Z</time>
      </trkpt>
      <trkpt lat="43.59202" lon="3.28587">
        <ele>297.665405</ele>
        <time>2012-02-05T15:13:52Z</time>
      </trkpt>
      <trkpt lat="43.59199" lon="3.28608">
        <ele>298.626709</ele>
        <time>2012-02-05T15:13:59Z</time>
      </trkpt>
      <trkpt lat="43.59192" lon="3.28624">
        <ele>299.588013</ele>
        <time>2012-02-05T15:14:05Z</time>
      </trkpt>
      <trkpt lat="43.59181" lon="3.2864">
        <ele>300.549316</ele>
        <time>2012-02-05T15:14:12Z</time>
      </trkpt>
      <trkpt lat="43.59165" lon="3.28656">
        <ele>300.549316</ele>
        <time>2012-02-05T15:14:20Z</time>
      </trkpt>
      <trkpt lat="43.59157" lon="3.28672">
        <ele>302.952515</ele>
        <time>2012-02-05T15:14:27Z</time>
      </trkpt>
      <trkpt lat="43.59155" lon="3.28676">
        <ele>303.91394</ele>
        <time>2012-02-05T15:14:29Z</time>
      </trkpt>
      <trkpt lat="43.59149" lon="3.28686">
        <ele>306.797852</ele>
        <time>2012-02-05T15:14:35Z</time>
      </trkpt>
      <trkpt lat="43.59141" lon="3.28697">
        <ele>308.720459</ele>
        <time>2012-02-05T15:14:43Z</time>
      </trkpt>
      <trkpt lat="43.59134" lon="3.28706">
        <ele>309.681885</ele>
        <time>2012-02-05T15:14:49Z</time>
      </trkpt>
      <trkpt lat="43.59129" lon="3.28717">
        <ele>310.162476</ele>
        <time>2012-02-05T15:14:55Z</time>
      </trkpt>
      <trkpt lat="43.59122" lon="3.28733">
        <ele>310.162476</ele>
        <time>2012-02-05T15:15:02Z</time>
      </trkpt>
      <trkpt lat="43.59114" lon="3.2875">
        <ele>311.123779</ele>
        <time>2012-02-05T15:15:10Z</time>
      </trkpt>
      <trkpt lat="43.59103" lon="3.28763">
        <ele>311.604492</ele>
        <time>2012-02-05T15:15:17Z</time>
      </trkpt>
      <trkpt lat="43.59087" lon="3.28773">
        <ele>313.527222</ele>
        <time>2012-02-05T15:15:26Z</time>
      </trkpt>
      <trkpt lat="43.59076" lon="3.28772">
        <ele>315.449829</ele>
        <time>2012-02-05T15:15:33Z</time>
      </trkpt>
      <trkpt lat="43.59059" lon="3.2877">
        <ele>317.853027</ele>
        <time>2012-02-05T15:15:43Z</time>
      </trkpt>
      <trkpt lat="43.59048" lon="3.28776">
        <ele>318.333618</ele>
        <time>2012-02-05T15:15:50Z</time>
      </trkpt>
      <trkpt lat="43.59031" lon="3.28788">
        <ele>318.814331</ele>
        <time>2012-02-05T15:15:58Z</time>
      </trkpt>
      <trkpt lat="43.59015" lon="3.28809">
        <ele>318.333618</ele>
        <time>2012-02-05T15:16:05Z</time>
      </trkpt>
      <trkpt lat="43.59004" lon="3.28824">
        <ele>319.295044</ele>
        <time>2012-02-05T15:16:10Z</time>
      </trkpt>
      <trkpt lat="43.58988" lon="3.28842">
        <ele>320.256348</ele>
        <time>2012-02-05T15:16:17Z</time>
      </trkpt>
      <trkpt lat="43.58975" lon="3.28853">
        <ele>322.659668</ele>
        <time>2012-02-05T15:16:23Z</time>
      </trkpt>
      <trkpt lat="43.58973" lon="3.28854">
        <ele>322.659668</ele>
        <time>2012-02-05T15:16:24Z</time>
      </trkpt>
      <trkpt lat="43.58961" lon="3.28867">
        <ele>323.620972</ele>
        <time>2012-02-05T15:16:30Z</time>
      </trkpt>
      <trkpt lat="43.58948" lon="3.28886">
        <ele>324.582275</ele>
        <time>2012-02-05T15:16:37Z</time>
      </trkpt>
      <trkpt lat="43.58938" lon="3.28894">
        <ele>325.062988</ele>
        <time>2012-02-05T15:16:43Z</time>
      </trkpt>
      <trkpt lat="43.58943" lon="3.28886">
        <ele>325.543579</ele>
        <time>2012-02-05T15:16:49Z</time>
      </trkpt>
      <trkpt lat="43.58947" lon="3.28876">
        <ele>326.504883</ele>
        <time>2012-02-05T15:16:57Z</time>
      </trkpt>
      <trkpt lat="43.5895" lon="3.28868">
        <ele>327.466186</ele>
        <time>2012-02-05T15:17:01Z</time>
      </trkpt>
      <trkpt lat="43.58956" lon="3.28849">
        <ele>329.388916</ele>
        <time>2012-02-05T15:17:10Z</time>
      </trkpt>
      <trkpt lat="43.58967" lon="3.28825">
        <ele>330.35022</ele>
        <time>2012-02-05T15:17:21Z</time>
      </trkpt>
      <trkpt lat="43.58976" lon="3.2881">
        <ele>330.830933</ele>
        <time>2012-02-05T15:17:29Z</time>
      </trkpt>
      <trkpt lat="43.58986" lon="3.28791">
        <ele>332.75354</ele>
        <time>2012-02-05T15:17:39Z</time>
      </trkpt>
      <trkpt lat="43.58997" lon="3.28768">
        <ele>334.676148</ele>
        <time>2012-02-05T15:17:50Z</time>
      </trkpt>
      <trkpt lat="43.59008" lon="3.2875">
        <ele>336.598877</ele>
        <time>2012-02-05T15:17:59Z</time>
      </trkpt>
      <trkpt lat="43.59012" lon="3.28731">
        <ele>339.002075</ele>
        <time>2012-02-05T15:18:07Z</time>
      </trkpt>
      <trkpt lat="43.59005" lon="3.28721">
        <ele>339.482666</ele>
        <time>2012-02-05T15:18:13Z</time>
      </trkpt>
      <trkpt lat="43.58987" lon="3.28716">
        <ele>339.963379</ele>
        <time>2012-02-05T15:18:23Z</time>
      </trkpt>
      <trkpt lat="43.58972" lon="3.28707">
        <ele>341.885986</ele>
        <time>2012-02-05T15:18:32Z</time>
      </trkpt>
      <trkpt lat="43.58955" lon="3.28696">
        <ele>343.808594</ele>
        <time>2012-02-05T15:18:42Z</time>
      </trkpt>
      <trkpt lat="43.5894" lon="3.28692">
        <ele>344.770019</ele>
        <time>2012-02-05T15:18:50Z</time>
      </trkpt>
      <trkpt lat="43.58925" lon="3.28693">
        <ele>346.692627</ele>
        <time>2012-02-05T15:18:58Z</time>
      </trkpt>
      <trkpt lat="43.58911" lon="3.28692">
        <ele>348.134644</ele>
        <time>2012-02-05T15:19:05Z</time>
      </trkpt>
      <trkpt lat="43.58894" lon="3.28691">
        <ele>348.615234</ele>
        <time>2012-02-05T15:19:14Z</time>
      </trkpt>
      <trkpt lat="43.58883" lon="3.28691">
        <ele>350.537842</ele>
        <time>2012-02-05T15:19:20Z</time>
      </trkpt>
      <trkpt lat="43.58879" lon="3.28691">
        <ele>351.499145</ele>
        <time>2012-02-05T15:19:22Z</time>
      </trkpt>
      <trkpt lat="43.58863" lon="3.28691">
        <ele>351.979858</ele>
        <time>2012-02-05T15:19:31Z</time>
      </trkpt>
      <trkpt lat="43.58846" lon="3.28698">
        <ele>353.421875</ele>
        <time>2012-02-05T15:19:41Z</time>
      </trkpt>
      <trkpt lat="43.58834" lon="3.287">
        <ele>355.344482</ele>
        <time>2012-02-05T15:19:48Z</time>
      </trkpt>
      <trkpt lat="43.58822" lon="3.28679">
        <ele>357.26709</ele>
        <time>2012-02-05T15:19:58Z</time>
      </trkpt>
      <trkpt lat="43.5881" lon="3.28663">
        <ele>357.747803</ele>
        <time>2012-02-05T15:20:06Z</time>
      </trkpt>
      <trkpt lat="43.58797" lon="3.28654">
        <ele>359.67041</ele>
        <time>2012-02-05T15:20:14Z</time>
      </trkpt>
      <trkpt lat="43.58778" lon="3.28645">
        <ele>361.112427</ele>
        <time>2012-02-05T15:20:25Z</time>
      </trkpt>
      <trkpt lat="43.58762" lon="3.28646">
        <ele>362.554321</ele>
        <time>2012-02-05T15:20:34Z</time>
      </trkpt>
      <trkpt lat="43.58746" lon="3.28644">
        <ele>364.476929</ele>
        <time>2012-02-05T15:20:43Z</time>
      </trkpt>
      <trkpt lat="43.58736" lon="3.28631">
        <ele>365.918945</ele>
        <time>2012-02-05T15:20:50Z</time>
      </trkpt>
      <trkpt lat="43.58726" lon="3.28616">
        <ele>366.880249</ele>
        <time>2012-02-05T15:20:59Z</time>
      </trkpt>
      <trkpt lat="43.58727" lon="3.28602">
        <ele>368.802978</ele>
        <time>2012-02-05T15:21:05Z</time>
      </trkpt>
      <trkpt lat="43.58731" lon="3.28582">
        <ele>370.725586</ele>
        <time>2012-02-05T15:21:13Z</time>
      </trkpt>
      <trkpt lat="43.58735" lon="3.28565">
        <ele>372.167481</ele>
        <time>2012-02-05T15:21:20Z</time>
      </trkpt>
      <trkpt lat="43.58738" lon="3.28563">
        <ele>372.167481</ele>
        <time>2012-02-05T15:21:23Z</time>
      </trkpt>
      <trkpt lat="43.5875" lon="3.28559">
        <ele>372.167481</ele>
        <time>2012-02-05T15:21:31Z</time>
      </trkpt>
      <trkpt lat="43.58764" lon="3.28552">
        <ele>373.128906</ele>
        <time>2012-02-05T15:21:39Z</time>
      </trkpt>
      <trkpt lat="43.58782" lon="3.28533">
        <ele>374.090088</ele>
        <time>2012-02-05T15:21:50Z</time>
      </trkpt>
      <trkpt lat="43.58797" lon="3.28511">
        <ele>376.012817</ele>
        <time>2012-02-05T15:22:01Z</time>
      </trkpt>
      <trkpt lat="43.58806" lon="3.28491">
        <ele>378.416138</ele>
        <time>2012-02-05T15:22:10Z</time>
      </trkpt>
      <trkpt lat="43.58812" lon="3.28467">
        <ele>380.338745</ele>
        <time>2012-02-05T15:22:20Z</time>
      </trkpt>
      <trkpt lat="43.58816" lon="3.28441">
        <ele>381.78064</ele>
        <time>2012-02-05T15:22:30Z</time>
      </trkpt>
      <trkpt lat="43.58809" lon="3.28431">
        <ele>384.184082</ele>
        <time>2012-02-05T15:22:36Z</time>
      </trkpt>
      <trkpt lat="43.58803" lon="3.28434">
        <ele>384.664795</ele>
        <time>2012-02-05T15:22:41Z</time>
      </trkpt>
      <trkpt lat="43.58802" lon="3.28434">
        <ele>384.664795</ele>
        <time>2012-02-05T15:22:42Z</time>
      </trkpt>
      <trkpt lat="43.58801" lon="3.28438">
        <ele>384.664795</ele>
        <time>2012-02-05T15:23:15Z</time>
      </trkpt>
      <trkpt lat="43.58794" lon="3.28446">
        <ele>385.145386</ele>
        <time>2012-02-05T15:23:20Z</time>
      </trkpt>
      <trkpt lat="43.58781" lon="3.28459">
        <ele>387.548584</ele>
        <time>2012-02-05T15:23:28Z</time>
      </trkpt>
      <trkpt lat="43.5877" lon="3.2847">
        <ele>388.51001</ele>
        <time>2012-02-05T15:23:36Z</time>
      </trkpt>
      <trkpt lat="43.58758" lon="3.2848">
        <ele>389.951904</ele>
        <time>2012-02-05T15:23:43Z</time>
      </trkpt>
      <trkpt lat="43.58743" lon="3.28492">
        <ele>389.471191</ele>
        <time>2012-02-05T15:23:51Z</time>
      </trkpt>
      <trkpt lat="43.58727" lon="3.28503">
        <ele>390.913208</ele>
        <time>2012-02-05T15:23:59Z</time>
      </trkpt>
      <trkpt lat="43.58711" lon="3.28516">
        <ele>391.393799</ele>
        <time>2012-02-05T15:24:07Z</time>
      </trkpt>
      <trkpt lat="43.58694" lon="3.28529">
        <ele>392.835938</ele>
        <time>2012-02-05T15:24:16Z</time>
      </trkpt>
      <trkpt lat="43.58674" lon="3.28542">
        <ele>394.277954</ele>
        <time>2012-02-05T15:24:26Z</time>
      </trkpt>
      <trkpt lat="43.58654" lon="3.2855">
        <ele>396.200561</ele>
        <time>2012-02-05T15:24:35Z</time>
      </trkpt>
      <trkpt lat="43.58634" lon="3.28558">
        <ele>397.161743</ele>
        <time>2012-02-05T15:24:44Z</time>
      </trkpt>
      <trkpt lat="43.58617" lon="3.28565">
        <ele>398.123169</ele>
        <time>2012-02-05T15:24:52Z</time>
      </trkpt>
      <trkpt lat="43.58599" lon="3.28571">
        <ele>398.60376</ele>
        <time>2012-02-05T15:25:00Z</time>
      </trkpt>
      <trkpt lat="43.58583" lon="3.28583">
        <ele>399.084351</ele>
        <time>2012-02-05T15:25:08Z</time>
      </trkpt>
      <trkpt lat="43.58569" lon="3.28604">
        <ele>401.00708</ele>
        <time>2012-02-05T15:25:17Z</time>
      </trkpt>
      <trkpt lat="43.58563" lon="3.28625">
        <ele>402.449097</ele>
        <time>2012-02-05T15:25:25Z</time>
      </trkpt>
      <trkpt lat="43.5856" lon="3.28647">
        <ele>403.4104</ele>
        <time>2012-02-05T15:25:33Z</time>
      </trkpt>
      <trkpt lat="43.58556" lon="3.28669">
        <ele>404.371704</ele>
        <time>2012-02-05T15:25:41Z</time>
      </trkpt>
      <trkpt lat="43.58549" lon="3.28692">
        <ele>405.333008</ele>
        <time>2012-02-05T15:25:49Z</time>
      </trkpt>
      <trkpt lat="43.58544" lon="3.28711">
        <ele>406.294311</ele>
        <time>2012-02-05T15:25:56Z</time>
      </trkpt>
      <trkpt lat="43.58539" lon="3.28732">
        <ele>407.255615</ele>
        <time>2012-02-05T15:26:03Z</time>
      </trkpt>
      <trkpt lat="43.58536" lon="3.28753">
        <ele>408.697632</ele>
        <time>2012-02-05T15:26:10Z</time>
      </trkpt>
      <trkpt lat="43.58536" lon="3.28777">
        <ele>409.659058</ele>
        <time>2012-02-05T15:26:17Z</time>
      </trkpt>
      <trkpt lat="43.58539" lon="3.28803">
        <ele>410.139648</ele>
        <time>2012-02-05T15:26:25Z</time>
      </trkpt>
      <trkpt lat="43.58543" lon="3.28829">
        <ele>410.620239</ele>
        <time>2012-02-05T15:26:33Z</time>
      </trkpt>
      <trkpt lat="43.58547" lon="3.28853">
        <ele>412.542847</ele>
        <time>2012-02-05T15:26:40Z</time>
      </trkpt>
      <trkpt lat="43.58549" lon="3.28877">
        <ele>413.02356</ele>
        <time>2012-02-05T15:26:47Z</time>
      </trkpt>
      <trkpt lat="43.5855" lon="3.28893">
        <ele>413.02356</ele>
        <time>2012-02-05T15:26:53Z</time>
      </trkpt>
      <trkpt lat="43.58548" lon="3.28914">
        <ele>413.984863</ele>
        <time>2012-02-05T15:26:59Z</time>
      </trkpt>
      <trkpt lat="43.58541" lon="3.28936">
        <ele>413.984863</ele>
        <time>2012-02-05T15:27:06Z</time>
      </trkpt>
      <trkpt lat="43.58534" lon="3.28961">
        <ele>414.465454</ele>
        <time>2012-02-05T15:27:14Z</time>
      </trkpt>
      <trkpt lat="43.58532" lon="3.28986">
        <ele>415.42688</ele>
        <time>2012-02-05T15:27:21Z</time>
      </trkpt>
      <trkpt lat="43.58529" lon="3.29008">
        <ele>417.349609</ele>
        <time>2012-02-05T15:27:29Z</time>
      </trkpt>
      <trkpt lat="43.58526" lon="3.29026">
        <ele>418.791504</ele>
        <time>2012-02-05T15:27:37Z</time>
      </trkpt>
      <trkpt lat="43.58528" lon="3.29042">
        <ele>420.714111</ele>
        <time>2012-02-05T15:27:44Z</time>
      </trkpt>
      <trkpt lat="43.58533" lon="3.29056">
        <ele>421.675415</ele>
        <time>2012-02-05T15:27:51Z</time>
      </trkpt>
      <trkpt lat="43.5854" lon="3.29069">
        <ele>423.117432</ele>
        <time>2012-02-05T15:27:58Z</time>
      </trkpt>
      <trkpt lat="43.58546" lon="3.29087">
        <ele>425.040161</ele>
        <time>2012-02-05T15:28:07Z</time>
      </trkpt>
      <trkpt lat="43.58551" lon="3.29106">
        <ele>427.92395</ele>
        <time>2012-02-05T15:28:17Z</time>
      </trkpt>
      <trkpt lat="43.58554" lon="3.29123">
        <ele>429.365967</ele>
        <time>2012-02-05T15:28:25Z</time>
      </trkpt>
      <trkpt lat="43.5856" lon="3.29143">
        <ele>430.32727</ele>
        <time>2012-02-05T15:28:35Z</time>
      </trkpt>
      <trkpt lat="43.58567" lon="3.29156">
        <ele>433.211304</ele>
        <time>2012-02-05T15:28:43Z</time>
      </trkpt>
      <trkpt lat="43.58575" lon="3.29175">
        <ele>436.095215</ele>
        <time>2012-02-05T15:28:53Z</time>
      </trkpt>
      <trkpt lat="43.58576" lon="3.29178">
        <ele>436.095215</ele>
        <time>2012-02-05T15:28:54Z</time>
      </trkpt>
      <trkpt lat="43.58576" lon="3.29195">
        <ele>437.056519</ele>
        <time>2012-02-05T15:29:02Z</time>
      </trkpt>
      <trkpt lat="43.58572" lon="3.29216">
        <ele>438.498535</ele>
        <time>2012-02-05T15:29:12Z</time>
      </trkpt>
      <trkpt lat="43.58567" lon="3.29232">
        <ele>439.94043</ele>
        <time>2012-02-05T15:29:20Z</time>
      </trkpt>
      <trkpt lat="43.58562" lon="3.29249">
        <ele>442.343872</ele>
        <time>2012-02-05T15:29:29Z</time>
      </trkpt>
      <trkpt lat="43.58552" lon="3.29269">
        <ele>444.74707</ele>
        <time>2012-02-05T15:29:40Z</time>
      </trkpt>
      <trkpt lat="43.58543" lon="3.29282">
        <ele>447.150269</ele>
        <time>2012-02-05T15:29:48Z</time>
      </trkpt>
      <trkpt lat="43.58535" lon="3.29297">
        <ele>449.072998</ele>
        <time>2012-02-05T15:29:56Z</time>
      </trkpt>
      <trkpt lat="43.58526" lon="3.29315">
        <ele>449.553711</ele>
        <time>2012-02-05T15:30:06Z</time>
      </trkpt>
      <trkpt lat="43.58515" lon="3.2933">
        <ele>451.476318</ele>
        <time>2012-02-05T15:30:15Z</time>
      </trkpt>
      <trkpt lat="43.58506" lon="3.29339">
        <ele>452.437622</ele>
        <time>2012-02-05T15:30:22Z</time>
      </trkpt>
      <trkpt lat="43.58498" lon="3.29344">
        <ele>453.398926</ele>
        <time>2012-02-05T15:30:27Z</time>
      </trkpt>
      <trkpt lat="43.5849" lon="3.29348">
        <ele>454.36023</ele>
        <time>2012-02-05T15:30:32Z</time>
      </trkpt>
      <trkpt lat="43.58479" lon="3.29356">
        <ele>455.321533</ele>
        <time>2012-02-05T15:30:39Z</time>
      </trkpt>
      <trkpt lat="43.58465" lon="3.29367">
        <ele>456.76355</ele>
        <time>2012-02-05T15:30:47Z</time>
      </trkpt>
      <trkpt lat="43.58461" lon="3.29383">
        <ele>457.244263</ele>
        <time>2012-02-05T15:30:53Z</time>
      </trkpt>
      <trkpt lat="43.58459" lon="3.294">
        <ele>458.205566</ele>
        <time>2012-02-05T15:30:59Z</time>
      </trkpt>
      <trkpt lat="43.58457" lon="3.29422">
        <ele>459.647583</ele>
        <time>2012-02-05T15:31:07Z</time>
      </trkpt>
      <trkpt lat="43.58454" lon="3.29441">
        <ele>460.128174</ele>
        <time>2012-02-05T15:31:14Z</time>
      </trkpt>
      <trkpt lat="43.5845" lon="3.2946">
        <ele>461.57019</ele>
        <time>2012-02-05T15:31:21Z</time>
      </trkpt>
      <trkpt lat="43.58446" lon="3.2948">
        <ele>463.012085</ele>
        <time>2012-02-05T15:31:29Z</time>
      </trkpt>
      <trkpt lat="43.58442" lon="3.29503">
        <ele>464.934815</ele>
        <time>2012-02-05T15:31:39Z</time>
      </trkpt>
      <trkpt lat="43.58442" lon="3.29523">
        <ele>465.415527</ele>
        <time>2012-02-05T15:31:47Z</time>
      </trkpt>
      <trkpt lat="43.58441" lon="3.29547">
        <ele>466.376709</ele>
        <time>2012-02-05T15:31:54Z</time>
      </trkpt>
      <trkpt lat="43.58441" lon="3.29578">
        <ele>466.857422</ele>
        <time>2012-02-05T15:32:01Z</time>
      </trkpt>
      <trkpt lat="43.58446" lon="3.29613">
        <ele>467.818726</ele>
        <time>2012-02-05T15:32:08Z</time>
      </trkpt>
      <trkpt lat="43.58447" lon="3.29645">
        <ele>468.780029</ele>
        <time>2012-02-05T15:32:15Z</time>
      </trkpt>
      <trkpt lat="43.58446" lon="3.29673">
        <ele>469.260742</ele>
        <time>2012-02-05T15:32:22Z</time>
      </trkpt>
      <trkpt lat="43.58453" lon="3.29702">
        <ele>469.260742</ele>
        <time>2012-02-05T15:32:29Z</time>
      </trkpt>
      <trkpt lat="43.58458" lon="3.29713">
        <ele>469.260742</ele>
        <time>2012-02-05T15:32:34Z</time>
      </trkpt>
      <trkpt lat="43.58459" lon="3.29712">
        <ele>469.260742</ele>
        <time>2012-02-05T15:32:38Z</time>
      </trkpt>
      <trkpt lat="43.58455" lon="3.29708">
        <ele>467.338135</ele>
        <time>2012-02-05T15:40:05Z</time>
      </trkpt>
      <trkpt lat="43.58455" lon="3.29709">
        <ele>467.338135</ele>
        <time>2012-02-05T15:40:06Z</time>
      </trkpt>
      <trkpt lat="43.58454" lon="3.2971">
        <ele>467.338135</ele>
        <time>2012-02-05T15:40:07Z</time>
      </trkpt>
      <trkpt lat="43.58456" lon="3.2971">
        <ele>467.338135</ele>
        <time>2012-02-05T15:40:19Z</time>
      </trkpt>
      <trkpt lat="43.58457" lon="3.29712">
        <ele>467.338135</ele>
        <time>2012-02-05T15:40:20Z</time>
      </trkpt>
      <trkpt lat="43.58465" lon="3.29717">
        <ele>467.338135</ele>
        <time>2012-02-05T15:40:27Z</time>
      </trkpt>
      <trkpt lat="43.58473" lon="3.2973">
        <ele>469.260742</ele>
        <time>2012-02-05T15:40:34Z</time>
      </trkpt>
      <trkpt lat="43.58479" lon="3.29739">
        <ele>469.741333</ele>
        <time>2012-02-05T15:40:39Z</time>
      </trkpt>
      <trkpt lat="43.5849" lon="3.29753">
        <ele>471.18335</ele>
        <time>2012-02-05T15:40:46Z</time>
      </trkpt>
      <trkpt lat="43.58502" lon="3.29768">
        <ele>472.144653</ele>
        <time>2012-02-05T15:40:52Z</time>
      </trkpt>
      <trkpt lat="43.58509" lon="3.2979">
        <ele>472.144653</ele>
        <time>2012-02-05T15:40:58Z</time>
      </trkpt>
      <trkpt lat="43.58511" lon="3.29797">
        <ele>472.625366</ele>
        <time>2012-02-05T15:41:00Z</time>
      </trkpt>
      <trkpt lat="43.58521" lon="3.29797">
        <ele>471.18335</ele>
        <time>2012-02-05T15:41:04Z</time>
      </trkpt>
      <trkpt lat="43.5853" lon="3.29791">
        <ele>469.260742</ele>
        <time>2012-02-05T15:41:06Z</time>
      </trkpt>
      <trkpt lat="43.58546" lon="3.29793">
        <ele>466.376709</ele>
        <time>2012-02-05T15:41:10Z</time>
      </trkpt>
      <trkpt lat="43.58553" lon="3.298">
        <ele>464.454102</ele>
        <time>2012-02-05T15:41:12Z</time>
      </trkpt>
      <trkpt lat="43.58559" lon="3.29801">
        <ele>463.492798</ele>
        <time>2012-02-05T15:41:14Z</time>
      </trkpt>
      <trkpt lat="43.58567" lon="3.29795">
        <ele>461.57019</ele>
        <time>2012-02-05T15:41:17Z</time>
      </trkpt>
      <trkpt lat="43.58572" lon="3.29798">
        <ele>460.608765</ele>
        <time>2012-02-05T15:41:19Z</time>
      </trkpt>
      <trkpt lat="43.58575" lon="3.29812">
        <ele>459.647583</ele>
        <time>2012-02-05T15:41:22Z</time>
      </trkpt>
      <trkpt lat="43.58577" lon="3.29819">
        <ele>458.686157</ele>
        <time>2012-02-05T15:41:23Z</time>
      </trkpt>
      <trkpt lat="43.58583" lon="3.29844">
        <ele>455.321533</ele>
        <time>2012-02-05T15:41:26Z</time>
      </trkpt>
      <trkpt lat="43.5859" lon="3.2988">
        <ele>455.321533</ele>
        <time>2012-02-05T15:41:29Z</time>
      </trkpt>
      <trkpt lat="43.58602" lon="3.29898">
        <ele>454.36023</ele>
        <time>2012-02-05T15:41:33Z</time>
      </trkpt>
      <trkpt lat="43.58606" lon="3.299">
        <ele>453.879639</ele>
        <time>2012-02-05T15:41:34Z</time>
      </trkpt>
      <trkpt lat="43.58616" lon="3.299">
        <ele>451.957031</ele>
        <time>2012-02-05T15:41:37Z</time>
      </trkpt>
      <trkpt lat="43.58621" lon="3.29901">
        <ele>451.476318</ele>
        <time>2012-02-05T15:41:40Z</time>
      </trkpt>
      <trkpt lat="43.58621" lon="3.29901">
        <ele>451.957031</ele>
        <time>2012-02-05T15:41:42Z</time>
      </trkpt>
      <trkpt lat="43.58621" lon="3.29901">
        <ele>451.476318</ele>
        <time>2012-02-05T15:42:07Z</time>
      </trkpt>
      <trkpt lat="43.58621" lon="3.29903">
        <ele>451.476318</ele>
        <time>2012-02-05T15:42:08Z</time>
      </trkpt>
      <trkpt lat="43.58623" lon="3.29921">
        <ele>451.957031</ele>
        <time>2012-02-05T15:42:15Z</time>
      </trkpt>
      <trkpt lat="43.58619" lon="3.2993">
        <ele>451.957031</ele>
        <time>2012-02-05T15:42:18Z</time>
      </trkpt>
      <trkpt lat="43.58608" lon="3.29931">
        <ele>452.918213</ele>
        <time>2012-02-05T15:42:23Z</time>
      </trkpt>
      <trkpt lat="43.58604" lon="3.2993">
        <ele>453.398926</ele>
        <time>2012-02-05T15:42:25Z</time>
      </trkpt>
      <trkpt lat="43.58596" lon="3.29937">
        <ele>455.321533</ele>
        <time>2012-02-05T15:42:30Z</time>
      </trkpt>
      <trkpt lat="43.58591" lon="3.29956">
        <ele>455.802246</ele>
        <time>2012-02-05T15:42:37Z</time>
      </trkpt>
      <trkpt lat="43.58583" lon="3.29978">
        <ele>455.802246</ele>
        <time>2012-02-05T15:42:44Z</time>
      </trkpt>
      <trkpt lat="43.58573" lon="3.30008">
        <ele>455.802246</ele>
        <time>2012-02-05T15:42:52Z</time>
      </trkpt>
      <trkpt lat="43.5856" lon="3.30042">
        <ele>455.321533</ele>
        <time>2012-02-05T15:42:59Z</time>
      </trkpt>
      <trkpt lat="43.58542" lon="3.30076">
        <ele>455.321533</ele>
        <time>2012-02-05T15:43:06Z</time>
      </trkpt>
      <trkpt lat="43.58532" lon="3.30093">
        <ele>454.84082</ele>
        <time>2012-02-05T15:43:10Z</time>
      </trkpt>
      <trkpt lat="43.5852" lon="3.30116">
        <ele>454.36023</ele>
        <time>2012-02-05T15:43:14Z</time>
      </trkpt>
      <trkpt lat="43.58491" lon="3.30156">
        <ele>453.879639</ele>
        <time>2012-02-05T15:43:22Z</time>
      </trkpt>
      <trkpt lat="43.58487" lon="3.30161">
        <ele>453.398926</ele>
        <time>2012-02-05T15:43:23Z</time>
      </trkpt>
      <trkpt lat="43.58473" lon="3.30185">
        <ele>452.437622</ele>
        <time>2012-02-05T15:43:27Z</time>
      </trkpt>
      <trkpt lat="43.58447" lon="3.30207">
        <ele>452.437622</ele>
        <time>2012-02-05T15:43:33Z</time>
      </trkpt>
      <trkpt lat="43.58415" lon="3.30222">
        <ele>452.918213</ele>
        <time>2012-02-05T15:43:40Z</time>
      </trkpt>
      <trkpt lat="43.58389" lon="3.30233">
        <ele>452.918213</ele>
        <time>2012-02-05T15:43:46Z</time>
      </trkpt>
      <trkpt lat="43.5837" lon="3.30236">
        <ele>452.437622</ele>
        <time>2012-02-05T15:43:50Z</time>
      </trkpt>
      <trkpt lat="43.58334" lon="3.30251">
        <ele>448.111816</ele>
        <time>2012-02-05T15:43:56Z</time>
      </trkpt>
      <trkpt lat="43.58328" lon="3.30254">
        <ele>447.150269</ele>
        <time>2012-02-05T15:43:57Z</time>
      </trkpt>
      <trkpt lat="43.58314" lon="3.30273">
        <ele>443.785767</ele>
        <time>2012-02-05T15:44:01Z</time>
      </trkpt>
      <trkpt lat="43.58306" lon="3.30291">
        <ele>442.343872</ele>
        <time>2012-02-05T15:44:04Z</time>
      </trkpt>
      <trkpt lat="43.58298" lon="3.30306">
        <ele>440.421265</ele>
        <time>2012-02-05T15:44:07Z</time>
      </trkpt>
      <trkpt lat="43.58299" lon="3.30321">
        <ele>438.979126</ele>
        <time>2012-02-05T15:44:09Z</time>
      </trkpt>
      <trkpt lat="43.58301" lon="3.30337">
        <ele>435.133911</ele>
        <time>2012-02-05T15:44:11Z</time>
      </trkpt>
      <trkpt lat="43.58302" lon="3.30377">
        <ele>434.65332</ele>
        <time>2012-02-05T15:44:15Z</time>
      </trkpt>
      <trkpt lat="43.58298" lon="3.30443">
        <ele>431.288574</ele>
        <time>2012-02-05T15:44:21Z</time>
      </trkpt>
      <trkpt lat="43.58303" lon="3.30488">
        <ele>431.769165</ele>
        <time>2012-02-05T15:44:26Z</time>
      </trkpt>
      <trkpt lat="43.58303" lon="3.30496">
        <ele>432.25</ele>
        <time>2012-02-05T15:44:27Z</time>
      </trkpt>
      <trkpt lat="43.58308" lon="3.30531">
        <ele>432.730713</ele>
        <time>2012-02-05T15:44:32Z</time>
      </trkpt>
      <trkpt lat="43.58308" lon="3.30566">
        <ele>434.172607</ele>
        <time>2012-02-05T15:44:37Z</time>
      </trkpt>
      <trkpt lat="43.58306" lon="3.30586">
        <ele>433.691894</ele>
        <time>2012-02-05T15:44:40Z</time>
      </trkpt>
      <trkpt lat="43.58297" lon="3.3061">
        <ele>433.211304</ele>
        <time>2012-02-05T15:44:44Z</time>
      </trkpt>
      <trkpt lat="43.58282" lon="3.30637">
        <ele>432.730713</ele>
        <time>2012-02-05T15:44:49Z</time>
      </trkpt>
      <trkpt lat="43.5827" lon="3.30666">
        <ele>430.807983</ele>
        <time>2012-02-05T15:44:53Z</time>
      </trkpt>
      <trkpt lat="43.58254" lon="3.30704">
        <ele>424.559448</ele>
        <time>2012-02-05T15:44:58Z</time>
      </trkpt>
      <trkpt lat="43.58227" lon="3.30735">
        <ele>419.752808</ele>
        <time>2012-02-05T15:45:03Z</time>
      </trkpt>
      <trkpt lat="43.5822" lon="3.30741">
        <ele>418.791504</ele>
        <time>2012-02-05T15:45:04Z</time>
      </trkpt>
      <trkpt lat="43.58192" lon="3.30756">
        <ele>412.062256</ele>
        <time>2012-02-05T15:45:08Z</time>
      </trkpt>
      <trkpt lat="43.5817" lon="3.30764">
        <ele>408.217041</ele>
        <time>2012-02-05T15:45:11Z</time>
      </trkpt>
      <trkpt lat="43.58155" lon="3.3077">
        <ele>404.852295</ele>
        <time>2012-02-05T15:45:13Z</time>
      </trkpt>
      <trkpt lat="43.5814" lon="3.30776">
        <ele>401.968506</ele>
        <time>2012-02-05T15:45:15Z</time>
      </trkpt>
      <trkpt lat="43.58129" lon="3.30781">
        <ele>398.60376</ele>
        <time>2012-02-05T15:45:17Z</time>
      </trkpt>
      <trkpt lat="43.58123" lon="3.30783">
        <ele>397.161743</ele>
        <time>2012-02-05T15:45:19Z</time>
      </trkpt>
      <trkpt lat="43.58119" lon="3.30772">
        <ele>396.200561</ele>
        <time>2012-02-05T15:45:23Z</time>
      </trkpt>
      <trkpt lat="43.58119" lon="3.30758">
        <ele>394.277954</ele>
        <time>2012-02-05T15:45:26Z</time>
      </trkpt>
      <trkpt lat="43.58115" lon="3.30754">
        <ele>393.797241</ele>
        <time>2012-02-05T15:45:29Z</time>
      </trkpt>
      <trkpt lat="43.58113" lon="3.30755">
        <ele>392.835938</ele>
        <time>2012-02-05T15:45:30Z</time>
      </trkpt>
      <trkpt lat="43.58085" lon="3.30765">
        <ele>388.51001</ele>
        <time>2012-02-05T15:45:35Z</time>
      </trkpt>
      <trkpt lat="43.58072" lon="3.30771">
        <ele>387.548584</ele>
        <time>2012-02-05T15:45:37Z</time>
      </trkpt>
      <trkpt lat="43.58047" lon="3.3079">
        <ele>386.10669</ele>
        <time>2012-02-05T15:45:41Z</time>
      </trkpt>
      <trkpt lat="43.58036" lon="3.30808">
        <ele>383.222656</ele>
        <time>2012-02-05T15:45:44Z</time>
      </trkpt>
      <trkpt lat="43.58015" lon="3.30829">
        <ele>378.416138</ele>
        <time>2012-02-05T15:45:48Z</time>
      </trkpt>
      <trkpt lat="43.58003" lon="3.30838">
        <ele>376.974243</ele>
        <time>2012-02-05T15:45:50Z</time>
      </trkpt>
      <trkpt lat="43.57983" lon="3.30865">
        <ele>372.648193</ele>
        <time>2012-02-05T15:45:54Z</time>
      </trkpt>
      <trkpt lat="43.57979" lon="3.30875">
        <ele>372.167481</ele>
        <time>2012-02-05T15:45:55Z</time>
      </trkpt>
      <trkpt lat="43.57965" lon="3.30912">
        <ele>370.244873</ele>
        <time>2012-02-05T15:45:59Z</time>
      </trkpt>
      <trkpt lat="43.5795" lon="3.30935">
        <ele>369.283691</ele>
        <time>2012-02-05T15:46:02Z</time>
      </trkpt>
      <trkpt lat="43.57943" lon="3.30949">
        <ele>368.802978</ele>
        <time>2012-02-05T15:46:04Z</time>
      </trkpt>
      <trkpt lat="43.57936" lon="3.30986">
        <ele>368.322266</ele>
        <time>2012-02-05T15:46:09Z</time>
      </trkpt>
      <trkpt lat="43.57935" lon="3.30993">
        <ele>368.322266</ele>
        <time>2012-02-05T15:46:10Z</time>
      </trkpt>
      <trkpt lat="43.57929" lon="3.31018">
        <ele>368.322266</ele>
        <time>2012-02-05T15:46:14Z</time>
      </trkpt>
      <trkpt lat="43.57921" lon="3.3107">
        <ele>368.802978</ele>
        <time>2012-02-05T15:46:21Z</time>
      </trkpt>
      <trkpt lat="43.57918" lon="3.3111">
        <ele>368.322266</ele>
        <time>2012-02-05T15:46:27Z</time>
      </trkpt>
      <trkpt lat="43.57917" lon="3.31116">
        <ele>368.802978</ele>
        <time>2012-02-05T15:46:28Z</time>
      </trkpt>
      <trkpt lat="43.57915" lon="3.31142">
        <ele>367.841553</ele>
        <time>2012-02-05T15:46:32Z</time>
      </trkpt>
      <trkpt lat="43.57915" lon="3.31157">
        <ele>367.360962</ele>
        <time>2012-02-05T15:46:34Z</time>
      </trkpt>
      <trkpt lat="43.57903" lon="3.31195">
        <ele>366.399536</ele>
        <time>2012-02-05T15:46:39Z</time>
      </trkpt>
      <trkpt lat="43.57896" lon="3.3121">
        <ele>365.438355</ele>
        <time>2012-02-05T15:46:41Z</time>
      </trkpt>
      <trkpt lat="43.57885" lon="3.31229">
        <ele>365.438355</ele>
        <time>2012-02-05T15:46:44Z</time>
      </trkpt>
      <trkpt lat="43.57856" lon="3.31267">
        <ele>365.438355</ele>
        <time>2012-02-05T15:46:51Z</time>
      </trkpt>
      <trkpt lat="43.57847" lon="3.31277">
        <ele>365.438355</ele>
        <time>2012-02-05T15:46:53Z</time>
      </trkpt>
      <trkpt lat="43.57824" lon="3.31304">
        <ele>362.554321</ele>
        <time>2012-02-05T15:46:58Z</time>
      </trkpt>
      <trkpt lat="43.57815" lon="3.31315">
        <ele>360.631714</ele>
        <time>2012-02-05T15:47:00Z</time>
      </trkpt>
      <trkpt lat="43.57807" lon="3.31336">
        <ele>360.151123</ele>
        <time>2012-02-05T15:47:03Z</time>
      </trkpt>
      <trkpt lat="43.57795" lon="3.31358">
        <ele>359.67041</ele>
        <time>2012-02-05T15:47:06Z</time>
      </trkpt>
      <trkpt lat="43.57774" lon="3.31379">
        <ele>357.747803</ele>
        <time>2012-02-05T15:47:10Z</time>
      </trkpt>
      <trkpt lat="43.57753" lon="3.31405">
        <ele>356.305786</ele>
        <time>2012-02-05T15:47:16Z</time>
      </trkpt>
      <trkpt lat="43.5775" lon="3.3141">
        <ele>356.786377</ele>
        <time>2012-02-05T15:47:17Z</time>
      </trkpt>
      <trkpt lat="43.5773" lon="3.31437">
        <ele>356.305786</ele>
        <time>2012-02-05T15:47:22Z</time>
      </trkpt>
      <trkpt lat="43.57723" lon="3.31448">
        <ele>355.825195</ele>
        <time>2012-02-05T15:47:24Z</time>
      </trkpt>
      <trkpt lat="43.57715" lon="3.31459">
        <ele>356.305786</ele>
        <time>2012-02-05T15:47:26Z</time>
      </trkpt>
      <trkpt lat="43.57693" lon="3.31473">
        <ele>357.26709</ele>
        <time>2012-02-05T15:47:31Z</time>
      </trkpt>
      <trkpt lat="43.57684" lon="3.31485">
        <ele>358.228394</ele>
        <time>2012-02-05T15:47:35Z</time>
      </trkpt>
      <trkpt lat="43.57675" lon="3.31502">
        <ele>358.708984</ele>
        <time>2012-02-05T15:47:41Z</time>
      </trkpt>
      <trkpt lat="43.57665" lon="3.31511">
        <ele>361.112427</ele>
        <time>2012-02-05T15:47:47Z</time>
      </trkpt>
      <trkpt lat="43.57657" lon="3.31514">
        <ele>361.112427</ele>
        <time>2012-02-05T15:47:51Z</time>
      </trkpt>
      <trkpt lat="43.57641" lon="3.31507">
        <ele>360.631714</ele>
        <time>2012-02-05T15:47:56Z</time>
      </trkpt>
      <trkpt lat="43.57621" lon="3.31508">
        <ele>359.189697</ele>
        <time>2012-02-05T15:48:00Z</time>
      </trkpt>
      <trkpt lat="43.57608" lon="3.31511">
        <ele>358.708984</ele>
        <time>2012-02-05T15:48:02Z</time>
      </trkpt>
      <trkpt lat="43.57576" lon="3.31529">
        <ele>358.228394</ele>
        <time>2012-02-05T15:48:08Z</time>
      </trkpt>
      <trkpt lat="43.57565" lon="3.31543">
        <ele>358.708984</ele>
        <time>2012-02-05T15:48:11Z</time>
      </trkpt>
      <trkpt lat="43.57541" lon="3.31576">
        <ele>357.26709</ele>
        <time>2012-02-05T15:48:17Z</time>
      </trkpt>
      <trkpt lat="43.57537" lon="3.31583">
        <ele>356.786377</ele>
        <time>2012-02-05T15:48:18Z</time>
      </trkpt>
      <trkpt lat="43.57519" lon="3.31626">
        <ele>355.344482</ele>
        <time>2012-02-05T15:48:23Z</time>
      </trkpt>
      <trkpt lat="43.57515" lon="3.31636">
        <ele>353.902588</ele>
        <time>2012-02-05T15:48:24Z</time>
      </trkpt>
      <trkpt lat="43.57496" lon="3.31695">
        <ele>350.057251</ele>
        <time>2012-02-05T15:48:30Z</time>
      </trkpt>
      <trkpt lat="43.57485" lon="3.31729">
        <ele>348.134644</ele>
        <time>2012-02-05T15:48:33Z</time>
      </trkpt>
      <trkpt lat="43.57478" lon="3.31752">
        <ele>345.731323</ele>
        <time>2012-02-05T15:48:35Z</time>
      </trkpt>
      <trkpt lat="43.57473" lon="3.31775">
        <ele>343.327881</ele>
        <time>2012-02-05T15:48:37Z</time>
      </trkpt>
      <trkpt lat="43.5747" lon="3.31785">
        <ele>341.885986</ele>
        <time>2012-02-05T15:48:38Z</time>
      </trkpt>
      <trkpt lat="43.57463" lon="3.31805">
        <ele>340.444092</ele>
        <time>2012-02-05T15:48:40Z</time>
      </trkpt>
      <trkpt lat="43.57451" lon="3.31832">
        <ele>336.118164</ele>
        <time>2012-02-05T15:48:44Z</time>
      </trkpt>
      <trkpt lat="43.5745" lon="3.31836">
        <ele>336.118164</ele>
        <time>2012-02-05T15:48:45Z</time>
      </trkpt>
      <trkpt lat="43.57446" lon="3.31852">
        <ele>335.637329</ele>
        <time>2012-02-05T15:48:49Z</time>
      </trkpt>
      <trkpt lat="43.57436" lon="3.31859">
        <ele>335.156738</ele>
        <time>2012-02-05T15:48:54Z</time>
      </trkpt>
      <trkpt lat="43.57436" lon="3.31859">
        <ele>335.156738</ele>
        <time>2012-02-05T15:48:55Z</time>
      </trkpt>
      <trkpt lat="43.57433" lon="3.31862">
        <ele>335.637329</ele>
        <time>2012-02-05T15:50:13Z</time>
      </trkpt>
      <trkpt lat="43.57438" lon="3.31871">
        <ele>333.234131</ele>
        <time>2012-02-05T15:50:16Z</time>
      </trkpt>
      <trkpt lat="43.57441" lon="3.3188">
        <ele>331.311523</ele>
        <time>2012-02-05T15:50:20Z</time>
      </trkpt>
      <trkpt lat="43.57449" lon="3.31895">
        <ele>327.946777</ele>
        <time>2012-02-05T15:50:24Z</time>
      </trkpt>
      <trkpt lat="43.57454" lon="3.31905">
        <ele>325.543579</ele>
        <time>2012-02-05T15:50:26Z</time>
      </trkpt>
      <trkpt lat="43.57466" lon="3.31944">
        <ele>321.217773</ele>
        <time>2012-02-05T15:50:32Z</time>
      </trkpt>
      <trkpt lat="43.57471" lon="3.31958">
        <ele>318.333618</ele>
        <time>2012-02-05T15:50:35Z</time>
      </trkpt>
      <trkpt lat="43.57479" lon="3.31987">
        <ele>314.969116</ele>
        <time>2012-02-05T15:50:40Z</time>
      </trkpt>
      <trkpt lat="43.57483" lon="3.32001">
        <ele>312.565796</ele>
        <time>2012-02-05T15:50:43Z</time>
      </trkpt>
      <trkpt lat="43.57486" lon="3.32011">
        <ele>311.123779</ele>
        <time>2012-02-05T15:50:45Z</time>
      </trkpt>
      <trkpt lat="43.57491" lon="3.32032">
        <ele>308.239868</ele>
        <time>2012-02-05T15:50:50Z</time>
      </trkpt>
      <trkpt lat="43.57498" lon="3.32052">
        <ele>305.355957</ele>
        <time>2012-02-05T15:50:56Z</time>
      </trkpt>
      <trkpt lat="43.57503" lon="3.32061">
        <ele>302.952515</ele>
        <time>2012-02-05T15:50:59Z</time>
      </trkpt>
      <trkpt lat="43.57513" lon="3.32076">
        <ele>299.588013</ele>
        <time>2012-02-05T15:51:04Z</time>
      </trkpt>
      <trkpt lat="43.57517" lon="3.32084">
        <ele>297.184692</ele>
        <time>2012-02-05T15:51:07Z</time>
      </trkpt>
      <trkpt lat="43.57518" lon="3.32087">
        <ele>296.704102</ele>
        <time>2012-02-05T15:51:10Z</time>
      </trkpt>
      <trkpt lat="43.57521" lon="3.32092">
        <ele>297.184692</ele>
        <time>2012-02-05T15:51:34Z</time>
      </trkpt>
      <trkpt lat="43.57523" lon="3.32104">
        <ele>296.223511</ele>
        <time>2012-02-05T15:51:37Z</time>
      </trkpt>
      <trkpt lat="43.57526" lon="3.32127">
        <ele>294.300781</ele>
        <time>2012-02-05T15:51:42Z</time>
      </trkpt>
      <trkpt lat="43.5753" lon="3.32135">
        <ele>290.936157</ele>
        <time>2012-02-05T15:51:45Z</time>
      </trkpt>
      <trkpt lat="43.57532" lon="3.32143">
        <ele>289.494141</ele>
        <time>2012-02-05T15:51:47Z</time>
      </trkpt>
      <trkpt lat="43.57533" lon="3.32157">
        <ele>287.09082</ele>
        <time>2012-02-05T15:51:52Z</time>
      </trkpt>
      <trkpt lat="43.57534" lon="3.32176">
        <ele>284.206909</ele>
        <time>2012-02-05T15:51:58Z</time>
      </trkpt>
      <trkpt lat="43.57533" lon="3.3218">
        <ele>284.687622</ele>
        <time>2012-02-05T15:52:01Z</time>
      </trkpt>
      <trkpt lat="43.57527" lon="3.32186">
        <ele>284.206909</ele>
        <time>2012-02-05T15:52:06Z</time>
      </trkpt>
      <trkpt lat="43.5752" lon="3.32208">
        <ele>282.284302</ele>
        <time>2012-02-05T15:52:13Z</time>
      </trkpt>
      <trkpt lat="43.57522" lon="3.32211">
        <ele>281.803589</ele>
        <time>2012-02-05T15:52:15Z</time>
      </trkpt>
      <trkpt lat="43.57532" lon="3.322">
        <ele>281.803589</ele>
        <time>2012-02-05T15:52:20Z</time>
      </trkpt>
      <trkpt lat="43.57547" lon="3.32185">
        <ele>279.880859</ele>
        <time>2012-02-05T15:52:25Z</time>
      </trkpt>
      <trkpt lat="43.5755" lon="3.32181">
        <ele>279.880859</ele>
        <time>2012-02-05T15:52:26Z</time>
      </trkpt>
      <trkpt lat="43.57568" lon="3.32157">
        <ele>277.477661</ele>
        <time>2012-02-05T15:52:32Z</time>
      </trkpt>
      <trkpt lat="43.57575" lon="3.32167">
        <ele>276.99707</ele>
        <time>2012-02-05T15:52:35Z</time>
      </trkpt>
      <trkpt lat="43.57583" lon="3.32185">
        <ele>276.516357</ele>
        <time>2012-02-05T15:52:39Z</time>
      </trkpt>
      <trkpt lat="43.57599" lon="3.32193">
        <ele>275.555054</ele>
        <time>2012-02-05T15:52:43Z</time>
      </trkpt>
      <trkpt lat="43.57604" lon="3.32192">
        <ele>275.074463</ele>
        <time>2012-02-05T15:52:44Z</time>
      </trkpt>
      <trkpt lat="43.57621" lon="3.32185">
        <ele>274.59375</ele>
        <time>2012-02-05T15:52:47Z</time>
      </trkpt>
      <trkpt lat="43.57651" lon="3.32162">
        <ele>271.709717</ele>
        <time>2012-02-05T15:52:52Z</time>
      </trkpt>
      <trkpt lat="43.57666" lon="3.32153">
        <ele>270.2677</ele>
        <time>2012-02-05T15:52:54Z</time>
      </trkpt>
      <trkpt lat="43.57704" lon="3.32137">
        <ele>267.383911</ele>
        <time>2012-02-05T15:52:59Z</time>
      </trkpt>
      <trkpt lat="43.57738" lon="3.32108">
        <ele>264.980591</ele>
        <time>2012-02-05T15:53:04Z</time>
      </trkpt>
      <trkpt lat="43.57748" lon="3.32096">
        <ele>264.499878</ele>
        <time>2012-02-05T15:53:06Z</time>
      </trkpt>
      <trkpt lat="43.57753" lon="3.321">
        <ele>262.577148</ele>
        <time>2012-02-05T15:53:09Z</time>
      </trkpt>
      <trkpt lat="43.57749" lon="3.32108">
        <ele>261.615967</ele>
        <time>2012-02-05T15:53:11Z</time>
      </trkpt>
      <trkpt lat="43.57726" lon="3.32139">
        <ele>259.212647</ele>
        <time>2012-02-05T15:53:17Z</time>
      </trkpt>
      <trkpt lat="43.57716" lon="3.3215">
        <ele>258.251343</ele>
        <time>2012-02-05T15:53:19Z</time>
      </trkpt>
      <trkpt lat="43.57695" lon="3.32177">
        <ele>255.848023</ele>
        <time>2012-02-05T15:53:23Z</time>
      </trkpt>
      <trkpt lat="43.5769" lon="3.32184">
        <ele>253.444702</ele>
        <time>2012-02-05T15:53:24Z</time>
      </trkpt>
      <trkpt lat="43.57687" lon="3.32207">
        <ele>252.963989</ele>
        <time>2012-02-05T15:53:27Z</time>
      </trkpt>
      <trkpt lat="43.57694" lon="3.32225">
        <ele>252.963989</ele>
        <time>2012-02-05T15:53:30Z</time>
      </trkpt>
      <trkpt lat="43.57692" lon="3.32236">
        <ele>253.444702</ele>
        <time>2012-02-05T15:53:32Z</time>
      </trkpt>
      <trkpt lat="43.57661" lon="3.32282">
        <ele>252.963989</ele>
        <time>2012-02-05T15:53:41Z</time>
      </trkpt>
      <trkpt lat="43.57627" lon="3.32323">
        <ele>251.041382</ele>
        <time>2012-02-05T15:53:49Z</time>
      </trkpt>
      <trkpt lat="43.57612" lon="3.32351">
        <ele>251.522095</ele>
        <time>2012-02-05T15:53:54Z</time>
      </trkpt>
      <trkpt lat="43.57599" lon="3.32362">
        <ele>252.483398</ele>
        <time>2012-02-05T15:53:58Z</time>
      </trkpt>
      <trkpt lat="43.57583" lon="3.32376">
        <ele>253.444702</ele>
        <time>2012-02-05T15:54:04Z</time>
      </trkpt>
      <trkpt lat="43.57568" lon="3.32396">
        <ele>254.886597</ele>
        <time>2012-02-05T15:54:12Z</time>
      </trkpt>
      <trkpt lat="43.57551" lon="3.32415">
        <ele>257.290039</ele>
        <time>2012-02-05T15:54:21Z</time>
      </trkpt>
      <trkpt lat="43.57536" lon="3.32429">
        <ele>258.731934</ele>
        <time>2012-02-05T15:54:29Z</time>
      </trkpt>
      <trkpt lat="43.57525" lon="3.32441">
        <ele>259.693359</ele>
        <time>2012-02-05T15:54:36Z</time>
      </trkpt>
      <trkpt lat="43.57513" lon="3.32454">
        <ele>262.096558</ele>
        <time>2012-02-05T15:54:45Z</time>
      </trkpt>
      <trkpt lat="43.5751" lon="3.32457">
        <ele>262.577148</ele>
        <time>2012-02-05T15:54:47Z</time>
      </trkpt>
      <trkpt lat="43.57497" lon="3.32469">
        <ele>264.980591</ele>
        <time>2012-02-05T15:54:57Z</time>
      </trkpt>
      <trkpt lat="43.57488" lon="3.32478">
        <ele>267.383911</ele>
        <time>2012-02-05T15:55:04Z</time>
      </trkpt>
      <trkpt lat="43.57473" lon="3.3249">
        <ele>268.345093</ele>
        <time>2012-02-05T15:55:14Z</time>
      </trkpt>
      <trkpt lat="43.57472" lon="3.32491">
        <ele>268.825806</ele>
        <time>2012-02-05T15:55:15Z</time>
      </trkpt>
      <trkpt lat="43.57475" lon="3.32498">
        <ele>270.2677</ele>
        <time>2012-02-05T15:55:20Z</time>
      </trkpt>
      <trkpt lat="43.57476" lon="3.32497">
        <ele>270.2677</ele>
        <time>2012-02-05T15:55:21Z</time>
      </trkpt>
      <trkpt lat="43.57497" lon="3.32483">
        <ele>270.748413</ele>
        <time>2012-02-05T15:55:33Z</time>
      </trkpt>
      <trkpt lat="43.57517" lon="3.32472">
        <ele>272.671143</ele>
        <time>2012-02-05T15:55:43Z</time>
      </trkpt>
      <trkpt lat="43.57533" lon="3.32464">
        <ele>274.113037</ele>
        <time>2012-02-05T15:55:51Z</time>
      </trkpt>
      <trkpt lat="43.57551" lon="3.3246">
        <ele>274.113037</ele>
        <time>2012-02-05T15:55:59Z</time>
      </trkpt>
      <trkpt lat="43.57575" lon="3.3245">
        <ele>276.035644</ele>
        <time>2012-02-05T15:56:10Z</time>
      </trkpt>
      <trkpt lat="43.57591" lon="3.32442">
        <ele>276.99707</ele>
        <time>2012-02-05T15:56:18Z</time>
      </trkpt>
      <trkpt lat="43.57605" lon="3.32438">
        <ele>277.958252</ele>
        <time>2012-02-05T15:56:25Z</time>
      </trkpt>
      <trkpt lat="43.5762" lon="3.32437">
        <ele>278.438965</ele>
        <time>2012-02-05T15:56:31Z</time>
      </trkpt>
      <trkpt lat="43.57633" lon="3.32442">
        <ele>279.880859</ele>
        <time>2012-02-05T15:56:37Z</time>
      </trkpt>
      <trkpt lat="43.57642" lon="3.32442">
        <ele>280.842407</ele>
        <time>2012-02-05T15:56:41Z</time>
      </trkpt>
      <trkpt lat="43.57654" lon="3.32429">
        <ele>280.842407</ele>
        <time>2012-02-05T15:56:47Z</time>
      </trkpt>
      <trkpt lat="43.57667" lon="3.32406">
        <ele>282.765015</ele>
        <time>2012-02-05T15:56:56Z</time>
      </trkpt>
      <trkpt lat="43.57683" lon="3.32382">
        <ele>284.206909</ele>
        <time>2012-02-05T15:57:06Z</time>
      </trkpt>
      <trkpt lat="43.57697" lon="3.32365">
        <ele>285.168213</ele>
        <time>2012-02-05T15:57:14Z</time>
      </trkpt>
      <trkpt lat="43.57711" lon="3.32349">
        <ele>286.129517</ele>
        <time>2012-02-05T15:57:22Z</time>
      </trkpt>
      <trkpt lat="43.57724" lon="3.32339">
        <ele>287.571411</ele>
        <time>2012-02-05T15:57:29Z</time>
      </trkpt>
      <trkpt lat="43.57742" lon="3.32326">
        <ele>288.532959</ele>
        <time>2012-02-05T15:57:38Z</time>
      </trkpt>
      <trkpt lat="43.57758" lon="3.32313">
        <ele>290.455566</ele>
        <time>2012-02-05T15:57:47Z</time>
      </trkpt>
      <trkpt lat="43.57774" lon="3.32305">
        <ele>292.858765</ele>
        <time>2012-02-05T15:57:55Z</time>
      </trkpt>
      <trkpt lat="43.5779" lon="3.32299">
        <ele>293.339356</ele>
        <time>2012-02-05T15:58:03Z</time>
      </trkpt>
      <trkpt lat="43.5781" lon="3.323">
        <ele>295.261963</ele>
        <time>2012-02-05T15:58:12Z</time>
      </trkpt>
      <trkpt lat="43.5783" lon="3.32308">
        <ele>298.146118</ele>
        <time>2012-02-05T15:58:21Z</time>
      </trkpt>
      <trkpt lat="43.57843" lon="3.32318">
        <ele>299.1073</ele>
        <time>2012-02-05T15:58:29Z</time>
      </trkpt>
      <trkpt lat="43.57855" lon="3.32327">
        <ele>300.068726</ele>
        <time>2012-02-05T15:58:35Z</time>
      </trkpt>
      <trkpt lat="43.57871" lon="3.32342">
        <ele>302.471924</ele>
        <time>2012-02-05T15:58:44Z</time>
      </trkpt>
      <trkpt lat="43.57883" lon="3.32342">
        <ele>303.433227</ele>
        <time>2012-02-05T15:58:49Z</time>
      </trkpt>
      <trkpt lat="43.57893" lon="3.32328">
        <ele>303.91394</ele>
        <time>2012-02-05T15:58:55Z</time>
      </trkpt>
      <trkpt lat="43.57893" lon="3.32316">
        <ele>303.91394</ele>
        <time>2012-02-05T15:58:59Z</time>
      </trkpt>
      <trkpt lat="43.57886" lon="3.32297">
        <ele>303.91394</ele>
        <time>2012-02-05T15:59:04Z</time>
      </trkpt>
      <trkpt lat="43.57886" lon="3.32273">
        <ele>303.91394</ele>
        <time>2012-02-05T15:59:09Z</time>
      </trkpt>
      <trkpt lat="43.57897" lon="3.32248">
        <ele>303.91394</ele>
        <time>2012-02-05T15:59:15Z</time>
      </trkpt>
      <trkpt lat="43.57913" lon="3.32225">
        <ele>303.91394</ele>
        <time>2012-02-05T15:59:21Z</time>
      </trkpt>
      <trkpt lat="43.57923" lon="3.32211">
        <ele>303.91394</ele>
        <time>2012-02-05T15:59:25Z</time>
      </trkpt>
      <trkpt lat="43.57922" lon="3.32195">
        <ele>303.91394</ele>
        <time>2012-02-05T15:59:28Z</time>
      </trkpt>
      <trkpt lat="43.57913" lon="3.32175">
        <ele>305.355957</ele>
        <time>2012-02-05T15:59:33Z</time>
      </trkpt>
      <trkpt lat="43.57912" lon="3.32172">
        <ele>305.83667</ele>
        <time>2012-02-05T15:59:34Z</time>
      </trkpt>
      <trkpt lat="43.57911" lon="3.32149">
        <ele>306.317261</ele>
        <time>2012-02-05T15:59:39Z</time>
      </trkpt>
      <trkpt lat="43.5792" lon="3.32127">
        <ele>306.797852</ele>
        <time>2012-02-05T15:59:44Z</time>
      </trkpt>
      <trkpt lat="43.57934" lon="3.32111">
        <ele>308.720459</ele>
        <time>2012-02-05T15:59:50Z</time>
      </trkpt>
      <trkpt lat="43.57951" lon="3.32089">
        <ele>309.681885</ele>
        <time>2012-02-05T15:59:58Z</time>
      </trkpt>
      <trkpt lat="43.57964" lon="3.32073">
        <ele>310.643066</ele>
        <time>2012-02-05T16:00:04Z</time>
      </trkpt>
      <trkpt lat="43.57975" lon="3.3206">
        <ele>311.604492</ele>
        <time>2012-02-05T16:00:10Z</time>
      </trkpt>
      <trkpt lat="43.57993" lon="3.32046">
        <ele>313.046509</ele>
        <time>2012-02-05T16:00:19Z</time>
      </trkpt>
      <trkpt lat="43.58008" lon="3.3203">
        <ele>314.969116</ele>
        <time>2012-02-05T16:00:27Z</time>
      </trkpt>
      <trkpt lat="43.58022" lon="3.32013">
        <ele>317.853027</ele>
        <time>2012-02-05T16:00:36Z</time>
      </trkpt>
      <trkpt lat="43.58024" lon="3.32011">
        <ele>317.853027</ele>
        <time>2012-02-05T16:00:37Z</time>
      </trkpt>
      <trkpt lat="43.58035" lon="3.32002">
        <ele>319.295044</ele>
        <time>2012-02-05T16:00:44Z</time>
      </trkpt>
      <trkpt lat="43.5805" lon="3.31998">
        <ele>322.178955</ele>
        <time>2012-02-05T16:00:53Z</time>
      </trkpt>
      <trkpt lat="43.58066" lon="3.32005">
        <ele>325.062988</ele>
        <time>2012-02-05T16:01:03Z</time>
      </trkpt>
      <trkpt lat="43.58081" lon="3.32011">
        <ele>326.504883</ele>
        <time>2012-02-05T16:01:14Z</time>
      </trkpt>
      <trkpt lat="43.58093" lon="3.32014">
        <ele>327.946777</ele>
        <time>2012-02-05T16:01:22Z</time>
      </trkpt>
      <trkpt lat="43.58111" lon="3.32014">
        <ele>329.869507</ele>
        <time>2012-02-05T16:01:33Z</time>
      </trkpt>
      <trkpt lat="43.58124" lon="3.32011">
        <ele>331.792114</ele>
        <time>2012-02-05T16:01:40Z</time>
      </trkpt>
      <trkpt lat="43.58137" lon="3.32006">
        <ele>333.234131</ele>
        <time>2012-02-05T16:01:48Z</time>
      </trkpt>
      <trkpt lat="43.58143" lon="3.32005">
        <ele>333.714722</ele>
        <time>2012-02-05T16:01:51Z</time>
      </trkpt>
      <trkpt lat="43.58142" lon="3.32012">
        <ele>334.676148</ele>
        <time>2012-02-05T16:01:56Z</time>
      </trkpt>
      <trkpt lat="43.58137" lon="3.32015">
        <ele>335.156738</ele>
        <time>2012-02-05T16:01:59Z</time>
      </trkpt>
      <trkpt lat="43.58126" lon="3.32022">
        <ele>336.118164</ele>
        <time>2012-02-05T16:02:06Z</time>
      </trkpt>
      <trkpt lat="43.58111" lon="3.32034">
        <ele>336.118164</ele>
        <time>2012-02-05T16:02:14Z</time>
      </trkpt>
      <trkpt lat="43.58094" lon="3.32043">
        <ele>336.598877</ele>
        <time>2012-02-05T16:02:22Z</time>
      </trkpt>
      <trkpt lat="43.5807" lon="3.32056">
        <ele>336.598877</ele>
        <time>2012-02-05T16:02:32Z</time>
      </trkpt>
      <trkpt lat="43.58054" lon="3.32072">
        <ele>337.560059</ele>
        <time>2012-02-05T16:02:39Z</time>
      </trkpt>
      <trkpt lat="43.58035" lon="3.32104">
        <ele>338.040772</ele>
        <time>2012-02-05T16:02:48Z</time>
      </trkpt>
      <trkpt lat="43.58021" lon="3.3214">
        <ele>339.002075</ele>
        <time>2012-02-05T16:02:57Z</time>
      </trkpt>
      <trkpt lat="43.58011" lon="3.32173">
        <ele>340.444092</ele>
        <time>2012-02-05T16:03:05Z</time>
      </trkpt>
      <trkpt lat="43.58005" lon="3.32208">
        <ele>341.885986</ele>
        <time>2012-02-05T16:03:13Z</time>
      </trkpt>
      <trkpt lat="43.57999" lon="3.32259">
        <ele>343.808594</ele>
        <time>2012-02-05T16:03:25Z</time>
      </trkpt>
      <trkpt lat="43.57993" lon="3.32283">
        <ele>345.25061</ele>
        <time>2012-02-05T16:03:32Z</time>
      </trkpt>
      <trkpt lat="43.57985" lon="3.32312">
        <ele>347.173218</ele>
        <time>2012-02-05T16:03:41Z</time>
      </trkpt>
      <trkpt lat="43.57981" lon="3.32343">
        <ele>349.095825</ele>
        <time>2012-02-05T16:03:51Z</time>
      </trkpt>
      <trkpt lat="43.57979" lon="3.32368">
        <ele>350.057251</ele>
        <time>2012-02-05T16:03:59Z</time>
      </trkpt>
      <trkpt lat="43.57979" lon="3.32386">
        <ele>353.421875</ele>
        <time>2012-02-05T16:04:06Z</time>
      </trkpt>
      <trkpt lat="43.57974" lon="3.32412">
        <ele>354.383179</ele>
        <time>2012-02-05T16:04:15Z</time>
      </trkpt>
      <trkpt lat="43.57969" lon="3.32427">
        <ele>355.825195</ele>
        <time>2012-02-05T16:04:22Z</time>
      </trkpt>
      <trkpt lat="43.57969" lon="3.32436">
        <ele>356.786377</ele>
        <time>2012-02-05T16:04:25Z</time>
      </trkpt>
      <trkpt lat="43.57971" lon="3.3244">
        <ele>358.228394</ele>
        <time>2012-02-05T16:04:28Z</time>
      </trkpt>
      <trkpt lat="43.57972" lon="3.3244">
        <ele>356.305786</ele>
        <time>2012-02-05T16:04:31Z</time>
      </trkpt>
      <trkpt lat="43.57971" lon="3.32439">
        <ele>357.26709</ele>
        <time>2012-02-05T16:07:51Z</time>
      </trkpt>
      <trkpt lat="43.5797" lon="3.32439">
        <ele>357.26709</ele>
        <time>2012-02-05T16:07:53Z</time>
      </trkpt>
      <trkpt lat="43.5797" lon="3.3244">
        <ele>357.26709</ele>
        <time>2012-02-05T16:08:11Z</time>
      </trkpt>
      <trkpt lat="43.57965" lon="3.32449">
        <ele>357.26709</ele>
        <time>2012-02-05T16:08:17Z</time>
      </trkpt>
      <trkpt lat="43.57963" lon="3.3245">
        <ele>357.26709</ele>
        <time>2012-02-05T16:08:18Z</time>
      </trkpt>
      <trkpt lat="43.57949" lon="3.32468">
        <ele>357.26709</ele>
        <time>2012-02-05T16:08:26Z</time>
      </trkpt>
      <trkpt lat="43.57929" lon="3.32491">
        <ele>356.305786</ele>
        <time>2012-02-05T16:08:34Z</time>
      </trkpt>
      <trkpt lat="43.57903" lon="3.32509">
        <ele>356.786377</ele>
        <time>2012-02-05T16:08:42Z</time>
      </trkpt>
      <trkpt lat="43.57877" lon="3.32519">
        <ele>356.786377</ele>
        <time>2012-02-05T16:08:49Z</time>
      </trkpt>
      <trkpt lat="43.57844" lon="3.32533">
        <ele>358.708984</ele>
        <time>2012-02-05T16:08:58Z</time>
      </trkpt>
      <trkpt lat="43.57819" lon="3.32548">
        <ele>359.67041</ele>
        <time>2012-02-05T16:09:05Z</time>
      </trkpt>
      <trkpt lat="43.57808" lon="3.3256">
        <ele>359.189697</ele>
        <time>2012-02-05T16:09:10Z</time>
      </trkpt>
      <trkpt lat="43.57804" lon="3.32563">
        <ele>359.189697</ele>
        <time>2012-02-05T16:09:11Z</time>
      </trkpt>
      <trkpt lat="43.57783" lon="3.3259">
        <ele>359.189697</ele>
        <time>2012-02-05T16:09:18Z</time>
      </trkpt>
      <trkpt lat="43.57775" lon="3.32606">
        <ele>357.747803</ele>
        <time>2012-02-05T16:09:22Z</time>
      </trkpt>
      <trkpt lat="43.5777" lon="3.3262">
        <ele>357.747803</ele>
        <time>2012-02-05T16:09:26Z</time>
      </trkpt>
      <trkpt lat="43.57757" lon="3.32642">
        <ele>357.747803</ele>
        <time>2012-02-05T16:09:30Z</time>
      </trkpt>
      <trkpt lat="43.57738" lon="3.3267">
        <ele>356.786377</ele>
        <time>2012-02-05T16:09:34Z</time>
      </trkpt>
      <trkpt lat="43.57722" lon="3.32682">
        <ele>355.825195</ele>
        <time>2012-02-05T16:09:37Z</time>
      </trkpt>
      <trkpt lat="43.57698" lon="3.32694">
        <ele>353.902588</ele>
        <time>2012-02-05T16:09:41Z</time>
      </trkpt>
      <trkpt lat="43.57684" lon="3.327">
        <ele>353.902588</ele>
        <time>2012-02-05T16:09:43Z</time>
      </trkpt>
      <trkpt lat="43.57642" lon="3.32727">
        <ele>349.095825</ele>
        <time>2012-02-05T16:09:50Z</time>
      </trkpt>
      <trkpt lat="43.57636" lon="3.3273">
        <ele>348.615234</ele>
        <time>2012-02-05T16:09:51Z</time>
      </trkpt>
      <trkpt lat="43.57623" lon="3.32737">
        <ele>346.692627</ele>
        <time>2012-02-05T16:09:54Z</time>
      </trkpt>
      <trkpt lat="43.57614" lon="3.32734">
        <ele>345.731323</ele>
        <time>2012-02-05T16:09:57Z</time>
      </trkpt>
      <trkpt lat="43.57606" lon="3.32716">
        <ele>344.289429</ele>
        <time>2012-02-05T16:10:01Z</time>
      </trkpt>
      <trkpt lat="43.57598" lon="3.32706">
        <ele>342.366699</ele>
        <time>2012-02-05T16:10:04Z</time>
      </trkpt>
      <trkpt lat="43.57585" lon="3.32722">
        <ele>339.482666</ele>
        <time>2012-02-05T16:10:08Z</time>
      </trkpt>
      <trkpt lat="43.57583" lon="3.32729">
        <ele>339.482666</ele>
        <time>2012-02-05T16:10:09Z</time>
      </trkpt>
      <trkpt lat="43.5758" lon="3.32752">
        <ele>336.598877</ele>
        <time>2012-02-05T16:10:12Z</time>
      </trkpt>
      <trkpt lat="43.57578" lon="3.32759">
        <ele>336.598877</ele>
        <time>2012-02-05T16:10:13Z</time>
      </trkpt>
      <trkpt lat="43.57556" lon="3.32791">
        <ele>332.75354</ele>
        <time>2012-02-05T16:10:19Z</time>
      </trkpt>
      <trkpt lat="43.57534" lon="3.32816">
        <ele>327.946777</ele>
        <time>2012-02-05T16:10:23Z</time>
      </trkpt>
      <trkpt lat="43.57528" lon="3.32822">
        <ele>327.466186</ele>
        <time>2012-02-05T16:10:24Z</time>
      </trkpt>
      <trkpt lat="43.57503" lon="3.32847">
        <ele>324.582275</ele>
        <time>2012-02-05T16:10:28Z</time>
      </trkpt>
      <trkpt lat="43.57498" lon="3.32852">
        <ele>324.101562</ele>
        <time>2012-02-05T16:10:29Z</time>
      </trkpt>
      <trkpt lat="43.5749" lon="3.32861">
        <ele>323.140381</ele>
        <time>2012-02-05T16:10:31Z</time>
      </trkpt>
      <trkpt lat="43.57477" lon="3.32876">
        <ele>321.217773</ele>
        <time>2012-02-05T16:10:34Z</time>
      </trkpt>
      <trkpt lat="43.57458" lon="3.32899">
        <ele>317.372436</ele>
        <time>2012-02-05T16:10:38Z</time>
      </trkpt>
      <trkpt lat="43.57448" lon="3.32908">
        <ele>314.969116</ele>
        <time>2012-02-05T16:10:40Z</time>
      </trkpt>
      <trkpt lat="43.57434" lon="3.32936">
        <ele>312.085205</ele>
        <time>2012-02-05T16:10:45Z</time>
      </trkpt>
      <trkpt lat="43.57425" lon="3.32956">
        <ele>310.162476</ele>
        <time>2012-02-05T16:10:48Z</time>
      </trkpt>
      <trkpt lat="43.57421" lon="3.32974">
        <ele>307.759277</ele>
        <time>2012-02-05T16:10:51Z</time>
      </trkpt>
      <trkpt lat="43.57419" lon="3.32978">
        <ele>306.317261</ele>
        <time>2012-02-05T16:10:52Z</time>
      </trkpt>
      <trkpt lat="43.57415" lon="3.32988">
        <ele>304.875244</ele>
        <time>2012-02-05T16:10:54Z</time>
      </trkpt>
      <trkpt lat="43.5741" lon="3.33005">
        <ele>301.51062</ele>
        <time>2012-02-05T16:10:58Z</time>
      </trkpt>
      <trkpt lat="43.57408" lon="3.33017">
        <ele>297.184692</ele>
        <time>2012-02-05T16:11:01Z</time>
      </trkpt>
      <trkpt lat="43.57402" lon="3.33033">
        <ele>294.300781</ele>
        <time>2012-02-05T16:11:04Z</time>
      </trkpt>
      <trkpt lat="43.57398" lon="3.33046">
        <ele>291.416748</ele>
        <time>2012-02-05T16:11:07Z</time>
      </trkpt>
      <trkpt lat="43.57388" lon="3.33066">
        <ele>288.052246</ele>
        <time>2012-02-05T16:11:11Z</time>
      </trkpt>
      <trkpt lat="43.57387" lon="3.33069">
        <ele>287.571411</ele>
        <time>2012-02-05T16:11:12Z</time>
      </trkpt>
      <trkpt lat="43.57381" lon="3.33071">
        <ele>286.129517</ele>
        <time>2012-02-05T16:11:16Z</time>
      </trkpt>
      <trkpt lat="43.57377" lon="3.3307">
        <ele>285.168213</ele>
        <time>2012-02-05T16:11:20Z</time>
      </trkpt>
      <trkpt lat="43.57375" lon="3.33075">
        <ele>283.726196</ele>
        <time>2012-02-05T16:11:23Z</time>
      </trkpt>
      <trkpt lat="43.57372" lon="3.33085">
        <ele>279.880859</ele>
        <time>2012-02-05T16:11:26Z</time>
      </trkpt>
      <trkpt lat="43.57367" lon="3.33104">
        <ele>277.958252</ele>
        <time>2012-02-05T16:11:30Z</time>
      </trkpt>
      <trkpt lat="43.57362" lon="3.33123">
        <ele>277.477661</ele>
        <time>2012-02-05T16:11:33Z</time>
      </trkpt>
      <trkpt lat="43.57353" lon="3.3314">
        <ele>275.074463</ele>
        <time>2012-02-05T16:11:37Z</time>
      </trkpt>
      <trkpt lat="43.57346" lon="3.33154">
        <ele>273.151856</ele>
        <time>2012-02-05T16:11:40Z</time>
      </trkpt>
      <trkpt lat="43.5733" lon="3.33175">
        <ele>269.306519</ele>
        <time>2012-02-05T16:11:43Z</time>
      </trkpt>
      <trkpt lat="43.57321" lon="3.33193">
        <ele>265.461304</ele>
        <time>2012-02-05T16:11:46Z</time>
      </trkpt>
      <trkpt lat="43.57314" lon="3.33208">
        <ele>260.654541</ele>
        <time>2012-02-05T16:11:48Z</time>
      </trkpt>
      <trkpt lat="43.57303" lon="3.33236">
        <ele>257.290039</ele>
        <time>2012-02-05T16:11:52Z</time>
      </trkpt>
      <trkpt lat="43.573" lon="3.33242">
        <ele>256.328735</ele>
        <time>2012-02-05T16:11:54Z</time>
      </trkpt>
      <trkpt lat="43.573" lon="3.33243">
        <ele>256.328735</ele>
        <time>2012-02-05T16:11:55Z</time>
      </trkpt>
      <trkpt lat="43.57299" lon="3.3326">
        <ele>254.406006</ele>
        <time>2012-02-05T16:12:00Z</time>
      </trkpt>
      <trkpt lat="43.57296" lon="3.33276">
        <ele>251.041382</ele>
        <time>2012-02-05T16:12:03Z</time>
      </trkpt>
      <trkpt lat="43.57293" lon="3.3329">
        <ele>250.0802</ele>
        <time>2012-02-05T16:12:05Z</time>
      </trkpt>
      <trkpt lat="43.57287" lon="3.33303">
        <ele>248.638184</ele>
        <time>2012-02-05T16:12:07Z</time>
      </trkpt>
      <trkpt lat="43.57279" lon="3.33317">
        <ele>246.234863</ele>
        <time>2012-02-05T16:12:09Z</time>
      </trkpt>
      <trkpt lat="43.57267" lon="3.33334">
        <ele>242.389648</ele>
        <time>2012-02-05T16:12:12Z</time>
      </trkpt>
      <trkpt lat="43.57264" lon="3.33337">
        <ele>242.389648</ele>
        <time>2012-02-05T16:12:13Z</time>
      </trkpt>
      <trkpt lat="43.57257" lon="3.33349">
        <ele>241.908936</ele>
        <time>2012-02-05T16:12:18Z</time>
      </trkpt>
      <trkpt lat="43.57256" lon="3.3335">
        <ele>241.428223</ele>
        <time>2012-02-05T16:12:19Z</time>
      </trkpt>
      <trkpt lat="43.57251" lon="3.33355">
        <ele>241.428223</ele>
        <time>2012-02-05T16:13:06Z</time>
      </trkpt>
      <trkpt lat="43.57241" lon="3.33362">
        <ele>238.544311</ele>
        <time>2012-02-05T16:13:09Z</time>
      </trkpt>
      <trkpt lat="43.57232" lon="3.33391">
        <ele>237.582886</ele>
        <time>2012-02-05T16:13:14Z</time>
      </trkpt>
      <trkpt lat="43.57228" lon="3.33427">
        <ele>236.621704</ele>
        <time>2012-02-05T16:13:18Z</time>
      </trkpt>
      <trkpt lat="43.57226" lon="3.33474">
        <ele>233.25708</ele>
        <time>2012-02-05T16:13:22Z</time>
      </trkpt>
      <trkpt lat="43.57216" lon="3.33512">
        <ele>230.373047</ele>
        <time>2012-02-05T16:13:25Z</time>
      </trkpt>
      <trkpt lat="43.5721" lon="3.33523">
        <ele>229.892334</ele>
        <time>2012-02-05T16:13:26Z</time>
      </trkpt>
      <trkpt lat="43.57186" lon="3.33569">
        <ele>227.008545</ele>
        <time>2012-02-05T16:13:30Z</time>
      </trkpt>
      <trkpt lat="43.57181" lon="3.33624">
        <ele>224.605225</ele>
        <time>2012-02-05T16:13:34Z</time>
      </trkpt>
      <trkpt lat="43.57184" lon="3.33638">
        <ele>222.682495</ele>
        <time>2012-02-05T16:13:35Z</time>
      </trkpt>
      <trkpt lat="43.57197" lon="3.33693">
        <ele>219.798584</ele>
        <time>2012-02-05T16:13:39Z</time>
      </trkpt>
      <trkpt lat="43.57223" lon="3.33757">
        <ele>217.395386</ele>
        <time>2012-02-05T16:13:44Z</time>
      </trkpt>
      <trkpt lat="43.57248" lon="3.33808">
        <ele>213.550049</ele>
        <time>2012-02-05T16:13:48Z</time>
      </trkpt>
      <trkpt lat="43.57265" lon="3.33847">
        <ele>211.627441</ele>
        <time>2012-02-05T16:13:51Z</time>
      </trkpt>
      <trkpt lat="43.57267" lon="3.33884">
        <ele>207.782105</ele>
        <time>2012-02-05T16:13:54Z</time>
      </trkpt>
      <trkpt lat="43.57258" lon="3.339">
        <ele>204.898071</ele>
        <time>2012-02-05T16:13:56Z</time>
      </trkpt>
      <trkpt lat="43.57242" lon="3.33904">
        <ele>203.93689</ele>
        <time>2012-02-05T16:13:59Z</time>
      </trkpt>
      <trkpt lat="43.57232" lon="3.33907">
        <ele>201.533569</ele>
        <time>2012-02-05T16:14:02Z</time>
      </trkpt>
      <trkpt lat="43.57229" lon="3.33909">
        <ele>202.014282</ele>
        <time>2012-02-05T16:14:03Z</time>
      </trkpt>
      <trkpt lat="43.57207" lon="3.33921">
        <ele>201.052856</ele>
        <time>2012-02-05T16:14:09Z</time>
      </trkpt>
      <trkpt lat="43.57178" lon="3.33932">
        <ele>202.975464</ele>
        <time>2012-02-05T16:14:17Z</time>
      </trkpt>
      <trkpt lat="43.5716" lon="3.33947">
        <ele>202.975464</ele>
        <time>2012-02-05T16:14:23Z</time>
      </trkpt>
      <trkpt lat="43.57142" lon="3.33947">
        <ele>203.93689</ele>
        <time>2012-02-05T16:14:28Z</time>
      </trkpt>
      <trkpt lat="43.57117" lon="3.3394">
        <ele>205.378784</ele>
        <time>2012-02-05T16:14:35Z</time>
      </trkpt>
      <trkpt lat="43.57105" lon="3.33945">
        <ele>206.340088</ele>
        <time>2012-02-05T16:14:38Z</time>
      </trkpt>
      <trkpt lat="43.57073" lon="3.33961">
        <ele>208.262817</ele>
        <time>2012-02-05T16:14:47Z</time>
      </trkpt>
      <trkpt lat="43.57053" lon="3.33976">
        <ele>209.224121</ele>
        <time>2012-02-05T16:14:54Z</time>
      </trkpt>
      <trkpt lat="43.57037" lon="3.33989">
        <ele>208.262817</ele>
        <time>2012-02-05T16:14:58Z</time>
      </trkpt>
      <trkpt lat="43.57021" lon="3.34016">
        <ele>206.820679</ele>
        <time>2012-02-05T16:15:03Z</time>
      </trkpt>
      <trkpt lat="43.57019" lon="3.34023">
        <ele>207.301392</ele>
        <time>2012-02-05T16:15:04Z</time>
      </trkpt>
      <trkpt lat="43.57007" lon="3.34056">
        <ele>209.704834</ele>
        <time>2012-02-05T16:15:11Z</time>
      </trkpt>
      <trkpt lat="43.57003" lon="3.34079">
        <ele>211.146728</ele>
        <time>2012-02-05T16:15:16Z</time>
      </trkpt>
      <trkpt lat="43.57002" lon="3.34108">
        <ele>210.666016</ele>
        <time>2012-02-05T16:15:22Z</time>
      </trkpt>
      <trkpt lat="43.56996" lon="3.34145">
        <ele>211.146728</ele>
        <time>2012-02-05T16:15:29Z</time>
      </trkpt>
      <trkpt lat="43.56995" lon="3.34169">
        <ele>210.185425</ele>
        <time>2012-02-05T16:15:33Z</time>
      </trkpt>
      <trkpt lat="43.56987" lon="3.34214">
        <ele>207.782105</ele>
        <time>2012-02-05T16:15:39Z</time>
      </trkpt>
      <trkpt lat="43.56986" lon="3.34222">
        <ele>208.262817</ele>
        <time>2012-02-05T16:15:40Z</time>
      </trkpt>
      <trkpt lat="43.56982" lon="3.34269">
        <ele>205.859497</ele>
        <time>2012-02-05T16:15:46Z</time>
      </trkpt>
      <trkpt lat="43.56978" lon="3.34286">
        <ele>202.014282</ele>
        <time>2012-02-05T16:15:48Z</time>
      </trkpt>
      <trkpt lat="43.56981" lon="3.34321">
        <ele>200.572266</ele>
        <time>2012-02-05T16:15:52Z</time>
      </trkpt>
      <trkpt lat="43.56984" lon="3.34327">
        <ele>201.533569</ele>
        <time>2012-02-05T16:15:53Z</time>
      </trkpt>
      <trkpt lat="43.56996" lon="3.3435">
        <ele>203.456177</ele>
        <time>2012-02-05T16:15:58Z</time>
      </trkpt>
      <trkpt lat="43.56998" lon="3.34368">
        <ele>204.898071</ele>
        <time>2012-02-05T16:16:03Z</time>
      </trkpt>
      <trkpt lat="43.56996" lon="3.34378">
        <ele>206.820679</ele>
        <time>2012-02-05T16:16:06Z</time>
      </trkpt>
      <trkpt lat="43.5699" lon="3.34404">
        <ele>209.224121</ele>
        <time>2012-02-05T16:16:13Z</time>
      </trkpt>
      <trkpt lat="43.56981" lon="3.34421">
        <ele>211.146728</ele>
        <time>2012-02-05T16:16:19Z</time>
      </trkpt>
      <trkpt lat="43.56968" lon="3.34427">
        <ele>212.588623</ele>
        <time>2012-02-05T16:16:25Z</time>
      </trkpt>
      <trkpt lat="43.56954" lon="3.34428">
        <ele>214.03064</ele>
        <time>2012-02-05T16:16:32Z</time>
      </trkpt>
      <trkpt lat="43.56946" lon="3.34438">
        <ele>214.511231</ele>
        <time>2012-02-05T16:16:37Z</time>
      </trkpt>
      <trkpt lat="43.56944" lon="3.34456">
        <ele>215.953247</ele>
        <time>2012-02-05T16:16:43Z</time>
      </trkpt>
      <trkpt lat="43.5694" lon="3.34482">
        <ele>215.953247</ele>
        <time>2012-02-05T16:16:50Z</time>
      </trkpt>
      <trkpt lat="43.56931" lon="3.34507">
        <ele>216.43396</ele>
        <time>2012-02-05T16:16:58Z</time>
      </trkpt>
      <trkpt lat="43.56926" lon="3.34532">
        <ele>218.356567</ele>
        <time>2012-02-05T16:17:06Z</time>
      </trkpt>
      <trkpt lat="43.56923" lon="3.34549">
        <ele>219.317993</ele>
        <time>2012-02-05T16:17:12Z</time>
      </trkpt>
      <trkpt lat="43.56921" lon="3.34567">
        <ele>219.317993</ele>
        <time>2012-02-05T16:17:18Z</time>
      </trkpt>
      <trkpt lat="43.56913" lon="3.34579">
        <ele>220.759888</ele>
        <time>2012-02-05T16:17:24Z</time>
      </trkpt>
      <trkpt lat="43.56913" lon="3.34581">
        <ele>220.759888</ele>
        <time>2012-02-05T16:17:25Z</time>
      </trkpt>
      <trkpt lat="43.56918" lon="3.34602">
        <ele>222.201782</ele>
        <time>2012-02-05T16:17:33Z</time>
      </trkpt>
      <trkpt lat="43.5692" lon="3.34619">
        <ele>222.682495</ele>
        <time>2012-02-05T16:17:39Z</time>
      </trkpt>
      <trkpt lat="43.56916" lon="3.34631">
        <ele>224.605225</ele>
        <time>2012-02-05T16:17:45Z</time>
      </trkpt>
      <trkpt lat="43.56918" lon="3.34639">
        <ele>226.527832</ele>
        <time>2012-02-05T16:17:49Z</time>
      </trkpt>
      <trkpt lat="43.56918" lon="3.34653">
        <ele>227.969727</ele>
        <time>2012-02-05T16:17:56Z</time>
      </trkpt>
      <trkpt lat="43.56924" lon="3.34673">
        <ele>230.373047</ele>
        <time>2012-02-05T16:18:06Z</time>
      </trkpt>
      <trkpt lat="43.56932" lon="3.34695">
        <ele>231.334351</ele>
        <time>2012-02-05T16:18:16Z</time>
      </trkpt>
      <trkpt lat="43.56933" lon="3.34703">
        <ele>233.25708</ele>
        <time>2012-02-05T16:18:19Z</time>
      </trkpt>
      <trkpt lat="43.56934" lon="3.34713">
        <ele>233.737671</ele>
        <time>2012-02-05T16:18:24Z</time>
      </trkpt>
      <trkpt lat="43.56938" lon="3.34725">
        <ele>233.737671</ele>
        <time>2012-02-05T16:18:29Z</time>
      </trkpt>
      <trkpt lat="43.56938" lon="3.34732">
        <ele>234.699097</ele>
        <time>2012-02-05T16:18:32Z</time>
      </trkpt>
      <trkpt lat="43.56939" lon="3.34751">
        <ele>234.699097</ele>
        <time>2012-02-05T16:18:38Z</time>
      </trkpt>
      <trkpt lat="43.56937" lon="3.34767">
        <ele>235.179688</ele>
        <time>2012-02-05T16:18:43Z</time>
      </trkpt>
      <trkpt lat="43.56935" lon="3.34784">
        <ele>235.660278</ele>
        <time>2012-02-05T16:18:48Z</time>
      </trkpt>
      <trkpt lat="43.56933" lon="3.3479">
        <ele>235.179688</ele>
        <time>2012-02-05T16:18:51Z</time>
      </trkpt>
      <trkpt lat="43.56934" lon="3.34792">
        <ele>235.179688</ele>
        <time>2012-02-05T16:18:56Z</time>
      </trkpt>
      <trkpt lat="43.56934" lon="3.34806">
        <ele>235.179688</ele>
        <time>2012-02-05T16:18:59Z</time>
      </trkpt>
      <trkpt lat="43.56934" lon="3.3483">
        <ele>234.218384</ele>
        <time>2012-02-05T16:19:03Z</time>
      </trkpt>
      <trkpt lat="43.56936" lon="3.34834">
        <ele>233.737671</ele>
        <time>2012-02-05T16:19:04Z</time>
      </trkpt>
      <trkpt lat="43.56939" lon="3.34854">
        <ele>233.25708</ele>
        <time>2012-02-05T16:19:09Z</time>
      </trkpt>
      <trkpt lat="43.5694" lon="3.3486">
        <ele>232.776489</ele>
        <time>2012-02-05T16:19:10Z</time>
      </trkpt>
      <trkpt lat="43.56944" lon="3.34877">
        <ele>233.25708</ele>
        <time>2012-02-05T16:19:13Z</time>
      </trkpt>
      <trkpt lat="43.56954" lon="3.34886">
        <ele>229.892334</ele>
        <time>2012-02-05T16:19:17Z</time>
      </trkpt>
      <trkpt lat="43.5696" lon="3.34898">
        <ele>228.450439</ele>
        <time>2012-02-05T16:19:20Z</time>
      </trkpt>
      <trkpt lat="43.56965" lon="3.34921">
        <ele>227.489136</ele>
        <time>2012-02-05T16:19:24Z</time>
      </trkpt>
      <trkpt lat="43.56966" lon="3.34932">
        <ele>227.489136</ele>
        <time>2012-02-05T16:19:26Z</time>
      </trkpt>
      <trkpt lat="43.56971" lon="3.34961">
        <ele>223.163208</ele>
        <time>2012-02-05T16:19:30Z</time>
      </trkpt>
      <trkpt lat="43.56973" lon="3.34993">
        <ele>218.356567</ele>
        <time>2012-02-05T16:19:34Z</time>
      </trkpt>
      <trkpt lat="43.56971" lon="3.35008">
        <ele>216.43396</ele>
        <time>2012-02-05T16:19:36Z</time>
      </trkpt>
      <trkpt lat="43.56964" lon="3.35041">
        <ele>212.108032</ele>
        <time>2012-02-05T16:19:40Z</time>
      </trkpt>
      <trkpt lat="43.56956" lon="3.35067">
        <ele>209.224121</ele>
        <time>2012-02-05T16:19:43Z</time>
      </trkpt>
      <trkpt lat="43.56953" lon="3.35087">
        <ele>203.456177</ele>
        <time>2012-02-05T16:19:46Z</time>
      </trkpt>
      <trkpt lat="43.56953" lon="3.35097">
        <ele>200.091675</ele>
        <time>2012-02-05T16:19:48Z</time>
      </trkpt>
      <trkpt lat="43.56956" lon="3.35102">
        <ele>199.130127</ele>
        <time>2012-02-05T16:19:49Z</time>
      </trkpt>
      <trkpt lat="43.56979" lon="3.35117">
        <ele>198.168945</ele>
        <time>2012-02-05T16:19:54Z</time>
      </trkpt>
      <trkpt lat="43.56991" lon="3.35117">
        <ele>197.207519</ele>
        <time>2012-02-05T16:19:57Z</time>
      </trkpt>
      <trkpt lat="43.57006" lon="3.35135">
        <ele>196.726929</ele>
        <time>2012-02-05T16:20:01Z</time>
      </trkpt>
      <trkpt lat="43.57019" lon="3.35156">
        <ele>195.284912</ele>
        <time>2012-02-05T16:20:04Z</time>
      </trkpt>
      <trkpt lat="43.57042" lon="3.35179">
        <ele>193.362305</ele>
        <time>2012-02-05T16:20:08Z</time>
      </trkpt>
      <trkpt lat="43.57054" lon="3.35189">
        <ele>192.401123</ele>
        <time>2012-02-05T16:20:10Z</time>
      </trkpt>
      <trkpt lat="43.57073" lon="3.35198">
        <ele>188.555786</ele>
        <time>2012-02-05T16:20:14Z</time>
      </trkpt>
      <trkpt lat="43.57095" lon="3.35213">
        <ele>183.268433</ele>
        <time>2012-02-05T16:20:19Z</time>
      </trkpt>
      <trkpt lat="43.57112" lon="3.3523">
        <ele>181.345825</ele>
        <time>2012-02-05T16:20:22Z</time>
      </trkpt>
      <trkpt lat="43.57124" lon="3.35241">
        <ele>180.865234</ele>
        <time>2012-02-05T16:20:24Z</time>
      </trkpt>
      <trkpt lat="43.57139" lon="3.35251">
        <ele>178.461914</ele>
        <time>2012-02-05T16:20:27Z</time>
      </trkpt>
      <trkpt lat="43.57148" lon="3.35263">
        <ele>176.539307</ele>
        <time>2012-02-05T16:20:30Z</time>
      </trkpt>
      <trkpt lat="43.57164" lon="3.35285">
        <ele>172.69397</ele>
        <time>2012-02-05T16:20:34Z</time>
      </trkpt>
      <trkpt lat="43.57167" lon="3.3529">
        <ele>172.69397</ele>
        <time>2012-02-05T16:20:35Z</time>
      </trkpt>
      <trkpt lat="43.57171" lon="3.35298">
        <ele>169.810059</ele>
        <time>2012-02-05T16:20:37Z</time>
      </trkpt>
      <trkpt lat="43.57175" lon="3.35308">
        <ele>168.368042</ele>
        <time>2012-02-05T16:20:40Z</time>
      </trkpt>
      <trkpt lat="43.57179" lon="3.35321">
        <ele>166.926025</ele>
        <time>2012-02-05T16:20:43Z</time>
      </trkpt>
      <trkpt lat="43.57185" lon="3.35331">
        <ele>165.964722</ele>
        <time>2012-02-05T16:20:47Z</time>
      </trkpt>
      <trkpt lat="43.57197" lon="3.35348">
        <ele>161.638916</ele>
        <time>2012-02-05T16:20:51Z</time>
      </trkpt>
      <trkpt lat="43.57207" lon="3.3537">
        <ele>158.754761</ele>
        <time>2012-02-05T16:20:55Z</time>
      </trkpt>
      <trkpt lat="43.57209" lon="3.35377">
        <ele>157.793579</ele>
        <time>2012-02-05T16:20:56Z</time>
      </trkpt>
      <trkpt lat="43.57217" lon="3.35394">
        <ele>156.351562</ele>
        <time>2012-02-05T16:20:58Z</time>
      </trkpt>
      <trkpt lat="43.57222" lon="3.35422">
        <ele>153.948364</ele>
        <time>2012-02-05T16:21:02Z</time>
      </trkpt>
      <trkpt lat="43.57225" lon="3.35426">
        <ele>153.948364</ele>
        <time>2012-02-05T16:21:05Z</time>
      </trkpt>
      <trkpt lat="43.57226" lon="3.35427">
        <ele>153.948364</ele>
        <time>2012-02-05T16:21:06Z</time>
      </trkpt>
      <trkpt lat="43.57237" lon="3.35434">
        <ele>152.506348</ele>
        <time>2012-02-05T16:21:10Z</time>
      </trkpt>
      <trkpt lat="43.57263" lon="3.35455">
        <ele>149.622314</ele>
        <time>2012-02-05T16:21:14Z</time>
      </trkpt>
      <trkpt lat="43.57301" lon="3.35466">
        <ele>147.218994</ele>
        <time>2012-02-05T16:21:19Z</time>
      </trkpt>
      <trkpt lat="43.57315" lon="3.3547">
        <ele>146.257812</ele>
        <time>2012-02-05T16:21:21Z</time>
      </trkpt>
      <trkpt lat="43.57329" lon="3.35473">
        <ele>145.7771</ele>
        <time>2012-02-05T16:21:23Z</time>
      </trkpt>
      <trkpt lat="43.57343" lon="3.35473">
        <ele>142.893066</ele>
        <time>2012-02-05T16:21:25Z</time>
      </trkpt>
      <trkpt lat="43.57351" lon="3.35473">
        <ele>141.931763</ele>
        <time>2012-02-05T16:21:26Z</time>
      </trkpt>
      <trkpt lat="43.57365" lon="3.35476">
        <ele>140.970459</ele>
        <time>2012-02-05T16:21:28Z</time>
      </trkpt>
      <trkpt lat="43.57384" lon="3.35479">
        <ele>138.086548</ele>
        <time>2012-02-05T16:21:31Z</time>
      </trkpt>
      <trkpt lat="43.57396" lon="3.35482">
        <ele>135.683106</ele>
        <time>2012-02-05T16:21:33Z</time>
      </trkpt>
      <trkpt lat="43.57413" lon="3.35493">
        <ele>133.279907</ele>
        <time>2012-02-05T16:21:36Z</time>
      </trkpt>
      <trkpt lat="43.57436" lon="3.35508">
        <ele>128.954102</ele>
        <time>2012-02-05T16:21:41Z</time>
      </trkpt>
      <trkpt lat="43.57439" lon="3.35512">
        <ele>127.992554</ele>
        <time>2012-02-05T16:21:42Z</time>
      </trkpt>
      <trkpt lat="43.57454" lon="3.35533">
        <ele>124.147339</ele>
        <time>2012-02-05T16:21:47Z</time>
      </trkpt>
      <trkpt lat="43.57457" lon="3.35539">
        <ele>123.186157</ele>
        <time>2012-02-05T16:21:48Z</time>
      </trkpt>
      <trkpt lat="43.57463" lon="3.35548">
        <ele>121.744141</ele>
        <time>2012-02-05T16:21:52Z</time>
      </trkpt>
      <trkpt lat="43.57463" lon="3.35548">
        <ele>121.26355</ele>
        <time>2012-02-05T16:21:53Z</time>
      </trkpt>
      <trkpt lat="43.57463" lon="3.35548">
        <ele>121.26355</ele>
        <time>2012-02-05T16:21:58Z</time>
      </trkpt>
      <trkpt lat="43.57475" lon="3.35561">
        <ele>118.379395</ele>
        <time>2012-02-05T16:22:02Z</time>
      </trkpt>
      <trkpt lat="43.57481" lon="3.35568">
        <ele>116.456787</ele>
        <time>2012-02-05T16:22:05Z</time>
      </trkpt>
      <trkpt lat="43.57484" lon="3.35567">
        <ele>116.456787</ele>
        <time>2012-02-05T16:22:06Z</time>
      </trkpt>
      <trkpt lat="43.57492" lon="3.35567">
        <ele>115.014893</ele>
        <time>2012-02-05T16:22:10Z</time>
      </trkpt>
      <trkpt lat="43.57493" lon="3.35568">
        <ele>114.53418</ele>
        <time>2012-02-05T16:22:12Z</time>
      </trkpt>
      <trkpt lat="43.57493" lon="3.35566">
        <ele>114.053589</ele>
        <time>2012-02-05T16:22:38Z</time>
      </trkpt>
      <trkpt lat="43.57501" lon="3.35582">
        <ele>112.611572</ele>
        <time>2012-02-05T16:22:41Z</time>
      </trkpt>
      <trkpt lat="43.57505" lon="3.35607">
        <ele>110.208252</ele>
        <time>2012-02-05T16:22:45Z</time>
      </trkpt>
      <trkpt lat="43.57505" lon="3.35612">
        <ele>109.727661</ele>
        <time>2012-02-05T16:22:46Z</time>
      </trkpt>
      <trkpt lat="43.57504" lon="3.35622">
        <ele>107.805054</ele>
        <time>2012-02-05T16:22:49Z</time>
      </trkpt>
      <trkpt lat="43.57507" lon="3.35632">
        <ele>107.805054</ele>
        <time>2012-02-05T16:22:55Z</time>
      </trkpt>
      <trkpt lat="43.57515" lon="3.35645">
        <ele>109.727661</ele>
        <time>2012-02-05T16:23:01Z</time>
      </trkpt>
      <trkpt lat="43.57527" lon="3.35661">
        <ele>110.208252</ele>
        <time>2012-02-05T16:23:08Z</time>
      </trkpt>
      <trkpt lat="43.57537" lon="3.35668">
        <ele>109.246948</ele>
        <time>2012-02-05T16:23:12Z</time>
      </trkpt>
      <trkpt lat="43.57541" lon="3.3567">
        <ele>108.766235</ele>
        <time>2012-02-05T16:23:13Z</time>
      </trkpt>
      <trkpt lat="43.57556" lon="3.35691">
        <ele>108.285645</ele>
        <time>2012-02-05T16:23:18Z</time>
      </trkpt>
      <trkpt lat="43.57566" lon="3.35719">
        <ele>110.688843</ele>
        <time>2012-02-05T16:23:25Z</time>
      </trkpt>
      <trkpt lat="43.57569" lon="3.35726">
        <ele>111.169556</ele>
        <time>2012-02-05T16:23:27Z</time>
      </trkpt>
      <trkpt lat="43.57584" lon="3.35755">
        <ele>112.130981</ele>
        <time>2012-02-05T16:23:34Z</time>
      </trkpt>
      <trkpt lat="43.57591" lon="3.35776">
        <ele>113.092285</ele>
        <time>2012-02-05T16:23:40Z</time>
      </trkpt>
      <trkpt lat="43.57597" lon="3.35793">
        <ele>113.092285</ele>
        <time>2012-02-05T16:23:47Z</time>
      </trkpt>
      <trkpt lat="43.576" lon="3.35816">
        <ele>113.092285</ele>
        <time>2012-02-05T16:23:55Z</time>
      </trkpt>
      <trkpt lat="43.57601" lon="3.35843">
        <ele>112.611572</ele>
        <time>2012-02-05T16:24:02Z</time>
      </trkpt>
      <trkpt lat="43.57603" lon="3.35882">
        <ele>111.650269</ele>
        <time>2012-02-05T16:24:10Z</time>
      </trkpt>
      <trkpt lat="43.57609" lon="3.35923">
        <ele>110.208252</ele>
        <time>2012-02-05T16:24:17Z</time>
      </trkpt>
      <trkpt lat="43.57612" lon="3.35957">
        <ele>110.208252</ele>
        <time>2012-02-05T16:24:23Z</time>
      </trkpt>
      <trkpt lat="43.57617" lon="3.35972">
        <ele>110.208252</ele>
        <time>2012-02-05T16:24:27Z</time>
      </trkpt>
      <trkpt lat="43.57632" lon="3.36012">
        <ele>110.688843</ele>
        <time>2012-02-05T16:24:36Z</time>
      </trkpt>
      <trkpt lat="43.57646" lon="3.36048">
        <ele>110.688843</ele>
        <time>2012-02-05T16:24:44Z</time>
      </trkpt>
      <trkpt lat="43.57656" lon="3.3608">
        <ele>110.688843</ele>
        <time>2012-02-05T16:24:51Z</time>
      </trkpt>
      <trkpt lat="43.57666" lon="3.36112">
        <ele>110.688843</ele>
        <time>2012-02-05T16:24:59Z</time>
      </trkpt>
      <trkpt lat="43.57672" lon="3.36146">
        <ele>110.208252</ele>
        <time>2012-02-05T16:25:07Z</time>
      </trkpt>
      <trkpt lat="43.57675" lon="3.3618">
        <ele>110.688843</ele>
        <time>2012-02-05T16:25:15Z</time>
      </trkpt>
      <trkpt lat="43.57667" lon="3.36194">
        <ele>110.208252</ele>
        <time>2012-02-05T16:25:19Z</time>
      </trkpt>
      <trkpt lat="43.57664" lon="3.36197">
        <ele>109.727661</ele>
        <time>2012-02-05T16:25:20Z</time>
      </trkpt>
      <trkpt lat="43.5764" lon="3.3622">
        <ele>107.805054</ele>
        <time>2012-02-05T16:25:26Z</time>
      </trkpt>
      <trkpt lat="43.57617" lon="3.36246">
        <ele>105.882446</ele>
        <time>2012-02-05T16:25:31Z</time>
      </trkpt>
      <trkpt lat="43.57595" lon="3.3627">
        <ele>105.401733</ele>
        <time>2012-02-05T16:25:35Z</time>
      </trkpt>
      <trkpt lat="43.57582" lon="3.36312">
        <ele>102.998291</ele>
        <time>2012-02-05T16:25:39Z</time>
      </trkpt>
      <trkpt lat="43.5758" lon="3.36343">
        <ele>101.075684</ele>
        <time>2012-02-05T16:25:42Z</time>
      </trkpt>
      <trkpt lat="43.57578" lon="3.36373">
        <ele>99.153076</ele>
        <time>2012-02-05T16:25:46Z</time>
      </trkpt>
      <trkpt lat="43.57571" lon="3.36378">
        <ele>98.672485</ele>
        <time>2012-02-05T16:25:50Z</time>
      </trkpt>
      <trkpt lat="43.57544" lon="3.36371">
        <ele>97.711182</ele>
        <time>2012-02-05T16:25:57Z</time>
      </trkpt>
      <trkpt lat="43.57518" lon="3.36365">
        <ele>97.230469</ele>
        <time>2012-02-05T16:26:03Z</time>
      </trkpt>
      <trkpt lat="43.57472" lon="3.36357">
        <ele>96.749878</ele>
        <time>2012-02-05T16:26:13Z</time>
      </trkpt>
      <trkpt lat="43.57445" lon="3.36353">
        <ele>96.749878</ele>
        <time>2012-02-05T16:26:19Z</time>
      </trkpt>
      <trkpt lat="43.57424" lon="3.36353">
        <ele>96.269287</ele>
        <time>2012-02-05T16:26:24Z</time>
      </trkpt>
      <trkpt lat="43.57388" lon="3.36365">
        <ele>95.307739</ele>
        <time>2012-02-05T16:26:33Z</time>
      </trkpt>
      <trkpt lat="43.57358" lon="3.3637">
        <ele>95.307739</ele>
        <time>2012-02-05T16:26:41Z</time>
      </trkpt>
      <trkpt lat="43.57331" lon="3.36362">
        <ele>95.307739</ele>
        <time>2012-02-05T16:26:48Z</time>
      </trkpt>
      <trkpt lat="43.57294" lon="3.36354">
        <ele>95.307739</ele>
        <time>2012-02-05T16:26:57Z</time>
      </trkpt>
      <trkpt lat="43.5727" lon="3.3635">
        <ele>95.307739</ele>
        <time>2012-02-05T16:27:04Z</time>
      </trkpt>
      <trkpt lat="43.57256" lon="3.36355">
        <ele>95.307739</ele>
        <time>2012-02-05T16:27:11Z</time>
      </trkpt>
    </trkseg>
  </trk>
</gpx>